<?xml version="1.0" encoding="UTF-8" standalone="no" ?>
<gpx xmlns="http://www.topografix.com/GPX/1/1" xmlns:xsi="http://www.w3.org/2001/XMLSchema-instance" xsi:schemaLocation="http://www.topografix.com/GPX/1/1 http://www.topografix.com/GPX/1/1/gpx.xsd" version="1.1" creator="VisuGPX - https://www.visugpx.com">
  <metadata>
    <name>rando villeveque</name>
    <desc><![CDATA[rando vtt villeveque]]></desc>
  </metadata>
  <trk>
    <name><![CDATA[Mountain Biking 3/25/12 9:22 am]]></name>
    <trkseg>
      <trkpt lat="47.56256" lon="-0.42285">
        <ele>20</ele>
        <time>2012-03-25T04:22:50Z</time>
      </trkpt>
      <trkpt lat="47.56256" lon="-0.42285">
        <ele>20</ele>
        <time>2012-03-25T04:22:51Z</time>
      </trkpt>
      <trkpt lat="47.56251" lon="-0.42273">
        <ele>20.4</ele>
        <time>2012-03-25T04:23:41Z</time>
      </trkpt>
      <trkpt lat="47.56242" lon="-0.42269">
        <ele>20.7</ele>
        <time>2012-03-25T04:23:59Z</time>
      </trkpt>
      <trkpt lat="47.56233" lon="-0.42266">
        <ele>20.9</ele>
        <time>2012-03-25T04:24:05Z</time>
      </trkpt>
      <trkpt lat="47.56224" lon="-0.42263">
        <ele>20.9</ele>
        <time>2012-03-25T04:24:12Z</time>
      </trkpt>
      <trkpt lat="47.56216" lon="-0.42253">
        <ele>21</ele>
        <time>2012-03-25T04:24:18Z</time>
      </trkpt>
      <trkpt lat="47.56212" lon="-0.42238">
        <ele>21.1</ele>
        <time>2012-03-25T04:24:23Z</time>
      </trkpt>
      <trkpt lat="47.56206" lon="-0.42224">
        <ele>21.2</ele>
        <time>2012-03-25T04:24:27Z</time>
      </trkpt>
      <trkpt lat="47.56202" lon="-0.42212">
        <ele>21.3</ele>
        <time>2012-03-25T04:24:30Z</time>
      </trkpt>
      <trkpt lat="47.56196" lon="-0.42199">
        <ele>21.4</ele>
        <time>2012-03-25T04:24:34Z</time>
      </trkpt>
      <trkpt lat="47.56191" lon="-0.42184">
        <ele>21.3</ele>
        <time>2012-03-25T04:24:38Z</time>
      </trkpt>
      <trkpt lat="47.56186" lon="-0.42171">
        <ele>21.2</ele>
        <time>2012-03-25T04:24:42Z</time>
      </trkpt>
      <trkpt lat="47.56181" lon="-0.4216">
        <ele>20.8</ele>
        <time>2012-03-25T04:24:45Z</time>
      </trkpt>
      <trkpt lat="47.56176" lon="-0.42148">
        <ele>20.5</ele>
        <time>2012-03-25T04:24:48Z</time>
      </trkpt>
      <trkpt lat="47.5617" lon="-0.42134">
        <ele>20.1</ele>
        <time>2012-03-25T04:24:52Z</time>
      </trkpt>
      <trkpt lat="47.56164" lon="-0.42119">
        <ele>19.9</ele>
        <time>2012-03-25T04:24:56Z</time>
      </trkpt>
      <trkpt lat="47.56159" lon="-0.42106">
        <ele>19.7</ele>
        <time>2012-03-25T04:25:00Z</time>
      </trkpt>
      <trkpt lat="47.56162" lon="-0.42093">
        <ele>19.5</ele>
        <time>2012-03-25T04:25:05Z</time>
      </trkpt>
      <trkpt lat="47.56172" lon="-0.42085">
        <ele>19.5</ele>
        <time>2012-03-25T04:25:09Z</time>
      </trkpt>
      <trkpt lat="47.56181" lon="-0.42078">
        <ele>19.4</ele>
        <time>2012-03-25T04:25:12Z</time>
      </trkpt>
      <trkpt lat="47.56191" lon="-0.42069">
        <ele>19.1</ele>
        <time>2012-03-25T04:25:16Z</time>
      </trkpt>
      <trkpt lat="47.56199" lon="-0.42063">
        <ele>19</ele>
        <time>2012-03-25T04:25:19Z</time>
      </trkpt>
      <trkpt lat="47.56208" lon="-0.42057">
        <ele>18.9</ele>
        <time>2012-03-25T04:25:22Z</time>
      </trkpt>
      <trkpt lat="47.56215" lon="-0.42049">
        <ele>18.8</ele>
        <time>2012-03-25T04:25:25Z</time>
      </trkpt>
      <trkpt lat="47.56222" lon="-0.4204">
        <ele>18.7</ele>
        <time>2012-03-25T04:25:28Z</time>
      </trkpt>
      <trkpt lat="47.56231" lon="-0.42033">
        <ele>18.6</ele>
        <time>2012-03-25T04:25:31Z</time>
      </trkpt>
      <trkpt lat="47.56239" lon="-0.42027">
        <ele>18.5</ele>
        <time>2012-03-25T04:25:34Z</time>
      </trkpt>
      <trkpt lat="47.56248" lon="-0.4202">
        <ele>18.5</ele>
        <time>2012-03-25T04:25:37Z</time>
      </trkpt>
      <trkpt lat="47.56257" lon="-0.42014">
        <ele>18.3</ele>
        <time>2012-03-25T04:25:40Z</time>
      </trkpt>
      <trkpt lat="47.56265" lon="-0.42008">
        <ele>18</ele>
        <time>2012-03-25T04:25:43Z</time>
      </trkpt>
      <trkpt lat="47.56273" lon="-0.42001">
        <ele>17.7</ele>
        <time>2012-03-25T04:25:46Z</time>
      </trkpt>
      <trkpt lat="47.56282" lon="-0.41994">
        <ele>17.6</ele>
        <time>2012-03-25T04:25:49Z</time>
      </trkpt>
      <trkpt lat="47.56293" lon="-0.41987">
        <ele>17.5</ele>
        <time>2012-03-25T04:25:52Z</time>
      </trkpt>
      <trkpt lat="47.56304" lon="-0.4198">
        <ele>17.5</ele>
        <time>2012-03-25T04:25:55Z</time>
      </trkpt>
      <trkpt lat="47.56317" lon="-0.41973">
        <ele>17.4</ele>
        <time>2012-03-25T04:25:58Z</time>
      </trkpt>
      <trkpt lat="47.56325" lon="-0.41968">
        <ele>17.3</ele>
        <time>2012-03-25T04:26:00Z</time>
      </trkpt>
      <trkpt lat="47.56334" lon="-0.41963">
        <ele>17.2</ele>
        <time>2012-03-25T04:26:02Z</time>
      </trkpt>
      <trkpt lat="47.56343" lon="-0.41959">
        <ele>17.1</ele>
        <time>2012-03-25T04:26:04Z</time>
      </trkpt>
      <trkpt lat="47.56353" lon="-0.41955">
        <ele>17</ele>
        <time>2012-03-25T04:26:06Z</time>
      </trkpt>
      <trkpt lat="47.56363" lon="-0.41952">
        <ele>17</ele>
        <time>2012-03-25T04:26:08Z</time>
      </trkpt>
      <trkpt lat="47.56372" lon="-0.4195">
        <ele>17</ele>
        <time>2012-03-25T04:26:10Z</time>
      </trkpt>
      <trkpt lat="47.56382" lon="-0.41947">
        <ele>17</ele>
        <time>2012-03-25T04:26:12Z</time>
      </trkpt>
      <trkpt lat="47.56393" lon="-0.41945">
        <ele>17</ele>
        <time>2012-03-25T04:26:14Z</time>
      </trkpt>
      <trkpt lat="47.56403" lon="-0.41944">
        <ele>17</ele>
        <time>2012-03-25T04:26:16Z</time>
      </trkpt>
      <trkpt lat="47.56414" lon="-0.41943">
        <ele>16.9</ele>
        <time>2012-03-25T04:26:18Z</time>
      </trkpt>
      <trkpt lat="47.56424" lon="-0.41941">
        <ele>16.8</ele>
        <time>2012-03-25T04:26:20Z</time>
      </trkpt>
      <trkpt lat="47.56435" lon="-0.4194">
        <ele>16.7</ele>
        <time>2012-03-25T04:26:22Z</time>
      </trkpt>
      <trkpt lat="47.56446" lon="-0.41939">
        <ele>16.6</ele>
        <time>2012-03-25T04:26:24Z</time>
      </trkpt>
      <trkpt lat="47.56456" lon="-0.41937">
        <ele>16.5</ele>
        <time>2012-03-25T04:26:26Z</time>
      </trkpt>
      <trkpt lat="47.56468" lon="-0.41936">
        <ele>16.5</ele>
        <time>2012-03-25T04:26:28Z</time>
      </trkpt>
      <trkpt lat="47.56478" lon="-0.41934">
        <ele>16.4</ele>
        <time>2012-03-25T04:26:30Z</time>
      </trkpt>
      <trkpt lat="47.56488" lon="-0.41932">
        <ele>16.3</ele>
        <time>2012-03-25T04:26:32Z</time>
      </trkpt>
      <trkpt lat="47.56499" lon="-0.41931">
        <ele>16.2</ele>
        <time>2012-03-25T04:26:34Z</time>
      </trkpt>
      <trkpt lat="47.5651" lon="-0.41929">
        <ele>16.1</ele>
        <time>2012-03-25T04:26:36Z</time>
      </trkpt>
      <trkpt lat="47.56519" lon="-0.41928">
        <ele>16</ele>
        <time>2012-03-25T04:26:38Z</time>
      </trkpt>
      <trkpt lat="47.56529" lon="-0.41928">
        <ele>16</ele>
        <time>2012-03-25T04:26:40Z</time>
      </trkpt>
      <trkpt lat="47.56538" lon="-0.41933">
        <ele>16.1</ele>
        <time>2012-03-25T04:26:43Z</time>
      </trkpt>
      <trkpt lat="47.56528" lon="-0.41942">
        <ele>16.2</ele>
        <time>2012-03-25T04:26:47Z</time>
      </trkpt>
      <trkpt lat="47.56518" lon="-0.41944">
        <ele>16.3</ele>
        <time>2012-03-25T04:26:49Z</time>
      </trkpt>
      <trkpt lat="47.56508" lon="-0.41946">
        <ele>16.4</ele>
        <time>2012-03-25T04:26:51Z</time>
      </trkpt>
      <trkpt lat="47.56497" lon="-0.41948">
        <ele>16.5</ele>
        <time>2012-03-25T04:26:53Z</time>
      </trkpt>
      <trkpt lat="47.56491" lon="-0.41962">
        <ele>16.5</ele>
        <time>2012-03-25T04:26:56Z</time>
      </trkpt>
      <trkpt lat="47.56493" lon="-0.41977">
        <ele>16.6</ele>
        <time>2012-03-25T04:26:58Z</time>
      </trkpt>
      <trkpt lat="47.56494" lon="-0.41994">
        <ele>16.7</ele>
        <time>2012-03-25T04:27:00Z</time>
      </trkpt>
      <trkpt lat="47.56495" lon="-0.42008">
        <ele>16.8</ele>
        <time>2012-03-25T04:27:02Z</time>
      </trkpt>
      <trkpt lat="47.56496" lon="-0.42023">
        <ele>16.9</ele>
        <time>2012-03-25T04:27:04Z</time>
      </trkpt>
      <trkpt lat="47.56498" lon="-0.42037">
        <ele>17</ele>
        <time>2012-03-25T04:27:06Z</time>
      </trkpt>
      <trkpt lat="47.565" lon="-0.4205">
        <ele>16.9</ele>
        <time>2012-03-25T04:27:08Z</time>
      </trkpt>
      <trkpt lat="47.56502" lon="-0.42069">
        <ele>16.8</ele>
        <time>2012-03-25T04:27:11Z</time>
      </trkpt>
      <trkpt lat="47.56502" lon="-0.42083">
        <ele>16.7</ele>
        <time>2012-03-25T04:27:14Z</time>
      </trkpt>
      <trkpt lat="47.56497" lon="-0.42102">
        <ele>16.6</ele>
        <time>2012-03-25T04:27:18Z</time>
      </trkpt>
      <trkpt lat="47.56492" lon="-0.42113">
        <ele>16.5</ele>
        <time>2012-03-25T04:27:20Z</time>
      </trkpt>
      <trkpt lat="47.56485" lon="-0.42125">
        <ele>16.6</ele>
        <time>2012-03-25T04:27:22Z</time>
      </trkpt>
      <trkpt lat="47.5648" lon="-0.42136">
        <ele>16.7</ele>
        <time>2012-03-25T04:27:24Z</time>
      </trkpt>
      <trkpt lat="47.56472" lon="-0.42151">
        <ele>16.9</ele>
        <time>2012-03-25T04:27:27Z</time>
      </trkpt>
      <trkpt lat="47.56466" lon="-0.42163">
        <ele>17.1</ele>
        <time>2012-03-25T04:27:29Z</time>
      </trkpt>
      <trkpt lat="47.5646" lon="-0.42175">
        <ele>17.3</ele>
        <time>2012-03-25T04:27:31Z</time>
      </trkpt>
      <trkpt lat="47.56455" lon="-0.42187">
        <ele>17.5</ele>
        <time>2012-03-25T04:27:33Z</time>
      </trkpt>
      <trkpt lat="47.56447" lon="-0.42203">
        <ele>17.5</ele>
        <time>2012-03-25T04:27:36Z</time>
      </trkpt>
      <trkpt lat="47.56439" lon="-0.42219">
        <ele>17.6</ele>
        <time>2012-03-25T04:27:39Z</time>
      </trkpt>
      <trkpt lat="47.56437" lon="-0.42237">
        <ele>17.7</ele>
        <time>2012-03-25T04:27:42Z</time>
      </trkpt>
      <trkpt lat="47.56442" lon="-0.42251">
        <ele>17.8</ele>
        <time>2012-03-25T04:27:45Z</time>
      </trkpt>
      <trkpt lat="47.56452" lon="-0.42249">
        <ele>17.9</ele>
        <time>2012-03-25T04:27:48Z</time>
      </trkpt>
      <trkpt lat="47.56465" lon="-0.42246">
        <ele>17.8</ele>
        <time>2012-03-25T04:27:51Z</time>
      </trkpt>
      <trkpt lat="47.56475" lon="-0.42244">
        <ele>17.7</ele>
        <time>2012-03-25T04:27:53Z</time>
      </trkpt>
      <trkpt lat="47.56484" lon="-0.42241">
        <ele>17.5</ele>
        <time>2012-03-25T04:27:55Z</time>
      </trkpt>
      <trkpt lat="47.56493" lon="-0.42239">
        <ele>17.5</ele>
        <time>2012-03-25T04:27:57Z</time>
      </trkpt>
      <trkpt lat="47.56502" lon="-0.42236">
        <ele>17.4</ele>
        <time>2012-03-25T04:27:59Z</time>
      </trkpt>
      <trkpt lat="47.56512" lon="-0.42234">
        <ele>17.3</ele>
        <time>2012-03-25T04:28:01Z</time>
      </trkpt>
      <trkpt lat="47.56525" lon="-0.42233">
        <ele>17.4</ele>
        <time>2012-03-25T04:28:04Z</time>
      </trkpt>
      <trkpt lat="47.56538" lon="-0.42234">
        <ele>17.5</ele>
        <time>2012-03-25T04:28:07Z</time>
      </trkpt>
      <trkpt lat="47.5655" lon="-0.42232">
        <ele>17.5</ele>
        <time>2012-03-25T04:28:10Z</time>
      </trkpt>
      <trkpt lat="47.56559" lon="-0.42226">
        <ele>17.6</ele>
        <time>2012-03-25T04:28:13Z</time>
      </trkpt>
      <trkpt lat="47.56568" lon="-0.42219">
        <ele>17.7</ele>
        <time>2012-03-25T04:28:15Z</time>
      </trkpt>
      <trkpt lat="47.56577" lon="-0.42213">
        <ele>17.8</ele>
        <time>2012-03-25T04:28:17Z</time>
      </trkpt>
      <trkpt lat="47.56586" lon="-0.42205">
        <ele>17.8</ele>
        <time>2012-03-25T04:28:19Z</time>
      </trkpt>
      <trkpt lat="47.56595" lon="-0.42198">
        <ele>17.8</ele>
        <time>2012-03-25T04:28:21Z</time>
      </trkpt>
      <trkpt lat="47.56603" lon="-0.42191">
        <ele>17.7</ele>
        <time>2012-03-25T04:28:23Z</time>
      </trkpt>
      <trkpt lat="47.56612" lon="-0.42183">
        <ele>17.6</ele>
        <time>2012-03-25T04:28:25Z</time>
      </trkpt>
      <trkpt lat="47.56621" lon="-0.42176">
        <ele>17.5</ele>
        <time>2012-03-25T04:28:27Z</time>
      </trkpt>
      <trkpt lat="47.5663" lon="-0.42168">
        <ele>17.5</ele>
        <time>2012-03-25T04:28:29Z</time>
      </trkpt>
      <trkpt lat="47.56639" lon="-0.42161">
        <ele>17.4</ele>
        <time>2012-03-25T04:28:31Z</time>
      </trkpt>
      <trkpt lat="47.56647" lon="-0.42155">
        <ele>17.1</ele>
        <time>2012-03-25T04:28:33Z</time>
      </trkpt>
      <trkpt lat="47.56657" lon="-0.42147">
        <ele>16.8</ele>
        <time>2012-03-25T04:28:35Z</time>
      </trkpt>
      <trkpt lat="47.56667" lon="-0.42139">
        <ele>16.6</ele>
        <time>2012-03-25T04:28:37Z</time>
      </trkpt>
      <trkpt lat="47.56677" lon="-0.42132">
        <ele>16.5</ele>
        <time>2012-03-25T04:28:39Z</time>
      </trkpt>
      <trkpt lat="47.56687" lon="-0.42125">
        <ele>16.4</ele>
        <time>2012-03-25T04:28:41Z</time>
      </trkpt>
      <trkpt lat="47.56697" lon="-0.42119">
        <ele>16.3</ele>
        <time>2012-03-25T04:28:43Z</time>
      </trkpt>
      <trkpt lat="47.56707" lon="-0.42113">
        <ele>16.2</ele>
        <time>2012-03-25T04:28:45Z</time>
      </trkpt>
      <trkpt lat="47.56717" lon="-0.42107">
        <ele>16.1</ele>
        <time>2012-03-25T04:28:47Z</time>
      </trkpt>
      <trkpt lat="47.56727" lon="-0.42101">
        <ele>16</ele>
        <time>2012-03-25T04:28:49Z</time>
      </trkpt>
      <trkpt lat="47.56736" lon="-0.42093">
        <ele>15.9</ele>
        <time>2012-03-25T04:28:51Z</time>
      </trkpt>
      <trkpt lat="47.56744" lon="-0.42087">
        <ele>15.8</ele>
        <time>2012-03-25T04:28:53Z</time>
      </trkpt>
      <trkpt lat="47.56753" lon="-0.4208">
        <ele>16.3</ele>
        <time>2012-03-25T04:28:55Z</time>
      </trkpt>
      <trkpt lat="47.56762" lon="-0.42073">
        <ele>16.7</ele>
        <time>2012-03-25T04:28:57Z</time>
      </trkpt>
      <trkpt lat="47.56772" lon="-0.42067">
        <ele>17.1</ele>
        <time>2012-03-25T04:28:59Z</time>
      </trkpt>
      <trkpt lat="47.56781" lon="-0.42061">
        <ele>17.5</ele>
        <time>2012-03-25T04:29:01Z</time>
      </trkpt>
      <trkpt lat="47.56791" lon="-0.42056">
        <ele>17.8</ele>
        <time>2012-03-25T04:29:03Z</time>
      </trkpt>
      <trkpt lat="47.56803" lon="-0.42049">
        <ele>18.2</ele>
        <time>2012-03-25T04:29:06Z</time>
      </trkpt>
      <trkpt lat="47.56814" lon="-0.42044">
        <ele>18.5</ele>
        <time>2012-03-25T04:29:09Z</time>
      </trkpt>
      <trkpt lat="47.56823" lon="-0.42044">
        <ele>18.9</ele>
        <time>2012-03-25T04:29:12Z</time>
      </trkpt>
      <trkpt lat="47.5683" lon="-0.42059">
        <ele>19.2</ele>
        <time>2012-03-25T04:29:16Z</time>
      </trkpt>
      <trkpt lat="47.56833" lon="-0.42074">
        <ele>19.5</ele>
        <time>2012-03-25T04:29:19Z</time>
      </trkpt>
      <trkpt lat="47.56835" lon="-0.42089">
        <ele>19.7</ele>
        <time>2012-03-25T04:29:22Z</time>
      </trkpt>
      <trkpt lat="47.56837" lon="-0.42104">
        <ele>19.6</ele>
        <time>2012-03-25T04:29:25Z</time>
      </trkpt>
      <trkpt lat="47.56839" lon="-0.42121">
        <ele>19.5</ele>
        <time>2012-03-25T04:29:28Z</time>
      </trkpt>
      <trkpt lat="47.56842" lon="-0.42138">
        <ele>19.5</ele>
        <time>2012-03-25T04:29:31Z</time>
      </trkpt>
      <trkpt lat="47.56844" lon="-0.42155">
        <ele>19.4</ele>
        <time>2012-03-25T04:29:34Z</time>
      </trkpt>
      <trkpt lat="47.56847" lon="-0.42173">
        <ele>19.3</ele>
        <time>2012-03-25T04:29:37Z</time>
      </trkpt>
      <trkpt lat="47.5685" lon="-0.42192">
        <ele>19.2</ele>
        <time>2012-03-25T04:29:40Z</time>
      </trkpt>
      <trkpt lat="47.56852" lon="-0.42211">
        <ele>19.1</ele>
        <time>2012-03-25T04:29:43Z</time>
      </trkpt>
      <trkpt lat="47.56853" lon="-0.42225">
        <ele>19</ele>
        <time>2012-03-25T04:29:45Z</time>
      </trkpt>
      <trkpt lat="47.56853" lon="-0.42244">
        <ele>19</ele>
        <time>2012-03-25T04:29:48Z</time>
      </trkpt>
      <trkpt lat="47.56853" lon="-0.42258">
        <ele>19</ele>
        <time>2012-03-25T04:29:50Z</time>
      </trkpt>
      <trkpt lat="47.56853" lon="-0.42273">
        <ele>19</ele>
        <time>2012-03-25T04:29:52Z</time>
      </trkpt>
      <trkpt lat="47.56854" lon="-0.42287">
        <ele>19</ele>
        <time>2012-03-25T04:29:54Z</time>
      </trkpt>
      <trkpt lat="47.56853" lon="-0.42307">
        <ele>19</ele>
        <time>2012-03-25T04:29:57Z</time>
      </trkpt>
      <trkpt lat="47.56854" lon="-0.42321">
        <ele>19</ele>
        <time>2012-03-25T04:29:59Z</time>
      </trkpt>
      <trkpt lat="47.56854" lon="-0.42335">
        <ele>19</ele>
        <time>2012-03-25T04:30:01Z</time>
      </trkpt>
      <trkpt lat="47.56854" lon="-0.42348">
        <ele>19</ele>
        <time>2012-03-25T04:30:03Z</time>
      </trkpt>
      <trkpt lat="47.56854" lon="-0.42363">
        <ele>19</ele>
        <time>2012-03-25T04:30:05Z</time>
      </trkpt>
      <trkpt lat="47.56854" lon="-0.42377">
        <ele>18.9</ele>
        <time>2012-03-25T04:30:07Z</time>
      </trkpt>
      <trkpt lat="47.56854" lon="-0.42391">
        <ele>18.8</ele>
        <time>2012-03-25T04:30:09Z</time>
      </trkpt>
      <trkpt lat="47.56853" lon="-0.4241">
        <ele>18.7</ele>
        <time>2012-03-25T04:30:12Z</time>
      </trkpt>
      <trkpt lat="47.56851" lon="-0.42426">
        <ele>18.6</ele>
        <time>2012-03-25T04:30:14Z</time>
      </trkpt>
      <trkpt lat="47.5685" lon="-0.4244">
        <ele>18.5</ele>
        <time>2012-03-25T04:30:16Z</time>
      </trkpt>
      <trkpt lat="47.56847" lon="-0.4246">
        <ele>18.5</ele>
        <time>2012-03-25T04:30:19Z</time>
      </trkpt>
      <trkpt lat="47.56846" lon="-0.42474">
        <ele>18.4</ele>
        <time>2012-03-25T04:30:21Z</time>
      </trkpt>
      <trkpt lat="47.56844" lon="-0.42488">
        <ele>18.3</ele>
        <time>2012-03-25T04:30:23Z</time>
      </trkpt>
      <trkpt lat="47.56842" lon="-0.42502">
        <ele>18.2</ele>
        <time>2012-03-25T04:30:25Z</time>
      </trkpt>
      <trkpt lat="47.5684" lon="-0.42516">
        <ele>18.1</ele>
        <time>2012-03-25T04:30:27Z</time>
      </trkpt>
      <trkpt lat="47.56837" lon="-0.42531">
        <ele>18</ele>
        <time>2012-03-25T04:30:29Z</time>
      </trkpt>
      <trkpt lat="47.56836" lon="-0.42546">
        <ele>18</ele>
        <time>2012-03-25T04:30:31Z</time>
      </trkpt>
      <trkpt lat="47.56835" lon="-0.42561">
        <ele>18</ele>
        <time>2012-03-25T04:30:33Z</time>
      </trkpt>
      <trkpt lat="47.56835" lon="-0.42576">
        <ele>18</ele>
        <time>2012-03-25T04:30:35Z</time>
      </trkpt>
      <trkpt lat="47.56835" lon="-0.4259">
        <ele>18</ele>
        <time>2012-03-25T04:30:37Z</time>
      </trkpt>
      <trkpt lat="47.56836" lon="-0.42605">
        <ele>18</ele>
        <time>2012-03-25T04:30:39Z</time>
      </trkpt>
      <trkpt lat="47.56837" lon="-0.4262">
        <ele>18</ele>
        <time>2012-03-25T04:30:41Z</time>
      </trkpt>
      <trkpt lat="47.56838" lon="-0.42635">
        <ele>18.1</ele>
        <time>2012-03-25T04:30:43Z</time>
      </trkpt>
      <trkpt lat="47.56841" lon="-0.4265">
        <ele>18.2</ele>
        <time>2012-03-25T04:30:45Z</time>
      </trkpt>
      <trkpt lat="47.56843" lon="-0.42664">
        <ele>18.3</ele>
        <time>2012-03-25T04:30:47Z</time>
      </trkpt>
      <trkpt lat="47.56847" lon="-0.42679">
        <ele>18.4</ele>
        <time>2012-03-25T04:30:49Z</time>
      </trkpt>
      <trkpt lat="47.5685" lon="-0.42693">
        <ele>18.5</ele>
        <time>2012-03-25T04:30:51Z</time>
      </trkpt>
      <trkpt lat="47.56853" lon="-0.42708">
        <ele>18.5</ele>
        <time>2012-03-25T04:30:53Z</time>
      </trkpt>
      <trkpt lat="47.56856" lon="-0.42722">
        <ele>18.6</ele>
        <time>2012-03-25T04:30:55Z</time>
      </trkpt>
      <trkpt lat="47.56859" lon="-0.42737">
        <ele>18.7</ele>
        <time>2012-03-25T04:30:57Z</time>
      </trkpt>
      <trkpt lat="47.56863" lon="-0.42752">
        <ele>19.2</ele>
        <time>2012-03-25T04:30:59Z</time>
      </trkpt>
      <trkpt lat="47.56866" lon="-0.42767">
        <ele>19.6</ele>
        <time>2012-03-25T04:31:01Z</time>
      </trkpt>
      <trkpt lat="47.56869" lon="-0.42783">
        <ele>20.1</ele>
        <time>2012-03-25T04:31:03Z</time>
      </trkpt>
      <trkpt lat="47.56872" lon="-0.42798">
        <ele>20.3</ele>
        <time>2012-03-25T04:31:05Z</time>
      </trkpt>
      <trkpt lat="47.56875" lon="-0.42813">
        <ele>20.5</ele>
        <time>2012-03-25T04:31:07Z</time>
      </trkpt>
      <trkpt lat="47.56878" lon="-0.42827">
        <ele>20.6</ele>
        <time>2012-03-25T04:31:09Z</time>
      </trkpt>
      <trkpt lat="47.56881" lon="-0.42842">
        <ele>20.8</ele>
        <time>2012-03-25T04:31:11Z</time>
      </trkpt>
      <trkpt lat="47.56884" lon="-0.42856">
        <ele>21</ele>
        <time>2012-03-25T04:31:13Z</time>
      </trkpt>
      <trkpt lat="47.56887" lon="-0.42871">
        <ele>21.2</ele>
        <time>2012-03-25T04:31:15Z</time>
      </trkpt>
      <trkpt lat="47.56889" lon="-0.42884">
        <ele>21.4</ele>
        <time>2012-03-25T04:31:17Z</time>
      </trkpt>
      <trkpt lat="47.56893" lon="-0.42898">
        <ele>21.5</ele>
        <time>2012-03-25T04:31:19Z</time>
      </trkpt>
      <trkpt lat="47.56895" lon="-0.42913">
        <ele>21.2</ele>
        <time>2012-03-25T04:31:21Z</time>
      </trkpt>
      <trkpt lat="47.56897" lon="-0.42927">
        <ele>20.9</ele>
        <time>2012-03-25T04:31:23Z</time>
      </trkpt>
      <trkpt lat="47.569" lon="-0.42941">
        <ele>20.6</ele>
        <time>2012-03-25T04:31:25Z</time>
      </trkpt>
      <trkpt lat="47.56903" lon="-0.42956">
        <ele>20.5</ele>
        <time>2012-03-25T04:31:27Z</time>
      </trkpt>
      <trkpt lat="47.56906" lon="-0.4297">
        <ele>20.5</ele>
        <time>2012-03-25T04:31:29Z</time>
      </trkpt>
      <trkpt lat="47.56909" lon="-0.42985">
        <ele>20.4</ele>
        <time>2012-03-25T04:31:31Z</time>
      </trkpt>
      <trkpt lat="47.56912" lon="-0.43">
        <ele>20.3</ele>
        <time>2012-03-25T04:31:33Z</time>
      </trkpt>
      <trkpt lat="47.56915" lon="-0.43016">
        <ele>20.2</ele>
        <time>2012-03-25T04:31:35Z</time>
      </trkpt>
      <trkpt lat="47.56918" lon="-0.43033">
        <ele>19.9</ele>
        <time>2012-03-25T04:31:37Z</time>
      </trkpt>
      <trkpt lat="47.56922" lon="-0.43049">
        <ele>19.6</ele>
        <time>2012-03-25T04:31:39Z</time>
      </trkpt>
      <trkpt lat="47.56926" lon="-0.43066">
        <ele>19.5</ele>
        <time>2012-03-25T04:31:41Z</time>
      </trkpt>
      <trkpt lat="47.5693" lon="-0.43086">
        <ele>19.3</ele>
        <time>2012-03-25T04:31:43Z</time>
      </trkpt>
      <trkpt lat="47.56934" lon="-0.43106">
        <ele>19.1</ele>
        <time>2012-03-25T04:31:46Z</time>
      </trkpt>
      <trkpt lat="47.56938" lon="-0.43125">
        <ele>18.7</ele>
        <time>2012-03-25T04:31:47Z</time>
      </trkpt>
      <trkpt lat="47.56941" lon="-0.43144">
        <ele>18.4</ele>
        <time>2012-03-25T04:31:49Z</time>
      </trkpt>
      <trkpt lat="47.56944" lon="-0.43162">
        <ele>18</ele>
        <time>2012-03-25T04:31:51Z</time>
      </trkpt>
      <trkpt lat="47.56947" lon="-0.43181">
        <ele>17.7</ele>
        <time>2012-03-25T04:31:53Z</time>
      </trkpt>
      <trkpt lat="47.56951" lon="-0.43197">
        <ele>17.5</ele>
        <time>2012-03-25T04:31:55Z</time>
      </trkpt>
      <trkpt lat="47.56953" lon="-0.43211">
        <ele>17.3</ele>
        <time>2012-03-25T04:31:57Z</time>
      </trkpt>
      <trkpt lat="47.56956" lon="-0.43226">
        <ele>17.3</ele>
        <time>2012-03-25T04:31:59Z</time>
      </trkpt>
      <trkpt lat="47.56959" lon="-0.43241">
        <ele>17.3</ele>
        <time>2012-03-25T04:32:01Z</time>
      </trkpt>
      <trkpt lat="47.56964" lon="-0.43263">
        <ele>17.3</ele>
        <time>2012-03-25T04:32:04Z</time>
      </trkpt>
      <trkpt lat="47.56968" lon="-0.43277">
        <ele>17.3</ele>
        <time>2012-03-25T04:32:06Z</time>
      </trkpt>
      <trkpt lat="47.56973" lon="-0.4329">
        <ele>17.3</ele>
        <time>2012-03-25T04:32:08Z</time>
      </trkpt>
      <trkpt lat="47.56979" lon="-0.43304">
        <ele>17.3</ele>
        <time>2012-03-25T04:32:10Z</time>
      </trkpt>
      <trkpt lat="47.56984" lon="-0.43319">
        <ele>17.3</ele>
        <time>2012-03-25T04:32:12Z</time>
      </trkpt>
      <trkpt lat="47.5699" lon="-0.43334">
        <ele>17.3</ele>
        <time>2012-03-25T04:32:14Z</time>
      </trkpt>
      <trkpt lat="47.56995" lon="-0.43349">
        <ele>17.2</ele>
        <time>2012-03-25T04:32:16Z</time>
      </trkpt>
      <trkpt lat="47.57001" lon="-0.43365">
        <ele>17.1</ele>
        <time>2012-03-25T04:32:18Z</time>
      </trkpt>
      <trkpt lat="47.57007" lon="-0.43379">
        <ele>16.9</ele>
        <time>2012-03-25T04:32:20Z</time>
      </trkpt>
      <trkpt lat="47.57014" lon="-0.43395">
        <ele>16.9</ele>
        <time>2012-03-25T04:32:22Z</time>
      </trkpt>
      <trkpt lat="47.5702" lon="-0.43412">
        <ele>16.8</ele>
        <time>2012-03-25T04:32:24Z</time>
      </trkpt>
      <trkpt lat="47.57026" lon="-0.43423">
        <ele>16.7</ele>
        <time>2012-03-25T04:32:26Z</time>
      </trkpt>
      <trkpt lat="47.57032" lon="-0.43439">
        <ele>16.6</ele>
        <time>2012-03-25T04:32:28Z</time>
      </trkpt>
      <trkpt lat="47.57038" lon="-0.4345">
        <ele>16.5</ele>
        <time>2012-03-25T04:32:30Z</time>
      </trkpt>
      <trkpt lat="47.57046" lon="-0.43465">
        <ele>16.6</ele>
        <time>2012-03-25T04:32:33Z</time>
      </trkpt>
      <trkpt lat="47.57054" lon="-0.43476">
        <ele>16.7</ele>
        <time>2012-03-25T04:32:35Z</time>
      </trkpt>
      <trkpt lat="47.57062" lon="-0.43485">
        <ele>16.8</ele>
        <time>2012-03-25T04:32:37Z</time>
      </trkpt>
      <trkpt lat="47.57073" lon="-0.43494">
        <ele>16.9</ele>
        <time>2012-03-25T04:32:40Z</time>
      </trkpt>
      <trkpt lat="47.57081" lon="-0.43509">
        <ele>17</ele>
        <time>2012-03-25T04:32:43Z</time>
      </trkpt>
      <trkpt lat="47.57089" lon="-0.43525">
        <ele>17.1</ele>
        <time>2012-03-25T04:32:46Z</time>
      </trkpt>
      <trkpt lat="47.57096" lon="-0.43541">
        <ele>17.1</ele>
        <time>2012-03-25T04:32:49Z</time>
      </trkpt>
      <trkpt lat="47.57102" lon="-0.43561">
        <ele>17.2</ele>
        <time>2012-03-25T04:32:52Z</time>
      </trkpt>
      <trkpt lat="47.57106" lon="-0.43574">
        <ele>17.3</ele>
        <time>2012-03-25T04:32:54Z</time>
      </trkpt>
      <trkpt lat="47.57109" lon="-0.43592">
        <ele>17.4</ele>
        <time>2012-03-25T04:32:57Z</time>
      </trkpt>
      <trkpt lat="47.57111" lon="-0.4361">
        <ele>17.5</ele>
        <time>2012-03-25T04:33:00Z</time>
      </trkpt>
      <trkpt lat="47.57113" lon="-0.43624">
        <ele>17.7</ele>
        <time>2012-03-25T04:33:02Z</time>
      </trkpt>
      <trkpt lat="47.57113" lon="-0.43641">
        <ele>18</ele>
        <time>2012-03-25T04:33:05Z</time>
      </trkpt>
      <trkpt lat="47.57112" lon="-0.43658">
        <ele>18.3</ele>
        <time>2012-03-25T04:33:08Z</time>
      </trkpt>
      <trkpt lat="47.57112" lon="-0.43675">
        <ele>18.5</ele>
        <time>2012-03-25T04:33:11Z</time>
      </trkpt>
      <trkpt lat="47.57114" lon="-0.43689">
        <ele>18.8</ele>
        <time>2012-03-25T04:33:14Z</time>
      </trkpt>
      <trkpt lat="47.57117" lon="-0.43703">
        <ele>19.1</ele>
        <time>2012-03-25T04:33:17Z</time>
      </trkpt>
      <trkpt lat="47.57121" lon="-0.43721">
        <ele>19.1</ele>
        <time>2012-03-25T04:33:20Z</time>
      </trkpt>
      <trkpt lat="47.57125" lon="-0.43734">
        <ele>19.1</ele>
        <time>2012-03-25T04:33:23Z</time>
      </trkpt>
      <trkpt lat="47.5713" lon="-0.43748">
        <ele>19.1</ele>
        <time>2012-03-25T04:33:27Z</time>
      </trkpt>
      <trkpt lat="47.57135" lon="-0.4376">
        <ele>19.1</ele>
        <time>2012-03-25T04:33:30Z</time>
      </trkpt>
      <trkpt lat="47.5714" lon="-0.43772">
        <ele>19.1</ele>
        <time>2012-03-25T04:33:35Z</time>
      </trkpt>
      <trkpt lat="47.57144" lon="-0.43784">
        <ele>18.9</ele>
        <time>2012-03-25T04:33:38Z</time>
      </trkpt>
      <trkpt lat="47.57148" lon="-0.43798">
        <ele>18.7</ele>
        <time>2012-03-25T04:33:42Z</time>
      </trkpt>
      <trkpt lat="47.57155" lon="-0.4381">
        <ele>18.6</ele>
        <time>2012-03-25T04:33:48Z</time>
      </trkpt>
      <trkpt lat="47.57159" lon="-0.43822">
        <ele>18.5</ele>
        <time>2012-03-25T04:33:51Z</time>
      </trkpt>
      <trkpt lat="47.57166" lon="-0.43835">
        <ele>18.5</ele>
        <time>2012-03-25T04:33:55Z</time>
      </trkpt>
      <trkpt lat="47.5717" lon="-0.4385">
        <ele>18.4</ele>
        <time>2012-03-25T04:34:00Z</time>
      </trkpt>
      <trkpt lat="47.57162" lon="-0.43859">
        <ele>18.5</ele>
        <time>2012-03-25T04:34:04Z</time>
      </trkpt>
      <trkpt lat="47.57152" lon="-0.43868">
        <ele>18.5</ele>
        <time>2012-03-25T04:34:08Z</time>
      </trkpt>
      <trkpt lat="47.57143" lon="-0.43878">
        <ele>18.6</ele>
        <time>2012-03-25T04:34:12Z</time>
      </trkpt>
      <trkpt lat="47.57139" lon="-0.4389">
        <ele>18.4</ele>
        <time>2012-03-25T04:34:16Z</time>
      </trkpt>
      <trkpt lat="47.57141" lon="-0.43905">
        <ele>18.1</ele>
        <time>2012-03-25T04:34:20Z</time>
      </trkpt>
      <trkpt lat="47.57143" lon="-0.43919">
        <ele>17.8</ele>
        <time>2012-03-25T04:34:22Z</time>
      </trkpt>
      <trkpt lat="47.57147" lon="-0.43936">
        <ele>17.5</ele>
        <time>2012-03-25T04:34:25Z</time>
      </trkpt>
      <trkpt lat="47.5715" lon="-0.43949">
        <ele>17.2</ele>
        <time>2012-03-25T04:34:28Z</time>
      </trkpt>
      <trkpt lat="47.57154" lon="-0.43963">
        <ele>16.8</ele>
        <time>2012-03-25T04:34:31Z</time>
      </trkpt>
      <trkpt lat="47.5716" lon="-0.43979">
        <ele>16.3</ele>
        <time>2012-03-25T04:34:34Z</time>
      </trkpt>
      <trkpt lat="47.57165" lon="-0.43993">
        <ele>15.7</ele>
        <time>2012-03-25T04:34:38Z</time>
      </trkpt>
      <trkpt lat="47.5717" lon="-0.44008">
        <ele>15.2</ele>
        <time>2012-03-25T04:34:41Z</time>
      </trkpt>
      <trkpt lat="47.57173" lon="-0.44022">
        <ele>14.6</ele>
        <time>2012-03-25T04:34:44Z</time>
      </trkpt>
      <trkpt lat="47.57176" lon="-0.44036">
        <ele>14.1</ele>
        <time>2012-03-25T04:34:47Z</time>
      </trkpt>
      <trkpt lat="47.5718" lon="-0.44051">
        <ele>14.1</ele>
        <time>2012-03-25T04:34:50Z</time>
      </trkpt>
      <trkpt lat="47.57184" lon="-0.44065">
        <ele>14.1</ele>
        <time>2012-03-25T04:34:53Z</time>
      </trkpt>
      <trkpt lat="47.57187" lon="-0.4408">
        <ele>14.1</ele>
        <time>2012-03-25T04:34:56Z</time>
      </trkpt>
      <trkpt lat="47.57191" lon="-0.44098">
        <ele>14.1</ele>
        <time>2012-03-25T04:35:00Z</time>
      </trkpt>
      <trkpt lat="47.57195" lon="-0.44115">
        <ele>14.1</ele>
        <time>2012-03-25T04:35:03Z</time>
      </trkpt>
      <trkpt lat="47.572" lon="-0.4413">
        <ele>14.5</ele>
        <time>2012-03-25T04:35:06Z</time>
      </trkpt>
      <trkpt lat="47.57204" lon="-0.44145">
        <ele>15.1</ele>
        <time>2012-03-25T04:35:09Z</time>
      </trkpt>
      <trkpt lat="47.57207" lon="-0.4416">
        <ele>15.6</ele>
        <time>2012-03-25T04:35:12Z</time>
      </trkpt>
      <trkpt lat="47.57209" lon="-0.44173">
        <ele>16.2</ele>
        <time>2012-03-25T04:35:14Z</time>
      </trkpt>
      <trkpt lat="47.57211" lon="-0.44186">
        <ele>16.7</ele>
        <time>2012-03-25T04:35:16Z</time>
      </trkpt>
      <trkpt lat="47.57212" lon="-0.44202">
        <ele>17.3</ele>
        <time>2012-03-25T04:35:18Z</time>
      </trkpt>
      <trkpt lat="47.57214" lon="-0.44219">
        <ele>17.5</ele>
        <time>2012-03-25T04:35:20Z</time>
      </trkpt>
      <trkpt lat="47.57215" lon="-0.44237">
        <ele>17.8</ele>
        <time>2012-03-25T04:35:23Z</time>
      </trkpt>
      <trkpt lat="47.57216" lon="-0.44252">
        <ele>18.1</ele>
        <time>2012-03-25T04:35:25Z</time>
      </trkpt>
      <trkpt lat="47.57217" lon="-0.44268">
        <ele>18.4</ele>
        <time>2012-03-25T04:35:27Z</time>
      </trkpt>
      <trkpt lat="47.57218" lon="-0.44282">
        <ele>18.6</ele>
        <time>2012-03-25T04:35:29Z</time>
      </trkpt>
      <trkpt lat="47.57219" lon="-0.44296">
        <ele>18.4</ele>
        <time>2012-03-25T04:35:31Z</time>
      </trkpt>
      <trkpt lat="47.57221" lon="-0.4431">
        <ele>18.2</ele>
        <time>2012-03-25T04:35:33Z</time>
      </trkpt>
      <trkpt lat="47.57223" lon="-0.44329">
        <ele>18</ele>
        <time>2012-03-25T04:35:35Z</time>
      </trkpt>
      <trkpt lat="47.57224" lon="-0.44345">
        <ele>17.8</ele>
        <time>2012-03-25T04:35:37Z</time>
      </trkpt>
      <trkpt lat="47.57226" lon="-0.44363">
        <ele>17.6</ele>
        <time>2012-03-25T04:35:39Z</time>
      </trkpt>
      <trkpt lat="47.57231" lon="-0.44376">
        <ele>17.5</ele>
        <time>2012-03-25T04:35:41Z</time>
      </trkpt>
      <trkpt lat="47.57235" lon="-0.44388">
        <ele>17.5</ele>
        <time>2012-03-25T04:35:43Z</time>
      </trkpt>
      <trkpt lat="47.5724" lon="-0.44401">
        <ele>17.5</ele>
        <time>2012-03-25T04:35:45Z</time>
      </trkpt>
      <trkpt lat="47.57248" lon="-0.44415">
        <ele>17.5</ele>
        <time>2012-03-25T04:35:47Z</time>
      </trkpt>
      <trkpt lat="47.57252" lon="-0.4443">
        <ele>17.5</ele>
        <time>2012-03-25T04:35:49Z</time>
      </trkpt>
      <trkpt lat="47.57258" lon="-0.44447">
        <ele>17.5</ele>
        <time>2012-03-25T04:35:52Z</time>
      </trkpt>
      <trkpt lat="47.57262" lon="-0.44463">
        <ele>17.5</ele>
        <time>2012-03-25T04:35:54Z</time>
      </trkpt>
      <trkpt lat="47.57265" lon="-0.44477">
        <ele>17.6</ele>
        <time>2012-03-25T04:35:56Z</time>
      </trkpt>
      <trkpt lat="47.57268" lon="-0.4449">
        <ele>17.7</ele>
        <time>2012-03-25T04:35:58Z</time>
      </trkpt>
      <trkpt lat="47.5727" lon="-0.44504">
        <ele>17.8</ele>
        <time>2012-03-25T04:36:01Z</time>
      </trkpt>
      <trkpt lat="47.57273" lon="-0.4452">
        <ele>17.9</ele>
        <time>2012-03-25T04:36:02Z</time>
      </trkpt>
      <trkpt lat="47.57277" lon="-0.44536">
        <ele>18</ele>
        <time>2012-03-25T04:36:04Z</time>
      </trkpt>
      <trkpt lat="47.5728" lon="-0.44551">
        <ele>18.4</ele>
        <time>2012-03-25T04:36:06Z</time>
      </trkpt>
      <trkpt lat="47.57282" lon="-0.44565">
        <ele>18.7</ele>
        <time>2012-03-25T04:36:08Z</time>
      </trkpt>
      <trkpt lat="47.57285" lon="-0.44579">
        <ele>19.1</ele>
        <time>2012-03-25T04:36:10Z</time>
      </trkpt>
      <trkpt lat="47.57289" lon="-0.44594">
        <ele>19.5</ele>
        <time>2012-03-25T04:36:12Z</time>
      </trkpt>
      <trkpt lat="47.57293" lon="-0.44612">
        <ele>19.8</ele>
        <time>2012-03-25T04:36:16Z</time>
      </trkpt>
      <trkpt lat="47.57298" lon="-0.44629">
        <ele>20.1</ele>
        <time>2012-03-25T04:36:17Z</time>
      </trkpt>
      <trkpt lat="47.57301" lon="-0.44646">
        <ele>20.4</ele>
        <time>2012-03-25T04:36:19Z</time>
      </trkpt>
      <trkpt lat="47.57305" lon="-0.44661">
        <ele>20.6</ele>
        <time>2012-03-25T04:36:21Z</time>
      </trkpt>
      <trkpt lat="47.5731" lon="-0.44673">
        <ele>20.8</ele>
        <time>2012-03-25T04:36:23Z</time>
      </trkpt>
      <trkpt lat="47.57309" lon="-0.44692">
        <ele>21</ele>
        <time>2012-03-25T04:36:26Z</time>
      </trkpt>
      <trkpt lat="47.57308" lon="-0.44707">
        <ele>21.2</ele>
        <time>2012-03-25T04:36:28Z</time>
      </trkpt>
      <trkpt lat="47.57306" lon="-0.44723">
        <ele>21</ele>
        <time>2012-03-25T04:36:30Z</time>
      </trkpt>
      <trkpt lat="47.57299" lon="-0.44732">
        <ele>20.8</ele>
        <time>2012-03-25T04:36:32Z</time>
      </trkpt>
      <trkpt lat="47.5729" lon="-0.4474">
        <ele>20.6</ele>
        <time>2012-03-25T04:36:34Z</time>
      </trkpt>
      <trkpt lat="47.57281" lon="-0.44744">
        <ele>20.5</ele>
        <time>2012-03-25T04:36:36Z</time>
      </trkpt>
      <trkpt lat="47.57271" lon="-0.44747">
        <ele>20.2</ele>
        <time>2012-03-25T04:36:38Z</time>
      </trkpt>
      <trkpt lat="47.57261" lon="-0.44752">
        <ele>20</ele>
        <time>2012-03-25T04:36:40Z</time>
      </trkpt>
      <trkpt lat="47.57251" lon="-0.44758">
        <ele>19.8</ele>
        <time>2012-03-25T04:36:42Z</time>
      </trkpt>
      <trkpt lat="47.57241" lon="-0.44763">
        <ele>19.6</ele>
        <time>2012-03-25T04:36:44Z</time>
      </trkpt>
      <trkpt lat="47.57238" lon="-0.44775">
        <ele>19.5</ele>
        <time>2012-03-25T04:36:48Z</time>
      </trkpt>
      <trkpt lat="47.57243" lon="-0.44791">
        <ele>19.4</ele>
        <time>2012-03-25T04:36:51Z</time>
      </trkpt>
      <trkpt lat="47.57247" lon="-0.44804">
        <ele>19.2</ele>
        <time>2012-03-25T04:36:53Z</time>
      </trkpt>
      <trkpt lat="47.57249" lon="-0.44818">
        <ele>19</ele>
        <time>2012-03-25T04:36:55Z</time>
      </trkpt>
      <trkpt lat="47.5725" lon="-0.44833">
        <ele>18.8</ele>
        <time>2012-03-25T04:36:57Z</time>
      </trkpt>
      <trkpt lat="47.57251" lon="-0.44847">
        <ele>18.6</ele>
        <time>2012-03-25T04:36:59Z</time>
      </trkpt>
      <trkpt lat="47.57253" lon="-0.44862">
        <ele>18.5</ele>
        <time>2012-03-25T04:37:01Z</time>
      </trkpt>
      <trkpt lat="47.57255" lon="-0.44877">
        <ele>18.4</ele>
        <time>2012-03-25T04:37:03Z</time>
      </trkpt>
      <trkpt lat="47.57258" lon="-0.44892">
        <ele>18.4</ele>
        <time>2012-03-25T04:37:05Z</time>
      </trkpt>
      <trkpt lat="47.57262" lon="-0.44906">
        <ele>18.4</ele>
        <time>2012-03-25T04:37:07Z</time>
      </trkpt>
      <trkpt lat="47.57265" lon="-0.4492">
        <ele>18.4</ele>
        <time>2012-03-25T04:37:09Z</time>
      </trkpt>
      <trkpt lat="47.5727" lon="-0.44933">
        <ele>18.4</ele>
        <time>2012-03-25T04:37:11Z</time>
      </trkpt>
      <trkpt lat="47.57273" lon="-0.44951">
        <ele>18.5</ele>
        <time>2012-03-25T04:37:14Z</time>
      </trkpt>
      <trkpt lat="47.57275" lon="-0.44965">
        <ele>18.6</ele>
        <time>2012-03-25T04:37:16Z</time>
      </trkpt>
      <trkpt lat="47.57278" lon="-0.44983">
        <ele>18.8</ele>
        <time>2012-03-25T04:37:18Z</time>
      </trkpt>
      <trkpt lat="47.5728" lon="-0.44999">
        <ele>19</ele>
        <time>2012-03-25T04:37:20Z</time>
      </trkpt>
      <trkpt lat="47.57283" lon="-0.45015">
        <ele>19.2</ele>
        <time>2012-03-25T04:37:23Z</time>
      </trkpt>
      <trkpt lat="47.57284" lon="-0.45029">
        <ele>19.4</ele>
        <time>2012-03-25T04:37:25Z</time>
      </trkpt>
      <trkpt lat="47.57285" lon="-0.45047">
        <ele>19.5</ele>
        <time>2012-03-25T04:37:27Z</time>
      </trkpt>
      <trkpt lat="47.57285" lon="-0.45061">
        <ele>19.5</ele>
        <time>2012-03-25T04:37:29Z</time>
      </trkpt>
      <trkpt lat="47.57286" lon="-0.45082">
        <ele>19.5</ele>
        <time>2012-03-25T04:37:32Z</time>
      </trkpt>
      <trkpt lat="47.57287" lon="-0.45097">
        <ele>19.5</ele>
        <time>2012-03-25T04:37:35Z</time>
      </trkpt>
      <trkpt lat="47.57288" lon="-0.45111">
        <ele>19.4</ele>
        <time>2012-03-25T04:37:36Z</time>
      </trkpt>
      <trkpt lat="47.5729" lon="-0.45126">
        <ele>19.3</ele>
        <time>2012-03-25T04:37:38Z</time>
      </trkpt>
      <trkpt lat="47.57291" lon="-0.4514">
        <ele>19.2</ele>
        <time>2012-03-25T04:37:40Z</time>
      </trkpt>
      <trkpt lat="47.57292" lon="-0.45154">
        <ele>19.1</ele>
        <time>2012-03-25T04:37:42Z</time>
      </trkpt>
      <trkpt lat="47.57293" lon="-0.45168">
        <ele>19</ele>
        <time>2012-03-25T04:37:44Z</time>
      </trkpt>
      <trkpt lat="47.57295" lon="-0.45183">
        <ele>18.9</ele>
        <time>2012-03-25T04:37:46Z</time>
      </trkpt>
      <trkpt lat="47.57297" lon="-0.45198">
        <ele>18.8</ele>
        <time>2012-03-25T04:37:48Z</time>
      </trkpt>
      <trkpt lat="47.57298" lon="-0.45212">
        <ele>18.8</ele>
        <time>2012-03-25T04:37:50Z</time>
      </trkpt>
      <trkpt lat="47.57301" lon="-0.45226">
        <ele>18.7</ele>
        <time>2012-03-25T04:37:52Z</time>
      </trkpt>
      <trkpt lat="47.57302" lon="-0.45241">
        <ele>18.6</ele>
        <time>2012-03-25T04:37:54Z</time>
      </trkpt>
      <trkpt lat="47.57304" lon="-0.45254">
        <ele>18.5</ele>
        <time>2012-03-25T04:37:56Z</time>
      </trkpt>
      <trkpt lat="47.57305" lon="-0.45269">
        <ele>18.5</ele>
        <time>2012-03-25T04:37:58Z</time>
      </trkpt>
      <trkpt lat="47.57306" lon="-0.45284">
        <ele>18.5</ele>
        <time>2012-03-25T04:38:00Z</time>
      </trkpt>
      <trkpt lat="47.57308" lon="-0.45297">
        <ele>18.4</ele>
        <time>2012-03-25T04:38:02Z</time>
      </trkpt>
      <trkpt lat="47.57309" lon="-0.4531">
        <ele>18.2</ele>
        <time>2012-03-25T04:38:04Z</time>
      </trkpt>
      <trkpt lat="47.5731" lon="-0.45325">
        <ele>18</ele>
        <time>2012-03-25T04:38:06Z</time>
      </trkpt>
      <trkpt lat="47.57311" lon="-0.45339">
        <ele>17.8</ele>
        <time>2012-03-25T04:38:08Z</time>
      </trkpt>
      <trkpt lat="47.57313" lon="-0.45353">
        <ele>17.6</ele>
        <time>2012-03-25T04:38:10Z</time>
      </trkpt>
      <trkpt lat="47.57318" lon="-0.45371">
        <ele>17.5</ele>
        <time>2012-03-25T04:38:13Z</time>
      </trkpt>
      <trkpt lat="47.57324" lon="-0.45384">
        <ele>17.4</ele>
        <time>2012-03-25T04:38:15Z</time>
      </trkpt>
      <trkpt lat="47.5733" lon="-0.45394">
        <ele>17.3</ele>
        <time>2012-03-25T04:38:17Z</time>
      </trkpt>
      <trkpt lat="47.57336" lon="-0.45404">
        <ele>17.2</ele>
        <time>2012-03-25T04:38:19Z</time>
      </trkpt>
      <trkpt lat="47.57344" lon="-0.45418">
        <ele>17.1</ele>
        <time>2012-03-25T04:38:22Z</time>
      </trkpt>
      <trkpt lat="47.5735" lon="-0.45429">
        <ele>17</ele>
        <time>2012-03-25T04:38:24Z</time>
      </trkpt>
      <trkpt lat="47.57355" lon="-0.45442">
        <ele>17.1</ele>
        <time>2012-03-25T04:38:26Z</time>
      </trkpt>
      <trkpt lat="47.5736" lon="-0.45459">
        <ele>17.2</ele>
        <time>2012-03-25T04:38:29Z</time>
      </trkpt>
      <trkpt lat="47.57365" lon="-0.45477">
        <ele>17.3</ele>
        <time>2012-03-25T04:38:32Z</time>
      </trkpt>
      <trkpt lat="47.57368" lon="-0.4549">
        <ele>17.4</ele>
        <time>2012-03-25T04:38:34Z</time>
      </trkpt>
      <trkpt lat="47.57374" lon="-0.45505">
        <ele>17.5</ele>
        <time>2012-03-25T04:38:37Z</time>
      </trkpt>
      <trkpt lat="47.57385" lon="-0.45515">
        <ele>17.5</ele>
        <time>2012-03-25T04:38:40Z</time>
      </trkpt>
      <trkpt lat="47.57397" lon="-0.45517">
        <ele>17.7</ele>
        <time>2012-03-25T04:38:43Z</time>
      </trkpt>
      <trkpt lat="47.57406" lon="-0.45516">
        <ele>17.9</ele>
        <time>2012-03-25T04:38:46Z</time>
      </trkpt>
      <trkpt lat="47.57416" lon="-0.45516">
        <ele>18.1</ele>
        <time>2012-03-25T04:38:50Z</time>
      </trkpt>
      <trkpt lat="47.57427" lon="-0.45518">
        <ele>18.3</ele>
        <time>2012-03-25T04:38:54Z</time>
      </trkpt>
      <trkpt lat="47.57437" lon="-0.45524">
        <ele>19.1</ele>
        <time>2012-03-25T04:38:58Z</time>
      </trkpt>
      <trkpt lat="47.57443" lon="-0.4554">
        <ele>19.8</ele>
        <time>2012-03-25T04:39:01Z</time>
      </trkpt>
      <trkpt lat="47.57445" lon="-0.45554">
        <ele>20.2</ele>
        <time>2012-03-25T04:39:03Z</time>
      </trkpt>
      <trkpt lat="47.57449" lon="-0.4557">
        <ele>20.5</ele>
        <time>2012-03-25T04:39:05Z</time>
      </trkpt>
      <trkpt lat="47.57453" lon="-0.45585">
        <ele>20.9</ele>
        <time>2012-03-25T04:39:09Z</time>
      </trkpt>
      <trkpt lat="47.5746" lon="-0.45602">
        <ele>21.3</ele>
        <time>2012-03-25T04:39:11Z</time>
      </trkpt>
      <trkpt lat="47.57467" lon="-0.45612">
        <ele>21.6</ele>
        <time>2012-03-25T04:39:13Z</time>
      </trkpt>
      <trkpt lat="47.57474" lon="-0.45622">
        <ele>21.9</ele>
        <time>2012-03-25T04:39:16Z</time>
      </trkpt>
      <trkpt lat="47.57483" lon="-0.45623">
        <ele>22.2</ele>
        <time>2012-03-25T04:39:19Z</time>
      </trkpt>
      <trkpt lat="47.57495" lon="-0.45622">
        <ele>22.5</ele>
        <time>2012-03-25T04:39:23Z</time>
      </trkpt>
      <trkpt lat="47.57505" lon="-0.45624">
        <ele>24</ele>
        <time>2012-03-25T04:39:28Z</time>
      </trkpt>
      <trkpt lat="47.57515" lon="-0.45623">
        <ele>24.9</ele>
        <time>2012-03-25T04:39:36Z</time>
      </trkpt>
      <trkpt lat="47.57525" lon="-0.45625">
        <ele>25.8</ele>
        <time>2012-03-25T04:39:42Z</time>
      </trkpt>
      <trkpt lat="47.57535" lon="-0.45628">
        <ele>27.1</ele>
        <time>2012-03-25T04:39:50Z</time>
      </trkpt>
      <trkpt lat="47.57544" lon="-0.45629">
        <ele>28.4</ele>
        <time>2012-03-25T04:39:57Z</time>
      </trkpt>
      <trkpt lat="47.57553" lon="-0.4563">
        <ele>29.6</ele>
        <time>2012-03-25T04:40:04Z</time>
      </trkpt>
      <trkpt lat="47.57562" lon="-0.45636">
        <ele>30.9</ele>
        <time>2012-03-25T04:40:09Z</time>
      </trkpt>
      <trkpt lat="47.57572" lon="-0.45643">
        <ele>32.2</ele>
        <time>2012-03-25T04:40:15Z</time>
      </trkpt>
      <trkpt lat="47.57579" lon="-0.45653">
        <ele>33.5</ele>
        <time>2012-03-25T04:40:21Z</time>
      </trkpt>
      <trkpt lat="47.57586" lon="-0.45662">
        <ele>34.7</ele>
        <time>2012-03-25T04:40:27Z</time>
      </trkpt>
      <trkpt lat="47.57595" lon="-0.45666">
        <ele>36</ele>
        <time>2012-03-25T04:40:35Z</time>
      </trkpt>
      <trkpt lat="47.57604" lon="-0.45669">
        <ele>36</ele>
        <time>2012-03-25T04:40:41Z</time>
      </trkpt>
      <trkpt lat="47.57614" lon="-0.45665">
        <ele>36</ele>
        <time>2012-03-25T04:40:48Z</time>
      </trkpt>
      <trkpt lat="47.57615" lon="-0.45649">
        <ele>36</ele>
        <time>2012-03-25T04:40:53Z</time>
      </trkpt>
      <trkpt lat="47.57613" lon="-0.45633">
        <ele>36</ele>
        <time>2012-03-25T04:40:57Z</time>
      </trkpt>
      <trkpt lat="47.57611" lon="-0.4562">
        <ele>36</ele>
        <time>2012-03-25T04:41:00Z</time>
      </trkpt>
      <trkpt lat="47.5761" lon="-0.45606">
        <ele>36</ele>
        <time>2012-03-25T04:41:03Z</time>
      </trkpt>
      <trkpt lat="47.57609" lon="-0.45593">
        <ele>36</ele>
        <time>2012-03-25T04:41:07Z</time>
      </trkpt>
      <trkpt lat="47.57606" lon="-0.45578">
        <ele>36.1</ele>
        <time>2012-03-25T04:41:09Z</time>
      </trkpt>
      <trkpt lat="47.57604" lon="-0.45564">
        <ele>36.2</ele>
        <time>2012-03-25T04:41:12Z</time>
      </trkpt>
      <trkpt lat="47.57601" lon="-0.45551">
        <ele>36.3</ele>
        <time>2012-03-25T04:41:15Z</time>
      </trkpt>
      <trkpt lat="47.57609" lon="-0.45541">
        <ele>36.4</ele>
        <time>2012-03-25T04:41:22Z</time>
      </trkpt>
      <trkpt lat="47.57619" lon="-0.45546">
        <ele>36.5</ele>
        <time>2012-03-25T04:41:42Z</time>
      </trkpt>
      <trkpt lat="47.5763" lon="-0.45551">
        <ele>36.5</ele>
        <time>2012-03-25T04:41:46Z</time>
      </trkpt>
      <trkpt lat="47.57642" lon="-0.45552">
        <ele>36.6</ele>
        <time>2012-03-25T04:41:49Z</time>
      </trkpt>
      <trkpt lat="47.57654" lon="-0.4555">
        <ele>36.7</ele>
        <time>2012-03-25T04:41:52Z</time>
      </trkpt>
      <trkpt lat="47.57668" lon="-0.45548">
        <ele>36.8</ele>
        <time>2012-03-25T04:41:55Z</time>
      </trkpt>
      <trkpt lat="47.57682" lon="-0.45547">
        <ele>36.9</ele>
        <time>2012-03-25T04:41:58Z</time>
      </trkpt>
      <trkpt lat="47.57691" lon="-0.45546">
        <ele>37</ele>
        <time>2012-03-25T04:42:00Z</time>
      </trkpt>
      <trkpt lat="47.57701" lon="-0.45545">
        <ele>37</ele>
        <time>2012-03-25T04:42:02Z</time>
      </trkpt>
      <trkpt lat="47.5771" lon="-0.45544">
        <ele>37</ele>
        <time>2012-03-25T04:42:04Z</time>
      </trkpt>
      <trkpt lat="47.5772" lon="-0.45543">
        <ele>37</ele>
        <time>2012-03-25T04:42:06Z</time>
      </trkpt>
      <trkpt lat="47.5773" lon="-0.45541">
        <ele>37</ele>
        <time>2012-03-25T04:42:08Z</time>
      </trkpt>
      <trkpt lat="47.57739" lon="-0.45539">
        <ele>37.4</ele>
        <time>2012-03-25T04:42:10Z</time>
      </trkpt>
      <trkpt lat="47.57752" lon="-0.45537">
        <ele>37.7</ele>
        <time>2012-03-25T04:42:13Z</time>
      </trkpt>
      <trkpt lat="47.57761" lon="-0.45536">
        <ele>38.1</ele>
        <time>2012-03-25T04:42:15Z</time>
      </trkpt>
      <trkpt lat="47.57774" lon="-0.45534">
        <ele>38.5</ele>
        <time>2012-03-25T04:42:18Z</time>
      </trkpt>
      <trkpt lat="47.57787" lon="-0.45533">
        <ele>38.8</ele>
        <time>2012-03-25T04:42:21Z</time>
      </trkpt>
      <trkpt lat="47.57799" lon="-0.45532">
        <ele>39.2</ele>
        <time>2012-03-25T04:42:24Z</time>
      </trkpt>
      <trkpt lat="47.5781" lon="-0.45531">
        <ele>39.5</ele>
        <time>2012-03-25T04:42:27Z</time>
      </trkpt>
      <trkpt lat="47.57821" lon="-0.45528">
        <ele>40.1</ele>
        <time>2012-03-25T04:42:30Z</time>
      </trkpt>
      <trkpt lat="47.57832" lon="-0.45526">
        <ele>40.6</ele>
        <time>2012-03-25T04:42:33Z</time>
      </trkpt>
      <trkpt lat="47.57843" lon="-0.45523">
        <ele>41.2</ele>
        <time>2012-03-25T04:42:36Z</time>
      </trkpt>
      <trkpt lat="47.57856" lon="-0.45519">
        <ele>41.7</ele>
        <time>2012-03-25T04:42:39Z</time>
      </trkpt>
      <trkpt lat="47.57867" lon="-0.45514">
        <ele>41.9</ele>
        <time>2012-03-25T04:42:42Z</time>
      </trkpt>
      <trkpt lat="47.57878" lon="-0.45509">
        <ele>42.1</ele>
        <time>2012-03-25T04:42:45Z</time>
      </trkpt>
      <trkpt lat="47.57888" lon="-0.45504">
        <ele>42.3</ele>
        <time>2012-03-25T04:42:48Z</time>
      </trkpt>
      <trkpt lat="47.579" lon="-0.45498">
        <ele>42.5</ele>
        <time>2012-03-25T04:42:51Z</time>
      </trkpt>
      <trkpt lat="47.57911" lon="-0.45489">
        <ele>42.6</ele>
        <time>2012-03-25T04:42:54Z</time>
      </trkpt>
      <trkpt lat="47.57922" lon="-0.45482">
        <ele>42.5</ele>
        <time>2012-03-25T04:42:57Z</time>
      </trkpt>
      <trkpt lat="47.57933" lon="-0.45475">
        <ele>42.5</ele>
        <time>2012-03-25T04:43:00Z</time>
      </trkpt>
      <trkpt lat="47.57945" lon="-0.45467">
        <ele>42.2</ele>
        <time>2012-03-25T04:43:03Z</time>
      </trkpt>
      <trkpt lat="47.57957" lon="-0.45462">
        <ele>41.9</ele>
        <time>2012-03-25T04:43:06Z</time>
      </trkpt>
      <trkpt lat="47.57969" lon="-0.45455">
        <ele>41.6</ele>
        <time>2012-03-25T04:43:09Z</time>
      </trkpt>
      <trkpt lat="47.57978" lon="-0.45449">
        <ele>41.4</ele>
        <time>2012-03-25T04:43:11Z</time>
      </trkpt>
      <trkpt lat="47.5799" lon="-0.45442">
        <ele>41.1</ele>
        <time>2012-03-25T04:43:15Z</time>
      </trkpt>
      <trkpt lat="47.57999" lon="-0.45437">
        <ele>40.8</ele>
        <time>2012-03-25T04:43:16Z</time>
      </trkpt>
      <trkpt lat="47.58009" lon="-0.45432">
        <ele>40.5</ele>
        <time>2012-03-25T04:43:18Z</time>
      </trkpt>
      <trkpt lat="47.58018" lon="-0.45427">
        <ele>40.3</ele>
        <time>2012-03-25T04:43:20Z</time>
      </trkpt>
      <trkpt lat="47.58031" lon="-0.45422">
        <ele>40</ele>
        <time>2012-03-25T04:43:23Z</time>
      </trkpt>
      <trkpt lat="47.5804" lon="-0.45418">
        <ele>40</ele>
        <time>2012-03-25T04:43:25Z</time>
      </trkpt>
      <trkpt lat="47.5805" lon="-0.45414">
        <ele>40</ele>
        <time>2012-03-25T04:43:27Z</time>
      </trkpt>
      <trkpt lat="47.5806" lon="-0.4541">
        <ele>40</ele>
        <time>2012-03-25T04:43:29Z</time>
      </trkpt>
      <trkpt lat="47.5807" lon="-0.45406">
        <ele>40</ele>
        <time>2012-03-25T04:43:31Z</time>
      </trkpt>
      <trkpt lat="47.5808" lon="-0.45402">
        <ele>40.5</ele>
        <time>2012-03-25T04:43:33Z</time>
      </trkpt>
      <trkpt lat="47.58091" lon="-0.45398">
        <ele>40.9</ele>
        <time>2012-03-25T04:43:35Z</time>
      </trkpt>
      <trkpt lat="47.58101" lon="-0.45393">
        <ele>41.4</ele>
        <time>2012-03-25T04:43:37Z</time>
      </trkpt>
      <trkpt lat="47.58111" lon="-0.45388">
        <ele>41.9</ele>
        <time>2012-03-25T04:43:39Z</time>
      </trkpt>
      <trkpt lat="47.58121" lon="-0.45382">
        <ele>42.5</ele>
        <time>2012-03-25T04:43:41Z</time>
      </trkpt>
      <trkpt lat="47.5813" lon="-0.45378">
        <ele>43</ele>
        <time>2012-03-25T04:43:43Z</time>
      </trkpt>
      <trkpt lat="47.58139" lon="-0.45374">
        <ele>43.5</ele>
        <time>2012-03-25T04:43:46Z</time>
      </trkpt>
      <trkpt lat="47.58151" lon="-0.45369">
        <ele>44.1</ele>
        <time>2012-03-25T04:43:48Z</time>
      </trkpt>
      <trkpt lat="47.58162" lon="-0.45364">
        <ele>44.7</ele>
        <time>2012-03-25T04:43:51Z</time>
      </trkpt>
      <trkpt lat="47.58171" lon="-0.4536">
        <ele>45.4</ele>
        <time>2012-03-25T04:43:53Z</time>
      </trkpt>
      <trkpt lat="47.58183" lon="-0.45355">
        <ele>46</ele>
        <time>2012-03-25T04:43:56Z</time>
      </trkpt>
      <trkpt lat="47.58194" lon="-0.45351">
        <ele>46.2</ele>
        <time>2012-03-25T04:43:59Z</time>
      </trkpt>
      <trkpt lat="47.58204" lon="-0.45348">
        <ele>46.4</ele>
        <time>2012-03-25T04:44:02Z</time>
      </trkpt>
      <trkpt lat="47.58215" lon="-0.45345">
        <ele>46.5</ele>
        <time>2012-03-25T04:44:05Z</time>
      </trkpt>
      <trkpt lat="47.58226" lon="-0.4534">
        <ele>46.6</ele>
        <time>2012-03-25T04:44:08Z</time>
      </trkpt>
      <trkpt lat="47.58235" lon="-0.45336">
        <ele>46.7</ele>
        <time>2012-03-25T04:44:10Z</time>
      </trkpt>
      <trkpt lat="47.58246" lon="-0.4533">
        <ele>47.1</ele>
        <time>2012-03-25T04:44:12Z</time>
      </trkpt>
      <trkpt lat="47.58256" lon="-0.45325">
        <ele>47.5</ele>
        <time>2012-03-25T04:44:14Z</time>
      </trkpt>
      <trkpt lat="47.58269" lon="-0.45319">
        <ele>47.8</ele>
        <time>2012-03-25T04:44:17Z</time>
      </trkpt>
      <trkpt lat="47.58281" lon="-0.45313">
        <ele>48.1</ele>
        <time>2012-03-25T04:44:20Z</time>
      </trkpt>
      <trkpt lat="47.58291" lon="-0.45311">
        <ele>48.4</ele>
        <time>2012-03-25T04:44:23Z</time>
      </trkpt>
      <trkpt lat="47.58302" lon="-0.45307">
        <ele>48.5</ele>
        <time>2012-03-25T04:44:26Z</time>
      </trkpt>
      <trkpt lat="47.58313" lon="-0.45303">
        <ele>48.7</ele>
        <time>2012-03-25T04:44:29Z</time>
      </trkpt>
      <trkpt lat="47.58324" lon="-0.45298">
        <ele>48.9</ele>
        <time>2012-03-25T04:44:32Z</time>
      </trkpt>
      <trkpt lat="47.58335" lon="-0.45293">
        <ele>48.9</ele>
        <time>2012-03-25T04:44:35Z</time>
      </trkpt>
      <trkpt lat="47.58345" lon="-0.45288">
        <ele>48.9</ele>
        <time>2012-03-25T04:44:37Z</time>
      </trkpt>
      <trkpt lat="47.58354" lon="-0.45284">
        <ele>48.9</ele>
        <time>2012-03-25T04:44:39Z</time>
      </trkpt>
      <trkpt lat="47.58363" lon="-0.45279">
        <ele>48.6</ele>
        <time>2012-03-25T04:44:41Z</time>
      </trkpt>
      <trkpt lat="47.58372" lon="-0.45274">
        <ele>48.4</ele>
        <time>2012-03-25T04:44:43Z</time>
      </trkpt>
      <trkpt lat="47.58381" lon="-0.4527">
        <ele>48.1</ele>
        <time>2012-03-25T04:44:45Z</time>
      </trkpt>
      <trkpt lat="47.5839" lon="-0.45266">
        <ele>47.8</ele>
        <time>2012-03-25T04:44:47Z</time>
      </trkpt>
      <trkpt lat="47.58402" lon="-0.4526">
        <ele>47.7</ele>
        <time>2012-03-25T04:44:50Z</time>
      </trkpt>
      <trkpt lat="47.58415" lon="-0.45255">
        <ele>47.7</ele>
        <time>2012-03-25T04:44:53Z</time>
      </trkpt>
      <trkpt lat="47.58425" lon="-0.45254">
        <ele>47.7</ele>
        <time>2012-03-25T04:44:56Z</time>
      </trkpt>
      <trkpt lat="47.58437" lon="-0.45258">
        <ele>47.7</ele>
        <time>2012-03-25T04:44:59Z</time>
      </trkpt>
      <trkpt lat="47.58443" lon="-0.45273">
        <ele>47.9</ele>
        <time>2012-03-25T04:45:03Z</time>
      </trkpt>
      <trkpt lat="47.58445" lon="-0.4529">
        <ele>48.1</ele>
        <time>2012-03-25T04:45:06Z</time>
      </trkpt>
      <trkpt lat="47.58445" lon="-0.45307">
        <ele>48.3</ele>
        <time>2012-03-25T04:45:09Z</time>
      </trkpt>
      <trkpt lat="47.58443" lon="-0.45324">
        <ele>48.5</ele>
        <time>2012-03-25T04:45:12Z</time>
      </trkpt>
      <trkpt lat="47.5844" lon="-0.45342">
        <ele>48.6</ele>
        <time>2012-03-25T04:45:15Z</time>
      </trkpt>
      <trkpt lat="47.58439" lon="-0.45356">
        <ele>48.8</ele>
        <time>2012-03-25T04:45:17Z</time>
      </trkpt>
      <trkpt lat="47.58436" lon="-0.45375">
        <ele>48.8</ele>
        <time>2012-03-25T04:45:20Z</time>
      </trkpt>
      <trkpt lat="47.58433" lon="-0.45394">
        <ele>48.6</ele>
        <time>2012-03-25T04:45:23Z</time>
      </trkpt>
      <trkpt lat="47.58431" lon="-0.45412">
        <ele>48.5</ele>
        <time>2012-03-25T04:45:26Z</time>
      </trkpt>
      <trkpt lat="47.58429" lon="-0.4543">
        <ele>48.3</ele>
        <time>2012-03-25T04:45:29Z</time>
      </trkpt>
      <trkpt lat="47.58426" lon="-0.4545">
        <ele>48.1</ele>
        <time>2012-03-25T04:45:33Z</time>
      </trkpt>
      <trkpt lat="47.58425" lon="-0.45464">
        <ele>47.9</ele>
        <time>2012-03-25T04:45:34Z</time>
      </trkpt>
      <trkpt lat="47.58422" lon="-0.45478">
        <ele>47.9</ele>
        <time>2012-03-25T04:45:36Z</time>
      </trkpt>
      <trkpt lat="47.5842" lon="-0.45491">
        <ele>47.9</ele>
        <time>2012-03-25T04:45:38Z</time>
      </trkpt>
      <trkpt lat="47.58418" lon="-0.45504">
        <ele>47.9</ele>
        <time>2012-03-25T04:45:40Z</time>
      </trkpt>
      <trkpt lat="47.58416" lon="-0.45518">
        <ele>47.9</ele>
        <time>2012-03-25T04:45:42Z</time>
      </trkpt>
      <trkpt lat="47.58415" lon="-0.45532">
        <ele>47.9</ele>
        <time>2012-03-25T04:45:44Z</time>
      </trkpt>
      <trkpt lat="47.58413" lon="-0.45547">
        <ele>48.1</ele>
        <time>2012-03-25T04:45:47Z</time>
      </trkpt>
      <trkpt lat="47.58411" lon="-0.45565">
        <ele>48.3</ele>
        <time>2012-03-25T04:45:49Z</time>
      </trkpt>
      <trkpt lat="47.58408" lon="-0.45582">
        <ele>48.1</ele>
        <time>2012-03-25T04:45:52Z</time>
      </trkpt>
      <trkpt lat="47.58408" lon="-0.45596">
        <ele>47.9</ele>
        <time>2012-03-25T04:45:54Z</time>
      </trkpt>
      <trkpt lat="47.58418" lon="-0.45607">
        <ele>47.7</ele>
        <time>2012-03-25T04:45:57Z</time>
      </trkpt>
      <trkpt lat="47.58431" lon="-0.45604">
        <ele>47.5</ele>
        <time>2012-03-25T04:46:01Z</time>
      </trkpt>
      <trkpt lat="47.58448" lon="-0.45597">
        <ele>47.2</ele>
        <time>2012-03-25T04:46:03Z</time>
      </trkpt>
      <trkpt lat="47.5846" lon="-0.45594">
        <ele>46.8</ele>
        <time>2012-03-25T04:46:05Z</time>
      </trkpt>
      <trkpt lat="47.58472" lon="-0.45592">
        <ele>46.5</ele>
        <time>2012-03-25T04:46:07Z</time>
      </trkpt>
      <trkpt lat="47.58485" lon="-0.45592">
        <ele>46.1</ele>
        <time>2012-03-25T04:46:09Z</time>
      </trkpt>
      <trkpt lat="47.58497" lon="-0.45595">
        <ele>45.4</ele>
        <time>2012-03-25T04:46:11Z</time>
      </trkpt>
      <trkpt lat="47.58509" lon="-0.45601">
        <ele>44.6</ele>
        <time>2012-03-25T04:46:13Z</time>
      </trkpt>
      <trkpt lat="47.58519" lon="-0.45608">
        <ele>43.9</ele>
        <time>2012-03-25T04:46:15Z</time>
      </trkpt>
      <trkpt lat="47.58531" lon="-0.4561">
        <ele>43.5</ele>
        <time>2012-03-25T04:46:17Z</time>
      </trkpt>
      <trkpt lat="47.58542" lon="-0.45601">
        <ele>43.1</ele>
        <time>2012-03-25T04:46:19Z</time>
      </trkpt>
      <trkpt lat="47.58551" lon="-0.45585">
        <ele>42.6</ele>
        <time>2012-03-25T04:46:21Z</time>
      </trkpt>
      <trkpt lat="47.5856" lon="-0.45569">
        <ele>42.2</ele>
        <time>2012-03-25T04:46:23Z</time>
      </trkpt>
      <trkpt lat="47.58567" lon="-0.45553">
        <ele>41.7</ele>
        <time>2012-03-25T04:46:25Z</time>
      </trkpt>
      <trkpt lat="47.58574" lon="-0.45537">
        <ele>41.3</ele>
        <time>2012-03-25T04:46:28Z</time>
      </trkpt>
      <trkpt lat="47.58581" lon="-0.45521">
        <ele>40.7</ele>
        <time>2012-03-25T04:46:29Z</time>
      </trkpt>
      <trkpt lat="47.58589" lon="-0.45505">
        <ele>40.2</ele>
        <time>2012-03-25T04:46:31Z</time>
      </trkpt>
      <trkpt lat="47.58598" lon="-0.45488">
        <ele>40</ele>
        <time>2012-03-25T04:46:33Z</time>
      </trkpt>
      <trkpt lat="47.58607" lon="-0.45471">
        <ele>39.8</ele>
        <time>2012-03-25T04:46:35Z</time>
      </trkpt>
      <trkpt lat="47.58615" lon="-0.45455">
        <ele>39.6</ele>
        <time>2012-03-25T04:46:37Z</time>
      </trkpt>
      <trkpt lat="47.58623" lon="-0.45437">
        <ele>39.5</ele>
        <time>2012-03-25T04:46:40Z</time>
      </trkpt>
      <trkpt lat="47.58631" lon="-0.45421">
        <ele>39.4</ele>
        <time>2012-03-25T04:46:41Z</time>
      </trkpt>
      <trkpt lat="47.58638" lon="-0.45404">
        <ele>39.3</ele>
        <time>2012-03-25T04:46:43Z</time>
      </trkpt>
      <trkpt lat="47.58645" lon="-0.45388">
        <ele>39.2</ele>
        <time>2012-03-25T04:46:45Z</time>
      </trkpt>
      <trkpt lat="47.58653" lon="-0.45373">
        <ele>39.1</ele>
        <time>2012-03-25T04:46:47Z</time>
      </trkpt>
      <trkpt lat="47.5866" lon="-0.4536">
        <ele>39</ele>
        <time>2012-03-25T04:46:49Z</time>
      </trkpt>
      <trkpt lat="47.58667" lon="-0.45349">
        <ele>38.7</ele>
        <time>2012-03-25T04:46:51Z</time>
      </trkpt>
      <trkpt lat="47.58676" lon="-0.45334">
        <ele>38.5</ele>
        <time>2012-03-25T04:46:53Z</time>
      </trkpt>
      <trkpt lat="47.58684" lon="-0.45322">
        <ele>38.2</ele>
        <time>2012-03-25T04:46:55Z</time>
      </trkpt>
      <trkpt lat="47.58693" lon="-0.45311">
        <ele>37.9</ele>
        <time>2012-03-25T04:46:57Z</time>
      </trkpt>
      <trkpt lat="47.58703" lon="-0.45299">
        <ele>37.6</ele>
        <time>2012-03-25T04:46:59Z</time>
      </trkpt>
      <trkpt lat="47.58714" lon="-0.45285">
        <ele>37.4</ele>
        <time>2012-03-25T04:47:01Z</time>
      </trkpt>
      <trkpt lat="47.58724" lon="-0.45274">
        <ele>37.1</ele>
        <time>2012-03-25T04:47:03Z</time>
      </trkpt>
      <trkpt lat="47.58736" lon="-0.45262">
        <ele>36.8</ele>
        <time>2012-03-25T04:47:05Z</time>
      </trkpt>
      <trkpt lat="47.58747" lon="-0.4525">
        <ele>36.5</ele>
        <time>2012-03-25T04:47:08Z</time>
      </trkpt>
      <trkpt lat="47.58757" lon="-0.45239">
        <ele>36.1</ele>
        <time>2012-03-25T04:47:09Z</time>
      </trkpt>
      <trkpt lat="47.58767" lon="-0.45226">
        <ele>35.7</ele>
        <time>2012-03-25T04:47:11Z</time>
      </trkpt>
      <trkpt lat="47.58777" lon="-0.45214">
        <ele>35.6</ele>
        <time>2012-03-25T04:47:13Z</time>
      </trkpt>
      <trkpt lat="47.58786" lon="-0.45205">
        <ele>35.5</ele>
        <time>2012-03-25T04:47:15Z</time>
      </trkpt>
      <trkpt lat="47.58797" lon="-0.45192">
        <ele>35.5</ele>
        <time>2012-03-25T04:47:17Z</time>
      </trkpt>
      <trkpt lat="47.58807" lon="-0.45182">
        <ele>35.4</ele>
        <time>2012-03-25T04:47:19Z</time>
      </trkpt>
      <trkpt lat="47.58817" lon="-0.4517">
        <ele>35.1</ele>
        <time>2012-03-25T04:47:21Z</time>
      </trkpt>
      <trkpt lat="47.58828" lon="-0.45158">
        <ele>34.8</ele>
        <time>2012-03-25T04:47:23Z</time>
      </trkpt>
      <trkpt lat="47.58837" lon="-0.45146">
        <ele>34.5</ele>
        <time>2012-03-25T04:47:25Z</time>
      </trkpt>
      <trkpt lat="47.58847" lon="-0.45135">
        <ele>34.3</ele>
        <time>2012-03-25T04:47:27Z</time>
      </trkpt>
      <trkpt lat="47.58858" lon="-0.45123">
        <ele>34.1</ele>
        <time>2012-03-25T04:47:29Z</time>
      </trkpt>
      <trkpt lat="47.58867" lon="-0.45106">
        <ele>33.9</ele>
        <time>2012-03-25T04:47:31Z</time>
      </trkpt>
      <trkpt lat="47.58871" lon="-0.45089">
        <ele>33.7</ele>
        <time>2012-03-25T04:47:33Z</time>
      </trkpt>
      <trkpt lat="47.58872" lon="-0.45069">
        <ele>33.5</ele>
        <time>2012-03-25T04:47:35Z</time>
      </trkpt>
      <trkpt lat="47.58871" lon="-0.45048">
        <ele>33.3</ele>
        <time>2012-03-25T04:47:38Z</time>
      </trkpt>
      <trkpt lat="47.58868" lon="-0.4502">
        <ele>33</ele>
        <time>2012-03-25T04:47:40Z</time>
      </trkpt>
      <trkpt lat="47.58864" lon="-0.45">
        <ele>32.7</ele>
        <time>2012-03-25T04:47:42Z</time>
      </trkpt>
      <trkpt lat="47.58861" lon="-0.44983">
        <ele>32.6</ele>
        <time>2012-03-25T04:47:44Z</time>
      </trkpt>
      <trkpt lat="47.58857" lon="-0.44964">
        <ele>32.5</ele>
        <time>2012-03-25T04:47:46Z</time>
      </trkpt>
      <trkpt lat="47.58854" lon="-0.44947">
        <ele>32.5</ele>
        <time>2012-03-25T04:47:48Z</time>
      </trkpt>
      <trkpt lat="47.58852" lon="-0.44932">
        <ele>32.3</ele>
        <time>2012-03-25T04:47:50Z</time>
      </trkpt>
      <trkpt lat="47.58849" lon="-0.44916">
        <ele>32.1</ele>
        <time>2012-03-25T04:47:53Z</time>
      </trkpt>
      <trkpt lat="47.58847" lon="-0.44903">
        <ele>31.9</ele>
        <time>2012-03-25T04:47:56Z</time>
      </trkpt>
      <trkpt lat="47.58845" lon="-0.44887">
        <ele>31.7</ele>
        <time>2012-03-25T04:48:00Z</time>
      </trkpt>
      <trkpt lat="47.58843" lon="-0.44874">
        <ele>31.5</ele>
        <time>2012-03-25T04:48:02Z</time>
      </trkpt>
      <trkpt lat="47.5884" lon="-0.44854">
        <ele>31.4</ele>
        <time>2012-03-25T04:48:05Z</time>
      </trkpt>
      <trkpt lat="47.58838" lon="-0.44838">
        <ele>31.2</ele>
        <time>2012-03-25T04:48:07Z</time>
      </trkpt>
      <trkpt lat="47.58835" lon="-0.44819">
        <ele>31</ele>
        <time>2012-03-25T04:48:09Z</time>
      </trkpt>
      <trkpt lat="47.58832" lon="-0.44798">
        <ele>30.8</ele>
        <time>2012-03-25T04:48:11Z</time>
      </trkpt>
      <trkpt lat="47.5883" lon="-0.44781">
        <ele>30.9</ele>
        <time>2012-03-25T04:48:13Z</time>
      </trkpt>
      <trkpt lat="47.58828" lon="-0.44766">
        <ele>31</ele>
        <time>2012-03-25T04:48:15Z</time>
      </trkpt>
      <trkpt lat="47.58826" lon="-0.4475">
        <ele>31.2</ele>
        <time>2012-03-25T04:48:17Z</time>
      </trkpt>
      <trkpt lat="47.58824" lon="-0.44732">
        <ele>31.4</ele>
        <time>2012-03-25T04:48:19Z</time>
      </trkpt>
      <trkpt lat="47.58822" lon="-0.44713">
        <ele>31.5</ele>
        <time>2012-03-25T04:48:21Z</time>
      </trkpt>
      <trkpt lat="47.5882" lon="-0.44695">
        <ele>31.7</ele>
        <time>2012-03-25T04:48:23Z</time>
      </trkpt>
      <trkpt lat="47.58818" lon="-0.44676">
        <ele>31.9</ele>
        <time>2012-03-25T04:48:25Z</time>
      </trkpt>
      <trkpt lat="47.58817" lon="-0.44658">
        <ele>32.2</ele>
        <time>2012-03-25T04:48:27Z</time>
      </trkpt>
      <trkpt lat="47.58815" lon="-0.4464">
        <ele>32.5</ele>
        <time>2012-03-25T04:48:29Z</time>
      </trkpt>
      <trkpt lat="47.58814" lon="-0.44623">
        <ele>32.7</ele>
        <time>2012-03-25T04:48:31Z</time>
      </trkpt>
      <trkpt lat="47.58812" lon="-0.44606">
        <ele>32.9</ele>
        <time>2012-03-25T04:48:33Z</time>
      </trkpt>
      <trkpt lat="47.58811" lon="-0.44593">
        <ele>32.8</ele>
        <time>2012-03-25T04:48:35Z</time>
      </trkpt>
      <trkpt lat="47.58809" lon="-0.44578">
        <ele>32.7</ele>
        <time>2012-03-25T04:48:37Z</time>
      </trkpt>
      <trkpt lat="47.58807" lon="-0.44562">
        <ele>32.6</ele>
        <time>2012-03-25T04:48:39Z</time>
      </trkpt>
      <trkpt lat="47.58805" lon="-0.44546">
        <ele>32.4</ele>
        <time>2012-03-25T04:48:41Z</time>
      </trkpt>
      <trkpt lat="47.58803" lon="-0.44531">
        <ele>31.9</ele>
        <time>2012-03-25T04:48:43Z</time>
      </trkpt>
      <trkpt lat="47.588" lon="-0.44514">
        <ele>31.5</ele>
        <time>2012-03-25T04:48:45Z</time>
      </trkpt>
      <trkpt lat="47.58798" lon="-0.44497">
        <ele>31</ele>
        <time>2012-03-25T04:48:47Z</time>
      </trkpt>
      <trkpt lat="47.58796" lon="-0.44479">
        <ele>30.5</ele>
        <time>2012-03-25T04:48:49Z</time>
      </trkpt>
      <trkpt lat="47.58794" lon="-0.44461">
        <ele>30.1</ele>
        <time>2012-03-25T04:48:51Z</time>
      </trkpt>
      <trkpt lat="47.58792" lon="-0.44445">
        <ele>29.7</ele>
        <time>2012-03-25T04:48:53Z</time>
      </trkpt>
      <trkpt lat="47.58791" lon="-0.44429">
        <ele>29.5</ele>
        <time>2012-03-25T04:48:55Z</time>
      </trkpt>
      <trkpt lat="47.58789" lon="-0.44409">
        <ele>29.2</ele>
        <time>2012-03-25T04:48:57Z</time>
      </trkpt>
      <trkpt lat="47.58787" lon="-0.4439">
        <ele>28.9</ele>
        <time>2012-03-25T04:48:59Z</time>
      </trkpt>
      <trkpt lat="47.58785" lon="-0.44372">
        <ele>28.6</ele>
        <time>2012-03-25T04:49:01Z</time>
      </trkpt>
      <trkpt lat="47.58783" lon="-0.44355">
        <ele>28.5</ele>
        <time>2012-03-25T04:49:03Z</time>
      </trkpt>
      <trkpt lat="47.58781" lon="-0.44338">
        <ele>28.5</ele>
        <time>2012-03-25T04:49:05Z</time>
      </trkpt>
      <trkpt lat="47.58779" lon="-0.44322">
        <ele>28.5</ele>
        <time>2012-03-25T04:49:07Z</time>
      </trkpt>
      <trkpt lat="47.58778" lon="-0.44307">
        <ele>28.5</ele>
        <time>2012-03-25T04:49:09Z</time>
      </trkpt>
      <trkpt lat="47.58775" lon="-0.44289">
        <ele>28.4</ele>
        <time>2012-03-25T04:49:11Z</time>
      </trkpt>
      <trkpt lat="47.58773" lon="-0.44273">
        <ele>28.3</ele>
        <time>2012-03-25T04:49:13Z</time>
      </trkpt>
      <trkpt lat="47.58771" lon="-0.44255">
        <ele>28.1</ele>
        <time>2012-03-25T04:49:15Z</time>
      </trkpt>
      <trkpt lat="47.58769" lon="-0.44237">
        <ele>27.9</ele>
        <time>2012-03-25T04:49:17Z</time>
      </trkpt>
      <trkpt lat="47.58767" lon="-0.4422">
        <ele>27.7</ele>
        <time>2012-03-25T04:49:19Z</time>
      </trkpt>
      <trkpt lat="47.58766" lon="-0.44201">
        <ele>27.5</ele>
        <time>2012-03-25T04:49:21Z</time>
      </trkpt>
      <trkpt lat="47.58764" lon="-0.44182">
        <ele>27.4</ele>
        <time>2012-03-25T04:49:23Z</time>
      </trkpt>
      <trkpt lat="47.58763" lon="-0.44167">
        <ele>27.3</ele>
        <time>2012-03-25T04:49:25Z</time>
      </trkpt>
      <trkpt lat="47.58761" lon="-0.44148">
        <ele>27.2</ele>
        <time>2012-03-25T04:49:27Z</time>
      </trkpt>
      <trkpt lat="47.5876" lon="-0.44132">
        <ele>27.1</ele>
        <time>2012-03-25T04:49:29Z</time>
      </trkpt>
      <trkpt lat="47.58758" lon="-0.44113">
        <ele>27</ele>
        <time>2012-03-25T04:49:31Z</time>
      </trkpt>
      <trkpt lat="47.58752" lon="-0.44097">
        <ele>26.8</ele>
        <time>2012-03-25T04:49:33Z</time>
      </trkpt>
      <trkpt lat="47.58744" lon="-0.4408">
        <ele>26.6</ele>
        <time>2012-03-25T04:49:35Z</time>
      </trkpt>
      <trkpt lat="47.58735" lon="-0.44067">
        <ele>26.5</ele>
        <time>2012-03-25T04:49:37Z</time>
      </trkpt>
      <trkpt lat="47.58725" lon="-0.44054">
        <ele>26.3</ele>
        <time>2012-03-25T04:49:39Z</time>
      </trkpt>
      <trkpt lat="47.58715" lon="-0.44041">
        <ele>26.1</ele>
        <time>2012-03-25T04:49:41Z</time>
      </trkpt>
      <trkpt lat="47.58706" lon="-0.4403">
        <ele>25.9</ele>
        <time>2012-03-25T04:49:43Z</time>
      </trkpt>
      <trkpt lat="47.58698" lon="-0.4402">
        <ele>25.7</ele>
        <time>2012-03-25T04:49:45Z</time>
      </trkpt>
      <trkpt lat="47.5869" lon="-0.4401">
        <ele>25.5</ele>
        <time>2012-03-25T04:49:47Z</time>
      </trkpt>
      <trkpt lat="47.58686" lon="-0.43996">
        <ele>25.2</ele>
        <time>2012-03-25T04:49:49Z</time>
      </trkpt>
      <trkpt lat="47.5869" lon="-0.43978">
        <ele>24.9</ele>
        <time>2012-03-25T04:49:52Z</time>
      </trkpt>
      <trkpt lat="47.58697" lon="-0.43965">
        <ele>24.6</ele>
        <time>2012-03-25T04:49:54Z</time>
      </trkpt>
      <trkpt lat="47.58705" lon="-0.4395">
        <ele>24.5</ele>
        <time>2012-03-25T04:49:56Z</time>
      </trkpt>
      <trkpt lat="47.58712" lon="-0.43936">
        <ele>24.5</ele>
        <time>2012-03-25T04:49:58Z</time>
      </trkpt>
      <trkpt lat="47.58719" lon="-0.43922">
        <ele>24.5</ele>
        <time>2012-03-25T04:50:00Z</time>
      </trkpt>
      <trkpt lat="47.58726" lon="-0.43909">
        <ele>24.6</ele>
        <time>2012-03-25T04:50:02Z</time>
      </trkpt>
      <trkpt lat="47.58734" lon="-0.43895">
        <ele>24.7</ele>
        <time>2012-03-25T04:50:04Z</time>
      </trkpt>
      <trkpt lat="47.58743" lon="-0.43881">
        <ele>24.8</ele>
        <time>2012-03-25T04:50:06Z</time>
      </trkpt>
      <trkpt lat="47.5875" lon="-0.43868">
        <ele>24.9</ele>
        <time>2012-03-25T04:50:08Z</time>
      </trkpt>
      <trkpt lat="47.58759" lon="-0.43853">
        <ele>24.9</ele>
        <time>2012-03-25T04:50:10Z</time>
      </trkpt>
      <trkpt lat="47.58766" lon="-0.43839">
        <ele>24.9</ele>
        <time>2012-03-25T04:50:12Z</time>
      </trkpt>
      <trkpt lat="47.58773" lon="-0.43824">
        <ele>24.9</ele>
        <time>2012-03-25T04:50:14Z</time>
      </trkpt>
      <trkpt lat="47.58781" lon="-0.43812">
        <ele>24.9</ele>
        <time>2012-03-25T04:50:16Z</time>
      </trkpt>
      <trkpt lat="47.58788" lon="-0.438">
        <ele>24.9</ele>
        <time>2012-03-25T04:50:18Z</time>
      </trkpt>
      <trkpt lat="47.58795" lon="-0.43786">
        <ele>24.9</ele>
        <time>2012-03-25T04:50:20Z</time>
      </trkpt>
      <trkpt lat="47.58803" lon="-0.43772">
        <ele>24.7</ele>
        <time>2012-03-25T04:50:22Z</time>
      </trkpt>
      <trkpt lat="47.58811" lon="-0.43758">
        <ele>24.5</ele>
        <time>2012-03-25T04:50:24Z</time>
      </trkpt>
      <trkpt lat="47.5882" lon="-0.43746">
        <ele>24.2</ele>
        <time>2012-03-25T04:50:26Z</time>
      </trkpt>
      <trkpt lat="47.58829" lon="-0.43735">
        <ele>23.8</ele>
        <time>2012-03-25T04:50:28Z</time>
      </trkpt>
      <trkpt lat="47.58837" lon="-0.43724">
        <ele>23.5</ele>
        <time>2012-03-25T04:50:30Z</time>
      </trkpt>
      <trkpt lat="47.58846" lon="-0.43712">
        <ele>23.3</ele>
        <time>2012-03-25T04:50:32Z</time>
      </trkpt>
      <trkpt lat="47.58855" lon="-0.43701">
        <ele>23.1</ele>
        <time>2012-03-25T04:50:34Z</time>
      </trkpt>
      <trkpt lat="47.58862" lon="-0.43688">
        <ele>22.9</ele>
        <time>2012-03-25T04:50:36Z</time>
      </trkpt>
      <trkpt lat="47.5887" lon="-0.43674">
        <ele>22.8</ele>
        <time>2012-03-25T04:50:38Z</time>
      </trkpt>
      <trkpt lat="47.58879" lon="-0.43659">
        <ele>22.7</ele>
        <time>2012-03-25T04:50:40Z</time>
      </trkpt>
      <trkpt lat="47.58887" lon="-0.43646">
        <ele>22.6</ele>
        <time>2012-03-25T04:50:42Z</time>
      </trkpt>
      <trkpt lat="47.58895" lon="-0.43636">
        <ele>22.5</ele>
        <time>2012-03-25T04:50:44Z</time>
      </trkpt>
      <trkpt lat="47.58906" lon="-0.43623">
        <ele>22.5</ele>
        <time>2012-03-25T04:50:46Z</time>
      </trkpt>
      <trkpt lat="47.58917" lon="-0.43612">
        <ele>22.5</ele>
        <time>2012-03-25T04:50:48Z</time>
      </trkpt>
      <trkpt lat="47.58926" lon="-0.43601">
        <ele>23.1</ele>
        <time>2012-03-25T04:50:50Z</time>
      </trkpt>
      <trkpt lat="47.58935" lon="-0.4359">
        <ele>23.4</ele>
        <time>2012-03-25T04:50:52Z</time>
      </trkpt>
      <trkpt lat="47.58944" lon="-0.43578">
        <ele>23.6</ele>
        <time>2012-03-25T04:50:54Z</time>
      </trkpt>
      <trkpt lat="47.58951" lon="-0.43564">
        <ele>23.9</ele>
        <time>2012-03-25T04:50:56Z</time>
      </trkpt>
      <trkpt lat="47.58956" lon="-0.4355">
        <ele>24.2</ele>
        <time>2012-03-25T04:50:58Z</time>
      </trkpt>
      <trkpt lat="47.58961" lon="-0.43534">
        <ele>24.4</ele>
        <time>2012-03-25T04:51:00Z</time>
      </trkpt>
      <trkpt lat="47.58965" lon="-0.43516">
        <ele>24.5</ele>
        <time>2012-03-25T04:51:02Z</time>
      </trkpt>
      <trkpt lat="47.58971" lon="-0.43498">
        <ele>24.5</ele>
        <time>2012-03-25T04:51:04Z</time>
      </trkpt>
      <trkpt lat="47.58976" lon="-0.43482">
        <ele>24.6</ele>
        <time>2012-03-25T04:51:06Z</time>
      </trkpt>
      <trkpt lat="47.58979" lon="-0.43467">
        <ele>24.7</ele>
        <time>2012-03-25T04:51:08Z</time>
      </trkpt>
      <trkpt lat="47.58982" lon="-0.43451">
        <ele>24.8</ele>
        <time>2012-03-25T04:51:10Z</time>
      </trkpt>
      <trkpt lat="47.58984" lon="-0.43432">
        <ele>24.5</ele>
        <time>2012-03-25T04:51:12Z</time>
      </trkpt>
      <trkpt lat="47.58986" lon="-0.43419">
        <ele>24.5</ele>
        <time>2012-03-25T04:51:14Z</time>
      </trkpt>
      <trkpt lat="47.58988" lon="-0.43402">
        <ele>24.5</ele>
        <time>2012-03-25T04:51:16Z</time>
      </trkpt>
      <trkpt lat="47.5899" lon="-0.43385">
        <ele>24.5</ele>
        <time>2012-03-25T04:51:18Z</time>
      </trkpt>
      <trkpt lat="47.58993" lon="-0.43369">
        <ele>24.5</ele>
        <time>2012-03-25T04:51:20Z</time>
      </trkpt>
      <trkpt lat="47.58995" lon="-0.43354">
        <ele>24.6</ele>
        <time>2012-03-25T04:51:22Z</time>
      </trkpt>
      <trkpt lat="47.58997" lon="-0.43339">
        <ele>24.8</ele>
        <time>2012-03-25T04:51:24Z</time>
      </trkpt>
      <trkpt lat="47.58999" lon="-0.43323">
        <ele>25</ele>
        <time>2012-03-25T04:51:26Z</time>
      </trkpt>
      <trkpt lat="47.59001" lon="-0.43307">
        <ele>25.2</ele>
        <time>2012-03-25T04:51:28Z</time>
      </trkpt>
      <trkpt lat="47.59003" lon="-0.43291">
        <ele>25.4</ele>
        <time>2012-03-25T04:51:30Z</time>
      </trkpt>
      <trkpt lat="47.59005" lon="-0.43276">
        <ele>25.5</ele>
        <time>2012-03-25T04:51:32Z</time>
      </trkpt>
      <trkpt lat="47.59007" lon="-0.43259">
        <ele>25.5</ele>
        <time>2012-03-25T04:51:34Z</time>
      </trkpt>
      <trkpt lat="47.59009" lon="-0.43243">
        <ele>25.5</ele>
        <time>2012-03-25T04:51:36Z</time>
      </trkpt>
      <trkpt lat="47.59011" lon="-0.43229">
        <ele>25.5</ele>
        <time>2012-03-25T04:51:38Z</time>
      </trkpt>
      <trkpt lat="47.59013" lon="-0.43212">
        <ele>25.5</ele>
        <time>2012-03-25T04:51:40Z</time>
      </trkpt>
      <trkpt lat="47.59015" lon="-0.43197">
        <ele>25.5</ele>
        <time>2012-03-25T04:51:42Z</time>
      </trkpt>
      <trkpt lat="47.59016" lon="-0.4318">
        <ele>25.4</ele>
        <time>2012-03-25T04:51:44Z</time>
      </trkpt>
      <trkpt lat="47.59017" lon="-0.43163">
        <ele>25.3</ele>
        <time>2012-03-25T04:51:46Z</time>
      </trkpt>
      <trkpt lat="47.59018" lon="-0.43148">
        <ele>25.2</ele>
        <time>2012-03-25T04:51:48Z</time>
      </trkpt>
      <trkpt lat="47.59019" lon="-0.4313">
        <ele>25.1</ele>
        <time>2012-03-25T04:51:50Z</time>
      </trkpt>
      <trkpt lat="47.5902" lon="-0.43114">
        <ele>25</ele>
        <time>2012-03-25T04:51:52Z</time>
      </trkpt>
      <trkpt lat="47.59022" lon="-0.43098">
        <ele>25</ele>
        <time>2012-03-25T04:51:54Z</time>
      </trkpt>
      <trkpt lat="47.59024" lon="-0.4308">
        <ele>25</ele>
        <time>2012-03-25T04:51:56Z</time>
      </trkpt>
      <trkpt lat="47.59026" lon="-0.43066">
        <ele>25</ele>
        <time>2012-03-25T04:51:58Z</time>
      </trkpt>
      <trkpt lat="47.59028" lon="-0.4305">
        <ele>25</ele>
        <time>2012-03-25T04:52:00Z</time>
      </trkpt>
      <trkpt lat="47.59029" lon="-0.43035">
        <ele>25</ele>
        <time>2012-03-25T04:52:02Z</time>
      </trkpt>
      <trkpt lat="47.59029" lon="-0.43022">
        <ele>24.9</ele>
        <time>2012-03-25T04:52:04Z</time>
      </trkpt>
      <trkpt lat="47.5903" lon="-0.43007">
        <ele>24.8</ele>
        <time>2012-03-25T04:52:06Z</time>
      </trkpt>
      <trkpt lat="47.59032" lon="-0.42991">
        <ele>24.7</ele>
        <time>2012-03-25T04:52:08Z</time>
      </trkpt>
      <trkpt lat="47.59033" lon="-0.42976">
        <ele>24.6</ele>
        <time>2012-03-25T04:52:10Z</time>
      </trkpt>
      <trkpt lat="47.59034" lon="-0.42962">
        <ele>24.5</ele>
        <time>2012-03-25T04:52:12Z</time>
      </trkpt>
      <trkpt lat="47.59035" lon="-0.42944">
        <ele>24.5</ele>
        <time>2012-03-25T04:52:14Z</time>
      </trkpt>
      <trkpt lat="47.59035" lon="-0.42927">
        <ele>24.5</ele>
        <time>2012-03-25T04:52:16Z</time>
      </trkpt>
      <trkpt lat="47.59034" lon="-0.4291">
        <ele>24.5</ele>
        <time>2012-03-25T04:52:18Z</time>
      </trkpt>
      <trkpt lat="47.59032" lon="-0.42896">
        <ele>24.5</ele>
        <time>2012-03-25T04:52:20Z</time>
      </trkpt>
      <trkpt lat="47.5903" lon="-0.42878">
        <ele>24.5</ele>
        <time>2012-03-25T04:52:22Z</time>
      </trkpt>
      <trkpt lat="47.59027" lon="-0.42862">
        <ele>24.5</ele>
        <time>2012-03-25T04:52:24Z</time>
      </trkpt>
      <trkpt lat="47.59024" lon="-0.42848">
        <ele>24.6</ele>
        <time>2012-03-25T04:52:26Z</time>
      </trkpt>
      <trkpt lat="47.59018" lon="-0.42832">
        <ele>24.6</ele>
        <time>2012-03-25T04:52:28Z</time>
      </trkpt>
      <trkpt lat="47.59013" lon="-0.4282">
        <ele>24.6</ele>
        <time>2012-03-25T04:52:30Z</time>
      </trkpt>
      <trkpt lat="47.59006" lon="-0.42806">
        <ele>24.6</ele>
        <time>2012-03-25T04:52:32Z</time>
      </trkpt>
      <trkpt lat="47.58999" lon="-0.42793">
        <ele>24.6</ele>
        <time>2012-03-25T04:52:34Z</time>
      </trkpt>
      <trkpt lat="47.58992" lon="-0.4278">
        <ele>24.7</ele>
        <time>2012-03-25T04:52:36Z</time>
      </trkpt>
      <trkpt lat="47.58985" lon="-0.42768">
        <ele>24.8</ele>
        <time>2012-03-25T04:52:38Z</time>
      </trkpt>
      <trkpt lat="47.58979" lon="-0.42757">
        <ele>24.8</ele>
        <time>2012-03-25T04:52:40Z</time>
      </trkpt>
      <trkpt lat="47.58971" lon="-0.42744">
        <ele>24.8</ele>
        <time>2012-03-25T04:52:42Z</time>
      </trkpt>
      <trkpt lat="47.58963" lon="-0.42731">
        <ele>24.8</ele>
        <time>2012-03-25T04:52:44Z</time>
      </trkpt>
      <trkpt lat="47.58955" lon="-0.42717">
        <ele>24.8</ele>
        <time>2012-03-25T04:52:46Z</time>
      </trkpt>
      <trkpt lat="47.58949" lon="-0.42705">
        <ele>24.8</ele>
        <time>2012-03-25T04:52:48Z</time>
      </trkpt>
      <trkpt lat="47.58942" lon="-0.42692">
        <ele>24.9</ele>
        <time>2012-03-25T04:52:50Z</time>
      </trkpt>
      <trkpt lat="47.58934" lon="-0.42679">
        <ele>25.2</ele>
        <time>2012-03-25T04:52:52Z</time>
      </trkpt>
      <trkpt lat="47.58929" lon="-0.42667">
        <ele>25.5</ele>
        <time>2012-03-25T04:52:54Z</time>
      </trkpt>
      <trkpt lat="47.58922" lon="-0.42655">
        <ele>25.7</ele>
        <time>2012-03-25T04:52:56Z</time>
      </trkpt>
      <trkpt lat="47.58915" lon="-0.42641">
        <ele>25.8</ele>
        <time>2012-03-25T04:52:58Z</time>
      </trkpt>
      <trkpt lat="47.58908" lon="-0.42627">
        <ele>25.9</ele>
        <time>2012-03-25T04:53:00Z</time>
      </trkpt>
      <trkpt lat="47.58904" lon="-0.42612">
        <ele>26.1</ele>
        <time>2012-03-25T04:53:02Z</time>
      </trkpt>
      <trkpt lat="47.589" lon="-0.42596">
        <ele>26.3</ele>
        <time>2012-03-25T04:53:04Z</time>
      </trkpt>
      <trkpt lat="47.58898" lon="-0.42579">
        <ele>26.5</ele>
        <time>2012-03-25T04:53:06Z</time>
      </trkpt>
      <trkpt lat="47.58896" lon="-0.42563">
        <ele>26.6</ele>
        <time>2012-03-25T04:53:08Z</time>
      </trkpt>
      <trkpt lat="47.58895" lon="-0.42549">
        <ele>26.8</ele>
        <time>2012-03-25T04:53:10Z</time>
      </trkpt>
      <trkpt lat="47.58895" lon="-0.42534">
        <ele>27</ele>
        <time>2012-03-25T04:53:12Z</time>
      </trkpt>
      <trkpt lat="47.58893" lon="-0.42515">
        <ele>27</ele>
        <time>2012-03-25T04:53:14Z</time>
      </trkpt>
      <trkpt lat="47.58891" lon="-0.425">
        <ele>27</ele>
        <time>2012-03-25T04:53:16Z</time>
      </trkpt>
      <trkpt lat="47.5889" lon="-0.42483">
        <ele>27</ele>
        <time>2012-03-25T04:53:18Z</time>
      </trkpt>
      <trkpt lat="47.58889" lon="-0.42469">
        <ele>27</ele>
        <time>2012-03-25T04:53:20Z</time>
      </trkpt>
      <trkpt lat="47.58888" lon="-0.42453">
        <ele>27</ele>
        <time>2012-03-25T04:53:22Z</time>
      </trkpt>
      <trkpt lat="47.58886" lon="-0.42433">
        <ele>27</ele>
        <time>2012-03-25T04:53:25Z</time>
      </trkpt>
      <trkpt lat="47.58884" lon="-0.42417">
        <ele>27</ele>
        <time>2012-03-25T04:53:27Z</time>
      </trkpt>
      <trkpt lat="47.58883" lon="-0.42402">
        <ele>27.1</ele>
        <time>2012-03-25T04:53:29Z</time>
      </trkpt>
      <trkpt lat="47.58882" lon="-0.42385">
        <ele>27.2</ele>
        <time>2012-03-25T04:53:31Z</time>
      </trkpt>
      <trkpt lat="47.58881" lon="-0.42369">
        <ele>27.3</ele>
        <time>2012-03-25T04:53:33Z</time>
      </trkpt>
      <trkpt lat="47.58879" lon="-0.42355">
        <ele>27.5</ele>
        <time>2012-03-25T04:53:35Z</time>
      </trkpt>
      <trkpt lat="47.58878" lon="-0.42339">
        <ele>27.8</ele>
        <time>2012-03-25T04:53:38Z</time>
      </trkpt>
      <trkpt lat="47.58871" lon="-0.42329">
        <ele>28.1</ele>
        <time>2012-03-25T04:53:45Z</time>
      </trkpt>
      <trkpt lat="47.58871" lon="-0.42315">
        <ele>28.4</ele>
        <time>2012-03-25T04:53:50Z</time>
      </trkpt>
      <trkpt lat="47.58871" lon="-0.42298">
        <ele>28.6</ele>
        <time>2012-03-25T04:53:53Z</time>
      </trkpt>
      <trkpt lat="47.58868" lon="-0.42281">
        <ele>29.3</ele>
        <time>2012-03-25T04:53:56Z</time>
      </trkpt>
      <trkpt lat="47.58865" lon="-0.42265">
        <ele>29.9</ele>
        <time>2012-03-25T04:53:59Z</time>
      </trkpt>
      <trkpt lat="47.58863" lon="-0.42249">
        <ele>30.5</ele>
        <time>2012-03-25T04:54:02Z</time>
      </trkpt>
      <trkpt lat="47.5886" lon="-0.42233">
        <ele>31.1</ele>
        <time>2012-03-25T04:54:05Z</time>
      </trkpt>
      <trkpt lat="47.58857" lon="-0.42218">
        <ele>31.6</ele>
        <time>2012-03-25T04:54:08Z</time>
      </trkpt>
      <trkpt lat="47.58855" lon="-0.42202">
        <ele>32.2</ele>
        <time>2012-03-25T04:54:11Z</time>
      </trkpt>
      <trkpt lat="47.58854" lon="-0.42185">
        <ele>32.9</ele>
        <time>2012-03-25T04:54:14Z</time>
      </trkpt>
      <trkpt lat="47.58851" lon="-0.42168">
        <ele>33.6</ele>
        <time>2012-03-25T04:54:18Z</time>
      </trkpt>
      <trkpt lat="47.5885" lon="-0.42154">
        <ele>34.4</ele>
        <time>2012-03-25T04:54:22Z</time>
      </trkpt>
      <trkpt lat="47.5885" lon="-0.42137">
        <ele>35.1</ele>
        <time>2012-03-25T04:54:26Z</time>
      </trkpt>
      <trkpt lat="47.58849" lon="-0.42122">
        <ele>35.8</ele>
        <time>2012-03-25T04:54:30Z</time>
      </trkpt>
      <trkpt lat="47.58847" lon="-0.42108">
        <ele>36.5</ele>
        <time>2012-03-25T04:54:34Z</time>
      </trkpt>
      <trkpt lat="47.58844" lon="-0.42092">
        <ele>37.1</ele>
        <time>2012-03-25T04:54:38Z</time>
      </trkpt>
      <trkpt lat="47.58841" lon="-0.42075">
        <ele>37.7</ele>
        <time>2012-03-25T04:54:42Z</time>
      </trkpt>
      <trkpt lat="47.58838" lon="-0.42062">
        <ele>38.4</ele>
        <time>2012-03-25T04:54:45Z</time>
      </trkpt>
      <trkpt lat="47.58835" lon="-0.42047">
        <ele>39</ele>
        <time>2012-03-25T04:54:49Z</time>
      </trkpt>
      <trkpt lat="47.58831" lon="-0.42034">
        <ele>39.6</ele>
        <time>2012-03-25T04:54:53Z</time>
      </trkpt>
      <trkpt lat="47.58827" lon="-0.42019">
        <ele>40.1</ele>
        <time>2012-03-25T04:54:57Z</time>
      </trkpt>
      <trkpt lat="47.58823" lon="-0.42004">
        <ele>40.5</ele>
        <time>2012-03-25T04:55:01Z</time>
      </trkpt>
      <trkpt lat="47.5882" lon="-0.41989">
        <ele>41</ele>
        <time>2012-03-25T04:55:06Z</time>
      </trkpt>
      <trkpt lat="47.58816" lon="-0.41974">
        <ele>41.8</ele>
        <time>2012-03-25T04:55:09Z</time>
      </trkpt>
      <trkpt lat="47.58813" lon="-0.41962">
        <ele>42.6</ele>
        <time>2012-03-25T04:55:12Z</time>
      </trkpt>
      <trkpt lat="47.58809" lon="-0.41949">
        <ele>43.2</ele>
        <time>2012-03-25T04:55:15Z</time>
      </trkpt>
      <trkpt lat="47.58804" lon="-0.41936">
        <ele>43.7</ele>
        <time>2012-03-25T04:55:19Z</time>
      </trkpt>
      <trkpt lat="47.58798" lon="-0.41922">
        <ele>44.3</ele>
        <time>2012-03-25T04:55:23Z</time>
      </trkpt>
      <trkpt lat="47.58792" lon="-0.41911">
        <ele>44.9</ele>
        <time>2012-03-25T04:55:26Z</time>
      </trkpt>
      <trkpt lat="47.58785" lon="-0.41901">
        <ele>45.5</ele>
        <time>2012-03-25T04:55:29Z</time>
      </trkpt>
      <trkpt lat="47.58778" lon="-0.41891">
        <ele>46.2</ele>
        <time>2012-03-25T04:55:32Z</time>
      </trkpt>
      <trkpt lat="47.5877" lon="-0.41878">
        <ele>46.6</ele>
        <time>2012-03-25T04:55:35Z</time>
      </trkpt>
      <trkpt lat="47.58761" lon="-0.41864">
        <ele>47.1</ele>
        <time>2012-03-25T04:55:38Z</time>
      </trkpt>
      <trkpt lat="47.58755" lon="-0.41849">
        <ele>47.8</ele>
        <time>2012-03-25T04:55:41Z</time>
      </trkpt>
      <trkpt lat="47.58749" lon="-0.41833">
        <ele>48.2</ele>
        <time>2012-03-25T04:55:44Z</time>
      </trkpt>
      <trkpt lat="47.58744" lon="-0.4182">
        <ele>48.5</ele>
        <time>2012-03-25T04:55:46Z</time>
      </trkpt>
      <trkpt lat="47.5874" lon="-0.41806">
        <ele>48.9</ele>
        <time>2012-03-25T04:55:49Z</time>
      </trkpt>
      <trkpt lat="47.58737" lon="-0.4179">
        <ele>49.3</ele>
        <time>2012-03-25T04:55:52Z</time>
      </trkpt>
      <trkpt lat="47.58733" lon="-0.41773">
        <ele>49.6</ele>
        <time>2012-03-25T04:55:55Z</time>
      </trkpt>
      <trkpt lat="47.5873" lon="-0.4176">
        <ele>50.1</ele>
        <time>2012-03-25T04:55:58Z</time>
      </trkpt>
      <trkpt lat="47.58726" lon="-0.41742">
        <ele>50.5</ele>
        <time>2012-03-25T04:56:02Z</time>
      </trkpt>
      <trkpt lat="47.58724" lon="-0.41729">
        <ele>51</ele>
        <time>2012-03-25T04:56:05Z</time>
      </trkpt>
      <trkpt lat="47.5872" lon="-0.41717">
        <ele>51.5</ele>
        <time>2012-03-25T04:56:08Z</time>
      </trkpt>
      <trkpt lat="47.58718" lon="-0.41699">
        <ele>51.9</ele>
        <time>2012-03-25T04:56:12Z</time>
      </trkpt>
      <trkpt lat="47.58719" lon="-0.41686">
        <ele>52.1</ele>
        <time>2012-03-25T04:56:15Z</time>
      </trkpt>
      <trkpt lat="47.5872" lon="-0.4167">
        <ele>52.3</ele>
        <time>2012-03-25T04:56:19Z</time>
      </trkpt>
      <trkpt lat="47.58722" lon="-0.41656">
        <ele>52.5</ele>
        <time>2012-03-25T04:56:22Z</time>
      </trkpt>
      <trkpt lat="47.58723" lon="-0.41642">
        <ele>52.6</ele>
        <time>2012-03-25T04:56:26Z</time>
      </trkpt>
      <trkpt lat="47.58733" lon="-0.41641">
        <ele>52.8</ele>
        <time>2012-03-25T04:56:30Z</time>
      </trkpt>
      <trkpt lat="47.58743" lon="-0.41643">
        <ele>52.9</ele>
        <time>2012-03-25T04:56:33Z</time>
      </trkpt>
      <trkpt lat="47.58755" lon="-0.41645">
        <ele>52.8</ele>
        <time>2012-03-25T04:56:36Z</time>
      </trkpt>
      <trkpt lat="47.58768" lon="-0.41645">
        <ele>52.7</ele>
        <time>2012-03-25T04:56:39Z</time>
      </trkpt>
      <trkpt lat="47.58781" lon="-0.41646">
        <ele>52.6</ele>
        <time>2012-03-25T04:56:42Z</time>
      </trkpt>
      <trkpt lat="47.58791" lon="-0.41647">
        <ele>52.5</ele>
        <time>2012-03-25T04:56:45Z</time>
      </trkpt>
      <trkpt lat="47.58801" lon="-0.41649">
        <ele>52.5</ele>
        <time>2012-03-25T04:56:48Z</time>
      </trkpt>
      <trkpt lat="47.58813" lon="-0.41649">
        <ele>52.4</ele>
        <time>2012-03-25T04:56:51Z</time>
      </trkpt>
      <trkpt lat="47.58823" lon="-0.41649">
        <ele>52.3</ele>
        <time>2012-03-25T04:56:54Z</time>
      </trkpt>
      <trkpt lat="47.58833" lon="-0.41649">
        <ele>51.9</ele>
        <time>2012-03-25T04:56:57Z</time>
      </trkpt>
      <trkpt lat="47.58845" lon="-0.41649">
        <ele>51.8</ele>
        <time>2012-03-25T04:57:00Z</time>
      </trkpt>
      <trkpt lat="47.58858" lon="-0.41652">
        <ele>51.7</ele>
        <time>2012-03-25T04:57:03Z</time>
      </trkpt>
      <trkpt lat="47.5887" lon="-0.41653">
        <ele>51.7</ele>
        <time>2012-03-25T04:57:06Z</time>
      </trkpt>
      <trkpt lat="47.58874" lon="-0.41641">
        <ele>51.7</ele>
        <time>2012-03-25T04:57:10Z</time>
      </trkpt>
      <trkpt lat="47.58877" lon="-0.41623">
        <ele>51.7</ele>
        <time>2012-03-25T04:57:13Z</time>
      </trkpt>
      <trkpt lat="47.5888" lon="-0.41608">
        <ele>52</ele>
        <time>2012-03-25T04:57:15Z</time>
      </trkpt>
      <trkpt lat="47.58884" lon="-0.41589">
        <ele>52.3</ele>
        <time>2012-03-25T04:57:18Z</time>
      </trkpt>
      <trkpt lat="47.58888" lon="-0.41574">
        <ele>52.5</ele>
        <time>2012-03-25T04:57:21Z</time>
      </trkpt>
      <trkpt lat="47.58892" lon="-0.41556">
        <ele>52.8</ele>
        <time>2012-03-25T04:57:24Z</time>
      </trkpt>
      <trkpt lat="47.58893" lon="-0.41538">
        <ele>53.1</ele>
        <time>2012-03-25T04:57:27Z</time>
      </trkpt>
      <trkpt lat="47.58894" lon="-0.41518">
        <ele>53.6</ele>
        <time>2012-03-25T04:57:30Z</time>
      </trkpt>
      <trkpt lat="47.58895" lon="-0.41504">
        <ele>53.9</ele>
        <time>2012-03-25T04:57:32Z</time>
      </trkpt>
      <trkpt lat="47.58895" lon="-0.41486">
        <ele>54.2</ele>
        <time>2012-03-25T04:57:35Z</time>
      </trkpt>
      <trkpt lat="47.58896" lon="-0.41468">
        <ele>54.5</ele>
        <time>2012-03-25T04:57:38Z</time>
      </trkpt>
      <trkpt lat="47.58904" lon="-0.41458">
        <ele>54.7</ele>
        <time>2012-03-25T04:57:41Z</time>
      </trkpt>
      <trkpt lat="47.58914" lon="-0.41458">
        <ele>54.9</ele>
        <time>2012-03-25T04:57:44Z</time>
      </trkpt>
      <trkpt lat="47.58923" lon="-0.41459">
        <ele>54.8</ele>
        <time>2012-03-25T04:57:46Z</time>
      </trkpt>
      <trkpt lat="47.58936" lon="-0.41461">
        <ele>54.7</ele>
        <time>2012-03-25T04:57:49Z</time>
      </trkpt>
      <trkpt lat="47.58946" lon="-0.41463">
        <ele>54.6</ele>
        <time>2012-03-25T04:57:51Z</time>
      </trkpt>
      <trkpt lat="47.58957" lon="-0.41464">
        <ele>54.5</ele>
        <time>2012-03-25T04:57:53Z</time>
      </trkpt>
      <trkpt lat="47.58966" lon="-0.41466">
        <ele>54.5</ele>
        <time>2012-03-25T04:57:55Z</time>
      </trkpt>
      <trkpt lat="47.58979" lon="-0.41468">
        <ele>54.4</ele>
        <time>2012-03-25T04:57:58Z</time>
      </trkpt>
      <trkpt lat="47.58988" lon="-0.41469">
        <ele>54.3</ele>
        <time>2012-03-25T04:58:00Z</time>
      </trkpt>
      <trkpt lat="47.58999" lon="-0.41471">
        <ele>54.2</ele>
        <time>2012-03-25T04:58:02Z</time>
      </trkpt>
      <trkpt lat="47.59009" lon="-0.41472">
        <ele>54.1</ele>
        <time>2012-03-25T04:58:04Z</time>
      </trkpt>
      <trkpt lat="47.59021" lon="-0.41475">
        <ele>54</ele>
        <time>2012-03-25T04:58:07Z</time>
      </trkpt>
      <trkpt lat="47.59033" lon="-0.41474">
        <ele>54</ele>
        <time>2012-03-25T04:58:10Z</time>
      </trkpt>
      <trkpt lat="47.59036" lon="-0.41461">
        <ele>54</ele>
        <time>2012-03-25T04:58:14Z</time>
      </trkpt>
      <trkpt lat="47.59034" lon="-0.41445">
        <ele>54</ele>
        <time>2012-03-25T04:58:17Z</time>
      </trkpt>
      <trkpt lat="47.59032" lon="-0.4143">
        <ele>54</ele>
        <time>2012-03-25T04:58:20Z</time>
      </trkpt>
      <trkpt lat="47.59027" lon="-0.41414">
        <ele>54</ele>
        <time>2012-03-25T04:58:23Z</time>
      </trkpt>
      <trkpt lat="47.59022" lon="-0.414">
        <ele>54</ele>
        <time>2012-03-25T04:58:25Z</time>
      </trkpt>
      <trkpt lat="47.59018" lon="-0.41384">
        <ele>54</ele>
        <time>2012-03-25T04:58:28Z</time>
      </trkpt>
      <trkpt lat="47.59016" lon="-0.4137">
        <ele>54</ele>
        <time>2012-03-25T04:58:32Z</time>
      </trkpt>
      <trkpt lat="47.59013" lon="-0.41353">
        <ele>54</ele>
        <time>2012-03-25T04:58:36Z</time>
      </trkpt>
      <trkpt lat="47.59008" lon="-0.41336">
        <ele>54</ele>
        <time>2012-03-25T04:58:39Z</time>
      </trkpt>
      <trkpt lat="47.59002" lon="-0.41321">
        <ele>54</ele>
        <time>2012-03-25T04:58:42Z</time>
      </trkpt>
      <trkpt lat="47.58997" lon="-0.4131">
        <ele>54</ele>
        <time>2012-03-25T04:58:48Z</time>
      </trkpt>
      <trkpt lat="47.58993" lon="-0.41295">
        <ele>54</ele>
        <time>2012-03-25T04:58:53Z</time>
      </trkpt>
      <trkpt lat="47.58988" lon="-0.41282">
        <ele>54</ele>
        <time>2012-03-25T04:58:57Z</time>
      </trkpt>
      <trkpt lat="47.58979" lon="-0.41278">
        <ele>54</ele>
        <time>2012-03-25T04:59:01Z</time>
      </trkpt>
      <trkpt lat="47.58988" lon="-0.41286">
        <ele>54</ele>
        <time>2012-03-25T04:59:32Z</time>
      </trkpt>
      <trkpt lat="47.5899" lon="-0.41299">
        <ele>54</ele>
        <time>2012-03-25T04:59:56Z</time>
      </trkpt>
      <trkpt lat="47.58995" lon="-0.41287">
        <ele>53.4</ele>
        <time>2012-03-25T05:00:05Z</time>
      </trkpt>
      <trkpt lat="47.58991" lon="-0.41271">
        <ele>52.7</ele>
        <time>2012-03-25T05:00:08Z</time>
      </trkpt>
      <trkpt lat="47.58986" lon="-0.41253">
        <ele>52.1</ele>
        <time>2012-03-25T05:00:11Z</time>
      </trkpt>
      <trkpt lat="47.58981" lon="-0.41234">
        <ele>51.5</ele>
        <time>2012-03-25T05:00:14Z</time>
      </trkpt>
      <trkpt lat="47.58978" lon="-0.4122">
        <ele>50.8</ele>
        <time>2012-03-25T05:00:16Z</time>
      </trkpt>
      <trkpt lat="47.58974" lon="-0.41201">
        <ele>50.2</ele>
        <time>2012-03-25T05:00:19Z</time>
      </trkpt>
      <trkpt lat="47.58971" lon="-0.41186">
        <ele>49.5</ele>
        <time>2012-03-25T05:00:21Z</time>
      </trkpt>
      <trkpt lat="47.58969" lon="-0.4117">
        <ele>48.9</ele>
        <time>2012-03-25T05:00:23Z</time>
      </trkpt>
      <trkpt lat="47.58974" lon="-0.41157">
        <ele>48.3</ele>
        <time>2012-03-25T05:00:25Z</time>
      </trkpt>
      <trkpt lat="47.58982" lon="-0.41152">
        <ele>47.4</ele>
        <time>2012-03-25T05:00:27Z</time>
      </trkpt>
      <trkpt lat="47.58993" lon="-0.4115">
        <ele>46.5</ele>
        <time>2012-03-25T05:00:29Z</time>
      </trkpt>
      <trkpt lat="47.59007" lon="-0.41148">
        <ele>46.2</ele>
        <time>2012-03-25T05:00:31Z</time>
      </trkpt>
      <trkpt lat="47.59022" lon="-0.41146">
        <ele>45.9</ele>
        <time>2012-03-25T05:00:33Z</time>
      </trkpt>
      <trkpt lat="47.59037" lon="-0.41143">
        <ele>45.6</ele>
        <time>2012-03-25T05:00:35Z</time>
      </trkpt>
      <trkpt lat="47.59053" lon="-0.41141">
        <ele>45.4</ele>
        <time>2012-03-25T05:00:37Z</time>
      </trkpt>
      <trkpt lat="47.59069" lon="-0.41139">
        <ele>44.7</ele>
        <time>2012-03-25T05:00:39Z</time>
      </trkpt>
      <trkpt lat="47.59087" lon="-0.41137">
        <ele>44.1</ele>
        <time>2012-03-25T05:00:41Z</time>
      </trkpt>
      <trkpt lat="47.59096" lon="-0.41136">
        <ele>43.5</ele>
        <time>2012-03-25T05:00:42Z</time>
      </trkpt>
      <trkpt lat="47.59105" lon="-0.41136">
        <ele>42.8</ele>
        <time>2012-03-25T05:00:43Z</time>
      </trkpt>
      <trkpt lat="47.59123" lon="-0.41137">
        <ele>42.2</ele>
        <time>2012-03-25T05:00:46Z</time>
      </trkpt>
      <trkpt lat="47.59139" lon="-0.41138">
        <ele>41.6</ele>
        <time>2012-03-25T05:00:47Z</time>
      </trkpt>
      <trkpt lat="47.59156" lon="-0.41137">
        <ele>40.9</ele>
        <time>2012-03-25T05:00:49Z</time>
      </trkpt>
      <trkpt lat="47.59172" lon="-0.41134">
        <ele>40.2</ele>
        <time>2012-03-25T05:00:51Z</time>
      </trkpt>
      <trkpt lat="47.59188" lon="-0.41132">
        <ele>39.5</ele>
        <time>2012-03-25T05:00:53Z</time>
      </trkpt>
      <trkpt lat="47.59202" lon="-0.41127">
        <ele>38.7</ele>
        <time>2012-03-25T05:00:55Z</time>
      </trkpt>
      <trkpt lat="47.59215" lon="-0.41124">
        <ele>38</ele>
        <time>2012-03-25T05:00:57Z</time>
      </trkpt>
      <trkpt lat="47.59226" lon="-0.41121">
        <ele>37.6</ele>
        <time>2012-03-25T05:00:59Z</time>
      </trkpt>
      <trkpt lat="47.59238" lon="-0.41116">
        <ele>37.3</ele>
        <time>2012-03-25T05:01:01Z</time>
      </trkpt>
      <trkpt lat="47.59246" lon="-0.41103">
        <ele>36.7</ele>
        <time>2012-03-25T05:01:03Z</time>
      </trkpt>
      <trkpt lat="47.59257" lon="-0.41103">
        <ele>36.3</ele>
        <time>2012-03-25T05:01:06Z</time>
      </trkpt>
      <trkpt lat="47.59268" lon="-0.41109">
        <ele>35.8</ele>
        <time>2012-03-25T05:01:09Z</time>
      </trkpt>
      <trkpt lat="47.59278" lon="-0.41111">
        <ele>35.5</ele>
        <time>2012-03-25T05:01:11Z</time>
      </trkpt>
      <trkpt lat="47.59291" lon="-0.41115">
        <ele>35.5</ele>
        <time>2012-03-25T05:01:14Z</time>
      </trkpt>
      <trkpt lat="47.59302" lon="-0.4112">
        <ele>35.4</ele>
        <time>2012-03-25T05:01:16Z</time>
      </trkpt>
      <trkpt lat="47.59312" lon="-0.41126">
        <ele>35.3</ele>
        <time>2012-03-25T05:01:18Z</time>
      </trkpt>
      <trkpt lat="47.59323" lon="-0.41133">
        <ele>35.2</ele>
        <time>2012-03-25T05:01:20Z</time>
      </trkpt>
      <trkpt lat="47.59333" lon="-0.4114">
        <ele>35.1</ele>
        <time>2012-03-25T05:01:22Z</time>
      </trkpt>
      <trkpt lat="47.59342" lon="-0.41147">
        <ele>35.5</ele>
        <time>2012-03-25T05:01:24Z</time>
      </trkpt>
      <trkpt lat="47.59351" lon="-0.41154">
        <ele>35.8</ele>
        <time>2012-03-25T05:01:26Z</time>
      </trkpt>
      <trkpt lat="47.59358" lon="-0.41165">
        <ele>36.4</ele>
        <time>2012-03-25T05:01:28Z</time>
      </trkpt>
      <trkpt lat="47.59362" lon="-0.41179">
        <ele>36.8</ele>
        <time>2012-03-25T05:01:30Z</time>
      </trkpt>
      <trkpt lat="47.59359" lon="-0.41192">
        <ele>37.3</ele>
        <time>2012-03-25T05:01:33Z</time>
      </trkpt>
      <trkpt lat="47.59354" lon="-0.41206">
        <ele>37.7</ele>
        <time>2012-03-25T05:01:37Z</time>
      </trkpt>
      <trkpt lat="47.59352" lon="-0.41224">
        <ele>38.7</ele>
        <time>2012-03-25T05:01:41Z</time>
      </trkpt>
      <trkpt lat="47.59351" lon="-0.41241">
        <ele>39.7</ele>
        <time>2012-03-25T05:01:46Z</time>
      </trkpt>
      <trkpt lat="47.59349" lon="-0.41257">
        <ele>40.7</ele>
        <time>2012-03-25T05:01:50Z</time>
      </trkpt>
      <trkpt lat="47.59347" lon="-0.4127">
        <ele>41.7</ele>
        <time>2012-03-25T05:01:54Z</time>
      </trkpt>
      <trkpt lat="47.59344" lon="-0.41284">
        <ele>42.7</ele>
        <time>2012-03-25T05:01:58Z</time>
      </trkpt>
      <trkpt lat="47.59341" lon="-0.41299">
        <ele>43.3</ele>
        <time>2012-03-25T05:02:02Z</time>
      </trkpt>
      <trkpt lat="47.59338" lon="-0.41312">
        <ele>44.4</ele>
        <time>2012-03-25T05:02:07Z</time>
      </trkpt>
      <trkpt lat="47.59333" lon="-0.41325">
        <ele>45.5</ele>
        <time>2012-03-25T05:02:11Z</time>
      </trkpt>
      <trkpt lat="47.59329" lon="-0.41338">
        <ele>46.5</ele>
        <time>2012-03-25T05:02:17Z</time>
      </trkpt>
      <trkpt lat="47.59323" lon="-0.41349">
        <ele>47.6</ele>
        <time>2012-03-25T05:02:22Z</time>
      </trkpt>
      <trkpt lat="47.59318" lon="-0.41362">
        <ele>48.7</ele>
        <time>2012-03-25T05:02:31Z</time>
      </trkpt>
      <trkpt lat="47.59312" lon="-0.41376">
        <ele>49.3</ele>
        <time>2012-03-25T05:02:38Z</time>
      </trkpt>
      <trkpt lat="47.59308" lon="-0.4139">
        <ele>50.3</ele>
        <time>2012-03-25T05:02:46Z</time>
      </trkpt>
      <trkpt lat="47.59307" lon="-0.41404">
        <ele>51.3</ele>
        <time>2012-03-25T05:02:51Z</time>
      </trkpt>
      <trkpt lat="47.59307" lon="-0.4142">
        <ele>52.3</ele>
        <time>2012-03-25T05:02:57Z</time>
      </trkpt>
      <trkpt lat="47.59305" lon="-0.41434">
        <ele>53.3</ele>
        <time>2012-03-25T05:03:02Z</time>
      </trkpt>
      <trkpt lat="47.59303" lon="-0.41448">
        <ele>54.3</ele>
        <time>2012-03-25T05:03:05Z</time>
      </trkpt>
      <trkpt lat="47.59302" lon="-0.41463">
        <ele>54.8</ele>
        <time>2012-03-25T05:03:08Z</time>
      </trkpt>
      <trkpt lat="47.59301" lon="-0.41477">
        <ele>55.4</ele>
        <time>2012-03-25T05:03:11Z</time>
      </trkpt>
      <trkpt lat="47.593" lon="-0.4149">
        <ele>55.9</ele>
        <time>2012-03-25T05:03:15Z</time>
      </trkpt>
      <trkpt lat="47.59298" lon="-0.41505">
        <ele>56.5</ele>
        <time>2012-03-25T05:03:19Z</time>
      </trkpt>
      <trkpt lat="47.59296" lon="-0.4152">
        <ele>57</ele>
        <time>2012-03-25T05:03:22Z</time>
      </trkpt>
      <trkpt lat="47.59295" lon="-0.41537">
        <ele>57.4</ele>
        <time>2012-03-25T05:03:25Z</time>
      </trkpt>
      <trkpt lat="47.59296" lon="-0.41553">
        <ele>57.3</ele>
        <time>2012-03-25T05:03:29Z</time>
      </trkpt>
      <trkpt lat="47.59296" lon="-0.4157">
        <ele>57.2</ele>
        <time>2012-03-25T05:03:32Z</time>
      </trkpt>
      <trkpt lat="47.59297" lon="-0.41584">
        <ele>57.1</ele>
        <time>2012-03-25T05:03:34Z</time>
      </trkpt>
      <trkpt lat="47.59297" lon="-0.416">
        <ele>57</ele>
        <time>2012-03-25T05:03:37Z</time>
      </trkpt>
      <trkpt lat="47.59299" lon="-0.41618">
        <ele>56.8</ele>
        <time>2012-03-25T05:03:40Z</time>
      </trkpt>
      <trkpt lat="47.593" lon="-0.41634">
        <ele>56.5</ele>
        <time>2012-03-25T05:03:44Z</time>
      </trkpt>
      <trkpt lat="47.59301" lon="-0.41653">
        <ele>56.3</ele>
        <time>2012-03-25T05:03:47Z</time>
      </trkpt>
      <trkpt lat="47.59303" lon="-0.41672">
        <ele>56</ele>
        <time>2012-03-25T05:03:50Z</time>
      </trkpt>
      <trkpt lat="47.59303" lon="-0.4169">
        <ele>55.7</ele>
        <time>2012-03-25T05:03:54Z</time>
      </trkpt>
      <trkpt lat="47.59303" lon="-0.41706">
        <ele>55.2</ele>
        <time>2012-03-25T05:03:56Z</time>
      </trkpt>
      <trkpt lat="47.59303" lon="-0.41721">
        <ele>54.6</ele>
        <time>2012-03-25T05:03:58Z</time>
      </trkpt>
      <trkpt lat="47.59306" lon="-0.4174">
        <ele>54.1</ele>
        <time>2012-03-25T05:04:01Z</time>
      </trkpt>
      <trkpt lat="47.59307" lon="-0.41754">
        <ele>53.5</ele>
        <time>2012-03-25T05:04:03Z</time>
      </trkpt>
      <trkpt lat="47.59309" lon="-0.41768">
        <ele>53</ele>
        <time>2012-03-25T05:04:05Z</time>
      </trkpt>
      <trkpt lat="47.59302" lon="-0.41782">
        <ele>52.5</ele>
        <time>2012-03-25T05:04:08Z</time>
      </trkpt>
      <trkpt lat="47.59294" lon="-0.4179">
        <ele>52</ele>
        <time>2012-03-25T05:04:10Z</time>
      </trkpt>
      <trkpt lat="47.59285" lon="-0.41799">
        <ele>51.5</ele>
        <time>2012-03-25T05:04:12Z</time>
      </trkpt>
      <trkpt lat="47.59277" lon="-0.41806">
        <ele>51.1</ele>
        <time>2012-03-25T05:04:14Z</time>
      </trkpt>
      <trkpt lat="47.59269" lon="-0.41814">
        <ele>50.6</ele>
        <time>2012-03-25T05:04:16Z</time>
      </trkpt>
      <trkpt lat="47.5926" lon="-0.41822">
        <ele>49.6</ele>
        <time>2012-03-25T05:04:18Z</time>
      </trkpt>
      <trkpt lat="47.5925" lon="-0.41831">
        <ele>48.9</ele>
        <time>2012-03-25T05:04:20Z</time>
      </trkpt>
      <trkpt lat="47.5924" lon="-0.41839">
        <ele>48.4</ele>
        <time>2012-03-25T05:04:22Z</time>
      </trkpt>
      <trkpt lat="47.59231" lon="-0.41847">
        <ele>47.8</ele>
        <time>2012-03-25T05:04:24Z</time>
      </trkpt>
      <trkpt lat="47.59218" lon="-0.41858">
        <ele>47.3</ele>
        <time>2012-03-25T05:04:26Z</time>
      </trkpt>
      <trkpt lat="47.59205" lon="-0.41867">
        <ele>46.7</ele>
        <time>2012-03-25T05:04:28Z</time>
      </trkpt>
      <trkpt lat="47.59194" lon="-0.41877">
        <ele>46.2</ele>
        <time>2012-03-25T05:04:30Z</time>
      </trkpt>
      <trkpt lat="47.59182" lon="-0.41889">
        <ele>45.6</ele>
        <time>2012-03-25T05:04:32Z</time>
      </trkpt>
      <trkpt lat="47.59176" lon="-0.41899">
        <ele>45.1</ele>
        <time>2012-03-25T05:04:34Z</time>
      </trkpt>
      <trkpt lat="47.5917" lon="-0.4191">
        <ele>44.5</ele>
        <time>2012-03-25T05:04:36Z</time>
      </trkpt>
      <trkpt lat="47.59166" lon="-0.41924">
        <ele>44</ele>
        <time>2012-03-25T05:04:39Z</time>
      </trkpt>
      <trkpt lat="47.5917" lon="-0.41937">
        <ele>44</ele>
        <time>2012-03-25T05:04:44Z</time>
      </trkpt>
      <trkpt lat="47.59169" lon="-0.41923">
        <ele>44</ele>
        <time>2012-03-25T05:05:54Z</time>
      </trkpt>
      <trkpt lat="47.59178" lon="-0.41908">
        <ele>44</ele>
        <time>2012-03-25T05:06:01Z</time>
      </trkpt>
      <trkpt lat="47.59177" lon="-0.41894">
        <ele>44</ele>
        <time>2012-03-25T05:06:07Z</time>
      </trkpt>
      <trkpt lat="47.5917" lon="-0.41904">
        <ele>44</ele>
        <time>2012-03-25T05:06:12Z</time>
      </trkpt>
      <trkpt lat="47.59165" lon="-0.41918">
        <ele>44</ele>
        <time>2012-03-25T05:06:15Z</time>
      </trkpt>
      <trkpt lat="47.59167" lon="-0.41932">
        <ele>44</ele>
        <time>2012-03-25T05:06:17Z</time>
      </trkpt>
      <trkpt lat="47.59169" lon="-0.41946">
        <ele>44</ele>
        <time>2012-03-25T05:06:19Z</time>
      </trkpt>
      <trkpt lat="47.59174" lon="-0.41963">
        <ele>44</ele>
        <time>2012-03-25T05:06:22Z</time>
      </trkpt>
      <trkpt lat="47.59177" lon="-0.41976">
        <ele>44</ele>
        <time>2012-03-25T05:06:24Z</time>
      </trkpt>
      <trkpt lat="47.59181" lon="-0.41988">
        <ele>44.2</ele>
        <time>2012-03-25T05:06:26Z</time>
      </trkpt>
      <trkpt lat="47.59185" lon="-0.42">
        <ele>44.4</ele>
        <time>2012-03-25T05:06:28Z</time>
      </trkpt>
      <trkpt lat="47.59188" lon="-0.42013">
        <ele>44.8</ele>
        <time>2012-03-25T05:06:30Z</time>
      </trkpt>
      <trkpt lat="47.59192" lon="-0.42025">
        <ele>45.3</ele>
        <time>2012-03-25T05:06:32Z</time>
      </trkpt>
      <trkpt lat="47.59197" lon="-0.42037">
        <ele>45.7</ele>
        <time>2012-03-25T05:06:34Z</time>
      </trkpt>
      <trkpt lat="47.59203" lon="-0.42054">
        <ele>45.9</ele>
        <time>2012-03-25T05:06:37Z</time>
      </trkpt>
      <trkpt lat="47.59208" lon="-0.4207">
        <ele>46.1</ele>
        <time>2012-03-25T05:06:40Z</time>
      </trkpt>
      <trkpt lat="47.59213" lon="-0.42086">
        <ele>46.3</ele>
        <time>2012-03-25T05:06:43Z</time>
      </trkpt>
      <trkpt lat="47.59218" lon="-0.42103">
        <ele>46.5</ele>
        <time>2012-03-25T05:06:46Z</time>
      </trkpt>
      <trkpt lat="47.59222" lon="-0.4212">
        <ele>46.6</ele>
        <time>2012-03-25T05:06:49Z</time>
      </trkpt>
      <trkpt lat="47.59227" lon="-0.42137">
        <ele>46.7</ele>
        <time>2012-03-25T05:06:52Z</time>
      </trkpt>
      <trkpt lat="47.5923" lon="-0.42155">
        <ele>46.6</ele>
        <time>2012-03-25T05:06:55Z</time>
      </trkpt>
      <trkpt lat="47.59232" lon="-0.42171">
        <ele>46.5</ele>
        <time>2012-03-25T05:06:58Z</time>
      </trkpt>
      <trkpt lat="47.59232" lon="-0.42187">
        <ele>46.2</ele>
        <time>2012-03-25T05:07:01Z</time>
      </trkpt>
      <trkpt lat="47.59231" lon="-0.42203">
        <ele>45.8</ele>
        <time>2012-03-25T05:07:04Z</time>
      </trkpt>
      <trkpt lat="47.5923" lon="-0.42219">
        <ele>45.5</ele>
        <time>2012-03-25T05:07:07Z</time>
      </trkpt>
      <trkpt lat="47.59229" lon="-0.42233">
        <ele>45.5</ele>
        <time>2012-03-25T05:07:09Z</time>
      </trkpt>
      <trkpt lat="47.59228" lon="-0.42253">
        <ele>45.5</ele>
        <time>2012-03-25T05:07:12Z</time>
      </trkpt>
      <trkpt lat="47.59226" lon="-0.42268">
        <ele>45.5</ele>
        <time>2012-03-25T05:07:14Z</time>
      </trkpt>
      <trkpt lat="47.59225" lon="-0.42286">
        <ele>45.4</ele>
        <time>2012-03-25T05:07:17Z</time>
      </trkpt>
      <trkpt lat="47.59224" lon="-0.42306">
        <ele>44.8</ele>
        <time>2012-03-25T05:07:20Z</time>
      </trkpt>
      <trkpt lat="47.59224" lon="-0.42324">
        <ele>44.4</ele>
        <time>2012-03-25T05:07:23Z</time>
      </trkpt>
      <trkpt lat="47.59218" lon="-0.4234">
        <ele>43.9</ele>
        <time>2012-03-25T05:07:26Z</time>
      </trkpt>
      <trkpt lat="47.59212" lon="-0.42353">
        <ele>43.5</ele>
        <time>2012-03-25T05:07:28Z</time>
      </trkpt>
      <trkpt lat="47.59204" lon="-0.42361">
        <ele>43</ele>
        <time>2012-03-25T05:07:30Z</time>
      </trkpt>
      <trkpt lat="47.59193" lon="-0.4237">
        <ele>42.3</ele>
        <time>2012-03-25T05:07:32Z</time>
      </trkpt>
      <trkpt lat="47.59183" lon="-0.42379">
        <ele>41.5</ele>
        <time>2012-03-25T05:07:34Z</time>
      </trkpt>
      <trkpt lat="47.59172" lon="-0.42394">
        <ele>40.6</ele>
        <time>2012-03-25T05:07:36Z</time>
      </trkpt>
      <trkpt lat="47.5917" lon="-0.42413">
        <ele>39.8</ele>
        <time>2012-03-25T05:07:38Z</time>
      </trkpt>
      <trkpt lat="47.59174" lon="-0.42431">
        <ele>39</ele>
        <time>2012-03-25T05:07:41Z</time>
      </trkpt>
      <trkpt lat="47.59182" lon="-0.42457">
        <ele>38.7</ele>
        <time>2012-03-25T05:07:43Z</time>
      </trkpt>
      <trkpt lat="47.59187" lon="-0.42479">
        <ele>38.5</ele>
        <time>2012-03-25T05:07:45Z</time>
      </trkpt>
      <trkpt lat="47.59191" lon="-0.425">
        <ele>38.4</ele>
        <time>2012-03-25T05:07:47Z</time>
      </trkpt>
      <trkpt lat="47.592" lon="-0.42512">
        <ele>38.2</ele>
        <time>2012-03-25T05:07:49Z</time>
      </trkpt>
      <trkpt lat="47.59209" lon="-0.42517">
        <ele>38</ele>
        <time>2012-03-25T05:07:51Z</time>
      </trkpt>
      <trkpt lat="47.59217" lon="-0.4253">
        <ele>37.8</ele>
        <time>2012-03-25T05:07:54Z</time>
      </trkpt>
      <trkpt lat="47.59224" lon="-0.42542">
        <ele>37.9</ele>
        <time>2012-03-25T05:07:56Z</time>
      </trkpt>
      <trkpt lat="47.59235" lon="-0.42549">
        <ele>38</ele>
        <time>2012-03-25T05:07:58Z</time>
      </trkpt>
      <trkpt lat="47.59244" lon="-0.42553">
        <ele>38.1</ele>
        <time>2012-03-25T05:08:00Z</time>
      </trkpt>
      <trkpt lat="47.59251" lon="-0.42567">
        <ele>38.2</ele>
        <time>2012-03-25T05:08:03Z</time>
      </trkpt>
      <trkpt lat="47.59255" lon="-0.42586">
        <ele>38.3</ele>
        <time>2012-03-25T05:08:06Z</time>
      </trkpt>
      <trkpt lat="47.59257" lon="-0.426">
        <ele>38</ele>
        <time>2012-03-25T05:08:08Z</time>
      </trkpt>
      <trkpt lat="47.59259" lon="-0.42615">
        <ele>38</ele>
        <time>2012-03-25T05:08:10Z</time>
      </trkpt>
      <trkpt lat="47.59261" lon="-0.42631">
        <ele>37.9</ele>
        <time>2012-03-25T05:08:12Z</time>
      </trkpt>
      <trkpt lat="47.59263" lon="-0.42649">
        <ele>37.8</ele>
        <time>2012-03-25T05:08:14Z</time>
      </trkpt>
      <trkpt lat="47.59263" lon="-0.42664">
        <ele>37.7</ele>
        <time>2012-03-25T05:08:16Z</time>
      </trkpt>
      <trkpt lat="47.59263" lon="-0.42677">
        <ele>37.6</ele>
        <time>2012-03-25T05:08:18Z</time>
      </trkpt>
      <trkpt lat="47.59263" lon="-0.42693">
        <ele>37.5</ele>
        <time>2012-03-25T05:08:20Z</time>
      </trkpt>
      <trkpt lat="47.59261" lon="-0.4271">
        <ele>37.3</ele>
        <time>2012-03-25T05:08:22Z</time>
      </trkpt>
      <trkpt lat="47.59261" lon="-0.42727">
        <ele>37</ele>
        <time>2012-03-25T05:08:24Z</time>
      </trkpt>
      <trkpt lat="47.59263" lon="-0.42741">
        <ele>36.7</ele>
        <time>2012-03-25T05:08:26Z</time>
      </trkpt>
      <trkpt lat="47.59263" lon="-0.42756">
        <ele>36.5</ele>
        <time>2012-03-25T05:08:28Z</time>
      </trkpt>
      <trkpt lat="47.59265" lon="-0.4277">
        <ele>36.2</ele>
        <time>2012-03-25T05:08:30Z</time>
      </trkpt>
      <trkpt lat="47.59267" lon="-0.42784">
        <ele>35.9</ele>
        <time>2012-03-25T05:08:33Z</time>
      </trkpt>
      <trkpt lat="47.59271" lon="-0.42796">
        <ele>35.8</ele>
        <time>2012-03-25T05:08:36Z</time>
      </trkpt>
      <trkpt lat="47.59276" lon="-0.42809">
        <ele>36.2</ele>
        <time>2012-03-25T05:08:39Z</time>
      </trkpt>
      <trkpt lat="47.59282" lon="-0.42823">
        <ele>36.5</ele>
        <time>2012-03-25T05:08:42Z</time>
      </trkpt>
      <trkpt lat="47.59285" lon="-0.42836">
        <ele>36.9</ele>
        <time>2012-03-25T05:08:45Z</time>
      </trkpt>
      <trkpt lat="47.59288" lon="-0.42853">
        <ele>37.3</ele>
        <time>2012-03-25T05:08:49Z</time>
      </trkpt>
      <trkpt lat="47.59292" lon="-0.42866">
        <ele>37.8</ele>
        <time>2012-03-25T05:08:52Z</time>
      </trkpt>
      <trkpt lat="47.59295" lon="-0.42879">
        <ele>38</ele>
        <time>2012-03-25T05:08:55Z</time>
      </trkpt>
      <trkpt lat="47.59294" lon="-0.42895">
        <ele>38.2</ele>
        <time>2012-03-25T05:08:58Z</time>
      </trkpt>
      <trkpt lat="47.59296" lon="-0.42914">
        <ele>38.4</ele>
        <time>2012-03-25T05:09:01Z</time>
      </trkpt>
      <trkpt lat="47.59299" lon="-0.42927">
        <ele>38.5</ele>
        <time>2012-03-25T05:09:03Z</time>
      </trkpt>
      <trkpt lat="47.59304" lon="-0.42946">
        <ele>38.7</ele>
        <time>2012-03-25T05:09:06Z</time>
      </trkpt>
      <trkpt lat="47.59307" lon="-0.42961">
        <ele>38.8</ele>
        <time>2012-03-25T05:09:08Z</time>
      </trkpt>
      <trkpt lat="47.59311" lon="-0.42976">
        <ele>38.2</ele>
        <time>2012-03-25T05:09:11Z</time>
      </trkpt>
      <trkpt lat="47.59315" lon="-0.4299">
        <ele>37.5</ele>
        <time>2012-03-25T05:09:13Z</time>
      </trkpt>
      <trkpt lat="47.59319" lon="-0.43008">
        <ele>36.9</ele>
        <time>2012-03-25T05:09:16Z</time>
      </trkpt>
      <trkpt lat="47.59323" lon="-0.43023">
        <ele>36.3</ele>
        <time>2012-03-25T05:09:18Z</time>
      </trkpt>
      <trkpt lat="47.59325" lon="-0.43037">
        <ele>35.6</ele>
        <time>2012-03-25T05:09:20Z</time>
      </trkpt>
      <trkpt lat="47.59328" lon="-0.4305">
        <ele>35</ele>
        <time>2012-03-25T05:09:22Z</time>
      </trkpt>
      <trkpt lat="47.59332" lon="-0.43069">
        <ele>34.4</ele>
        <time>2012-03-25T05:09:25Z</time>
      </trkpt>
      <trkpt lat="47.59335" lon="-0.43084">
        <ele>33.7</ele>
        <time>2012-03-25T05:09:27Z</time>
      </trkpt>
      <trkpt lat="47.59339" lon="-0.43098">
        <ele>33.1</ele>
        <time>2012-03-25T05:09:29Z</time>
      </trkpt>
      <trkpt lat="47.59342" lon="-0.43111">
        <ele>32.5</ele>
        <time>2012-03-25T05:09:31Z</time>
      </trkpt>
      <trkpt lat="47.59348" lon="-0.43129">
        <ele>31.9</ele>
        <time>2012-03-25T05:09:33Z</time>
      </trkpt>
      <trkpt lat="47.59353" lon="-0.43146">
        <ele>31.6</ele>
        <time>2012-03-25T05:09:35Z</time>
      </trkpt>
      <trkpt lat="47.59356" lon="-0.43161">
        <ele>31.4</ele>
        <time>2012-03-25T05:09:37Z</time>
      </trkpt>
      <trkpt lat="47.5936" lon="-0.43177">
        <ele>31.1</ele>
        <time>2012-03-25T05:09:39Z</time>
      </trkpt>
      <trkpt lat="47.59367" lon="-0.43194">
        <ele>30.8</ele>
        <time>2012-03-25T05:09:42Z</time>
      </trkpt>
      <trkpt lat="47.59379" lon="-0.432">
        <ele>30.5</ele>
        <time>2012-03-25T05:09:44Z</time>
      </trkpt>
      <trkpt lat="47.5939" lon="-0.43202">
        <ele>30.6</ele>
        <time>2012-03-25T05:09:46Z</time>
      </trkpt>
      <trkpt lat="47.59401" lon="-0.43202">
        <ele>30.7</ele>
        <time>2012-03-25T05:09:48Z</time>
      </trkpt>
      <trkpt lat="47.59412" lon="-0.432">
        <ele>31</ele>
        <time>2012-03-25T05:09:50Z</time>
      </trkpt>
      <trkpt lat="47.59421" lon="-0.43194">
        <ele>31.1</ele>
        <time>2012-03-25T05:09:52Z</time>
      </trkpt>
      <trkpt lat="47.59432" lon="-0.43187">
        <ele>31.2</ele>
        <time>2012-03-25T05:09:54Z</time>
      </trkpt>
      <trkpt lat="47.59442" lon="-0.43187">
        <ele>31.2</ele>
        <time>2012-03-25T05:09:56Z</time>
      </trkpt>
      <trkpt lat="47.59451" lon="-0.43193">
        <ele>31.2</ele>
        <time>2012-03-25T05:09:58Z</time>
      </trkpt>
      <trkpt lat="47.59461" lon="-0.43201">
        <ele>31.2</ele>
        <time>2012-03-25T05:10:00Z</time>
      </trkpt>
      <trkpt lat="47.59469" lon="-0.4321">
        <ele>31.2</ele>
        <time>2012-03-25T05:10:02Z</time>
      </trkpt>
      <trkpt lat="47.59478" lon="-0.43218">
        <ele>31.2</ele>
        <time>2012-03-25T05:10:04Z</time>
      </trkpt>
      <trkpt lat="47.59487" lon="-0.43225">
        <ele>31.2</ele>
        <time>2012-03-25T05:10:06Z</time>
      </trkpt>
      <trkpt lat="47.59496" lon="-0.43234">
        <ele>31.2</ele>
        <time>2012-03-25T05:10:08Z</time>
      </trkpt>
      <trkpt lat="47.59508" lon="-0.43245">
        <ele>31.5</ele>
        <time>2012-03-25T05:10:11Z</time>
      </trkpt>
      <trkpt lat="47.59516" lon="-0.43253">
        <ele>31.3</ele>
        <time>2012-03-25T05:10:14Z</time>
      </trkpt>
      <trkpt lat="47.59525" lon="-0.4326">
        <ele>31.3</ele>
        <time>2012-03-25T05:10:15Z</time>
      </trkpt>
      <trkpt lat="47.59535" lon="-0.43268">
        <ele>31.3</ele>
        <time>2012-03-25T05:10:18Z</time>
      </trkpt>
      <trkpt lat="47.59544" lon="-0.43275">
        <ele>31.5</ele>
        <time>2012-03-25T05:10:21Z</time>
      </trkpt>
      <trkpt lat="47.59552" lon="-0.43282">
        <ele>31.8</ele>
        <time>2012-03-25T05:10:23Z</time>
      </trkpt>
      <trkpt lat="47.59561" lon="-0.43291">
        <ele>32.1</ele>
        <time>2012-03-25T05:10:26Z</time>
      </trkpt>
      <trkpt lat="47.59572" lon="-0.43297">
        <ele>32.4</ele>
        <time>2012-03-25T05:10:29Z</time>
      </trkpt>
      <trkpt lat="47.59581" lon="-0.43287">
        <ele>32.6</ele>
        <time>2012-03-25T05:10:34Z</time>
      </trkpt>
      <trkpt lat="47.59587" lon="-0.43275">
        <ele>32.9</ele>
        <time>2012-03-25T05:10:37Z</time>
      </trkpt>
      <trkpt lat="47.59592" lon="-0.43262">
        <ele>33.6</ele>
        <time>2012-03-25T05:10:40Z</time>
      </trkpt>
      <trkpt lat="47.59596" lon="-0.43247">
        <ele>34.1</ele>
        <time>2012-03-25T05:10:43Z</time>
      </trkpt>
      <trkpt lat="47.596" lon="-0.43232">
        <ele>34.8</ele>
        <time>2012-03-25T05:10:46Z</time>
      </trkpt>
      <trkpt lat="47.59605" lon="-0.43218">
        <ele>35.5</ele>
        <time>2012-03-25T05:10:49Z</time>
      </trkpt>
      <trkpt lat="47.59608" lon="-0.43205">
        <ele>36.2</ele>
        <time>2012-03-25T05:10:52Z</time>
      </trkpt>
      <trkpt lat="47.59612" lon="-0.4319">
        <ele>37</ele>
        <time>2012-03-25T05:10:55Z</time>
      </trkpt>
      <trkpt lat="47.59617" lon="-0.43171">
        <ele>37.8</ele>
        <time>2012-03-25T05:10:59Z</time>
      </trkpt>
      <trkpt lat="47.59621" lon="-0.43157">
        <ele>38.6</ele>
        <time>2012-03-25T05:11:02Z</time>
      </trkpt>
      <trkpt lat="47.59626" lon="-0.43144">
        <ele>39.5</ele>
        <time>2012-03-25T05:11:06Z</time>
      </trkpt>
      <trkpt lat="47.59633" lon="-0.43126">
        <ele>40.3</ele>
        <time>2012-03-25T05:11:09Z</time>
      </trkpt>
      <trkpt lat="47.59638" lon="-0.43112">
        <ele>41.3</ele>
        <time>2012-03-25T05:11:13Z</time>
      </trkpt>
      <trkpt lat="47.59644" lon="-0.43096">
        <ele>41.8</ele>
        <time>2012-03-25T05:11:16Z</time>
      </trkpt>
      <trkpt lat="47.59648" lon="-0.43079">
        <ele>42.4</ele>
        <time>2012-03-25T05:11:19Z</time>
      </trkpt>
      <trkpt lat="47.59653" lon="-0.43061">
        <ele>42.9</ele>
        <time>2012-03-25T05:11:23Z</time>
      </trkpt>
      <trkpt lat="47.59658" lon="-0.43045">
        <ele>43.5</ele>
        <time>2012-03-25T05:11:26Z</time>
      </trkpt>
      <trkpt lat="47.59662" lon="-0.43033">
        <ele>44.1</ele>
        <time>2012-03-25T05:11:29Z</time>
      </trkpt>
      <trkpt lat="47.59667" lon="-0.43017">
        <ele>43.9</ele>
        <time>2012-03-25T05:11:32Z</time>
      </trkpt>
      <trkpt lat="47.59671" lon="-0.43004">
        <ele>43.7</ele>
        <time>2012-03-25T05:11:35Z</time>
      </trkpt>
      <trkpt lat="47.59673" lon="-0.4299">
        <ele>43.5</ele>
        <time>2012-03-25T05:11:38Z</time>
      </trkpt>
      <trkpt lat="47.59677" lon="-0.42977">
        <ele>43.5</ele>
        <time>2012-03-25T05:11:41Z</time>
      </trkpt>
      <trkpt lat="47.59681" lon="-0.42965">
        <ele>43.4</ele>
        <time>2012-03-25T05:11:44Z</time>
      </trkpt>
      <trkpt lat="47.59689" lon="-0.42951">
        <ele>43.1</ele>
        <time>2012-03-25T05:11:48Z</time>
      </trkpt>
      <trkpt lat="47.597" lon="-0.42953">
        <ele>42.8</ele>
        <time>2012-03-25T05:11:51Z</time>
      </trkpt>
      <trkpt lat="47.59712" lon="-0.42956">
        <ele>42.5</ele>
        <time>2012-03-25T05:11:54Z</time>
      </trkpt>
      <trkpt lat="47.59724" lon="-0.42958">
        <ele>42.3</ele>
        <time>2012-03-25T05:11:57Z</time>
      </trkpt>
      <trkpt lat="47.59734" lon="-0.4296">
        <ele>42</ele>
        <time>2012-03-25T05:11:59Z</time>
      </trkpt>
      <trkpt lat="47.59744" lon="-0.42962">
        <ele>41.7</ele>
        <time>2012-03-25T05:12:01Z</time>
      </trkpt>
      <trkpt lat="47.59754" lon="-0.42964">
        <ele>41.5</ele>
        <time>2012-03-25T05:12:03Z</time>
      </trkpt>
      <trkpt lat="47.59764" lon="-0.42966">
        <ele>41.2</ele>
        <time>2012-03-25T05:12:05Z</time>
      </trkpt>
      <trkpt lat="47.59774" lon="-0.42968">
        <ele>40.9</ele>
        <time>2012-03-25T05:12:07Z</time>
      </trkpt>
      <trkpt lat="47.59784" lon="-0.42971">
        <ele>40.5</ele>
        <time>2012-03-25T05:12:09Z</time>
      </trkpt>
      <trkpt lat="47.59794" lon="-0.42974">
        <ele>40.2</ele>
        <time>2012-03-25T05:12:11Z</time>
      </trkpt>
      <trkpt lat="47.59805" lon="-0.42977">
        <ele>39.8</ele>
        <time>2012-03-25T05:12:13Z</time>
      </trkpt>
      <trkpt lat="47.59815" lon="-0.42979">
        <ele>39.5</ele>
        <time>2012-03-25T05:12:15Z</time>
      </trkpt>
      <trkpt lat="47.59825" lon="-0.42981">
        <ele>38.8</ele>
        <time>2012-03-25T05:12:17Z</time>
      </trkpt>
      <trkpt lat="47.59838" lon="-0.42984">
        <ele>38.2</ele>
        <time>2012-03-25T05:12:19Z</time>
      </trkpt>
      <trkpt lat="47.59849" lon="-0.42986">
        <ele>37.5</ele>
        <time>2012-03-25T05:12:21Z</time>
      </trkpt>
      <trkpt lat="47.59861" lon="-0.42989">
        <ele>36.9</ele>
        <time>2012-03-25T05:12:23Z</time>
      </trkpt>
      <trkpt lat="47.59873" lon="-0.42994">
        <ele>36.6</ele>
        <time>2012-03-25T05:12:25Z</time>
      </trkpt>
      <trkpt lat="47.59886" lon="-0.42998">
        <ele>36.4</ele>
        <time>2012-03-25T05:12:27Z</time>
      </trkpt>
      <trkpt lat="47.59897" lon="-0.43002">
        <ele>36.1</ele>
        <time>2012-03-25T05:12:29Z</time>
      </trkpt>
      <trkpt lat="47.59908" lon="-0.43005">
        <ele>35.7</ele>
        <time>2012-03-25T05:12:31Z</time>
      </trkpt>
      <trkpt lat="47.5992" lon="-0.43009">
        <ele>35.4</ele>
        <time>2012-03-25T05:12:33Z</time>
      </trkpt>
      <trkpt lat="47.59932" lon="-0.43012">
        <ele>35</ele>
        <time>2012-03-25T05:12:35Z</time>
      </trkpt>
      <trkpt lat="47.59945" lon="-0.43015">
        <ele>34.6</ele>
        <time>2012-03-25T05:12:37Z</time>
      </trkpt>
      <trkpt lat="47.59957" lon="-0.43017">
        <ele>34.5</ele>
        <time>2012-03-25T05:12:39Z</time>
      </trkpt>
      <trkpt lat="47.59968" lon="-0.43019">
        <ele>34.5</ele>
        <time>2012-03-25T05:12:41Z</time>
      </trkpt>
      <trkpt lat="47.59981" lon="-0.43021">
        <ele>34.4</ele>
        <time>2012-03-25T05:12:43Z</time>
      </trkpt>
      <trkpt lat="47.59992" lon="-0.43024">
        <ele>33.9</ele>
        <time>2012-03-25T05:12:45Z</time>
      </trkpt>
      <trkpt lat="47.60004" lon="-0.43028">
        <ele>33.5</ele>
        <time>2012-03-25T05:12:47Z</time>
      </trkpt>
      <trkpt lat="47.60016" lon="-0.43033">
        <ele>33</ele>
        <time>2012-03-25T05:12:49Z</time>
      </trkpt>
      <trkpt lat="47.60029" lon="-0.43037">
        <ele>32.5</ele>
        <time>2012-03-25T05:12:51Z</time>
      </trkpt>
      <trkpt lat="47.60042" lon="-0.43039">
        <ele>32.2</ele>
        <time>2012-03-25T05:12:53Z</time>
      </trkpt>
      <trkpt lat="47.60056" lon="-0.43033">
        <ele>31.8</ele>
        <time>2012-03-25T05:12:55Z</time>
      </trkpt>
      <trkpt lat="47.60068" lon="-0.43023">
        <ele>31.5</ele>
        <time>2012-03-25T05:12:57Z</time>
      </trkpt>
      <trkpt lat="47.60078" lon="-0.43011">
        <ele>31.1</ele>
        <time>2012-03-25T05:12:59Z</time>
      </trkpt>
      <trkpt lat="47.60088" lon="-0.43">
        <ele>30.8</ele>
        <time>2012-03-25T05:13:01Z</time>
      </trkpt>
      <trkpt lat="47.60098" lon="-0.4299">
        <ele>30.5</ele>
        <time>2012-03-25T05:13:03Z</time>
      </trkpt>
      <trkpt lat="47.60107" lon="-0.4298">
        <ele>30.3</ele>
        <time>2012-03-25T05:13:05Z</time>
      </trkpt>
      <trkpt lat="47.60117" lon="-0.42969">
        <ele>30.4</ele>
        <time>2012-03-25T05:13:07Z</time>
      </trkpt>
      <trkpt lat="47.60127" lon="-0.42958">
        <ele>30.5</ele>
        <time>2012-03-25T05:13:09Z</time>
      </trkpt>
      <trkpt lat="47.60136" lon="-0.42948">
        <ele>30.5</ele>
        <time>2012-03-25T05:13:11Z</time>
      </trkpt>
      <trkpt lat="47.60147" lon="-0.42937">
        <ele>30.6</ele>
        <time>2012-03-25T05:13:13Z</time>
      </trkpt>
      <trkpt lat="47.60156" lon="-0.42928">
        <ele>30.7</ele>
        <time>2012-03-25T05:13:15Z</time>
      </trkpt>
      <trkpt lat="47.60165" lon="-0.42917">
        <ele>30.8</ele>
        <time>2012-03-25T05:13:17Z</time>
      </trkpt>
      <trkpt lat="47.60173" lon="-0.42909">
        <ele>31.1</ele>
        <time>2012-03-25T05:13:19Z</time>
      </trkpt>
      <trkpt lat="47.60184" lon="-0.42898">
        <ele>31.4</ele>
        <time>2012-03-25T05:13:21Z</time>
      </trkpt>
      <trkpt lat="47.60194" lon="-0.42888">
        <ele>31.5</ele>
        <time>2012-03-25T05:13:23Z</time>
      </trkpt>
      <trkpt lat="47.60201" lon="-0.4288">
        <ele>31.7</ele>
        <time>2012-03-25T05:13:25Z</time>
      </trkpt>
      <trkpt lat="47.60209" lon="-0.4287">
        <ele>31.9</ele>
        <time>2012-03-25T05:13:27Z</time>
      </trkpt>
      <trkpt lat="47.60218" lon="-0.42862">
        <ele>32.1</ele>
        <time>2012-03-25T05:13:29Z</time>
      </trkpt>
      <trkpt lat="47.60229" lon="-0.42852">
        <ele>32.3</ele>
        <time>2012-03-25T05:13:31Z</time>
      </trkpt>
      <trkpt lat="47.60238" lon="-0.42844">
        <ele>32.5</ele>
        <time>2012-03-25T05:13:33Z</time>
      </trkpt>
      <trkpt lat="47.60248" lon="-0.42837">
        <ele>32.5</ele>
        <time>2012-03-25T05:13:35Z</time>
      </trkpt>
      <trkpt lat="47.60257" lon="-0.4283">
        <ele>32.6</ele>
        <time>2012-03-25T05:13:37Z</time>
      </trkpt>
      <trkpt lat="47.60268" lon="-0.42824">
        <ele>32.7</ele>
        <time>2012-03-25T05:13:39Z</time>
      </trkpt>
      <trkpt lat="47.60278" lon="-0.42819">
        <ele>32.6</ele>
        <time>2012-03-25T05:13:41Z</time>
      </trkpt>
      <trkpt lat="47.60288" lon="-0.42814">
        <ele>32.5</ele>
        <time>2012-03-25T05:13:43Z</time>
      </trkpt>
      <trkpt lat="47.60298" lon="-0.42809">
        <ele>32.5</ele>
        <time>2012-03-25T05:13:45Z</time>
      </trkpt>
      <trkpt lat="47.60307" lon="-0.42805">
        <ele>32.4</ele>
        <time>2012-03-25T05:13:47Z</time>
      </trkpt>
      <trkpt lat="47.60316" lon="-0.42803">
        <ele>32.3</ele>
        <time>2012-03-25T05:13:49Z</time>
      </trkpt>
      <trkpt lat="47.60329" lon="-0.42801">
        <ele>32.3</ele>
        <time>2012-03-25T05:13:51Z</time>
      </trkpt>
      <trkpt lat="47.60339" lon="-0.428">
        <ele>32.3</ele>
        <time>2012-03-25T05:13:53Z</time>
      </trkpt>
      <trkpt lat="47.60351" lon="-0.428">
        <ele>32.3</ele>
        <time>2012-03-25T05:13:55Z</time>
      </trkpt>
      <trkpt lat="47.60361" lon="-0.42799">
        <ele>32.4</ele>
        <time>2012-03-25T05:13:57Z</time>
      </trkpt>
      <trkpt lat="47.60372" lon="-0.42801">
        <ele>32.5</ele>
        <time>2012-03-25T05:13:59Z</time>
      </trkpt>
      <trkpt lat="47.60384" lon="-0.42803">
        <ele>32.5</ele>
        <time>2012-03-25T05:14:01Z</time>
      </trkpt>
      <trkpt lat="47.60393" lon="-0.42805">
        <ele>32.6</ele>
        <time>2012-03-25T05:14:03Z</time>
      </trkpt>
      <trkpt lat="47.60405" lon="-0.42808">
        <ele>32.9</ele>
        <time>2012-03-25T05:14:05Z</time>
      </trkpt>
      <trkpt lat="47.60416" lon="-0.42812">
        <ele>33.2</ele>
        <time>2012-03-25T05:14:07Z</time>
      </trkpt>
      <trkpt lat="47.6043" lon="-0.42816">
        <ele>33.5</ele>
        <time>2012-03-25T05:14:09Z</time>
      </trkpt>
      <trkpt lat="47.60443" lon="-0.42819">
        <ele>33.7</ele>
        <time>2012-03-25T05:14:11Z</time>
      </trkpt>
      <trkpt lat="47.60452" lon="-0.4282">
        <ele>33.9</ele>
        <time>2012-03-25T05:14:13Z</time>
      </trkpt>
      <trkpt lat="47.60465" lon="-0.42819">
        <ele>34.1</ele>
        <time>2012-03-25T05:14:15Z</time>
      </trkpt>
      <trkpt lat="47.60477" lon="-0.42817">
        <ele>34.3</ele>
        <time>2012-03-25T05:14:17Z</time>
      </trkpt>
      <trkpt lat="47.60486" lon="-0.42814">
        <ele>34.5</ele>
        <time>2012-03-25T05:14:19Z</time>
      </trkpt>
      <trkpt lat="47.60497" lon="-0.4281">
        <ele>34.6</ele>
        <time>2012-03-25T05:14:21Z</time>
      </trkpt>
      <trkpt lat="47.60508" lon="-0.42804">
        <ele>34.7</ele>
        <time>2012-03-25T05:14:23Z</time>
      </trkpt>
      <trkpt lat="47.60518" lon="-0.42799">
        <ele>34.8</ele>
        <time>2012-03-25T05:14:25Z</time>
      </trkpt>
      <trkpt lat="47.60528" lon="-0.42794">
        <ele>34.7</ele>
        <time>2012-03-25T05:14:27Z</time>
      </trkpt>
      <trkpt lat="47.60537" lon="-0.42788">
        <ele>34.6</ele>
        <time>2012-03-25T05:14:29Z</time>
      </trkpt>
      <trkpt lat="47.60547" lon="-0.42781">
        <ele>34.5</ele>
        <time>2012-03-25T05:14:31Z</time>
      </trkpt>
      <trkpt lat="47.60556" lon="-0.42777">
        <ele>34.5</ele>
        <time>2012-03-25T05:14:33Z</time>
      </trkpt>
      <trkpt lat="47.60567" lon="-0.42771">
        <ele>34.7</ele>
        <time>2012-03-25T05:14:35Z</time>
      </trkpt>
      <trkpt lat="47.60578" lon="-0.42767">
        <ele>35</ele>
        <time>2012-03-25T05:14:37Z</time>
      </trkpt>
      <trkpt lat="47.60589" lon="-0.42763">
        <ele>35.3</ele>
        <time>2012-03-25T05:14:39Z</time>
      </trkpt>
      <trkpt lat="47.60599" lon="-0.42764">
        <ele>35.5</ele>
        <time>2012-03-25T05:14:41Z</time>
      </trkpt>
      <trkpt lat="47.60607" lon="-0.42774">
        <ele>35.8</ele>
        <time>2012-03-25T05:14:43Z</time>
      </trkpt>
      <trkpt lat="47.60612" lon="-0.42789">
        <ele>36.5</ele>
        <time>2012-03-25T05:14:45Z</time>
      </trkpt>
      <trkpt lat="47.60617" lon="-0.42803">
        <ele>36.6</ele>
        <time>2012-03-25T05:14:47Z</time>
      </trkpt>
      <trkpt lat="47.60619" lon="-0.42818">
        <ele>36.8</ele>
        <time>2012-03-25T05:14:49Z</time>
      </trkpt>
      <trkpt lat="47.60622" lon="-0.42834">
        <ele>37</ele>
        <time>2012-03-25T05:14:51Z</time>
      </trkpt>
      <trkpt lat="47.60625" lon="-0.4285">
        <ele>37.2</ele>
        <time>2012-03-25T05:14:53Z</time>
      </trkpt>
      <trkpt lat="47.60628" lon="-0.42865">
        <ele>37.4</ele>
        <time>2012-03-25T05:14:55Z</time>
      </trkpt>
      <trkpt lat="47.6063" lon="-0.42879">
        <ele>37.2</ele>
        <time>2012-03-25T05:14:57Z</time>
      </trkpt>
      <trkpt lat="47.60633" lon="-0.42894">
        <ele>37.1</ele>
        <time>2012-03-25T05:14:59Z</time>
      </trkpt>
      <trkpt lat="47.60636" lon="-0.42908">
        <ele>37</ele>
        <time>2012-03-25T05:15:01Z</time>
      </trkpt>
      <trkpt lat="47.60638" lon="-0.42927">
        <ele>36.9</ele>
        <time>2012-03-25T05:15:03Z</time>
      </trkpt>
      <trkpt lat="47.60642" lon="-0.42941">
        <ele>36.8</ele>
        <time>2012-03-25T05:15:05Z</time>
      </trkpt>
      <trkpt lat="47.60645" lon="-0.42956">
        <ele>36.5</ele>
        <time>2012-03-25T05:15:07Z</time>
      </trkpt>
      <trkpt lat="47.60648" lon="-0.42973">
        <ele>36.4</ele>
        <time>2012-03-25T05:15:09Z</time>
      </trkpt>
      <trkpt lat="47.60651" lon="-0.42989">
        <ele>36.3</ele>
        <time>2012-03-25T05:15:11Z</time>
      </trkpt>
      <trkpt lat="47.60654" lon="-0.43003">
        <ele>36.2</ele>
        <time>2012-03-25T05:15:13Z</time>
      </trkpt>
      <trkpt lat="47.60658" lon="-0.43021">
        <ele>36.1</ele>
        <time>2012-03-25T05:15:15Z</time>
      </trkpt>
      <trkpt lat="47.60661" lon="-0.43039">
        <ele>35.8</ele>
        <time>2012-03-25T05:15:17Z</time>
      </trkpt>
      <trkpt lat="47.60665" lon="-0.43058">
        <ele>35.5</ele>
        <time>2012-03-25T05:15:19Z</time>
      </trkpt>
      <trkpt lat="47.60668" lon="-0.43075">
        <ele>35.2</ele>
        <time>2012-03-25T05:15:21Z</time>
      </trkpt>
      <trkpt lat="47.60673" lon="-0.43092">
        <ele>34.8</ele>
        <time>2012-03-25T05:15:23Z</time>
      </trkpt>
      <trkpt lat="47.60677" lon="-0.43107">
        <ele>34.5</ele>
        <time>2012-03-25T05:15:25Z</time>
      </trkpt>
      <trkpt lat="47.60681" lon="-0.43125">
        <ele>34.2</ele>
        <time>2012-03-25T05:15:27Z</time>
      </trkpt>
      <trkpt lat="47.60684" lon="-0.43145">
        <ele>33.5</ele>
        <time>2012-03-25T05:15:29Z</time>
      </trkpt>
      <trkpt lat="47.60688" lon="-0.43164">
        <ele>33.1</ele>
        <time>2012-03-25T05:15:31Z</time>
      </trkpt>
      <trkpt lat="47.6069" lon="-0.43178">
        <ele>32.6</ele>
        <time>2012-03-25T05:15:33Z</time>
      </trkpt>
      <trkpt lat="47.60695" lon="-0.43195">
        <ele>32.2</ele>
        <time>2012-03-25T05:15:35Z</time>
      </trkpt>
      <trkpt lat="47.60702" lon="-0.43212">
        <ele>31.7</ele>
        <time>2012-03-25T05:15:37Z</time>
      </trkpt>
      <trkpt lat="47.60712" lon="-0.43227">
        <ele>31.3</ele>
        <time>2012-03-25T05:15:39Z</time>
      </trkpt>
      <trkpt lat="47.60722" lon="-0.43238">
        <ele>30.8</ele>
        <time>2012-03-25T05:15:41Z</time>
      </trkpt>
      <trkpt lat="47.60732" lon="-0.43251">
        <ele>30.4</ele>
        <time>2012-03-25T05:15:43Z</time>
      </trkpt>
      <trkpt lat="47.60741" lon="-0.43262">
        <ele>29.9</ele>
        <time>2012-03-25T05:15:45Z</time>
      </trkpt>
      <trkpt lat="47.60749" lon="-0.43273">
        <ele>29.3</ele>
        <time>2012-03-25T05:15:47Z</time>
      </trkpt>
      <trkpt lat="47.60759" lon="-0.43289">
        <ele>28.5</ele>
        <time>2012-03-25T05:15:49Z</time>
      </trkpt>
      <trkpt lat="47.60767" lon="-0.43303">
        <ele>28</ele>
        <time>2012-03-25T05:15:51Z</time>
      </trkpt>
      <trkpt lat="47.60776" lon="-0.43318">
        <ele>27.5</ele>
        <time>2012-03-25T05:15:53Z</time>
      </trkpt>
      <trkpt lat="47.60786" lon="-0.43334">
        <ele>26.9</ele>
        <time>2012-03-25T05:15:55Z</time>
      </trkpt>
      <trkpt lat="47.60795" lon="-0.43349">
        <ele>26.5</ele>
        <time>2012-03-25T05:15:57Z</time>
      </trkpt>
      <trkpt lat="47.60805" lon="-0.43362">
        <ele>26.2</ele>
        <time>2012-03-25T05:15:59Z</time>
      </trkpt>
      <trkpt lat="47.60814" lon="-0.43372">
        <ele>26</ele>
        <time>2012-03-25T05:16:01Z</time>
      </trkpt>
      <trkpt lat="47.60825" lon="-0.43378">
        <ele>25.8</ele>
        <time>2012-03-25T05:16:03Z</time>
      </trkpt>
      <trkpt lat="47.60837" lon="-0.43373">
        <ele>25.6</ele>
        <time>2012-03-25T05:16:05Z</time>
      </trkpt>
      <trkpt lat="47.60843" lon="-0.43359">
        <ele>25.6</ele>
        <time>2012-03-25T05:16:07Z</time>
      </trkpt>
      <trkpt lat="47.60847" lon="-0.43341">
        <ele>25.8</ele>
        <time>2012-03-25T05:16:10Z</time>
      </trkpt>
      <trkpt lat="47.60851" lon="-0.43327">
        <ele>26</ele>
        <time>2012-03-25T05:16:12Z</time>
      </trkpt>
      <trkpt lat="47.60855" lon="-0.43313">
        <ele>26</ele>
        <time>2012-03-25T05:16:14Z</time>
      </trkpt>
      <trkpt lat="47.60858" lon="-0.433">
        <ele>26</ele>
        <time>2012-03-25T05:16:16Z</time>
      </trkpt>
      <trkpt lat="47.60863" lon="-0.43285">
        <ele>26</ele>
        <time>2012-03-25T05:16:18Z</time>
      </trkpt>
      <trkpt lat="47.60869" lon="-0.43268">
        <ele>26.2</ele>
        <time>2012-03-25T05:16:21Z</time>
      </trkpt>
      <trkpt lat="47.60873" lon="-0.43255">
        <ele>26.4</ele>
        <time>2012-03-25T05:16:23Z</time>
      </trkpt>
      <trkpt lat="47.60879" lon="-0.43236">
        <ele>26.5</ele>
        <time>2012-03-25T05:16:26Z</time>
      </trkpt>
      <trkpt lat="47.60882" lon="-0.43223">
        <ele>26.7</ele>
        <time>2012-03-25T05:16:28Z</time>
      </trkpt>
      <trkpt lat="47.60887" lon="-0.43208">
        <ele>26.9</ele>
        <time>2012-03-25T05:16:30Z</time>
      </trkpt>
      <trkpt lat="47.60892" lon="-0.43194">
        <ele>27</ele>
        <time>2012-03-25T05:16:32Z</time>
      </trkpt>
      <trkpt lat="47.60897" lon="-0.43178">
        <ele>27.1</ele>
        <time>2012-03-25T05:16:35Z</time>
      </trkpt>
      <trkpt lat="47.60901" lon="-0.43165">
        <ele>27.2</ele>
        <time>2012-03-25T05:16:37Z</time>
      </trkpt>
      <trkpt lat="47.60906" lon="-0.43148">
        <ele>27.6</ele>
        <time>2012-03-25T05:16:40Z</time>
      </trkpt>
      <trkpt lat="47.60911" lon="-0.4313">
        <ele>28.1</ele>
        <time>2012-03-25T05:16:43Z</time>
      </trkpt>
      <trkpt lat="47.60915" lon="-0.43118">
        <ele>28.5</ele>
        <time>2012-03-25T05:16:45Z</time>
      </trkpt>
      <trkpt lat="47.60921" lon="-0.431">
        <ele>28.7</ele>
        <time>2012-03-25T05:16:48Z</time>
      </trkpt>
      <trkpt lat="47.60926" lon="-0.43088">
        <ele>28.9</ele>
        <time>2012-03-25T05:16:50Z</time>
      </trkpt>
      <trkpt lat="47.60932" lon="-0.43075">
        <ele>29.1</ele>
        <time>2012-03-25T05:16:52Z</time>
      </trkpt>
      <trkpt lat="47.60936" lon="-0.43061">
        <ele>28.9</ele>
        <time>2012-03-25T05:16:54Z</time>
      </trkpt>
      <trkpt lat="47.60941" lon="-0.43049">
        <ele>28.7</ele>
        <time>2012-03-25T05:16:56Z</time>
      </trkpt>
      <trkpt lat="47.60946" lon="-0.43036">
        <ele>28.6</ele>
        <time>2012-03-25T05:16:58Z</time>
      </trkpt>
      <trkpt lat="47.60952" lon="-0.43018">
        <ele>28.5</ele>
        <time>2012-03-25T05:17:00Z</time>
      </trkpt>
      <trkpt lat="47.60956" lon="-0.43004">
        <ele>28.5</ele>
        <time>2012-03-25T05:17:02Z</time>
      </trkpt>
      <trkpt lat="47.60961" lon="-0.42985">
        <ele>28.4</ele>
        <time>2012-03-25T05:17:05Z</time>
      </trkpt>
      <trkpt lat="47.60967" lon="-0.42969">
        <ele>28.3</ele>
        <time>2012-03-25T05:17:07Z</time>
      </trkpt>
      <trkpt lat="47.60971" lon="-0.42955">
        <ele>28.2</ele>
        <time>2012-03-25T05:17:09Z</time>
      </trkpt>
      <trkpt lat="47.60978" lon="-0.42942">
        <ele>28</ele>
        <time>2012-03-25T05:17:11Z</time>
      </trkpt>
      <trkpt lat="47.60985" lon="-0.42928">
        <ele>27.8</ele>
        <time>2012-03-25T05:17:13Z</time>
      </trkpt>
      <trkpt lat="47.60991" lon="-0.42915">
        <ele>27.9</ele>
        <time>2012-03-25T05:17:15Z</time>
      </trkpt>
      <trkpt lat="47.60996" lon="-0.42904">
        <ele>28.4</ele>
        <time>2012-03-25T05:17:17Z</time>
      </trkpt>
      <trkpt lat="47.61001" lon="-0.42892">
        <ele>28.8</ele>
        <time>2012-03-25T05:17:19Z</time>
      </trkpt>
      <trkpt lat="47.61007" lon="-0.42881">
        <ele>29.1</ele>
        <time>2012-03-25T05:17:21Z</time>
      </trkpt>
      <trkpt lat="47.61014" lon="-0.4287">
        <ele>29</ele>
        <time>2012-03-25T05:17:23Z</time>
      </trkpt>
      <trkpt lat="47.61022" lon="-0.42857">
        <ele>28.9</ele>
        <time>2012-03-25T05:17:25Z</time>
      </trkpt>
      <trkpt lat="47.6103" lon="-0.42843">
        <ele>28.8</ele>
        <time>2012-03-25T05:17:27Z</time>
      </trkpt>
      <trkpt lat="47.61037" lon="-0.42831">
        <ele>29.1</ele>
        <time>2012-03-25T05:17:29Z</time>
      </trkpt>
      <trkpt lat="47.61044" lon="-0.42819">
        <ele>29.4</ele>
        <time>2012-03-25T05:17:31Z</time>
      </trkpt>
      <trkpt lat="47.61051" lon="-0.42806">
        <ele>29.6</ele>
        <time>2012-03-25T05:17:33Z</time>
      </trkpt>
      <trkpt lat="47.61059" lon="-0.42795">
        <ele>29.9</ele>
        <time>2012-03-25T05:17:35Z</time>
      </trkpt>
      <trkpt lat="47.61068" lon="-0.42785">
        <ele>29.9</ele>
        <time>2012-03-25T05:17:37Z</time>
      </trkpt>
      <trkpt lat="47.61078" lon="-0.42774">
        <ele>29.9</ele>
        <time>2012-03-25T05:17:39Z</time>
      </trkpt>
      <trkpt lat="47.61088" lon="-0.42763">
        <ele>29.9</ele>
        <time>2012-03-25T05:17:41Z</time>
      </trkpt>
      <trkpt lat="47.61096" lon="-0.42754">
        <ele>29.8</ele>
        <time>2012-03-25T05:17:43Z</time>
      </trkpt>
      <trkpt lat="47.61104" lon="-0.42744">
        <ele>30.1</ele>
        <time>2012-03-25T05:17:45Z</time>
      </trkpt>
      <trkpt lat="47.61112" lon="-0.42736">
        <ele>30.4</ele>
        <time>2012-03-25T05:17:47Z</time>
      </trkpt>
      <trkpt lat="47.61119" lon="-0.42727">
        <ele>30.6</ele>
        <time>2012-03-25T05:17:49Z</time>
      </trkpt>
      <trkpt lat="47.61126" lon="-0.42719">
        <ele>30.5</ele>
        <time>2012-03-25T05:17:51Z</time>
      </trkpt>
      <trkpt lat="47.61135" lon="-0.42711">
        <ele>30.5</ele>
        <time>2012-03-25T05:17:53Z</time>
      </trkpt>
      <trkpt lat="47.61147" lon="-0.42701">
        <ele>30.4</ele>
        <time>2012-03-25T05:17:55Z</time>
      </trkpt>
      <trkpt lat="47.61159" lon="-0.42693">
        <ele>30.3</ele>
        <time>2012-03-25T05:17:57Z</time>
      </trkpt>
      <trkpt lat="47.61171" lon="-0.42688">
        <ele>30.2</ele>
        <time>2012-03-25T05:17:59Z</time>
      </trkpt>
      <trkpt lat="47.61183" lon="-0.42682">
        <ele>30.1</ele>
        <time>2012-03-25T05:18:01Z</time>
      </trkpt>
      <trkpt lat="47.61194" lon="-0.42677">
        <ele>30</ele>
        <time>2012-03-25T05:18:03Z</time>
      </trkpt>
      <trkpt lat="47.61206" lon="-0.42672">
        <ele>30</ele>
        <time>2012-03-25T05:18:05Z</time>
      </trkpt>
      <trkpt lat="47.61218" lon="-0.42668">
        <ele>30</ele>
        <time>2012-03-25T05:18:07Z</time>
      </trkpt>
      <trkpt lat="47.61228" lon="-0.42664">
        <ele>30</ele>
        <time>2012-03-25T05:18:09Z</time>
      </trkpt>
      <trkpt lat="47.6124" lon="-0.4266">
        <ele>30</ele>
        <time>2012-03-25T05:18:11Z</time>
      </trkpt>
      <trkpt lat="47.61252" lon="-0.42656">
        <ele>30</ele>
        <time>2012-03-25T05:18:13Z</time>
      </trkpt>
      <trkpt lat="47.61263" lon="-0.42652">
        <ele>30</ele>
        <time>2012-03-25T05:18:15Z</time>
      </trkpt>
      <trkpt lat="47.61275" lon="-0.42649">
        <ele>30</ele>
        <time>2012-03-25T05:18:17Z</time>
      </trkpt>
      <trkpt lat="47.61288" lon="-0.42647">
        <ele>30</ele>
        <time>2012-03-25T05:18:19Z</time>
      </trkpt>
      <trkpt lat="47.61301" lon="-0.42645">
        <ele>30</ele>
        <time>2012-03-25T05:18:21Z</time>
      </trkpt>
      <trkpt lat="47.61311" lon="-0.42644">
        <ele>30</ele>
        <time>2012-03-25T05:18:23Z</time>
      </trkpt>
      <trkpt lat="47.61322" lon="-0.42643">
        <ele>29.9</ele>
        <time>2012-03-25T05:18:25Z</time>
      </trkpt>
      <trkpt lat="47.61333" lon="-0.4264">
        <ele>29.8</ele>
        <time>2012-03-25T05:18:27Z</time>
      </trkpt>
      <trkpt lat="47.61345" lon="-0.42638">
        <ele>29.7</ele>
        <time>2012-03-25T05:18:29Z</time>
      </trkpt>
      <trkpt lat="47.61354" lon="-0.42635">
        <ele>29.6</ele>
        <time>2012-03-25T05:18:31Z</time>
      </trkpt>
      <trkpt lat="47.61365" lon="-0.42633">
        <ele>29.5</ele>
        <time>2012-03-25T05:18:33Z</time>
      </trkpt>
      <trkpt lat="47.61377" lon="-0.42629">
        <ele>29.5</ele>
        <time>2012-03-25T05:18:35Z</time>
      </trkpt>
      <trkpt lat="47.61388" lon="-0.42628">
        <ele>29.4</ele>
        <time>2012-03-25T05:18:37Z</time>
      </trkpt>
      <trkpt lat="47.61398" lon="-0.42626">
        <ele>29.3</ele>
        <time>2012-03-25T05:18:39Z</time>
      </trkpt>
      <trkpt lat="47.61409" lon="-0.42624">
        <ele>29.2</ele>
        <time>2012-03-25T05:18:41Z</time>
      </trkpt>
      <trkpt lat="47.6142" lon="-0.42622">
        <ele>29.1</ele>
        <time>2012-03-25T05:18:43Z</time>
      </trkpt>
      <trkpt lat="47.61433" lon="-0.42619">
        <ele>29</ele>
        <time>2012-03-25T05:18:45Z</time>
      </trkpt>
      <trkpt lat="47.61447" lon="-0.42616">
        <ele>29</ele>
        <time>2012-03-25T05:18:48Z</time>
      </trkpt>
      <trkpt lat="47.61459" lon="-0.42613">
        <ele>29</ele>
        <time>2012-03-25T05:18:50Z</time>
      </trkpt>
      <trkpt lat="47.6147" lon="-0.4261">
        <ele>29</ele>
        <time>2012-03-25T05:18:52Z</time>
      </trkpt>
      <trkpt lat="47.61481" lon="-0.42606">
        <ele>29</ele>
        <time>2012-03-25T05:18:54Z</time>
      </trkpt>
      <trkpt lat="47.61491" lon="-0.42602">
        <ele>29.3</ele>
        <time>2012-03-25T05:18:56Z</time>
      </trkpt>
      <trkpt lat="47.61504" lon="-0.42598">
        <ele>29.5</ele>
        <time>2012-03-25T05:18:58Z</time>
      </trkpt>
      <trkpt lat="47.61513" lon="-0.42594">
        <ele>29.8</ele>
        <time>2012-03-25T05:19:00Z</time>
      </trkpt>
      <trkpt lat="47.61525" lon="-0.42588">
        <ele>30.1</ele>
        <time>2012-03-25T05:19:02Z</time>
      </trkpt>
      <trkpt lat="47.61537" lon="-0.42583">
        <ele>30.4</ele>
        <time>2012-03-25T05:19:04Z</time>
      </trkpt>
      <trkpt lat="47.61548" lon="-0.42578">
        <ele>30.6</ele>
        <time>2012-03-25T05:19:06Z</time>
      </trkpt>
      <trkpt lat="47.61559" lon="-0.42573">
        <ele>30.9</ele>
        <time>2012-03-25T05:19:08Z</time>
      </trkpt>
      <trkpt lat="47.61571" lon="-0.42567">
        <ele>31.2</ele>
        <time>2012-03-25T05:19:10Z</time>
      </trkpt>
      <trkpt lat="47.6158" lon="-0.42561">
        <ele>31.5</ele>
        <time>2012-03-25T05:19:12Z</time>
      </trkpt>
      <trkpt lat="47.61589" lon="-0.42555">
        <ele>31.5</ele>
        <time>2012-03-25T05:19:14Z</time>
      </trkpt>
      <trkpt lat="47.61598" lon="-0.42551">
        <ele>31.6</ele>
        <time>2012-03-25T05:19:16Z</time>
      </trkpt>
      <trkpt lat="47.61608" lon="-0.42545">
        <ele>31.5</ele>
        <time>2012-03-25T05:19:18Z</time>
      </trkpt>
      <trkpt lat="47.61618" lon="-0.42539">
        <ele>31.3</ele>
        <time>2012-03-25T05:19:20Z</time>
      </trkpt>
      <trkpt lat="47.61627" lon="-0.42534">
        <ele>31.1</ele>
        <time>2012-03-25T05:19:22Z</time>
      </trkpt>
      <trkpt lat="47.61637" lon="-0.42529">
        <ele>30.9</ele>
        <time>2012-03-25T05:19:24Z</time>
      </trkpt>
      <trkpt lat="47.61647" lon="-0.42523">
        <ele>30.7</ele>
        <time>2012-03-25T05:19:26Z</time>
      </trkpt>
      <trkpt lat="47.6166" lon="-0.42513">
        <ele>30.5</ele>
        <time>2012-03-25T05:19:28Z</time>
      </trkpt>
      <trkpt lat="47.61672" lon="-0.42504">
        <ele>30.1</ele>
        <time>2012-03-25T05:19:31Z</time>
      </trkpt>
      <trkpt lat="47.61681" lon="-0.42495">
        <ele>29.7</ele>
        <time>2012-03-25T05:19:33Z</time>
      </trkpt>
      <trkpt lat="47.61692" lon="-0.42486">
        <ele>29.4</ele>
        <time>2012-03-25T05:19:36Z</time>
      </trkpt>
      <trkpt lat="47.61699" lon="-0.42478">
        <ele>29.2</ele>
        <time>2012-03-25T05:19:38Z</time>
      </trkpt>
      <trkpt lat="47.61707" lon="-0.4247">
        <ele>29</ele>
        <time>2012-03-25T05:19:40Z</time>
      </trkpt>
      <trkpt lat="47.61717" lon="-0.4246">
        <ele>28.8</ele>
        <time>2012-03-25T05:19:42Z</time>
      </trkpt>
      <trkpt lat="47.61728" lon="-0.42446">
        <ele>28.6</ele>
        <time>2012-03-25T05:19:44Z</time>
      </trkpt>
      <trkpt lat="47.61737" lon="-0.42435">
        <ele>28.5</ele>
        <time>2012-03-25T05:19:47Z</time>
      </trkpt>
      <trkpt lat="47.61746" lon="-0.42426">
        <ele>28.3</ele>
        <time>2012-03-25T05:19:50Z</time>
      </trkpt>
      <trkpt lat="47.61754" lon="-0.42418">
        <ele>27.9</ele>
        <time>2012-03-25T05:19:52Z</time>
      </trkpt>
      <trkpt lat="47.61761" lon="-0.42409">
        <ele>27.5</ele>
        <time>2012-03-25T05:19:54Z</time>
      </trkpt>
      <trkpt lat="47.61769" lon="-0.42399">
        <ele>27.3</ele>
        <time>2012-03-25T05:19:57Z</time>
      </trkpt>
      <trkpt lat="47.61777" lon="-0.42387">
        <ele>27</ele>
        <time>2012-03-25T05:20:01Z</time>
      </trkpt>
      <trkpt lat="47.61786" lon="-0.42377">
        <ele>26.7</ele>
        <time>2012-03-25T05:20:04Z</time>
      </trkpt>
      <trkpt lat="47.61795" lon="-0.42371">
        <ele>26.5</ele>
        <time>2012-03-25T05:20:07Z</time>
      </trkpt>
      <trkpt lat="47.61805" lon="-0.42364">
        <ele>26.2</ele>
        <time>2012-03-25T05:20:10Z</time>
      </trkpt>
      <trkpt lat="47.61813" lon="-0.42354">
        <ele>25.9</ele>
        <time>2012-03-25T05:20:13Z</time>
      </trkpt>
      <trkpt lat="47.61823" lon="-0.42343">
        <ele>25.6</ele>
        <time>2012-03-25T05:20:16Z</time>
      </trkpt>
      <trkpt lat="47.61832" lon="-0.42332">
        <ele>25.3</ele>
        <time>2012-03-25T05:20:19Z</time>
      </trkpt>
      <trkpt lat="47.6184" lon="-0.42321">
        <ele>25.1</ele>
        <time>2012-03-25T05:20:22Z</time>
      </trkpt>
      <trkpt lat="47.61848" lon="-0.42309">
        <ele>25.1</ele>
        <time>2012-03-25T05:20:25Z</time>
      </trkpt>
      <trkpt lat="47.61854" lon="-0.42299">
        <ele>25.2</ele>
        <time>2012-03-25T05:20:28Z</time>
      </trkpt>
      <trkpt lat="47.61864" lon="-0.4229">
        <ele>25.3</ele>
        <time>2012-03-25T05:20:31Z</time>
      </trkpt>
      <trkpt lat="47.61874" lon="-0.42279">
        <ele>25.4</ele>
        <time>2012-03-25T05:20:34Z</time>
      </trkpt>
      <trkpt lat="47.61883" lon="-0.42268">
        <ele>25.5</ele>
        <time>2012-03-25T05:20:37Z</time>
      </trkpt>
      <trkpt lat="47.61892" lon="-0.42257">
        <ele>25.5</ele>
        <time>2012-03-25T05:20:40Z</time>
      </trkpt>
      <trkpt lat="47.619" lon="-0.4225">
        <ele>25.6</ele>
        <time>2012-03-25T05:20:42Z</time>
      </trkpt>
      <trkpt lat="47.61909" lon="-0.42241">
        <ele>25.8</ele>
        <time>2012-03-25T05:20:45Z</time>
      </trkpt>
      <trkpt lat="47.61917" lon="-0.42231">
        <ele>26</ele>
        <time>2012-03-25T05:20:48Z</time>
      </trkpt>
      <trkpt lat="47.61926" lon="-0.42223">
        <ele>26.3</ele>
        <time>2012-03-25T05:20:50Z</time>
      </trkpt>
      <trkpt lat="47.61935" lon="-0.42217">
        <ele>26.4</ele>
        <time>2012-03-25T05:20:52Z</time>
      </trkpt>
      <trkpt lat="47.61945" lon="-0.4221">
        <ele>26.5</ele>
        <time>2012-03-25T05:20:55Z</time>
      </trkpt>
      <trkpt lat="47.61954" lon="-0.42203">
        <ele>26.5</ele>
        <time>2012-03-25T05:20:58Z</time>
      </trkpt>
      <trkpt lat="47.61965" lon="-0.42196">
        <ele>26.6</ele>
        <time>2012-03-25T05:21:01Z</time>
      </trkpt>
      <trkpt lat="47.61973" lon="-0.4219">
        <ele>26.7</ele>
        <time>2012-03-25T05:21:04Z</time>
      </trkpt>
      <trkpt lat="47.61984" lon="-0.42186">
        <ele>26.8</ele>
        <time>2012-03-25T05:21:07Z</time>
      </trkpt>
      <trkpt lat="47.61995" lon="-0.4218">
        <ele>26.9</ele>
        <time>2012-03-25T05:21:10Z</time>
      </trkpt>
      <trkpt lat="47.62004" lon="-0.42174">
        <ele>27.2</ele>
        <time>2012-03-25T05:21:13Z</time>
      </trkpt>
      <trkpt lat="47.62013" lon="-0.42168">
        <ele>27.4</ele>
        <time>2012-03-25T05:21:16Z</time>
      </trkpt>
      <trkpt lat="47.62023" lon="-0.4216">
        <ele>27.6</ele>
        <time>2012-03-25T05:21:19Z</time>
      </trkpt>
      <trkpt lat="47.62034" lon="-0.4215">
        <ele>27.9</ele>
        <time>2012-03-25T05:21:22Z</time>
      </trkpt>
      <trkpt lat="47.62043" lon="-0.42143">
        <ele>28.2</ele>
        <time>2012-03-25T05:21:25Z</time>
      </trkpt>
      <trkpt lat="47.62054" lon="-0.42134">
        <ele>28.5</ele>
        <time>2012-03-25T05:21:28Z</time>
      </trkpt>
      <trkpt lat="47.62064" lon="-0.42126">
        <ele>28.7</ele>
        <time>2012-03-25T05:21:31Z</time>
      </trkpt>
      <trkpt lat="47.62075" lon="-0.42119">
        <ele>29</ele>
        <time>2012-03-25T05:21:34Z</time>
      </trkpt>
      <trkpt lat="47.62082" lon="-0.42112">
        <ele>29.2</ele>
        <time>2012-03-25T05:21:37Z</time>
      </trkpt>
      <trkpt lat="47.62094" lon="-0.42103">
        <ele>29.4</ele>
        <time>2012-03-25T05:21:40Z</time>
      </trkpt>
      <trkpt lat="47.62103" lon="-0.42096">
        <ele>29.5</ele>
        <time>2012-03-25T05:21:42Z</time>
      </trkpt>
      <trkpt lat="47.62111" lon="-0.4209">
        <ele>29.5</ele>
        <time>2012-03-25T05:21:44Z</time>
      </trkpt>
      <trkpt lat="47.62121" lon="-0.42082">
        <ele>29.6</ele>
        <time>2012-03-25T05:21:47Z</time>
      </trkpt>
      <trkpt lat="47.6213" lon="-0.42072">
        <ele>29.6</ele>
        <time>2012-03-25T05:21:50Z</time>
      </trkpt>
      <trkpt lat="47.62139" lon="-0.42065">
        <ele>29.6</ele>
        <time>2012-03-25T05:21:53Z</time>
      </trkpt>
      <trkpt lat="47.62147" lon="-0.42054">
        <ele>29.6</ele>
        <time>2012-03-25T05:21:56Z</time>
      </trkpt>
      <trkpt lat="47.62156" lon="-0.42043">
        <ele>29.6</ele>
        <time>2012-03-25T05:21:59Z</time>
      </trkpt>
      <trkpt lat="47.62163" lon="-0.42034">
        <ele>29.6</ele>
        <time>2012-03-25T05:22:02Z</time>
      </trkpt>
      <trkpt lat="47.62171" lon="-0.42023">
        <ele>29.6</ele>
        <time>2012-03-25T05:22:05Z</time>
      </trkpt>
      <trkpt lat="47.62179" lon="-0.42011">
        <ele>30.5</ele>
        <time>2012-03-25T05:22:08Z</time>
      </trkpt>
      <trkpt lat="47.62186" lon="-0.42001">
        <ele>31.5</ele>
        <time>2012-03-25T05:22:11Z</time>
      </trkpt>
      <trkpt lat="47.62195" lon="-0.4199">
        <ele>32.5</ele>
        <time>2012-03-25T05:22:14Z</time>
      </trkpt>
      <trkpt lat="47.62202" lon="-0.41978">
        <ele>33.5</ele>
        <time>2012-03-25T05:22:17Z</time>
      </trkpt>
      <trkpt lat="47.62209" lon="-0.41967">
        <ele>34.4</ele>
        <time>2012-03-25T05:22:20Z</time>
      </trkpt>
      <trkpt lat="47.62217" lon="-0.41958">
        <ele>35.3</ele>
        <time>2012-03-25T05:22:24Z</time>
      </trkpt>
      <trkpt lat="47.62224" lon="-0.41949">
        <ele>36.2</ele>
        <time>2012-03-25T05:22:28Z</time>
      </trkpt>
      <trkpt lat="47.62233" lon="-0.41941">
        <ele>37.1</ele>
        <time>2012-03-25T05:22:31Z</time>
      </trkpt>
      <trkpt lat="47.62243" lon="-0.41933">
        <ele>38</ele>
        <time>2012-03-25T05:22:35Z</time>
      </trkpt>
      <trkpt lat="47.62253" lon="-0.41925">
        <ele>39.1</ele>
        <time>2012-03-25T05:22:39Z</time>
      </trkpt>
      <trkpt lat="47.62262" lon="-0.41914">
        <ele>40.2</ele>
        <time>2012-03-25T05:22:43Z</time>
      </trkpt>
      <trkpt lat="47.62269" lon="-0.41905">
        <ele>40.5</ele>
        <time>2012-03-25T05:22:48Z</time>
      </trkpt>
      <trkpt lat="47.62278" lon="-0.41896">
        <ele>40.7</ele>
        <time>2012-03-25T05:22:53Z</time>
      </trkpt>
      <trkpt lat="47.62289" lon="-0.41886">
        <ele>40.8</ele>
        <time>2012-03-25T05:22:56Z</time>
      </trkpt>
      <trkpt lat="47.62297" lon="-0.4188">
        <ele>40.9</ele>
        <time>2012-03-25T05:23:00Z</time>
      </trkpt>
      <trkpt lat="47.62306" lon="-0.41877">
        <ele>41</ele>
        <time>2012-03-25T05:23:03Z</time>
      </trkpt>
      <trkpt lat="47.62316" lon="-0.41871">
        <ele>41.1</ele>
        <time>2012-03-25T05:23:07Z</time>
      </trkpt>
      <trkpt lat="47.62328" lon="-0.41866">
        <ele>41.2</ele>
        <time>2012-03-25T05:23:11Z</time>
      </trkpt>
      <trkpt lat="47.62337" lon="-0.4186">
        <ele>41.5</ele>
        <time>2012-03-25T05:23:15Z</time>
      </trkpt>
      <trkpt lat="47.62345" lon="-0.41854">
        <ele>41.7</ele>
        <time>2012-03-25T05:23:19Z</time>
      </trkpt>
      <trkpt lat="47.62354" lon="-0.41849">
        <ele>41.8</ele>
        <time>2012-03-25T05:23:24Z</time>
      </trkpt>
      <trkpt lat="47.62364" lon="-0.4184">
        <ele>41.9</ele>
        <time>2012-03-25T05:23:29Z</time>
      </trkpt>
      <trkpt lat="47.62373" lon="-0.41833">
        <ele>42</ele>
        <time>2012-03-25T05:23:33Z</time>
      </trkpt>
      <trkpt lat="47.62383" lon="-0.41824">
        <ele>42.1</ele>
        <time>2012-03-25T05:23:37Z</time>
      </trkpt>
      <trkpt lat="47.62394" lon="-0.41818">
        <ele>42.3</ele>
        <time>2012-03-25T05:23:42Z</time>
      </trkpt>
      <trkpt lat="47.62403" lon="-0.4181">
        <ele>42.5</ele>
        <time>2012-03-25T05:23:47Z</time>
      </trkpt>
      <trkpt lat="47.62413" lon="-0.41804">
        <ele>43.1</ele>
        <time>2012-03-25T05:23:52Z</time>
      </trkpt>
      <trkpt lat="47.62423" lon="-0.41806">
        <ele>43.7</ele>
        <time>2012-03-25T05:23:56Z</time>
      </trkpt>
      <trkpt lat="47.62432" lon="-0.4181">
        <ele>44.4</ele>
        <time>2012-03-25T05:24:00Z</time>
      </trkpt>
      <trkpt lat="47.62442" lon="-0.41814">
        <ele>44.5</ele>
        <time>2012-03-25T05:24:04Z</time>
      </trkpt>
      <trkpt lat="47.62453" lon="-0.41817">
        <ele>44.7</ele>
        <time>2012-03-25T05:24:08Z</time>
      </trkpt>
      <trkpt lat="47.62461" lon="-0.41823">
        <ele>44.9</ele>
        <time>2012-03-25T05:24:13Z</time>
      </trkpt>
      <trkpt lat="47.62467" lon="-0.41835">
        <ele>45.1</ele>
        <time>2012-03-25T05:24:17Z</time>
      </trkpt>
      <trkpt lat="47.6247" lon="-0.41849">
        <ele>45.3</ele>
        <time>2012-03-25T05:24:20Z</time>
      </trkpt>
      <trkpt lat="47.62474" lon="-0.41865">
        <ele>45.5</ele>
        <time>2012-03-25T05:24:24Z</time>
      </trkpt>
      <trkpt lat="47.62477" lon="-0.4188">
        <ele>45.6</ele>
        <time>2012-03-25T05:24:27Z</time>
      </trkpt>
      <trkpt lat="47.62481" lon="-0.41894">
        <ele>45.8</ele>
        <time>2012-03-25T05:24:30Z</time>
      </trkpt>
      <trkpt lat="47.62485" lon="-0.4191">
        <ele>45.5</ele>
        <time>2012-03-25T05:24:33Z</time>
      </trkpt>
      <trkpt lat="47.6249" lon="-0.41926">
        <ele>45.3</ele>
        <time>2012-03-25T05:24:36Z</time>
      </trkpt>
      <trkpt lat="47.62495" lon="-0.41943">
        <ele>45</ele>
        <time>2012-03-25T05:24:39Z</time>
      </trkpt>
      <trkpt lat="47.625" lon="-0.4196">
        <ele>45</ele>
        <time>2012-03-25T05:24:42Z</time>
      </trkpt>
      <trkpt lat="47.62507" lon="-0.41976">
        <ele>45.2</ele>
        <time>2012-03-25T05:24:45Z</time>
      </trkpt>
      <trkpt lat="47.62514" lon="-0.41992">
        <ele>45.4</ele>
        <time>2012-03-25T05:24:48Z</time>
      </trkpt>
      <trkpt lat="47.6252" lon="-0.42008">
        <ele>45.5</ele>
        <time>2012-03-25T05:24:51Z</time>
      </trkpt>
      <trkpt lat="47.62527" lon="-0.42024">
        <ele>45.5</ele>
        <time>2012-03-25T05:24:54Z</time>
      </trkpt>
      <trkpt lat="47.62532" lon="-0.42039">
        <ele>45.6</ele>
        <time>2012-03-25T05:24:57Z</time>
      </trkpt>
      <trkpt lat="47.62537" lon="-0.4205">
        <ele>45.7</ele>
        <time>2012-03-25T05:25:00Z</time>
      </trkpt>
      <trkpt lat="47.62544" lon="-0.42062">
        <ele>45.7</ele>
        <time>2012-03-25T05:25:03Z</time>
      </trkpt>
      <trkpt lat="47.62551" lon="-0.42076">
        <ele>45.7</ele>
        <time>2012-03-25T05:25:06Z</time>
      </trkpt>
      <trkpt lat="47.62557" lon="-0.42088">
        <ele>45.7</ele>
        <time>2012-03-25T05:25:09Z</time>
      </trkpt>
      <trkpt lat="47.62564" lon="-0.42104">
        <ele>45.7</ele>
        <time>2012-03-25T05:25:12Z</time>
      </trkpt>
      <trkpt lat="47.6257" lon="-0.42119">
        <ele>45.7</ele>
        <time>2012-03-25T05:25:15Z</time>
      </trkpt>
      <trkpt lat="47.62576" lon="-0.42132">
        <ele>45.5</ele>
        <time>2012-03-25T05:25:18Z</time>
      </trkpt>
      <trkpt lat="47.62583" lon="-0.42146">
        <ele>45.3</ele>
        <time>2012-03-25T05:25:21Z</time>
      </trkpt>
      <trkpt lat="47.6259" lon="-0.4216">
        <ele>45.1</ele>
        <time>2012-03-25T05:25:24Z</time>
      </trkpt>
      <trkpt lat="47.62598" lon="-0.42175">
        <ele>45.2</ele>
        <time>2012-03-25T05:25:27Z</time>
      </trkpt>
      <trkpt lat="47.62603" lon="-0.42187">
        <ele>45.3</ele>
        <time>2012-03-25T05:25:29Z</time>
      </trkpt>
      <trkpt lat="47.62611" lon="-0.42203">
        <ele>45.4</ele>
        <time>2012-03-25T05:25:32Z</time>
      </trkpt>
      <trkpt lat="47.62619" lon="-0.42216">
        <ele>45.5</ele>
        <time>2012-03-25T05:25:35Z</time>
      </trkpt>
      <trkpt lat="47.62626" lon="-0.42227">
        <ele>45.5</ele>
        <time>2012-03-25T05:25:38Z</time>
      </trkpt>
      <trkpt lat="47.62632" lon="-0.42237">
        <ele>45.5</ele>
        <time>2012-03-25T05:25:41Z</time>
      </trkpt>
      <trkpt lat="47.62639" lon="-0.42251">
        <ele>45.5</ele>
        <time>2012-03-25T05:25:44Z</time>
      </trkpt>
      <trkpt lat="47.62647" lon="-0.42265">
        <ele>45.5</ele>
        <time>2012-03-25T05:25:47Z</time>
      </trkpt>
      <trkpt lat="47.62655" lon="-0.42278">
        <ele>45.5</ele>
        <time>2012-03-25T05:25:51Z</time>
      </trkpt>
      <trkpt lat="47.62662" lon="-0.4229">
        <ele>45.6</ele>
        <time>2012-03-25T05:25:54Z</time>
      </trkpt>
      <trkpt lat="47.6267" lon="-0.42303">
        <ele>46.8</ele>
        <time>2012-03-25T05:25:57Z</time>
      </trkpt>
      <trkpt lat="47.62678" lon="-0.42314">
        <ele>47.7</ele>
        <time>2012-03-25T05:26:01Z</time>
      </trkpt>
      <trkpt lat="47.62686" lon="-0.42327">
        <ele>48.2</ele>
        <time>2012-03-25T05:26:04Z</time>
      </trkpt>
      <trkpt lat="47.62695" lon="-0.42339">
        <ele>48.6</ele>
        <time>2012-03-25T05:26:07Z</time>
      </trkpt>
      <trkpt lat="47.62705" lon="-0.42348">
        <ele>49.1</ele>
        <time>2012-03-25T05:26:10Z</time>
      </trkpt>
      <trkpt lat="47.62714" lon="-0.42354">
        <ele>49.7</ele>
        <time>2012-03-25T05:26:13Z</time>
      </trkpt>
      <trkpt lat="47.62723" lon="-0.42367">
        <ele>50.4</ele>
        <time>2012-03-25T05:26:16Z</time>
      </trkpt>
      <trkpt lat="47.62729" lon="-0.42378">
        <ele>51</ele>
        <time>2012-03-25T05:26:18Z</time>
      </trkpt>
      <trkpt lat="47.62738" lon="-0.4239">
        <ele>51.6</ele>
        <time>2012-03-25T05:26:21Z</time>
      </trkpt>
      <trkpt lat="47.62748" lon="-0.424">
        <ele>51.9</ele>
        <time>2012-03-25T05:26:25Z</time>
      </trkpt>
      <trkpt lat="47.62757" lon="-0.4241">
        <ele>52.8</ele>
        <time>2012-03-25T05:26:28Z</time>
      </trkpt>
      <trkpt lat="47.62765" lon="-0.42421">
        <ele>52.6</ele>
        <time>2012-03-25T05:26:31Z</time>
      </trkpt>
      <trkpt lat="47.62773" lon="-0.42432">
        <ele>52.5</ele>
        <time>2012-03-25T05:26:35Z</time>
      </trkpt>
      <trkpt lat="47.6278" lon="-0.42441">
        <ele>52.7</ele>
        <time>2012-03-25T05:26:38Z</time>
      </trkpt>
      <trkpt lat="47.62787" lon="-0.42453">
        <ele>53</ele>
        <time>2012-03-25T05:26:42Z</time>
      </trkpt>
      <trkpt lat="47.62794" lon="-0.42464">
        <ele>53.3</ele>
        <time>2012-03-25T05:26:46Z</time>
      </trkpt>
      <trkpt lat="47.62802" lon="-0.42475">
        <ele>53.5</ele>
        <time>2012-03-25T05:26:50Z</time>
      </trkpt>
      <trkpt lat="47.6281" lon="-0.42486">
        <ele>53.2</ele>
        <time>2012-03-25T05:26:53Z</time>
      </trkpt>
      <trkpt lat="47.6282" lon="-0.42494">
        <ele>52.8</ele>
        <time>2012-03-25T05:26:56Z</time>
      </trkpt>
      <trkpt lat="47.62828" lon="-0.42503">
        <ele>52.5</ele>
        <time>2012-03-25T05:26:58Z</time>
      </trkpt>
      <trkpt lat="47.62839" lon="-0.42516">
        <ele>52.7</ele>
        <time>2012-03-25T05:27:00Z</time>
      </trkpt>
      <trkpt lat="47.6285" lon="-0.42531">
        <ele>52.4</ele>
        <time>2012-03-25T05:27:02Z</time>
      </trkpt>
      <trkpt lat="47.62856" lon="-0.42544">
        <ele>52</ele>
        <time>2012-03-25T05:27:04Z</time>
      </trkpt>
      <trkpt lat="47.62862" lon="-0.42561">
        <ele>51.6</ele>
        <time>2012-03-25T05:27:06Z</time>
      </trkpt>
      <trkpt lat="47.6287" lon="-0.42578">
        <ele>51.3</ele>
        <time>2012-03-25T05:27:09Z</time>
      </trkpt>
      <trkpt lat="47.6288" lon="-0.42585">
        <ele>50.9</ele>
        <time>2012-03-25T05:27:10Z</time>
      </trkpt>
      <trkpt lat="47.62891" lon="-0.4259">
        <ele>50.5</ele>
        <time>2012-03-25T05:27:12Z</time>
      </trkpt>
      <trkpt lat="47.62901" lon="-0.42593">
        <ele>49.7</ele>
        <time>2012-03-25T05:27:14Z</time>
      </trkpt>
      <trkpt lat="47.62911" lon="-0.42595">
        <ele>49.5</ele>
        <time>2012-03-25T05:27:16Z</time>
      </trkpt>
      <trkpt lat="47.6292" lon="-0.42598">
        <ele>49.5</ele>
        <time>2012-03-25T05:27:18Z</time>
      </trkpt>
      <trkpt lat="47.62928" lon="-0.42601">
        <ele>49.5</ele>
        <time>2012-03-25T05:27:20Z</time>
      </trkpt>
      <trkpt lat="47.62939" lon="-0.42607">
        <ele>49.3</ele>
        <time>2012-03-25T05:27:23Z</time>
      </trkpt>
      <trkpt lat="47.62944" lon="-0.4262">
        <ele>49</ele>
        <time>2012-03-25T05:27:26Z</time>
      </trkpt>
      <trkpt lat="47.6295" lon="-0.42636">
        <ele>48.7</ele>
        <time>2012-03-25T05:27:29Z</time>
      </trkpt>
      <trkpt lat="47.62959" lon="-0.42654">
        <ele>48.1</ele>
        <time>2012-03-25T05:27:32Z</time>
      </trkpt>
      <trkpt lat="47.62965" lon="-0.42664">
        <ele>47.5</ele>
        <time>2012-03-25T05:27:34Z</time>
      </trkpt>
      <trkpt lat="47.62972" lon="-0.42676">
        <ele>46.8</ele>
        <time>2012-03-25T05:27:36Z</time>
      </trkpt>
      <trkpt lat="47.62979" lon="-0.42687">
        <ele>46.2</ele>
        <time>2012-03-25T05:27:38Z</time>
      </trkpt>
      <trkpt lat="47.62986" lon="-0.42697">
        <ele>46</ele>
        <time>2012-03-25T05:27:40Z</time>
      </trkpt>
      <trkpt lat="47.62992" lon="-0.42707">
        <ele>45.7</ele>
        <time>2012-03-25T05:27:42Z</time>
      </trkpt>
      <trkpt lat="47.62999" lon="-0.42721">
        <ele>45.3</ele>
        <time>2012-03-25T05:27:45Z</time>
      </trkpt>
      <trkpt lat="47.63004" lon="-0.42737">
        <ele>44.8</ele>
        <time>2012-03-25T05:27:48Z</time>
      </trkpt>
      <trkpt lat="47.6301" lon="-0.42755">
        <ele>44.4</ele>
        <time>2012-03-25T05:27:51Z</time>
      </trkpt>
      <trkpt lat="47.63015" lon="-0.42768">
        <ele>43.9</ele>
        <time>2012-03-25T05:27:53Z</time>
      </trkpt>
      <trkpt lat="47.6302" lon="-0.42781">
        <ele>43.5</ele>
        <time>2012-03-25T05:27:55Z</time>
      </trkpt>
      <trkpt lat="47.63025" lon="-0.42795">
        <ele>43.5</ele>
        <time>2012-03-25T05:27:57Z</time>
      </trkpt>
      <trkpt lat="47.6303" lon="-0.42808">
        <ele>43.6</ele>
        <time>2012-03-25T05:27:59Z</time>
      </trkpt>
      <trkpt lat="47.63036" lon="-0.42822">
        <ele>43.7</ele>
        <time>2012-03-25T05:28:01Z</time>
      </trkpt>
      <trkpt lat="47.63042" lon="-0.42835">
        <ele>43.8</ele>
        <time>2012-03-25T05:28:03Z</time>
      </trkpt>
      <trkpt lat="47.63046" lon="-0.42849">
        <ele>43.9</ele>
        <time>2012-03-25T05:28:05Z</time>
      </trkpt>
      <trkpt lat="47.63051" lon="-0.42863">
        <ele>44.1</ele>
        <time>2012-03-25T05:28:07Z</time>
      </trkpt>
      <trkpt lat="47.63055" lon="-0.42878">
        <ele>44.3</ele>
        <time>2012-03-25T05:28:09Z</time>
      </trkpt>
      <trkpt lat="47.63058" lon="-0.42893">
        <ele>44.4</ele>
        <time>2012-03-25T05:28:11Z</time>
      </trkpt>
      <trkpt lat="47.63061" lon="-0.42908">
        <ele>44.5</ele>
        <time>2012-03-25T05:28:13Z</time>
      </trkpt>
      <trkpt lat="47.63064" lon="-0.42923">
        <ele>44.5</ele>
        <time>2012-03-25T05:28:15Z</time>
      </trkpt>
      <trkpt lat="47.63067" lon="-0.42938">
        <ele>44.5</ele>
        <time>2012-03-25T05:28:17Z</time>
      </trkpt>
      <trkpt lat="47.63068" lon="-0.42954">
        <ele>44.3</ele>
        <time>2012-03-25T05:28:19Z</time>
      </trkpt>
      <trkpt lat="47.63063" lon="-0.42968">
        <ele>44.1</ele>
        <time>2012-03-25T05:28:21Z</time>
      </trkpt>
      <trkpt lat="47.63054" lon="-0.42975">
        <ele>43.9</ele>
        <time>2012-03-25T05:28:23Z</time>
      </trkpt>
      <trkpt lat="47.63042" lon="-0.42978">
        <ele>43.7</ele>
        <time>2012-03-25T05:28:25Z</time>
      </trkpt>
      <trkpt lat="47.6303" lon="-0.42978">
        <ele>43.5</ele>
        <time>2012-03-25T05:28:27Z</time>
      </trkpt>
      <trkpt lat="47.63018" lon="-0.4298">
        <ele>43.3</ele>
        <time>2012-03-25T05:28:29Z</time>
      </trkpt>
      <trkpt lat="47.63005" lon="-0.42982">
        <ele>43</ele>
        <time>2012-03-25T05:28:31Z</time>
      </trkpt>
      <trkpt lat="47.62992" lon="-0.42985">
        <ele>42.8</ele>
        <time>2012-03-25T05:28:33Z</time>
      </trkpt>
      <trkpt lat="47.62979" lon="-0.42988">
        <ele>42.6</ele>
        <time>2012-03-25T05:28:35Z</time>
      </trkpt>
      <trkpt lat="47.62966" lon="-0.42991">
        <ele>42.5</ele>
        <time>2012-03-25T05:28:37Z</time>
      </trkpt>
      <trkpt lat="47.62953" lon="-0.42994">
        <ele>42.5</ele>
        <time>2012-03-25T05:28:39Z</time>
      </trkpt>
      <trkpt lat="47.6294" lon="-0.42997">
        <ele>42.2</ele>
        <time>2012-03-25T05:28:41Z</time>
      </trkpt>
      <trkpt lat="47.62927" lon="-0.42999">
        <ele>41.9</ele>
        <time>2012-03-25T05:28:43Z</time>
      </trkpt>
      <trkpt lat="47.62914" lon="-0.43003">
        <ele>41.6</ele>
        <time>2012-03-25T05:28:45Z</time>
      </trkpt>
      <trkpt lat="47.62902" lon="-0.43006">
        <ele>41.4</ele>
        <time>2012-03-25T05:28:47Z</time>
      </trkpt>
      <trkpt lat="47.62887" lon="-0.43011">
        <ele>41.1</ele>
        <time>2012-03-25T05:28:49Z</time>
      </trkpt>
      <trkpt lat="47.62873" lon="-0.43014">
        <ele>40.9</ele>
        <time>2012-03-25T05:28:51Z</time>
      </trkpt>
      <trkpt lat="47.62859" lon="-0.43017">
        <ele>40.5</ele>
        <time>2012-03-25T05:28:53Z</time>
      </trkpt>
      <trkpt lat="47.62846" lon="-0.43021">
        <ele>40</ele>
        <time>2012-03-25T05:28:55Z</time>
      </trkpt>
      <trkpt lat="47.62832" lon="-0.43023">
        <ele>39.9</ele>
        <time>2012-03-25T05:28:57Z</time>
      </trkpt>
      <trkpt lat="47.62817" lon="-0.43027">
        <ele>39.8</ele>
        <time>2012-03-25T05:28:59Z</time>
      </trkpt>
      <trkpt lat="47.62802" lon="-0.4303">
        <ele>39.7</ele>
        <time>2012-03-25T05:29:01Z</time>
      </trkpt>
      <trkpt lat="47.62786" lon="-0.43033">
        <ele>39.5</ele>
        <time>2012-03-25T05:29:03Z</time>
      </trkpt>
      <trkpt lat="47.6277" lon="-0.43038">
        <ele>39.2</ele>
        <time>2012-03-25T05:29:05Z</time>
      </trkpt>
      <trkpt lat="47.62753" lon="-0.43042">
        <ele>38.9</ele>
        <time>2012-03-25T05:29:07Z</time>
      </trkpt>
      <trkpt lat="47.62743" lon="-0.43043">
        <ele>38.6</ele>
        <time>2012-03-25T05:29:08Z</time>
      </trkpt>
      <trkpt lat="47.62727" lon="-0.43046">
        <ele>38.4</ele>
        <time>2012-03-25T05:29:10Z</time>
      </trkpt>
      <trkpt lat="47.62708" lon="-0.4305">
        <ele>38.1</ele>
        <time>2012-03-25T05:29:12Z</time>
      </trkpt>
      <trkpt lat="47.62691" lon="-0.43055">
        <ele>37.6</ele>
        <time>2012-03-25T05:29:14Z</time>
      </trkpt>
      <trkpt lat="47.62673" lon="-0.43062">
        <ele>37.2</ele>
        <time>2012-03-25T05:29:16Z</time>
      </trkpt>
      <trkpt lat="47.62657" lon="-0.4307">
        <ele>36.4</ele>
        <time>2012-03-25T05:29:18Z</time>
      </trkpt>
      <trkpt lat="47.62648" lon="-0.43076">
        <ele>35.5</ele>
        <time>2012-03-25T05:29:19Z</time>
      </trkpt>
      <trkpt lat="47.62633" lon="-0.43087">
        <ele>34.7</ele>
        <time>2012-03-25T05:29:21Z</time>
      </trkpt>
      <trkpt lat="47.62617" lon="-0.43097">
        <ele>34.5</ele>
        <time>2012-03-25T05:29:23Z</time>
      </trkpt>
      <trkpt lat="47.62608" lon="-0.43103">
        <ele>34</ele>
        <time>2012-03-25T05:29:24Z</time>
      </trkpt>
      <trkpt lat="47.626" lon="-0.43108">
        <ele>33.5</ele>
        <time>2012-03-25T05:29:25Z</time>
      </trkpt>
      <trkpt lat="47.62591" lon="-0.43113">
        <ele>32.9</ele>
        <time>2012-03-25T05:29:26Z</time>
      </trkpt>
      <trkpt lat="47.62576" lon="-0.4312">
        <ele>32.4</ele>
        <time>2012-03-25T05:29:28Z</time>
      </trkpt>
      <trkpt lat="47.62559" lon="-0.4313">
        <ele>31.8</ele>
        <time>2012-03-25T05:29:30Z</time>
      </trkpt>
      <trkpt lat="47.62544" lon="-0.4314">
        <ele>31.7</ele>
        <time>2012-03-25T05:29:32Z</time>
      </trkpt>
      <trkpt lat="47.62529" lon="-0.43151">
        <ele>31.4</ele>
        <time>2012-03-25T05:29:34Z</time>
      </trkpt>
      <trkpt lat="47.62514" lon="-0.43161">
        <ele>30.8</ele>
        <time>2012-03-25T05:29:36Z</time>
      </trkpt>
      <trkpt lat="47.62499" lon="-0.4317">
        <ele>30.3</ele>
        <time>2012-03-25T05:29:38Z</time>
      </trkpt>
      <trkpt lat="47.62484" lon="-0.4318">
        <ele>29.7</ele>
        <time>2012-03-25T05:29:40Z</time>
      </trkpt>
      <trkpt lat="47.62469" lon="-0.43189">
        <ele>28.9</ele>
        <time>2012-03-25T05:29:42Z</time>
      </trkpt>
      <trkpt lat="47.62453" lon="-0.43197">
        <ele>28.5</ele>
        <time>2012-03-25T05:29:44Z</time>
      </trkpt>
      <trkpt lat="47.62438" lon="-0.43207">
        <ele>27.8</ele>
        <time>2012-03-25T05:29:46Z</time>
      </trkpt>
      <trkpt lat="47.62425" lon="-0.43217">
        <ele>27.2</ele>
        <time>2012-03-25T05:29:48Z</time>
      </trkpt>
      <trkpt lat="47.6241" lon="-0.43227">
        <ele>26.5</ele>
        <time>2012-03-25T05:29:50Z</time>
      </trkpt>
      <trkpt lat="47.62395" lon="-0.4324">
        <ele>25.9</ele>
        <time>2012-03-25T05:29:52Z</time>
      </trkpt>
      <trkpt lat="47.62381" lon="-0.4325">
        <ele>25.3</ele>
        <time>2012-03-25T05:29:54Z</time>
      </trkpt>
      <trkpt lat="47.62364" lon="-0.43263">
        <ele>24.9</ele>
        <time>2012-03-25T05:29:56Z</time>
      </trkpt>
      <trkpt lat="47.62349" lon="-0.43274">
        <ele>24.7</ele>
        <time>2012-03-25T05:29:58Z</time>
      </trkpt>
      <trkpt lat="47.62336" lon="-0.43284">
        <ele>24.7</ele>
        <time>2012-03-25T05:30:00Z</time>
      </trkpt>
      <trkpt lat="47.62328" lon="-0.43291">
        <ele>24.7</ele>
        <time>2012-03-25T05:30:01Z</time>
      </trkpt>
      <trkpt lat="47.6232" lon="-0.43298">
        <ele>24.7</ele>
        <time>2012-03-25T05:30:02Z</time>
      </trkpt>
      <trkpt lat="47.62311" lon="-0.43305">
        <ele>24.7</ele>
        <time>2012-03-25T05:30:03Z</time>
      </trkpt>
      <trkpt lat="47.62303" lon="-0.43311">
        <ele>24.9</ele>
        <time>2012-03-25T05:30:04Z</time>
      </trkpt>
      <trkpt lat="47.62289" lon="-0.43323">
        <ele>25.1</ele>
        <time>2012-03-25T05:30:06Z</time>
      </trkpt>
      <trkpt lat="47.62274" lon="-0.43337">
        <ele>25.3</ele>
        <time>2012-03-25T05:30:08Z</time>
      </trkpt>
      <trkpt lat="47.62262" lon="-0.43356">
        <ele>25.5</ele>
        <time>2012-03-25T05:30:10Z</time>
      </trkpt>
      <trkpt lat="47.62253" lon="-0.43379">
        <ele>25.6</ele>
        <time>2012-03-25T05:30:12Z</time>
      </trkpt>
      <trkpt lat="47.62247" lon="-0.43401">
        <ele>25.8</ele>
        <time>2012-03-25T05:30:14Z</time>
      </trkpt>
      <trkpt lat="47.62241" lon="-0.43425">
        <ele>26</ele>
        <time>2012-03-25T05:30:16Z</time>
      </trkpt>
      <trkpt lat="47.62236" lon="-0.43448">
        <ele>25.8</ele>
        <time>2012-03-25T05:30:18Z</time>
      </trkpt>
      <trkpt lat="47.62231" lon="-0.43468">
        <ele>25.6</ele>
        <time>2012-03-25T05:30:20Z</time>
      </trkpt>
      <trkpt lat="47.62226" lon="-0.43491">
        <ele>25.5</ele>
        <time>2012-03-25T05:30:22Z</time>
      </trkpt>
      <trkpt lat="47.62221" lon="-0.4351">
        <ele>25.3</ele>
        <time>2012-03-25T05:30:24Z</time>
      </trkpt>
      <trkpt lat="47.62216" lon="-0.43528">
        <ele>25.1</ele>
        <time>2012-03-25T05:30:26Z</time>
      </trkpt>
      <trkpt lat="47.62206" lon="-0.43535">
        <ele>24.9</ele>
        <time>2012-03-25T05:30:28Z</time>
      </trkpt>
      <trkpt lat="47.62195" lon="-0.43536">
        <ele>24.7</ele>
        <time>2012-03-25T05:30:30Z</time>
      </trkpt>
      <trkpt lat="47.62182" lon="-0.43533">
        <ele>24.5</ele>
        <time>2012-03-25T05:30:32Z</time>
      </trkpt>
      <trkpt lat="47.62167" lon="-0.43528">
        <ele>24.4</ele>
        <time>2012-03-25T05:30:34Z</time>
      </trkpt>
      <trkpt lat="47.62154" lon="-0.43524">
        <ele>24.2</ele>
        <time>2012-03-25T05:30:36Z</time>
      </trkpt>
      <trkpt lat="47.62141" lon="-0.43521">
        <ele>24</ele>
        <time>2012-03-25T05:30:38Z</time>
      </trkpt>
      <trkpt lat="47.62129" lon="-0.43517">
        <ele>24</ele>
        <time>2012-03-25T05:30:40Z</time>
      </trkpt>
      <trkpt lat="47.62115" lon="-0.43514">
        <ele>24</ele>
        <time>2012-03-25T05:30:42Z</time>
      </trkpt>
      <trkpt lat="47.62104" lon="-0.43511">
        <ele>24.1</ele>
        <time>2012-03-25T05:30:44Z</time>
      </trkpt>
      <trkpt lat="47.62088" lon="-0.43507">
        <ele>24.2</ele>
        <time>2012-03-25T05:30:46Z</time>
      </trkpt>
      <trkpt lat="47.62077" lon="-0.43505">
        <ele>24.3</ele>
        <time>2012-03-25T05:30:48Z</time>
      </trkpt>
      <trkpt lat="47.62065" lon="-0.43502">
        <ele>24.4</ele>
        <time>2012-03-25T05:30:50Z</time>
      </trkpt>
      <trkpt lat="47.62053" lon="-0.43498">
        <ele>24.5</ele>
        <time>2012-03-25T05:30:52Z</time>
      </trkpt>
      <trkpt lat="47.62041" lon="-0.43494">
        <ele>24.5</ele>
        <time>2012-03-25T05:30:54Z</time>
      </trkpt>
      <trkpt lat="47.62029" lon="-0.43492">
        <ele>24.6</ele>
        <time>2012-03-25T05:30:56Z</time>
      </trkpt>
      <trkpt lat="47.62017" lon="-0.43488">
        <ele>24.7</ele>
        <time>2012-03-25T05:30:58Z</time>
      </trkpt>
      <trkpt lat="47.62005" lon="-0.43487">
        <ele>24.8</ele>
        <time>2012-03-25T05:31:00Z</time>
      </trkpt>
      <trkpt lat="47.62" lon="-0.43504">
        <ele>24.9</ele>
        <time>2012-03-25T05:31:03Z</time>
      </trkpt>
      <trkpt lat="47.61998" lon="-0.43518">
        <ele>25</ele>
        <time>2012-03-25T05:31:05Z</time>
      </trkpt>
      <trkpt lat="47.61995" lon="-0.43534">
        <ele>25</ele>
        <time>2012-03-25T05:31:07Z</time>
      </trkpt>
      <trkpt lat="47.61993" lon="-0.4355">
        <ele>24.9</ele>
        <time>2012-03-25T05:31:09Z</time>
      </trkpt>
      <trkpt lat="47.61991" lon="-0.43567">
        <ele>24.8</ele>
        <time>2012-03-25T05:31:11Z</time>
      </trkpt>
      <trkpt lat="47.6199" lon="-0.43581">
        <ele>24.7</ele>
        <time>2012-03-25T05:31:13Z</time>
      </trkpt>
      <trkpt lat="47.61988" lon="-0.43596">
        <ele>24.6</ele>
        <time>2012-03-25T05:31:15Z</time>
      </trkpt>
      <trkpt lat="47.61985" lon="-0.43611">
        <ele>24.5</ele>
        <time>2012-03-25T05:31:17Z</time>
      </trkpt>
      <trkpt lat="47.61983" lon="-0.43628">
        <ele>24.5</ele>
        <time>2012-03-25T05:31:19Z</time>
      </trkpt>
      <trkpt lat="47.61981" lon="-0.43642">
        <ele>24.4</ele>
        <time>2012-03-25T05:31:21Z</time>
      </trkpt>
      <trkpt lat="47.61979" lon="-0.43664">
        <ele>24.3</ele>
        <time>2012-03-25T05:31:24Z</time>
      </trkpt>
      <trkpt lat="47.61978" lon="-0.43681">
        <ele>24.2</ele>
        <time>2012-03-25T05:31:26Z</time>
      </trkpt>
      <trkpt lat="47.61977" lon="-0.43696">
        <ele>24.1</ele>
        <time>2012-03-25T05:31:28Z</time>
      </trkpt>
      <trkpt lat="47.61975" lon="-0.4371">
        <ele>24.1</ele>
        <time>2012-03-25T05:31:30Z</time>
      </trkpt>
      <trkpt lat="47.61972" lon="-0.43729">
        <ele>24.2</ele>
        <time>2012-03-25T05:31:33Z</time>
      </trkpt>
      <trkpt lat="47.61969" lon="-0.43743">
        <ele>24.3</ele>
        <time>2012-03-25T05:31:35Z</time>
      </trkpt>
      <trkpt lat="47.61967" lon="-0.43758">
        <ele>24.2</ele>
        <time>2012-03-25T05:31:37Z</time>
      </trkpt>
      <trkpt lat="47.61964" lon="-0.43778">
        <ele>24.2</ele>
        <time>2012-03-25T05:31:40Z</time>
      </trkpt>
      <trkpt lat="47.61963" lon="-0.43793">
        <ele>24.2</ele>
        <time>2012-03-25T05:31:42Z</time>
      </trkpt>
      <trkpt lat="47.61961" lon="-0.43813">
        <ele>24.2</ele>
        <time>2012-03-25T05:31:45Z</time>
      </trkpt>
      <trkpt lat="47.61959" lon="-0.43834">
        <ele>24.2</ele>
        <time>2012-03-25T05:31:48Z</time>
      </trkpt>
      <trkpt lat="47.61958" lon="-0.43847">
        <ele>24.2</ele>
        <time>2012-03-25T05:31:50Z</time>
      </trkpt>
      <trkpt lat="47.61956" lon="-0.43867">
        <ele>24.2</ele>
        <time>2012-03-25T05:31:53Z</time>
      </trkpt>
      <trkpt lat="47.61952" lon="-0.43885">
        <ele>24.2</ele>
        <time>2012-03-25T05:31:56Z</time>
      </trkpt>
      <trkpt lat="47.6195" lon="-0.43904">
        <ele>24.1</ele>
        <time>2012-03-25T05:31:59Z</time>
      </trkpt>
      <trkpt lat="47.61947" lon="-0.4392">
        <ele>24</ele>
        <time>2012-03-25T05:32:01Z</time>
      </trkpt>
      <trkpt lat="47.61945" lon="-0.43933">
        <ele>23.9</ele>
        <time>2012-03-25T05:32:03Z</time>
      </trkpt>
      <trkpt lat="47.61942" lon="-0.43955">
        <ele>24</ele>
        <time>2012-03-25T05:32:06Z</time>
      </trkpt>
      <trkpt lat="47.6194" lon="-0.43974">
        <ele>24</ele>
        <time>2012-03-25T05:32:10Z</time>
      </trkpt>
      <trkpt lat="47.61937" lon="-0.43997">
        <ele>24</ele>
        <time>2012-03-25T05:32:12Z</time>
      </trkpt>
      <trkpt lat="47.61935" lon="-0.44016">
        <ele>24</ele>
        <time>2012-03-25T05:32:15Z</time>
      </trkpt>
      <trkpt lat="47.61932" lon="-0.44032">
        <ele>24</ele>
        <time>2012-03-25T05:32:17Z</time>
      </trkpt>
      <trkpt lat="47.61931" lon="-0.4405">
        <ele>23.9</ele>
        <time>2012-03-25T05:32:20Z</time>
      </trkpt>
      <trkpt lat="47.6193" lon="-0.44067">
        <ele>23.8</ele>
        <time>2012-03-25T05:32:23Z</time>
      </trkpt>
      <trkpt lat="47.6193" lon="-0.44084">
        <ele>23.7</ele>
        <time>2012-03-25T05:32:26Z</time>
      </trkpt>
      <trkpt lat="47.61928" lon="-0.44099">
        <ele>23.6</ele>
        <time>2012-03-25T05:32:29Z</time>
      </trkpt>
      <trkpt lat="47.61926" lon="-0.44114">
        <ele>23.5</ele>
        <time>2012-03-25T05:32:32Z</time>
      </trkpt>
      <trkpt lat="47.61923" lon="-0.4413">
        <ele>23.5</ele>
        <time>2012-03-25T05:32:35Z</time>
      </trkpt>
      <trkpt lat="47.61921" lon="-0.44143">
        <ele>23.4</ele>
        <time>2012-03-25T05:32:37Z</time>
      </trkpt>
      <trkpt lat="47.61919" lon="-0.44159">
        <ele>23.3</ele>
        <time>2012-03-25T05:32:40Z</time>
      </trkpt>
      <trkpt lat="47.61916" lon="-0.44178">
        <ele>23.2</ele>
        <time>2012-03-25T05:32:43Z</time>
      </trkpt>
      <trkpt lat="47.61915" lon="-0.44193">
        <ele>23.1</ele>
        <time>2012-03-25T05:32:45Z</time>
      </trkpt>
      <trkpt lat="47.61912" lon="-0.44211">
        <ele>23</ele>
        <time>2012-03-25T05:32:48Z</time>
      </trkpt>
      <trkpt lat="47.61909" lon="-0.44232">
        <ele>23</ele>
        <time>2012-03-25T05:32:51Z</time>
      </trkpt>
      <trkpt lat="47.61907" lon="-0.4425">
        <ele>23</ele>
        <time>2012-03-25T05:32:54Z</time>
      </trkpt>
      <trkpt lat="47.61905" lon="-0.44264">
        <ele>23</ele>
        <time>2012-03-25T05:32:56Z</time>
      </trkpt>
      <trkpt lat="47.61903" lon="-0.44281">
        <ele>23</ele>
        <time>2012-03-25T05:32:59Z</time>
      </trkpt>
      <trkpt lat="47.61901" lon="-0.44295">
        <ele>23.1</ele>
        <time>2012-03-25T05:33:01Z</time>
      </trkpt>
      <trkpt lat="47.61899" lon="-0.44314">
        <ele>23.2</ele>
        <time>2012-03-25T05:33:04Z</time>
      </trkpt>
      <trkpt lat="47.61897" lon="-0.44328">
        <ele>23.3</ele>
        <time>2012-03-25T05:33:06Z</time>
      </trkpt>
      <trkpt lat="47.61895" lon="-0.44347">
        <ele>23.4</ele>
        <time>2012-03-25T05:33:09Z</time>
      </trkpt>
      <trkpt lat="47.61892" lon="-0.44363">
        <ele>23.5</ele>
        <time>2012-03-25T05:33:12Z</time>
      </trkpt>
      <trkpt lat="47.6189" lon="-0.44382">
        <ele>23.6</ele>
        <time>2012-03-25T05:33:15Z</time>
      </trkpt>
      <trkpt lat="47.61888" lon="-0.44395">
        <ele>23.8</ele>
        <time>2012-03-25T05:33:17Z</time>
      </trkpt>
      <trkpt lat="47.61886" lon="-0.44408">
        <ele>23.8</ele>
        <time>2012-03-25T05:33:19Z</time>
      </trkpt>
      <trkpt lat="47.61884" lon="-0.44425">
        <ele>23.8</ele>
        <time>2012-03-25T05:33:22Z</time>
      </trkpt>
      <trkpt lat="47.61882" lon="-0.4444">
        <ele>23.8</ele>
        <time>2012-03-25T05:33:24Z</time>
      </trkpt>
      <trkpt lat="47.6188" lon="-0.44454">
        <ele>23.9</ele>
        <time>2012-03-25T05:33:26Z</time>
      </trkpt>
      <trkpt lat="47.61879" lon="-0.44474">
        <ele>23.9</ele>
        <time>2012-03-25T05:33:29Z</time>
      </trkpt>
      <trkpt lat="47.61876" lon="-0.44491">
        <ele>23.9</ele>
        <time>2012-03-25T05:33:32Z</time>
      </trkpt>
      <trkpt lat="47.61873" lon="-0.44507">
        <ele>23.9</ele>
        <time>2012-03-25T05:33:34Z</time>
      </trkpt>
      <trkpt lat="47.61871" lon="-0.44524">
        <ele>23.9</ele>
        <time>2012-03-25T05:33:37Z</time>
      </trkpt>
      <trkpt lat="47.61869" lon="-0.44539">
        <ele>24.2</ele>
        <time>2012-03-25T05:33:39Z</time>
      </trkpt>
      <trkpt lat="47.61868" lon="-0.44553">
        <ele>24.4</ele>
        <time>2012-03-25T05:33:41Z</time>
      </trkpt>
      <trkpt lat="47.61867" lon="-0.44567">
        <ele>24.5</ele>
        <time>2012-03-25T05:33:43Z</time>
      </trkpt>
      <trkpt lat="47.61864" lon="-0.44587">
        <ele>24.9</ele>
        <time>2012-03-25T05:33:46Z</time>
      </trkpt>
      <trkpt lat="47.61862" lon="-0.44604">
        <ele>25.3</ele>
        <time>2012-03-25T05:33:49Z</time>
      </trkpt>
      <trkpt lat="47.61861" lon="-0.44619">
        <ele>25.6</ele>
        <time>2012-03-25T05:33:52Z</time>
      </trkpt>
      <trkpt lat="47.61862" lon="-0.44632">
        <ele>25.9</ele>
        <time>2012-03-25T05:33:55Z</time>
      </trkpt>
      <trkpt lat="47.61868" lon="-0.44642">
        <ele>26.2</ele>
        <time>2012-03-25T05:34:48Z</time>
      </trkpt>
      <trkpt lat="47.6188" lon="-0.44647">
        <ele>26.5</ele>
        <time>2012-03-25T05:34:52Z</time>
      </trkpt>
      <trkpt lat="47.61893" lon="-0.44649">
        <ele>26.7</ele>
        <time>2012-03-25T05:34:55Z</time>
      </trkpt>
      <trkpt lat="47.61902" lon="-0.44651">
        <ele>27</ele>
        <time>2012-03-25T05:34:57Z</time>
      </trkpt>
      <trkpt lat="47.61912" lon="-0.44652">
        <ele>26.9</ele>
        <time>2012-03-25T05:35:00Z</time>
      </trkpt>
      <trkpt lat="47.61922" lon="-0.44653">
        <ele>26.8</ele>
        <time>2012-03-25T05:35:02Z</time>
      </trkpt>
      <trkpt lat="47.61932" lon="-0.44655">
        <ele>26.7</ele>
        <time>2012-03-25T05:35:04Z</time>
      </trkpt>
      <trkpt lat="47.61944" lon="-0.44658">
        <ele>26.6</ele>
        <time>2012-03-25T05:35:07Z</time>
      </trkpt>
      <trkpt lat="47.61955" lon="-0.44661">
        <ele>26.5</ele>
        <time>2012-03-25T05:35:09Z</time>
      </trkpt>
      <trkpt lat="47.61966" lon="-0.44664">
        <ele>26.5</ele>
        <time>2012-03-25T05:35:11Z</time>
      </trkpt>
      <trkpt lat="47.61979" lon="-0.44668">
        <ele>26.4</ele>
        <time>2012-03-25T05:35:14Z</time>
      </trkpt>
      <trkpt lat="47.61991" lon="-0.44672">
        <ele>26.3</ele>
        <time>2012-03-25T05:35:16Z</time>
      </trkpt>
      <trkpt lat="47.62001" lon="-0.44674">
        <ele>26</ele>
        <time>2012-03-25T05:35:18Z</time>
      </trkpt>
      <trkpt lat="47.62011" lon="-0.44676">
        <ele>25.7</ele>
        <time>2012-03-25T05:35:20Z</time>
      </trkpt>
      <trkpt lat="47.62022" lon="-0.4468">
        <ele>25.5</ele>
        <time>2012-03-25T05:35:23Z</time>
      </trkpt>
      <trkpt lat="47.62032" lon="-0.44683">
        <ele>25.4</ele>
        <time>2012-03-25T05:35:25Z</time>
      </trkpt>
      <trkpt lat="47.62041" lon="-0.44687">
        <ele>25.3</ele>
        <time>2012-03-25T05:35:27Z</time>
      </trkpt>
      <trkpt lat="47.62054" lon="-0.44691">
        <ele>25.2</ele>
        <time>2012-03-25T05:35:30Z</time>
      </trkpt>
      <trkpt lat="47.62064" lon="-0.44694">
        <ele>25.1</ele>
        <time>2012-03-25T05:35:32Z</time>
      </trkpt>
      <trkpt lat="47.62073" lon="-0.44696">
        <ele>25</ele>
        <time>2012-03-25T05:35:34Z</time>
      </trkpt>
      <trkpt lat="47.62083" lon="-0.44698">
        <ele>24.8</ele>
        <time>2012-03-25T05:35:36Z</time>
      </trkpt>
      <trkpt lat="47.62093" lon="-0.447">
        <ele>24.6</ele>
        <time>2012-03-25T05:35:38Z</time>
      </trkpt>
      <trkpt lat="47.62103" lon="-0.44704">
        <ele>24.5</ele>
        <time>2012-03-25T05:35:41Z</time>
      </trkpt>
      <trkpt lat="47.62112" lon="-0.44707">
        <ele>24.5</ele>
        <time>2012-03-25T05:35:43Z</time>
      </trkpt>
      <trkpt lat="47.62122" lon="-0.44711">
        <ele>24.5</ele>
        <time>2012-03-25T05:35:45Z</time>
      </trkpt>
      <trkpt lat="47.62134" lon="-0.44715">
        <ele>24.5</ele>
        <time>2012-03-25T05:35:47Z</time>
      </trkpt>
      <trkpt lat="47.62144" lon="-0.44719">
        <ele>24.5</ele>
        <time>2012-03-25T05:35:49Z</time>
      </trkpt>
      <trkpt lat="47.62149" lon="-0.44733">
        <ele>24.5</ele>
        <time>2012-03-25T05:35:52Z</time>
      </trkpt>
      <trkpt lat="47.62148" lon="-0.4475">
        <ele>24.5</ele>
        <time>2012-03-25T05:35:55Z</time>
      </trkpt>
      <trkpt lat="47.62148" lon="-0.44763">
        <ele>24.5</ele>
        <time>2012-03-25T05:35:57Z</time>
      </trkpt>
      <trkpt lat="47.62147" lon="-0.4478">
        <ele>24.5</ele>
        <time>2012-03-25T05:35:59Z</time>
      </trkpt>
      <trkpt lat="47.62146" lon="-0.44794">
        <ele>24.6</ele>
        <time>2012-03-25T05:36:01Z</time>
      </trkpt>
      <trkpt lat="47.62144" lon="-0.44813">
        <ele>24.7</ele>
        <time>2012-03-25T05:36:04Z</time>
      </trkpt>
      <trkpt lat="47.62141" lon="-0.44828">
        <ele>24.8</ele>
        <time>2012-03-25T05:36:06Z</time>
      </trkpt>
      <trkpt lat="47.62137" lon="-0.44844">
        <ele>24.9</ele>
        <time>2012-03-25T05:36:08Z</time>
      </trkpt>
      <trkpt lat="47.62134" lon="-0.44859">
        <ele>25</ele>
        <time>2012-03-25T05:36:10Z</time>
      </trkpt>
      <trkpt lat="47.62131" lon="-0.44875">
        <ele>25</ele>
        <time>2012-03-25T05:36:12Z</time>
      </trkpt>
      <trkpt lat="47.62128" lon="-0.44891">
        <ele>24.9</ele>
        <time>2012-03-25T05:36:14Z</time>
      </trkpt>
      <trkpt lat="47.62125" lon="-0.44907">
        <ele>24.8</ele>
        <time>2012-03-25T05:36:16Z</time>
      </trkpt>
      <trkpt lat="47.62123" lon="-0.44922">
        <ele>24.7</ele>
        <time>2012-03-25T05:36:18Z</time>
      </trkpt>
      <trkpt lat="47.62118" lon="-0.4494">
        <ele>24.6</ele>
        <time>2012-03-25T05:36:21Z</time>
      </trkpt>
      <trkpt lat="47.62115" lon="-0.44957">
        <ele>24.5</ele>
        <time>2012-03-25T05:36:23Z</time>
      </trkpt>
      <trkpt lat="47.62111" lon="-0.44973">
        <ele>24.5</ele>
        <time>2012-03-25T05:36:25Z</time>
      </trkpt>
      <trkpt lat="47.62108" lon="-0.44989">
        <ele>24.4</ele>
        <time>2012-03-25T05:36:27Z</time>
      </trkpt>
      <trkpt lat="47.62106" lon="-0.45003">
        <ele>24.3</ele>
        <time>2012-03-25T05:36:30Z</time>
      </trkpt>
      <trkpt lat="47.62103" lon="-0.45018">
        <ele>24.2</ele>
        <time>2012-03-25T05:36:34Z</time>
      </trkpt>
      <trkpt lat="47.621" lon="-0.45035">
        <ele>24.1</ele>
        <time>2012-03-25T05:36:37Z</time>
      </trkpt>
      <trkpt lat="47.62097" lon="-0.45049">
        <ele>23.9</ele>
        <time>2012-03-25T05:36:39Z</time>
      </trkpt>
      <trkpt lat="47.62095" lon="-0.45063">
        <ele>23.8</ele>
        <time>2012-03-25T05:36:41Z</time>
      </trkpt>
      <trkpt lat="47.62093" lon="-0.45077">
        <ele>23.7</ele>
        <time>2012-03-25T05:36:43Z</time>
      </trkpt>
      <trkpt lat="47.6209" lon="-0.45092">
        <ele>23.6</ele>
        <time>2012-03-25T05:36:45Z</time>
      </trkpt>
      <trkpt lat="47.62088" lon="-0.45109">
        <ele>23.5</ele>
        <time>2012-03-25T05:36:47Z</time>
      </trkpt>
      <trkpt lat="47.62085" lon="-0.45125">
        <ele>23.4</ele>
        <time>2012-03-25T05:36:49Z</time>
      </trkpt>
      <trkpt lat="47.62082" lon="-0.45142">
        <ele>23.2</ele>
        <time>2012-03-25T05:36:51Z</time>
      </trkpt>
      <trkpt lat="47.62079" lon="-0.45158">
        <ele>23</ele>
        <time>2012-03-25T05:36:53Z</time>
      </trkpt>
      <trkpt lat="47.62075" lon="-0.45174">
        <ele>22.8</ele>
        <time>2012-03-25T05:36:55Z</time>
      </trkpt>
      <trkpt lat="47.62072" lon="-0.45191">
        <ele>22.6</ele>
        <time>2012-03-25T05:36:57Z</time>
      </trkpt>
      <trkpt lat="47.62069" lon="-0.45207">
        <ele>22.5</ele>
        <time>2012-03-25T05:36:59Z</time>
      </trkpt>
      <trkpt lat="47.62065" lon="-0.45223">
        <ele>22.5</ele>
        <time>2012-03-25T05:37:01Z</time>
      </trkpt>
      <trkpt lat="47.62062" lon="-0.45239">
        <ele>22.6</ele>
        <time>2012-03-25T05:37:03Z</time>
      </trkpt>
      <trkpt lat="47.62059" lon="-0.45255">
        <ele>22.7</ele>
        <time>2012-03-25T05:37:05Z</time>
      </trkpt>
      <trkpt lat="47.62057" lon="-0.4527">
        <ele>22.8</ele>
        <time>2012-03-25T05:37:07Z</time>
      </trkpt>
      <trkpt lat="47.62055" lon="-0.45286">
        <ele>22.9</ele>
        <time>2012-03-25T05:37:09Z</time>
      </trkpt>
      <trkpt lat="47.62053" lon="-0.45301">
        <ele>23.1</ele>
        <time>2012-03-25T05:37:11Z</time>
      </trkpt>
      <trkpt lat="47.62052" lon="-0.45315">
        <ele>23.3</ele>
        <time>2012-03-25T05:37:13Z</time>
      </trkpt>
      <trkpt lat="47.62051" lon="-0.45332">
        <ele>23.5</ele>
        <time>2012-03-25T05:37:15Z</time>
      </trkpt>
      <trkpt lat="47.6205" lon="-0.45349">
        <ele>23.6</ele>
        <time>2012-03-25T05:37:17Z</time>
      </trkpt>
      <trkpt lat="47.62049" lon="-0.45368">
        <ele>23.7</ele>
        <time>2012-03-25T05:37:19Z</time>
      </trkpt>
      <trkpt lat="47.62049" lon="-0.45386">
        <ele>23.8</ele>
        <time>2012-03-25T05:37:21Z</time>
      </trkpt>
      <trkpt lat="47.62049" lon="-0.45402">
        <ele>23.7</ele>
        <time>2012-03-25T05:37:23Z</time>
      </trkpt>
      <trkpt lat="47.62049" lon="-0.45421">
        <ele>23.6</ele>
        <time>2012-03-25T05:37:25Z</time>
      </trkpt>
      <trkpt lat="47.62048" lon="-0.4544">
        <ele>23.5</ele>
        <time>2012-03-25T05:37:27Z</time>
      </trkpt>
      <trkpt lat="47.62047" lon="-0.45458">
        <ele>23.5</ele>
        <time>2012-03-25T05:37:29Z</time>
      </trkpt>
      <trkpt lat="47.62047" lon="-0.45476">
        <ele>23.4</ele>
        <time>2012-03-25T05:37:31Z</time>
      </trkpt>
      <trkpt lat="47.62047" lon="-0.45494">
        <ele>23.3</ele>
        <time>2012-03-25T05:37:33Z</time>
      </trkpt>
      <trkpt lat="47.62046" lon="-0.45511">
        <ele>23.2</ele>
        <time>2012-03-25T05:37:35Z</time>
      </trkpt>
      <trkpt lat="47.62044" lon="-0.45528">
        <ele>23.1</ele>
        <time>2012-03-25T05:37:37Z</time>
      </trkpt>
      <trkpt lat="47.62043" lon="-0.45545">
        <ele>23</ele>
        <time>2012-03-25T05:37:39Z</time>
      </trkpt>
      <trkpt lat="47.62042" lon="-0.45563">
        <ele>23</ele>
        <time>2012-03-25T05:37:41Z</time>
      </trkpt>
      <trkpt lat="47.62041" lon="-0.45581">
        <ele>23</ele>
        <time>2012-03-25T05:37:43Z</time>
      </trkpt>
      <trkpt lat="47.6204" lon="-0.45598">
        <ele>23</ele>
        <time>2012-03-25T05:37:45Z</time>
      </trkpt>
      <trkpt lat="47.6204" lon="-0.45616">
        <ele>23</ele>
        <time>2012-03-25T05:37:47Z</time>
      </trkpt>
      <trkpt lat="47.62039" lon="-0.45634">
        <ele>23</ele>
        <time>2012-03-25T05:37:49Z</time>
      </trkpt>
      <trkpt lat="47.62038" lon="-0.45652">
        <ele>23</ele>
        <time>2012-03-25T05:37:51Z</time>
      </trkpt>
      <trkpt lat="47.62038" lon="-0.4567">
        <ele>23</ele>
        <time>2012-03-25T05:37:53Z</time>
      </trkpt>
      <trkpt lat="47.62037" lon="-0.45687">
        <ele>23</ele>
        <time>2012-03-25T05:37:55Z</time>
      </trkpt>
      <trkpt lat="47.62037" lon="-0.45705">
        <ele>22.9</ele>
        <time>2012-03-25T05:37:57Z</time>
      </trkpt>
      <trkpt lat="47.62036" lon="-0.45722">
        <ele>22.8</ele>
        <time>2012-03-25T05:37:59Z</time>
      </trkpt>
      <trkpt lat="47.62036" lon="-0.45739">
        <ele>22.7</ele>
        <time>2012-03-25T05:38:01Z</time>
      </trkpt>
      <trkpt lat="47.62035" lon="-0.45755">
        <ele>22.6</ele>
        <time>2012-03-25T05:38:03Z</time>
      </trkpt>
      <trkpt lat="47.62034" lon="-0.45772">
        <ele>22.5</ele>
        <time>2012-03-25T05:38:05Z</time>
      </trkpt>
      <trkpt lat="47.62033" lon="-0.45788">
        <ele>22.4</ele>
        <time>2012-03-25T05:38:07Z</time>
      </trkpt>
      <trkpt lat="47.62032" lon="-0.45805">
        <ele>22.2</ele>
        <time>2012-03-25T05:38:09Z</time>
      </trkpt>
      <trkpt lat="47.62031" lon="-0.45821">
        <ele>22</ele>
        <time>2012-03-25T05:38:11Z</time>
      </trkpt>
      <trkpt lat="47.6203" lon="-0.45838">
        <ele>21.8</ele>
        <time>2012-03-25T05:38:13Z</time>
      </trkpt>
      <trkpt lat="47.6203" lon="-0.45855">
        <ele>21.6</ele>
        <time>2012-03-25T05:38:15Z</time>
      </trkpt>
      <trkpt lat="47.62029" lon="-0.45872">
        <ele>21.5</ele>
        <time>2012-03-25T05:38:17Z</time>
      </trkpt>
      <trkpt lat="47.62029" lon="-0.45889">
        <ele>21.5</ele>
        <time>2012-03-25T05:38:19Z</time>
      </trkpt>
      <trkpt lat="47.62029" lon="-0.45905">
        <ele>21.5</ele>
        <time>2012-03-25T05:38:21Z</time>
      </trkpt>
      <trkpt lat="47.6203" lon="-0.4592">
        <ele>21.5</ele>
        <time>2012-03-25T05:38:23Z</time>
      </trkpt>
      <trkpt lat="47.62038" lon="-0.45932">
        <ele>21.6</ele>
        <time>2012-03-25T05:38:25Z</time>
      </trkpt>
      <trkpt lat="47.62047" lon="-0.45941">
        <ele>21.7</ele>
        <time>2012-03-25T05:38:27Z</time>
      </trkpt>
      <trkpt lat="47.62057" lon="-0.45948">
        <ele>21.9</ele>
        <time>2012-03-25T05:38:29Z</time>
      </trkpt>
      <trkpt lat="47.62066" lon="-0.45956">
        <ele>22.1</ele>
        <time>2012-03-25T05:38:31Z</time>
      </trkpt>
      <trkpt lat="47.62076" lon="-0.45964">
        <ele>22.3</ele>
        <time>2012-03-25T05:38:33Z</time>
      </trkpt>
      <trkpt lat="47.62085" lon="-0.45973">
        <ele>22.5</ele>
        <time>2012-03-25T05:38:35Z</time>
      </trkpt>
      <trkpt lat="47.62094" lon="-0.45981">
        <ele>22.6</ele>
        <time>2012-03-25T05:38:37Z</time>
      </trkpt>
      <trkpt lat="47.62104" lon="-0.45991">
        <ele>22.8</ele>
        <time>2012-03-25T05:38:39Z</time>
      </trkpt>
      <trkpt lat="47.62113" lon="-0.46001">
        <ele>22.9</ele>
        <time>2012-03-25T05:38:41Z</time>
      </trkpt>
      <trkpt lat="47.62122" lon="-0.4601">
        <ele>23</ele>
        <time>2012-03-25T05:38:43Z</time>
      </trkpt>
      <trkpt lat="47.62131" lon="-0.46018">
        <ele>23</ele>
        <time>2012-03-25T05:38:45Z</time>
      </trkpt>
      <trkpt lat="47.62142" lon="-0.46028">
        <ele>23</ele>
        <time>2012-03-25T05:38:47Z</time>
      </trkpt>
      <trkpt lat="47.62151" lon="-0.46038">
        <ele>23</ele>
        <time>2012-03-25T05:38:49Z</time>
      </trkpt>
      <trkpt lat="47.62161" lon="-0.46048">
        <ele>23</ele>
        <time>2012-03-25T05:38:51Z</time>
      </trkpt>
      <trkpt lat="47.6217" lon="-0.46056">
        <ele>23.2</ele>
        <time>2012-03-25T05:38:53Z</time>
      </trkpt>
      <trkpt lat="47.62179" lon="-0.46066">
        <ele>23.4</ele>
        <time>2012-03-25T05:38:55Z</time>
      </trkpt>
      <trkpt lat="47.62188" lon="-0.46075">
        <ele>23.5</ele>
        <time>2012-03-25T05:38:57Z</time>
      </trkpt>
      <trkpt lat="47.62197" lon="-0.46083">
        <ele>23.6</ele>
        <time>2012-03-25T05:38:59Z</time>
      </trkpt>
      <trkpt lat="47.62206" lon="-0.46092">
        <ele>23.7</ele>
        <time>2012-03-25T05:39:01Z</time>
      </trkpt>
      <trkpt lat="47.62214" lon="-0.46099">
        <ele>23.8</ele>
        <time>2012-03-25T05:39:03Z</time>
      </trkpt>
      <trkpt lat="47.62223" lon="-0.46106">
        <ele>23.9</ele>
        <time>2012-03-25T05:39:06Z</time>
      </trkpt>
      <trkpt lat="47.62232" lon="-0.46112">
        <ele>23.9</ele>
        <time>2012-03-25T05:39:11Z</time>
      </trkpt>
      <trkpt lat="47.6223" lon="-0.46128">
        <ele>23.9</ele>
        <time>2012-03-25T05:39:16Z</time>
      </trkpt>
      <trkpt lat="47.62223" lon="-0.46145">
        <ele>24.1</ele>
        <time>2012-03-25T05:39:19Z</time>
      </trkpt>
      <trkpt lat="47.62218" lon="-0.46156">
        <ele>24.3</ele>
        <time>2012-03-25T05:39:21Z</time>
      </trkpt>
      <trkpt lat="47.62214" lon="-0.46168">
        <ele>24.3</ele>
        <time>2012-03-25T05:39:23Z</time>
      </trkpt>
      <trkpt lat="47.62209" lon="-0.4618">
        <ele>24.3</ele>
        <time>2012-03-25T05:39:25Z</time>
      </trkpt>
      <trkpt lat="47.62203" lon="-0.46192">
        <ele>24.3</ele>
        <time>2012-03-25T05:39:27Z</time>
      </trkpt>
      <trkpt lat="47.62198" lon="-0.46206">
        <ele>24.4</ele>
        <time>2012-03-25T05:39:29Z</time>
      </trkpt>
      <trkpt lat="47.62192" lon="-0.4622">
        <ele>24.5</ele>
        <time>2012-03-25T05:39:31Z</time>
      </trkpt>
      <trkpt lat="47.62188" lon="-0.46233">
        <ele>24.7</ele>
        <time>2012-03-25T05:39:33Z</time>
      </trkpt>
      <trkpt lat="47.62182" lon="-0.46247">
        <ele>24.9</ele>
        <time>2012-03-25T05:39:35Z</time>
      </trkpt>
      <trkpt lat="47.62177" lon="-0.46259">
        <ele>25.2</ele>
        <time>2012-03-25T05:39:37Z</time>
      </trkpt>
      <trkpt lat="47.62171" lon="-0.46275">
        <ele>25.5</ele>
        <time>2012-03-25T05:39:39Z</time>
      </trkpt>
      <trkpt lat="47.62165" lon="-0.46289">
        <ele>25.5</ele>
        <time>2012-03-25T05:39:41Z</time>
      </trkpt>
      <trkpt lat="47.62159" lon="-0.46306">
        <ele>25.7</ele>
        <time>2012-03-25T05:39:43Z</time>
      </trkpt>
      <trkpt lat="47.62154" lon="-0.4632">
        <ele>25.9</ele>
        <time>2012-03-25T05:39:45Z</time>
      </trkpt>
      <trkpt lat="47.62149" lon="-0.46332">
        <ele>26.1</ele>
        <time>2012-03-25T05:39:47Z</time>
      </trkpt>
      <trkpt lat="47.62142" lon="-0.46346">
        <ele>26.3</ele>
        <time>2012-03-25T05:39:49Z</time>
      </trkpt>
      <trkpt lat="47.62135" lon="-0.46362">
        <ele>26.5</ele>
        <time>2012-03-25T05:39:51Z</time>
      </trkpt>
      <trkpt lat="47.6213" lon="-0.46377">
        <ele>26.5</ele>
        <time>2012-03-25T05:39:53Z</time>
      </trkpt>
      <trkpt lat="47.62125" lon="-0.4639">
        <ele>26.6</ele>
        <time>2012-03-25T05:39:55Z</time>
      </trkpt>
      <trkpt lat="47.6212" lon="-0.46403">
        <ele>26.7</ele>
        <time>2012-03-25T05:39:57Z</time>
      </trkpt>
      <trkpt lat="47.62114" lon="-0.46418">
        <ele>26.8</ele>
        <time>2012-03-25T05:39:59Z</time>
      </trkpt>
      <trkpt lat="47.62108" lon="-0.46432">
        <ele>26.9</ele>
        <time>2012-03-25T05:40:01Z</time>
      </trkpt>
      <trkpt lat="47.62103" lon="-0.46447">
        <ele>27</ele>
        <time>2012-03-25T05:40:03Z</time>
      </trkpt>
      <trkpt lat="47.62098" lon="-0.4646">
        <ele>27</ele>
        <time>2012-03-25T05:40:05Z</time>
      </trkpt>
      <trkpt lat="47.62093" lon="-0.46473">
        <ele>27.1</ele>
        <time>2012-03-25T05:40:07Z</time>
      </trkpt>
      <trkpt lat="47.62088" lon="-0.46486">
        <ele>27.2</ele>
        <time>2012-03-25T05:40:09Z</time>
      </trkpt>
      <trkpt lat="47.62079" lon="-0.46506">
        <ele>27.3</ele>
        <time>2012-03-25T05:40:12Z</time>
      </trkpt>
      <trkpt lat="47.62074" lon="-0.46519">
        <ele>27.4</ele>
        <time>2012-03-25T05:40:14Z</time>
      </trkpt>
      <trkpt lat="47.62068" lon="-0.46533">
        <ele>27.5</ele>
        <time>2012-03-25T05:40:16Z</time>
      </trkpt>
      <trkpt lat="47.62063" lon="-0.46544">
        <ele>27.7</ele>
        <time>2012-03-25T05:40:18Z</time>
      </trkpt>
      <trkpt lat="47.62059" lon="-0.46557">
        <ele>28</ele>
        <time>2012-03-25T05:40:20Z</time>
      </trkpt>
      <trkpt lat="47.62053" lon="-0.46571">
        <ele>28.3</ele>
        <time>2012-03-25T05:40:22Z</time>
      </trkpt>
      <trkpt lat="47.62048" lon="-0.46586">
        <ele>28.5</ele>
        <time>2012-03-25T05:40:24Z</time>
      </trkpt>
      <trkpt lat="47.62042" lon="-0.46601">
        <ele>28.8</ele>
        <time>2012-03-25T05:40:26Z</time>
      </trkpt>
      <trkpt lat="47.62036" lon="-0.46615">
        <ele>29.1</ele>
        <time>2012-03-25T05:40:28Z</time>
      </trkpt>
      <trkpt lat="47.62034" lon="-0.46632">
        <ele>29.3</ele>
        <time>2012-03-25T05:40:31Z</time>
      </trkpt>
      <trkpt lat="47.6204" lon="-0.46645">
        <ele>29.5</ele>
        <time>2012-03-25T05:40:36Z</time>
      </trkpt>
      <trkpt lat="47.62043" lon="-0.46658">
        <ele>29.6</ele>
        <time>2012-03-25T05:40:39Z</time>
      </trkpt>
      <trkpt lat="47.62043" lon="-0.46675">
        <ele>29.8</ele>
        <time>2012-03-25T05:40:42Z</time>
      </trkpt>
      <trkpt lat="47.62045" lon="-0.46689">
        <ele>30</ele>
        <time>2012-03-25T05:40:44Z</time>
      </trkpt>
      <trkpt lat="47.62047" lon="-0.46704">
        <ele>29.9</ele>
        <time>2012-03-25T05:40:46Z</time>
      </trkpt>
      <trkpt lat="47.62051" lon="-0.46721">
        <ele>29.8</ele>
        <time>2012-03-25T05:40:48Z</time>
      </trkpt>
      <trkpt lat="47.62056" lon="-0.46738">
        <ele>29.7</ele>
        <time>2012-03-25T05:40:50Z</time>
      </trkpt>
      <trkpt lat="47.6206" lon="-0.46757">
        <ele>29.6</ele>
        <time>2012-03-25T05:40:52Z</time>
      </trkpt>
      <trkpt lat="47.62065" lon="-0.46775">
        <ele>29.5</ele>
        <time>2012-03-25T05:40:54Z</time>
      </trkpt>
      <trkpt lat="47.62071" lon="-0.46798">
        <ele>29.3</ele>
        <time>2012-03-25T05:40:56Z</time>
      </trkpt>
      <trkpt lat="47.62076" lon="-0.46819">
        <ele>29.1</ele>
        <time>2012-03-25T05:40:58Z</time>
      </trkpt>
      <trkpt lat="47.62082" lon="-0.4684">
        <ele>28.9</ele>
        <time>2012-03-25T05:41:00Z</time>
      </trkpt>
      <trkpt lat="47.62087" lon="-0.4686">
        <ele>28.7</ele>
        <time>2012-03-25T05:41:02Z</time>
      </trkpt>
      <trkpt lat="47.62091" lon="-0.46877">
        <ele>28.5</ele>
        <time>2012-03-25T05:41:04Z</time>
      </trkpt>
      <trkpt lat="47.62095" lon="-0.46892">
        <ele>28.4</ele>
        <time>2012-03-25T05:41:06Z</time>
      </trkpt>
      <trkpt lat="47.62099" lon="-0.46906">
        <ele>28.2</ele>
        <time>2012-03-25T05:41:08Z</time>
      </trkpt>
      <trkpt lat="47.62105" lon="-0.4692">
        <ele>28</ele>
        <time>2012-03-25T05:41:10Z</time>
      </trkpt>
      <trkpt lat="47.62107" lon="-0.46937">
        <ele>27.8</ele>
        <time>2012-03-25T05:41:12Z</time>
      </trkpt>
      <trkpt lat="47.62102" lon="-0.46948">
        <ele>27.6</ele>
        <time>2012-03-25T05:41:14Z</time>
      </trkpt>
      <trkpt lat="47.62092" lon="-0.46957">
        <ele>27.5</ele>
        <time>2012-03-25T05:41:16Z</time>
      </trkpt>
      <trkpt lat="47.62082" lon="-0.46961">
        <ele>27.5</ele>
        <time>2012-03-25T05:41:18Z</time>
      </trkpt>
      <trkpt lat="47.62071" lon="-0.46964">
        <ele>27.4</ele>
        <time>2012-03-25T05:41:20Z</time>
      </trkpt>
      <trkpt lat="47.6206" lon="-0.46968">
        <ele>27.3</ele>
        <time>2012-03-25T05:41:22Z</time>
      </trkpt>
      <trkpt lat="47.62049" lon="-0.46972">
        <ele>27.2</ele>
        <time>2012-03-25T05:41:24Z</time>
      </trkpt>
      <trkpt lat="47.62038" lon="-0.46977">
        <ele>27.1</ele>
        <time>2012-03-25T05:41:26Z</time>
      </trkpt>
      <trkpt lat="47.62028" lon="-0.46982">
        <ele>27</ele>
        <time>2012-03-25T05:41:28Z</time>
      </trkpt>
      <trkpt lat="47.62015" lon="-0.46989">
        <ele>27</ele>
        <time>2012-03-25T05:41:30Z</time>
      </trkpt>
      <trkpt lat="47.62004" lon="-0.46993">
        <ele>27</ele>
        <time>2012-03-25T05:41:32Z</time>
      </trkpt>
      <trkpt lat="47.61992" lon="-0.47">
        <ele>27</ele>
        <time>2012-03-25T05:41:34Z</time>
      </trkpt>
      <trkpt lat="47.61981" lon="-0.47006">
        <ele>26.7</ele>
        <time>2012-03-25T05:41:36Z</time>
      </trkpt>
      <trkpt lat="47.6197" lon="-0.47013">
        <ele>26.5</ele>
        <time>2012-03-25T05:41:38Z</time>
      </trkpt>
      <trkpt lat="47.61958" lon="-0.47022">
        <ele>26.2</ele>
        <time>2012-03-25T05:41:40Z</time>
      </trkpt>
      <trkpt lat="47.61953" lon="-0.47036">
        <ele>25.6</ele>
        <time>2012-03-25T05:41:42Z</time>
      </trkpt>
      <trkpt lat="47.61957" lon="-0.47052">
        <ele>25.1</ele>
        <time>2012-03-25T05:41:44Z</time>
      </trkpt>
      <trkpt lat="47.61964" lon="-0.47067">
        <ele>24.5</ele>
        <time>2012-03-25T05:41:46Z</time>
      </trkpt>
      <trkpt lat="47.61971" lon="-0.47084">
        <ele>24</ele>
        <time>2012-03-25T05:41:48Z</time>
      </trkpt>
      <trkpt lat="47.61978" lon="-0.47104">
        <ele>23.1</ele>
        <time>2012-03-25T05:41:50Z</time>
      </trkpt>
      <trkpt lat="47.61985" lon="-0.47124">
        <ele>22.2</ele>
        <time>2012-03-25T05:41:52Z</time>
      </trkpt>
      <trkpt lat="47.61992" lon="-0.47145">
        <ele>21.3</ele>
        <time>2012-03-25T05:41:54Z</time>
      </trkpt>
      <trkpt lat="47.61999" lon="-0.47167">
        <ele>20.4</ele>
        <time>2012-03-25T05:41:56Z</time>
      </trkpt>
      <trkpt lat="47.62008" lon="-0.47186">
        <ele>19.7</ele>
        <time>2012-03-25T05:41:58Z</time>
      </trkpt>
      <trkpt lat="47.62024" lon="-0.47204">
        <ele>19.1</ele>
        <time>2012-03-25T05:42:00Z</time>
      </trkpt>
      <trkpt lat="47.62032" lon="-0.4721">
        <ele>18.5</ele>
        <time>2012-03-25T05:42:01Z</time>
      </trkpt>
      <trkpt lat="47.62048" lon="-0.47218">
        <ele>18.1</ele>
        <time>2012-03-25T05:42:03Z</time>
      </trkpt>
      <trkpt lat="47.62063" lon="-0.47224">
        <ele>17.7</ele>
        <time>2012-03-25T05:42:05Z</time>
      </trkpt>
      <trkpt lat="47.62079" lon="-0.47231">
        <ele>17.5</ele>
        <time>2012-03-25T05:42:07Z</time>
      </trkpt>
      <trkpt lat="47.62095" lon="-0.47238">
        <ele>17.2</ele>
        <time>2012-03-25T05:42:09Z</time>
      </trkpt>
      <trkpt lat="47.62109" lon="-0.47247">
        <ele>17.3</ele>
        <time>2012-03-25T05:42:11Z</time>
      </trkpt>
      <trkpt lat="47.6212" lon="-0.47255">
        <ele>17.4</ele>
        <time>2012-03-25T05:42:13Z</time>
      </trkpt>
      <trkpt lat="47.6213" lon="-0.47269">
        <ele>17.4</ele>
        <time>2012-03-25T05:42:15Z</time>
      </trkpt>
      <trkpt lat="47.62135" lon="-0.47288">
        <ele>17.2</ele>
        <time>2012-03-25T05:42:17Z</time>
      </trkpt>
      <trkpt lat="47.62137" lon="-0.47307">
        <ele>17</ele>
        <time>2012-03-25T05:42:18Z</time>
      </trkpt>
      <trkpt lat="47.62133" lon="-0.47323">
        <ele>16.8</ele>
        <time>2012-03-25T05:42:21Z</time>
      </trkpt>
      <trkpt lat="47.62131" lon="-0.47343">
        <ele>16.6</ele>
        <time>2012-03-25T05:42:23Z</time>
      </trkpt>
      <trkpt lat="47.62128" lon="-0.47365">
        <ele>16.4</ele>
        <time>2012-03-25T05:42:25Z</time>
      </trkpt>
      <trkpt lat="47.62126" lon="-0.47386">
        <ele>16.1</ele>
        <time>2012-03-25T05:42:27Z</time>
      </trkpt>
      <trkpt lat="47.62123" lon="-0.47406">
        <ele>15.7</ele>
        <time>2012-03-25T05:42:29Z</time>
      </trkpt>
      <trkpt lat="47.62121" lon="-0.47424">
        <ele>15.4</ele>
        <time>2012-03-25T05:42:31Z</time>
      </trkpt>
      <trkpt lat="47.62117" lon="-0.47444">
        <ele>14.9</ele>
        <time>2012-03-25T05:42:33Z</time>
      </trkpt>
      <trkpt lat="47.62113" lon="-0.47462">
        <ele>14.5</ele>
        <time>2012-03-25T05:42:35Z</time>
      </trkpt>
      <trkpt lat="47.62108" lon="-0.47481">
        <ele>14.1</ele>
        <time>2012-03-25T05:42:37Z</time>
      </trkpt>
      <trkpt lat="47.62102" lon="-0.47503">
        <ele>13.9</ele>
        <time>2012-03-25T05:42:39Z</time>
      </trkpt>
      <trkpt lat="47.62098" lon="-0.47522">
        <ele>13.6</ele>
        <time>2012-03-25T05:42:41Z</time>
      </trkpt>
      <trkpt lat="47.62094" lon="-0.47543">
        <ele>13.4</ele>
        <time>2012-03-25T05:42:43Z</time>
      </trkpt>
      <trkpt lat="47.6209" lon="-0.4756">
        <ele>13.1</ele>
        <time>2012-03-25T05:42:45Z</time>
      </trkpt>
      <trkpt lat="47.62085" lon="-0.47577">
        <ele>12.9</ele>
        <time>2012-03-25T05:42:47Z</time>
      </trkpt>
      <trkpt lat="47.6208" lon="-0.47597">
        <ele>12.7</ele>
        <time>2012-03-25T05:42:49Z</time>
      </trkpt>
      <trkpt lat="47.62074" lon="-0.47616">
        <ele>12.8</ele>
        <time>2012-03-25T05:42:51Z</time>
      </trkpt>
      <trkpt lat="47.6207" lon="-0.47631">
        <ele>12.9</ele>
        <time>2012-03-25T05:42:53Z</time>
      </trkpt>
      <trkpt lat="47.62065" lon="-0.47649">
        <ele>13.1</ele>
        <time>2012-03-25T05:42:55Z</time>
      </trkpt>
      <trkpt lat="47.62059" lon="-0.47668">
        <ele>13.3</ele>
        <time>2012-03-25T05:42:57Z</time>
      </trkpt>
      <trkpt lat="47.62056" lon="-0.47686">
        <ele>13.5</ele>
        <time>2012-03-25T05:42:59Z</time>
      </trkpt>
      <trkpt lat="47.62051" lon="-0.47705">
        <ele>13.7</ele>
        <time>2012-03-25T05:43:01Z</time>
      </trkpt>
      <trkpt lat="47.62045" lon="-0.47723">
        <ele>14.1</ele>
        <time>2012-03-25T05:43:03Z</time>
      </trkpt>
      <trkpt lat="47.6204" lon="-0.47739">
        <ele>14.5</ele>
        <time>2012-03-25T05:43:05Z</time>
      </trkpt>
      <trkpt lat="47.62033" lon="-0.47756">
        <ele>14.8</ele>
        <time>2012-03-25T05:43:07Z</time>
      </trkpt>
      <trkpt lat="47.62026" lon="-0.47776">
        <ele>15.3</ele>
        <time>2012-03-25T05:43:09Z</time>
      </trkpt>
      <trkpt lat="47.62022" lon="-0.47794">
        <ele>15.7</ele>
        <time>2012-03-25T05:43:11Z</time>
      </trkpt>
      <trkpt lat="47.62017" lon="-0.47812">
        <ele>15.9</ele>
        <time>2012-03-25T05:43:12Z</time>
      </trkpt>
      <trkpt lat="47.62011" lon="-0.4783">
        <ele>16.1</ele>
        <time>2012-03-25T05:43:14Z</time>
      </trkpt>
      <trkpt lat="47.62006" lon="-0.47848">
        <ele>16.3</ele>
        <time>2012-03-25T05:43:16Z</time>
      </trkpt>
      <trkpt lat="47.62" lon="-0.47865">
        <ele>16.5</ele>
        <time>2012-03-25T05:43:19Z</time>
      </trkpt>
      <trkpt lat="47.61995" lon="-0.47878">
        <ele>16.5</ele>
        <time>2012-03-25T05:43:21Z</time>
      </trkpt>
      <trkpt lat="47.6199" lon="-0.47894">
        <ele>16.5</ele>
        <time>2012-03-25T05:43:23Z</time>
      </trkpt>
      <trkpt lat="47.61985" lon="-0.47914">
        <ele>16.5</ele>
        <time>2012-03-25T05:43:25Z</time>
      </trkpt>
      <trkpt lat="47.61981" lon="-0.47931">
        <ele>16.5</ele>
        <time>2012-03-25T05:43:27Z</time>
      </trkpt>
      <trkpt lat="47.61979" lon="-0.47948">
        <ele>16.5</ele>
        <time>2012-03-25T05:43:28Z</time>
      </trkpt>
      <trkpt lat="47.61978" lon="-0.47969">
        <ele>16.5</ele>
        <time>2012-03-25T05:43:30Z</time>
      </trkpt>
      <trkpt lat="47.61978" lon="-0.47985">
        <ele>16.4</ele>
        <time>2012-03-25T05:43:33Z</time>
      </trkpt>
      <trkpt lat="47.61977" lon="-0.48002">
        <ele>16.3</ele>
        <time>2012-03-25T05:43:35Z</time>
      </trkpt>
      <trkpt lat="47.61975" lon="-0.4802">
        <ele>16.2</ele>
        <time>2012-03-25T05:43:37Z</time>
      </trkpt>
      <trkpt lat="47.61974" lon="-0.48038">
        <ele>16</ele>
        <time>2012-03-25T05:43:39Z</time>
      </trkpt>
      <trkpt lat="47.61973" lon="-0.48056">
        <ele>15.8</ele>
        <time>2012-03-25T05:43:41Z</time>
      </trkpt>
      <trkpt lat="47.61972" lon="-0.48073">
        <ele>15.7</ele>
        <time>2012-03-25T05:43:43Z</time>
      </trkpt>
      <trkpt lat="47.61971" lon="-0.48088">
        <ele>15.6</ele>
        <time>2012-03-25T05:43:45Z</time>
      </trkpt>
      <trkpt lat="47.61969" lon="-0.48106">
        <ele>15.5</ele>
        <time>2012-03-25T05:43:47Z</time>
      </trkpt>
      <trkpt lat="47.61968" lon="-0.48124">
        <ele>15.5</ele>
        <time>2012-03-25T05:43:48Z</time>
      </trkpt>
      <trkpt lat="47.61966" lon="-0.48142">
        <ele>15.4</ele>
        <time>2012-03-25T05:43:51Z</time>
      </trkpt>
      <trkpt lat="47.61965" lon="-0.48158">
        <ele>15.4</ele>
        <time>2012-03-25T05:43:53Z</time>
      </trkpt>
      <trkpt lat="47.61964" lon="-0.48176">
        <ele>15.4</ele>
        <time>2012-03-25T05:43:55Z</time>
      </trkpt>
      <trkpt lat="47.61963" lon="-0.48193">
        <ele>15.4</ele>
        <time>2012-03-25T05:43:57Z</time>
      </trkpt>
      <trkpt lat="47.61962" lon="-0.48211">
        <ele>15.2</ele>
        <time>2012-03-25T05:43:59Z</time>
      </trkpt>
      <trkpt lat="47.6196" lon="-0.48228">
        <ele>15.1</ele>
        <time>2012-03-25T05:44:01Z</time>
      </trkpt>
      <trkpt lat="47.61959" lon="-0.48247">
        <ele>15</ele>
        <time>2012-03-25T05:44:03Z</time>
      </trkpt>
      <trkpt lat="47.61958" lon="-0.48262">
        <ele>14.9</ele>
        <time>2012-03-25T05:44:05Z</time>
      </trkpt>
      <trkpt lat="47.61956" lon="-0.48279">
        <ele>14.8</ele>
        <time>2012-03-25T05:44:07Z</time>
      </trkpt>
      <trkpt lat="47.61955" lon="-0.48299">
        <ele>14.6</ele>
        <time>2012-03-25T05:44:09Z</time>
      </trkpt>
      <trkpt lat="47.61953" lon="-0.48317">
        <ele>14.5</ele>
        <time>2012-03-25T05:44:11Z</time>
      </trkpt>
      <trkpt lat="47.61951" lon="-0.48333">
        <ele>14.3</ele>
        <time>2012-03-25T05:44:13Z</time>
      </trkpt>
      <trkpt lat="47.6195" lon="-0.48348">
        <ele>14</ele>
        <time>2012-03-25T05:44:15Z</time>
      </trkpt>
      <trkpt lat="47.61949" lon="-0.48365">
        <ele>13.7</ele>
        <time>2012-03-25T05:44:17Z</time>
      </trkpt>
      <trkpt lat="47.61947" lon="-0.48383">
        <ele>13.5</ele>
        <time>2012-03-25T05:44:19Z</time>
      </trkpt>
      <trkpt lat="47.61945" lon="-0.48399">
        <ele>13.5</ele>
        <time>2012-03-25T05:44:21Z</time>
      </trkpt>
      <trkpt lat="47.61943" lon="-0.48414">
        <ele>13.5</ele>
        <time>2012-03-25T05:44:23Z</time>
      </trkpt>
      <trkpt lat="47.61942" lon="-0.48431">
        <ele>13.5</ele>
        <time>2012-03-25T05:44:25Z</time>
      </trkpt>
      <trkpt lat="47.6194" lon="-0.4845">
        <ele>13.7</ele>
        <time>2012-03-25T05:44:27Z</time>
      </trkpt>
      <trkpt lat="47.61939" lon="-0.48471">
        <ele>13.9</ele>
        <time>2012-03-25T05:44:29Z</time>
      </trkpt>
      <trkpt lat="47.61937" lon="-0.4849">
        <ele>14.2</ele>
        <time>2012-03-25T05:44:30Z</time>
      </trkpt>
      <trkpt lat="47.61935" lon="-0.48508">
        <ele>14.5</ele>
        <time>2012-03-25T05:44:32Z</time>
      </trkpt>
      <trkpt lat="47.61934" lon="-0.48524">
        <ele>14.7</ele>
        <time>2012-03-25T05:44:35Z</time>
      </trkpt>
      <trkpt lat="47.61933" lon="-0.48539">
        <ele>15.2</ele>
        <time>2012-03-25T05:44:36Z</time>
      </trkpt>
      <trkpt lat="47.61932" lon="-0.48556">
        <ele>15.6</ele>
        <time>2012-03-25T05:44:39Z</time>
      </trkpt>
      <trkpt lat="47.6193" lon="-0.48573">
        <ele>16</ele>
        <time>2012-03-25T05:44:41Z</time>
      </trkpt>
      <trkpt lat="47.61928" lon="-0.48589">
        <ele>16.4</ele>
        <time>2012-03-25T05:44:43Z</time>
      </trkpt>
      <trkpt lat="47.61927" lon="-0.48602">
        <ele>16.7</ele>
        <time>2012-03-25T05:44:44Z</time>
      </trkpt>
      <trkpt lat="47.61926" lon="-0.48619">
        <ele>16.9</ele>
        <time>2012-03-25T05:44:47Z</time>
      </trkpt>
      <trkpt lat="47.61924" lon="-0.48635">
        <ele>16.9</ele>
        <time>2012-03-25T05:44:49Z</time>
      </trkpt>
      <trkpt lat="47.61923" lon="-0.48652">
        <ele>16.9</ele>
        <time>2012-03-25T05:44:51Z</time>
      </trkpt>
      <trkpt lat="47.61922" lon="-0.4867">
        <ele>16.9</ele>
        <time>2012-03-25T05:44:53Z</time>
      </trkpt>
      <trkpt lat="47.61921" lon="-0.48684">
        <ele>16.9</ele>
        <time>2012-03-25T05:44:55Z</time>
      </trkpt>
      <trkpt lat="47.6192" lon="-0.48699">
        <ele>16.8</ele>
        <time>2012-03-25T05:44:57Z</time>
      </trkpt>
      <trkpt lat="47.61918" lon="-0.48716">
        <ele>16.5</ele>
        <time>2012-03-25T05:44:59Z</time>
      </trkpt>
      <trkpt lat="47.61916" lon="-0.48734">
        <ele>16.3</ele>
        <time>2012-03-25T05:45:01Z</time>
      </trkpt>
      <trkpt lat="47.61914" lon="-0.4875">
        <ele>16</ele>
        <time>2012-03-25T05:45:03Z</time>
      </trkpt>
      <trkpt lat="47.61914" lon="-0.48765">
        <ele>15.7</ele>
        <time>2012-03-25T05:45:05Z</time>
      </trkpt>
      <trkpt lat="47.61913" lon="-0.4878">
        <ele>15.5</ele>
        <time>2012-03-25T05:45:07Z</time>
      </trkpt>
      <trkpt lat="47.61912" lon="-0.48797">
        <ele>15.4</ele>
        <time>2012-03-25T05:45:09Z</time>
      </trkpt>
      <trkpt lat="47.6191" lon="-0.48812">
        <ele>15.8</ele>
        <time>2012-03-25T05:45:10Z</time>
      </trkpt>
      <trkpt lat="47.61909" lon="-0.48825">
        <ele>16.3</ele>
        <time>2012-03-25T05:45:13Z</time>
      </trkpt>
      <trkpt lat="47.61901" lon="-0.48838">
        <ele>16.7</ele>
        <time>2012-03-25T05:45:16Z</time>
      </trkpt>
      <trkpt lat="47.61893" lon="-0.48844">
        <ele>17.2</ele>
        <time>2012-03-25T05:45:18Z</time>
      </trkpt>
      <trkpt lat="47.61882" lon="-0.48847">
        <ele>17.7</ele>
        <time>2012-03-25T05:45:21Z</time>
      </trkpt>
      <trkpt lat="47.61871" lon="-0.48849">
        <ele>18.5</ele>
        <time>2012-03-25T05:45:22Z</time>
      </trkpt>
      <trkpt lat="47.61861" lon="-0.48851">
        <ele>19.2</ele>
        <time>2012-03-25T05:45:24Z</time>
      </trkpt>
      <trkpt lat="47.6185" lon="-0.48852">
        <ele>19.9</ele>
        <time>2012-03-25T05:45:27Z</time>
      </trkpt>
      <trkpt lat="47.6184" lon="-0.48854">
        <ele>20.4</ele>
        <time>2012-03-25T05:45:28Z</time>
      </trkpt>
      <trkpt lat="47.61831" lon="-0.48856">
        <ele>20.8</ele>
        <time>2012-03-25T05:45:31Z</time>
      </trkpt>
      <trkpt lat="47.6182" lon="-0.48863">
        <ele>21.3</ele>
        <time>2012-03-25T05:45:38Z</time>
      </trkpt>
      <trkpt lat="47.61812" lon="-0.48865">
        <ele>21.2</ele>
        <time>2012-03-25T05:45:41Z</time>
      </trkpt>
      <trkpt lat="47.61802" lon="-0.48867">
        <ele>21.1</ele>
        <time>2012-03-25T05:45:43Z</time>
      </trkpt>
      <trkpt lat="47.6179" lon="-0.48871">
        <ele>21</ele>
        <time>2012-03-25T05:45:45Z</time>
      </trkpt>
      <trkpt lat="47.61777" lon="-0.48874">
        <ele>20.9</ele>
        <time>2012-03-25T05:45:46Z</time>
      </trkpt>
      <trkpt lat="47.61765" lon="-0.48878">
        <ele>20.8</ele>
        <time>2012-03-25T05:45:49Z</time>
      </trkpt>
      <trkpt lat="47.61754" lon="-0.48881">
        <ele>20.5</ele>
        <time>2012-03-25T05:45:51Z</time>
      </trkpt>
      <trkpt lat="47.61743" lon="-0.48885">
        <ele>20.3</ele>
        <time>2012-03-25T05:45:53Z</time>
      </trkpt>
      <trkpt lat="47.61732" lon="-0.48892">
        <ele>20</ele>
        <time>2012-03-25T05:45:55Z</time>
      </trkpt>
      <trkpt lat="47.6172" lon="-0.489">
        <ele>20</ele>
        <time>2012-03-25T05:45:57Z</time>
      </trkpt>
      <trkpt lat="47.61709" lon="-0.48909">
        <ele>19.5</ele>
        <time>2012-03-25T05:45:59Z</time>
      </trkpt>
      <trkpt lat="47.61699" lon="-0.48916">
        <ele>19.1</ele>
        <time>2012-03-25T05:46:00Z</time>
      </trkpt>
      <trkpt lat="47.61688" lon="-0.48924">
        <ele>18.6</ele>
        <time>2012-03-25T05:46:02Z</time>
      </trkpt>
      <trkpt lat="47.61678" lon="-0.48933">
        <ele>18.2</ele>
        <time>2012-03-25T05:46:04Z</time>
      </trkpt>
      <trkpt lat="47.61668" lon="-0.48945">
        <ele>17.7</ele>
        <time>2012-03-25T05:46:07Z</time>
      </trkpt>
      <trkpt lat="47.6166" lon="-0.48958">
        <ele>17.3</ele>
        <time>2012-03-25T05:46:09Z</time>
      </trkpt>
      <trkpt lat="47.61651" lon="-0.48972">
        <ele>16.8</ele>
        <time>2012-03-25T05:46:11Z</time>
      </trkpt>
      <trkpt lat="47.61644" lon="-0.48984">
        <ele>16.4</ele>
        <time>2012-03-25T05:46:13Z</time>
      </trkpt>
      <trkpt lat="47.61635" lon="-0.48998">
        <ele>15.9</ele>
        <time>2012-03-25T05:46:14Z</time>
      </trkpt>
      <trkpt lat="47.61626" lon="-0.49012">
        <ele>15.5</ele>
        <time>2012-03-25T05:46:16Z</time>
      </trkpt>
      <trkpt lat="47.61618" lon="-0.49026">
        <ele>15</ele>
        <time>2012-03-25T05:46:19Z</time>
      </trkpt>
      <trkpt lat="47.61608" lon="-0.49041">
        <ele>15</ele>
        <time>2012-03-25T05:46:21Z</time>
      </trkpt>
      <trkpt lat="47.616" lon="-0.49051">
        <ele>15</ele>
        <time>2012-03-25T05:46:23Z</time>
      </trkpt>
      <trkpt lat="47.61592" lon="-0.49063">
        <ele>15</ele>
        <time>2012-03-25T05:46:25Z</time>
      </trkpt>
      <trkpt lat="47.61584" lon="-0.49076">
        <ele>15.1</ele>
        <time>2012-03-25T05:46:26Z</time>
      </trkpt>
      <trkpt lat="47.61576" lon="-0.49089">
        <ele>15.2</ele>
        <time>2012-03-25T05:46:29Z</time>
      </trkpt>
      <trkpt lat="47.61567" lon="-0.49103">
        <ele>15.3</ele>
        <time>2012-03-25T05:46:31Z</time>
      </trkpt>
      <trkpt lat="47.61558" lon="-0.49116">
        <ele>15.4</ele>
        <time>2012-03-25T05:46:33Z</time>
      </trkpt>
      <trkpt lat="47.61548" lon="-0.4913">
        <ele>15.5</ele>
        <time>2012-03-25T05:46:34Z</time>
      </trkpt>
      <trkpt lat="47.6154" lon="-0.49142">
        <ele>15.6</ele>
        <time>2012-03-25T05:46:37Z</time>
      </trkpt>
      <trkpt lat="47.6153" lon="-0.49157">
        <ele>15.8</ele>
        <time>2012-03-25T05:46:38Z</time>
      </trkpt>
      <trkpt lat="47.61522" lon="-0.4917">
        <ele>16</ele>
        <time>2012-03-25T05:46:41Z</time>
      </trkpt>
      <trkpt lat="47.61513" lon="-0.49184">
        <ele>16.2</ele>
        <time>2012-03-25T05:46:43Z</time>
      </trkpt>
      <trkpt lat="47.61504" lon="-0.49197">
        <ele>16.4</ele>
        <time>2012-03-25T05:46:44Z</time>
      </trkpt>
      <trkpt lat="47.61496" lon="-0.4921">
        <ele>16.4</ele>
        <time>2012-03-25T05:46:46Z</time>
      </trkpt>
      <trkpt lat="47.61487" lon="-0.49223">
        <ele>16.3</ele>
        <time>2012-03-25T05:46:48Z</time>
      </trkpt>
      <trkpt lat="47.61477" lon="-0.49238">
        <ele>16.2</ele>
        <time>2012-03-25T05:46:51Z</time>
      </trkpt>
      <trkpt lat="47.61469" lon="-0.49251">
        <ele>16.1</ele>
        <time>2012-03-25T05:46:52Z</time>
      </trkpt>
      <trkpt lat="47.61461" lon="-0.49265">
        <ele>16</ele>
        <time>2012-03-25T05:46:55Z</time>
      </trkpt>
      <trkpt lat="47.61452" lon="-0.4928">
        <ele>15.9</ele>
        <time>2012-03-25T05:46:57Z</time>
      </trkpt>
      <trkpt lat="47.61444" lon="-0.49292">
        <ele>15.7</ele>
        <time>2012-03-25T05:46:59Z</time>
      </trkpt>
      <trkpt lat="47.61435" lon="-0.49305">
        <ele>15.6</ele>
        <time>2012-03-25T05:47:01Z</time>
      </trkpt>
      <trkpt lat="47.61425" lon="-0.49319">
        <ele>15.5</ele>
        <time>2012-03-25T05:47:03Z</time>
      </trkpt>
      <trkpt lat="47.61417" lon="-0.49332">
        <ele>15.4</ele>
        <time>2012-03-25T05:47:05Z</time>
      </trkpt>
      <trkpt lat="47.61406" lon="-0.49346">
        <ele>15.2</ele>
        <time>2012-03-25T05:47:07Z</time>
      </trkpt>
      <trkpt lat="47.61396" lon="-0.49361">
        <ele>15.2</ele>
        <time>2012-03-25T05:47:09Z</time>
      </trkpt>
      <trkpt lat="47.61387" lon="-0.49375">
        <ele>15.2</ele>
        <time>2012-03-25T05:47:11Z</time>
      </trkpt>
      <trkpt lat="47.61378" lon="-0.49387">
        <ele>15.3</ele>
        <time>2012-03-25T05:47:12Z</time>
      </trkpt>
      <trkpt lat="47.61369" lon="-0.49403">
        <ele>15.4</ele>
        <time>2012-03-25T05:47:14Z</time>
      </trkpt>
      <trkpt lat="47.61361" lon="-0.49416">
        <ele>15.5</ele>
        <time>2012-03-25T05:47:17Z</time>
      </trkpt>
      <trkpt lat="47.61354" lon="-0.4943">
        <ele>15.5</ele>
        <time>2012-03-25T05:47:19Z</time>
      </trkpt>
      <trkpt lat="47.61344" lon="-0.49443">
        <ele>15.6</ele>
        <time>2012-03-25T05:47:21Z</time>
      </trkpt>
      <trkpt lat="47.61335" lon="-0.49457">
        <ele>15.6</ele>
        <time>2012-03-25T05:47:22Z</time>
      </trkpt>
      <trkpt lat="47.61327" lon="-0.4947">
        <ele>15.7</ele>
        <time>2012-03-25T05:47:24Z</time>
      </trkpt>
      <trkpt lat="47.61317" lon="-0.49484">
        <ele>15.9</ele>
        <time>2012-03-25T05:47:27Z</time>
      </trkpt>
      <trkpt lat="47.61308" lon="-0.49498">
        <ele>16.1</ele>
        <time>2012-03-25T05:47:29Z</time>
      </trkpt>
      <trkpt lat="47.61299" lon="-0.49511">
        <ele>16.3</ele>
        <time>2012-03-25T05:47:31Z</time>
      </trkpt>
      <trkpt lat="47.61288" lon="-0.49527">
        <ele>16.5</ele>
        <time>2012-03-25T05:47:32Z</time>
      </trkpt>
      <trkpt lat="47.6128" lon="-0.4954">
        <ele>16.5</ele>
        <time>2012-03-25T05:47:34Z</time>
      </trkpt>
      <trkpt lat="47.6127" lon="-0.49553">
        <ele>16.5</ele>
        <time>2012-03-25T05:47:37Z</time>
      </trkpt>
      <trkpt lat="47.61262" lon="-0.49566">
        <ele>16.5</ele>
        <time>2012-03-25T05:47:39Z</time>
      </trkpt>
      <trkpt lat="47.61253" lon="-0.49579">
        <ele>16.5</ele>
        <time>2012-03-25T05:47:40Z</time>
      </trkpt>
      <trkpt lat="47.61245" lon="-0.49591">
        <ele>16.5</ele>
        <time>2012-03-25T05:47:43Z</time>
      </trkpt>
      <trkpt lat="47.61236" lon="-0.49606">
        <ele>16.5</ele>
        <time>2012-03-25T05:47:44Z</time>
      </trkpt>
      <trkpt lat="47.61229" lon="-0.49617">
        <ele>16.5</ele>
        <time>2012-03-25T05:47:47Z</time>
      </trkpt>
      <trkpt lat="47.61223" lon="-0.49627">
        <ele>16.4</ele>
        <time>2012-03-25T05:48:37Z</time>
      </trkpt>
      <trkpt lat="47.61216" lon="-0.49637">
        <ele>16.3</ele>
        <time>2012-03-25T05:48:39Z</time>
      </trkpt>
      <trkpt lat="47.61207" lon="-0.4965">
        <ele>16.2</ele>
        <time>2012-03-25T05:48:42Z</time>
      </trkpt>
      <trkpt lat="47.612" lon="-0.4966">
        <ele>16.1</ele>
        <time>2012-03-25T05:48:44Z</time>
      </trkpt>
      <trkpt lat="47.61193" lon="-0.49672">
        <ele>16</ele>
        <time>2012-03-25T05:48:46Z</time>
      </trkpt>
      <trkpt lat="47.61185" lon="-0.49683">
        <ele>16</ele>
        <time>2012-03-25T05:48:48Z</time>
      </trkpt>
      <trkpt lat="47.61176" lon="-0.49696">
        <ele>16</ele>
        <time>2012-03-25T05:48:50Z</time>
      </trkpt>
      <trkpt lat="47.61168" lon="-0.4971">
        <ele>15.9</ele>
        <time>2012-03-25T05:48:53Z</time>
      </trkpt>
      <trkpt lat="47.61159" lon="-0.49723">
        <ele>15.8</ele>
        <time>2012-03-25T05:48:55Z</time>
      </trkpt>
      <trkpt lat="47.6115" lon="-0.49736">
        <ele>15.7</ele>
        <time>2012-03-25T05:48:57Z</time>
      </trkpt>
      <trkpt lat="47.6114" lon="-0.49751">
        <ele>15.6</ele>
        <time>2012-03-25T05:48:59Z</time>
      </trkpt>
      <trkpt lat="47.61131" lon="-0.49765">
        <ele>15.5</ele>
        <time>2012-03-25T05:49:00Z</time>
      </trkpt>
      <trkpt lat="47.61123" lon="-0.49777">
        <ele>15.5</ele>
        <time>2012-03-25T05:49:03Z</time>
      </trkpt>
      <trkpt lat="47.61113" lon="-0.49793">
        <ele>15.4</ele>
        <time>2012-03-25T05:49:04Z</time>
      </trkpt>
      <trkpt lat="47.61102" lon="-0.49809">
        <ele>15.3</ele>
        <time>2012-03-25T05:49:07Z</time>
      </trkpt>
      <trkpt lat="47.61093" lon="-0.49825">
        <ele>15.2</ele>
        <time>2012-03-25T05:49:08Z</time>
      </trkpt>
      <trkpt lat="47.61084" lon="-0.49839">
        <ele>15.1</ele>
        <time>2012-03-25T05:49:11Z</time>
      </trkpt>
      <trkpt lat="47.61076" lon="-0.49853">
        <ele>15</ele>
        <time>2012-03-25T05:49:13Z</time>
      </trkpt>
      <trkpt lat="47.61067" lon="-0.49866">
        <ele>15</ele>
        <time>2012-03-25T05:49:15Z</time>
      </trkpt>
      <trkpt lat="47.61058" lon="-0.49879">
        <ele>15</ele>
        <time>2012-03-25T05:49:17Z</time>
      </trkpt>
      <trkpt lat="47.61047" lon="-0.49887">
        <ele>15</ele>
        <time>2012-03-25T05:49:18Z</time>
      </trkpt>
      <trkpt lat="47.61034" lon="-0.49891">
        <ele>15</ele>
        <time>2012-03-25T05:49:21Z</time>
      </trkpt>
      <trkpt lat="47.61021" lon="-0.49893">
        <ele>15</ele>
        <time>2012-03-25T05:49:22Z</time>
      </trkpt>
      <trkpt lat="47.6101" lon="-0.49892">
        <ele>15.1</ele>
        <time>2012-03-25T05:49:24Z</time>
      </trkpt>
      <trkpt lat="47.60998" lon="-0.49892">
        <ele>15.2</ele>
        <time>2012-03-25T05:49:26Z</time>
      </trkpt>
      <trkpt lat="47.60988" lon="-0.49892">
        <ele>15.3</ele>
        <time>2012-03-25T05:49:29Z</time>
      </trkpt>
      <trkpt lat="47.60974" lon="-0.49892">
        <ele>15.4</ele>
        <time>2012-03-25T05:49:31Z</time>
      </trkpt>
      <trkpt lat="47.60964" lon="-0.49892">
        <ele>15.5</ele>
        <time>2012-03-25T05:49:33Z</time>
      </trkpt>
      <trkpt lat="47.60953" lon="-0.49891">
        <ele>15.5</ele>
        <time>2012-03-25T05:49:36Z</time>
      </trkpt>
      <trkpt lat="47.60944" lon="-0.49892">
        <ele>15.6</ele>
        <time>2012-03-25T05:49:39Z</time>
      </trkpt>
      <trkpt lat="47.60935" lon="-0.49892">
        <ele>15.7</ele>
        <time>2012-03-25T05:49:40Z</time>
      </trkpt>
      <trkpt lat="47.60921" lon="-0.49891">
        <ele>15.9</ele>
        <time>2012-03-25T05:49:43Z</time>
      </trkpt>
      <trkpt lat="47.60908" lon="-0.49892">
        <ele>16.1</ele>
        <time>2012-03-25T05:49:45Z</time>
      </trkpt>
      <trkpt lat="47.60899" lon="-0.49892">
        <ele>16.3</ele>
        <time>2012-03-25T05:49:46Z</time>
      </trkpt>
      <trkpt lat="47.60887" lon="-0.49893">
        <ele>16.4</ele>
        <time>2012-03-25T05:49:48Z</time>
      </trkpt>
      <trkpt lat="47.60878" lon="-0.49892">
        <ele>16.5</ele>
        <time>2012-03-25T05:49:51Z</time>
      </trkpt>
      <trkpt lat="47.60868" lon="-0.49893">
        <ele>16.5</ele>
        <time>2012-03-25T05:49:53Z</time>
      </trkpt>
      <trkpt lat="47.60855" lon="-0.49895">
        <ele>16.6</ele>
        <time>2012-03-25T05:49:54Z</time>
      </trkpt>
      <trkpt lat="47.60842" lon="-0.49896">
        <ele>16.5</ele>
        <time>2012-03-25T05:49:56Z</time>
      </trkpt>
      <trkpt lat="47.60833" lon="-0.49896">
        <ele>16.3</ele>
        <time>2012-03-25T05:49:59Z</time>
      </trkpt>
      <trkpt lat="47.60821" lon="-0.49896">
        <ele>16.1</ele>
        <time>2012-03-25T05:50:01Z</time>
      </trkpt>
      <trkpt lat="47.60809" lon="-0.49896">
        <ele>15.9</ele>
        <time>2012-03-25T05:50:03Z</time>
      </trkpt>
      <trkpt lat="47.60795" lon="-0.49897">
        <ele>15.6</ele>
        <time>2012-03-25T05:50:05Z</time>
      </trkpt>
      <trkpt lat="47.60784" lon="-0.49896">
        <ele>15.4</ele>
        <time>2012-03-25T05:50:07Z</time>
      </trkpt>
      <trkpt lat="47.60773" lon="-0.49897">
        <ele>15.1</ele>
        <time>2012-03-25T05:50:10Z</time>
      </trkpt>
      <trkpt lat="47.60761" lon="-0.49898">
        <ele>14.5</ele>
        <time>2012-03-25T05:50:11Z</time>
      </trkpt>
      <trkpt lat="47.6075" lon="-0.49898">
        <ele>13.8</ele>
        <time>2012-03-25T05:50:13Z</time>
      </trkpt>
      <trkpt lat="47.60739" lon="-0.49898">
        <ele>13.2</ele>
        <time>2012-03-25T05:50:15Z</time>
      </trkpt>
      <trkpt lat="47.60728" lon="-0.49898">
        <ele>12.5</ele>
        <time>2012-03-25T05:50:16Z</time>
      </trkpt>
      <trkpt lat="47.60718" lon="-0.49897">
        <ele>12.2</ele>
        <time>2012-03-25T05:50:18Z</time>
      </trkpt>
      <trkpt lat="47.60707" lon="-0.49898">
        <ele>11.8</ele>
        <time>2012-03-25T05:50:21Z</time>
      </trkpt>
      <trkpt lat="47.60694" lon="-0.49897">
        <ele>11.5</ele>
        <time>2012-03-25T05:50:23Z</time>
      </trkpt>
      <trkpt lat="47.60685" lon="-0.49899">
        <ele>11.5</ele>
        <time>2012-03-25T05:50:24Z</time>
      </trkpt>
      <trkpt lat="47.60674" lon="-0.49899">
        <ele>11.6</ele>
        <time>2012-03-25T05:50:27Z</time>
      </trkpt>
      <trkpt lat="47.60661" lon="-0.499">
        <ele>11.7</ele>
        <time>2012-03-25T05:50:29Z</time>
      </trkpt>
      <trkpt lat="47.60651" lon="-0.499">
        <ele>11.8</ele>
        <time>2012-03-25T05:50:31Z</time>
      </trkpt>
      <trkpt lat="47.6064" lon="-0.49901">
        <ele>12.3</ele>
        <time>2012-03-25T05:50:32Z</time>
      </trkpt>
      <trkpt lat="47.60628" lon="-0.49903">
        <ele>12.7</ele>
        <time>2012-03-25T05:50:34Z</time>
      </trkpt>
      <trkpt lat="47.60616" lon="-0.49904">
        <ele>13.2</ele>
        <time>2012-03-25T05:50:37Z</time>
      </trkpt>
      <trkpt lat="47.60604" lon="-0.49903">
        <ele>13.6</ele>
        <time>2012-03-25T05:50:39Z</time>
      </trkpt>
      <trkpt lat="47.60592" lon="-0.49902">
        <ele>13.5</ele>
        <time>2012-03-25T05:50:40Z</time>
      </trkpt>
      <trkpt lat="47.60581" lon="-0.49897">
        <ele>13.5</ele>
        <time>2012-03-25T05:50:42Z</time>
      </trkpt>
      <trkpt lat="47.60571" lon="-0.49892">
        <ele>13.4</ele>
        <time>2012-03-25T05:50:45Z</time>
      </trkpt>
      <trkpt lat="47.6056" lon="-0.49885">
        <ele>12.8</ele>
        <time>2012-03-25T05:50:47Z</time>
      </trkpt>
      <trkpt lat="47.60549" lon="-0.4988">
        <ele>12.3</ele>
        <time>2012-03-25T05:50:49Z</time>
      </trkpt>
      <trkpt lat="47.60535" lon="-0.49876">
        <ele>11.7</ele>
        <time>2012-03-25T05:50:50Z</time>
      </trkpt>
      <trkpt lat="47.60524" lon="-0.49871">
        <ele>11.2</ele>
        <time>2012-03-25T05:50:53Z</time>
      </trkpt>
      <trkpt lat="47.60511" lon="-0.49866">
        <ele>11</ele>
        <time>2012-03-25T05:50:55Z</time>
      </trkpt>
      <trkpt lat="47.60501" lon="-0.49862">
        <ele>10.8</ele>
        <time>2012-03-25T05:50:57Z</time>
      </trkpt>
      <trkpt lat="47.60491" lon="-0.49858">
        <ele>10.6</ele>
        <time>2012-03-25T05:50:59Z</time>
      </trkpt>
      <trkpt lat="47.6048" lon="-0.49853">
        <ele>10.5</ele>
        <time>2012-03-25T05:51:00Z</time>
      </trkpt>
      <trkpt lat="47.60468" lon="-0.49847">
        <ele>10.8</ele>
        <time>2012-03-25T05:51:02Z</time>
      </trkpt>
      <trkpt lat="47.60456" lon="-0.49842">
        <ele>11.2</ele>
        <time>2012-03-25T05:51:04Z</time>
      </trkpt>
      <trkpt lat="47.60442" lon="-0.49838">
        <ele>11.5</ele>
        <time>2012-03-25T05:51:06Z</time>
      </trkpt>
      <trkpt lat="47.60432" lon="-0.49833">
        <ele>11.9</ele>
        <time>2012-03-25T05:51:09Z</time>
      </trkpt>
      <trkpt lat="47.60423" lon="-0.49829">
        <ele>12.7</ele>
        <time>2012-03-25T05:51:11Z</time>
      </trkpt>
      <trkpt lat="47.60411" lon="-0.49824">
        <ele>13.5</ele>
        <time>2012-03-25T05:51:13Z</time>
      </trkpt>
      <trkpt lat="47.604" lon="-0.49817">
        <ele>14.4</ele>
        <time>2012-03-25T05:51:15Z</time>
      </trkpt>
      <trkpt lat="47.60397" lon="-0.49795">
        <ele>14.8</ele>
        <time>2012-03-25T05:51:18Z</time>
      </trkpt>
      <trkpt lat="47.60397" lon="-0.49779">
        <ele>15.3</ele>
        <time>2012-03-25T05:51:20Z</time>
      </trkpt>
      <trkpt lat="47.60396" lon="-0.49764">
        <ele>15.5</ele>
        <time>2012-03-25T05:51:21Z</time>
      </trkpt>
      <trkpt lat="47.60395" lon="-0.49749">
        <ele>15.8</ele>
        <time>2012-03-25T05:51:24Z</time>
      </trkpt>
      <trkpt lat="47.60394" lon="-0.49732">
        <ele>16.1</ele>
        <time>2012-03-25T05:51:25Z</time>
      </trkpt>
      <trkpt lat="47.60393" lon="-0.49714">
        <ele>16.4</ele>
        <time>2012-03-25T05:51:28Z</time>
      </trkpt>
      <trkpt lat="47.60392" lon="-0.49697">
        <ele>16.6</ele>
        <time>2012-03-25T05:51:29Z</time>
      </trkpt>
      <trkpt lat="47.60392" lon="-0.49677">
        <ele>16.9</ele>
        <time>2012-03-25T05:51:31Z</time>
      </trkpt>
      <trkpt lat="47.60391" lon="-0.49662">
        <ele>16.7</ele>
        <time>2012-03-25T05:51:33Z</time>
      </trkpt>
      <trkpt lat="47.60391" lon="-0.49647">
        <ele>16.5</ele>
        <time>2012-03-25T05:51:35Z</time>
      </trkpt>
      <trkpt lat="47.6039" lon="-0.49632">
        <ele>16.4</ele>
        <time>2012-03-25T05:51:37Z</time>
      </trkpt>
      <trkpt lat="47.60389" lon="-0.49615">
        <ele>16.2</ele>
        <time>2012-03-25T05:51:40Z</time>
      </trkpt>
      <trkpt lat="47.60389" lon="-0.496">
        <ele>15.8</ele>
        <time>2012-03-25T05:51:42Z</time>
      </trkpt>
      <trkpt lat="47.60389" lon="-0.49582">
        <ele>15.6</ele>
        <time>2012-03-25T05:51:44Z</time>
      </trkpt>
      <trkpt lat="47.60389" lon="-0.49567">
        <ele>15.5</ele>
        <time>2012-03-25T05:51:45Z</time>
      </trkpt>
      <trkpt lat="47.60389" lon="-0.49551">
        <ele>15.3</ele>
        <time>2012-03-25T05:51:47Z</time>
      </trkpt>
      <trkpt lat="47.60388" lon="-0.49537">
        <ele>15.1</ele>
        <time>2012-03-25T05:51:49Z</time>
      </trkpt>
      <trkpt lat="47.60388" lon="-0.4952">
        <ele>15</ele>
        <time>2012-03-25T05:51:51Z</time>
      </trkpt>
      <trkpt lat="47.60388" lon="-0.49502">
        <ele>14.9</ele>
        <time>2012-03-25T05:51:54Z</time>
      </trkpt>
      <trkpt lat="47.60388" lon="-0.49489">
        <ele>14.8</ele>
        <time>2012-03-25T05:51:55Z</time>
      </trkpt>
      <trkpt lat="47.60387" lon="-0.49473">
        <ele>14.7</ele>
        <time>2012-03-25T05:51:58Z</time>
      </trkpt>
      <trkpt lat="47.60387" lon="-0.49458">
        <ele>14.6</ele>
        <time>2012-03-25T05:51:59Z</time>
      </trkpt>
      <trkpt lat="47.60387" lon="-0.49444">
        <ele>14.5</ele>
        <time>2012-03-25T05:52:01Z</time>
      </trkpt>
      <trkpt lat="47.60387" lon="-0.49429">
        <ele>14.7</ele>
        <time>2012-03-25T05:52:04Z</time>
      </trkpt>
      <trkpt lat="47.60386" lon="-0.49414">
        <ele>14.9</ele>
        <time>2012-03-25T05:52:06Z</time>
      </trkpt>
      <trkpt lat="47.60387" lon="-0.49398">
        <ele>15.1</ele>
        <time>2012-03-25T05:52:07Z</time>
      </trkpt>
      <trkpt lat="47.60388" lon="-0.49383">
        <ele>15.3</ele>
        <time>2012-03-25T05:52:10Z</time>
      </trkpt>
      <trkpt lat="47.6039" lon="-0.49369">
        <ele>15.5</ele>
        <time>2012-03-25T05:52:12Z</time>
      </trkpt>
      <trkpt lat="47.60391" lon="-0.49352">
        <ele>15.5</ele>
        <time>2012-03-25T05:52:14Z</time>
      </trkpt>
      <trkpt lat="47.60392" lon="-0.49336">
        <ele>15.6</ele>
        <time>2012-03-25T05:52:16Z</time>
      </trkpt>
      <trkpt lat="47.60394" lon="-0.49323">
        <ele>15.7</ele>
        <time>2012-03-25T05:52:17Z</time>
      </trkpt>
      <trkpt lat="47.60396" lon="-0.49308">
        <ele>15.8</ele>
        <time>2012-03-25T05:52:19Z</time>
      </trkpt>
      <trkpt lat="47.60399" lon="-0.49292">
        <ele>15.9</ele>
        <time>2012-03-25T05:52:22Z</time>
      </trkpt>
      <trkpt lat="47.60401" lon="-0.49276">
        <ele>16</ele>
        <time>2012-03-25T05:52:24Z</time>
      </trkpt>
      <trkpt lat="47.60404" lon="-0.49257">
        <ele>16</ele>
        <time>2012-03-25T05:52:26Z</time>
      </trkpt>
      <trkpt lat="47.60406" lon="-0.49242">
        <ele>16</ele>
        <time>2012-03-25T05:52:27Z</time>
      </trkpt>
      <trkpt lat="47.60408" lon="-0.49229">
        <ele>16</ele>
        <time>2012-03-25T05:52:29Z</time>
      </trkpt>
      <trkpt lat="47.6041" lon="-0.49213">
        <ele>16</ele>
        <time>2012-03-25T05:52:32Z</time>
      </trkpt>
      <trkpt lat="47.60412" lon="-0.49195">
        <ele>15.9</ele>
        <time>2012-03-25T05:52:34Z</time>
      </trkpt>
      <trkpt lat="47.60414" lon="-0.49179">
        <ele>15.8</ele>
        <time>2012-03-25T05:52:35Z</time>
      </trkpt>
      <trkpt lat="47.60416" lon="-0.49165">
        <ele>15.7</ele>
        <time>2012-03-25T05:52:38Z</time>
      </trkpt>
      <trkpt lat="47.60419" lon="-0.49145">
        <ele>15.6</ele>
        <time>2012-03-25T05:52:40Z</time>
      </trkpt>
      <trkpt lat="47.60421" lon="-0.4913">
        <ele>15.5</ele>
        <time>2012-03-25T05:52:41Z</time>
      </trkpt>
      <trkpt lat="47.60425" lon="-0.49114">
        <ele>15.4</ele>
        <time>2012-03-25T05:52:43Z</time>
      </trkpt>
      <trkpt lat="47.60429" lon="-0.49098">
        <ele>15.2</ele>
        <time>2012-03-25T05:52:45Z</time>
      </trkpt>
      <trkpt lat="47.60432" lon="-0.4908">
        <ele>15</ele>
        <time>2012-03-25T05:52:47Z</time>
      </trkpt>
      <trkpt lat="47.60434" lon="-0.49064">
        <ele>14.8</ele>
        <time>2012-03-25T05:52:49Z</time>
      </trkpt>
      <trkpt lat="47.60436" lon="-0.49049">
        <ele>14.6</ele>
        <time>2012-03-25T05:52:52Z</time>
      </trkpt>
      <trkpt lat="47.60438" lon="-0.49032">
        <ele>14.5</ele>
        <time>2012-03-25T05:52:54Z</time>
      </trkpt>
      <trkpt lat="47.6044" lon="-0.49016">
        <ele>14.5</ele>
        <time>2012-03-25T05:52:55Z</time>
      </trkpt>
      <trkpt lat="47.60443" lon="-0.49">
        <ele>14.5</ele>
        <time>2012-03-25T05:52:57Z</time>
      </trkpt>
      <trkpt lat="47.60446" lon="-0.48983">
        <ele>14.5</ele>
        <time>2012-03-25T05:53:00Z</time>
      </trkpt>
      <trkpt lat="47.60448" lon="-0.48964">
        <ele>14.4</ele>
        <time>2012-03-25T05:53:01Z</time>
      </trkpt>
      <trkpt lat="47.6045" lon="-0.48944">
        <ele>14.2</ele>
        <time>2012-03-25T05:53:04Z</time>
      </trkpt>
      <trkpt lat="47.60453" lon="-0.48926">
        <ele>14.4</ele>
        <time>2012-03-25T05:53:06Z</time>
      </trkpt>
      <trkpt lat="47.60455" lon="-0.4891">
        <ele>14.5</ele>
        <time>2012-03-25T05:53:09Z</time>
      </trkpt>
      <trkpt lat="47.60457" lon="-0.48896">
        <ele>14.7</ele>
        <time>2012-03-25T05:53:11Z</time>
      </trkpt>
      <trkpt lat="47.6046" lon="-0.48879">
        <ele>14.9</ele>
        <time>2012-03-25T05:53:13Z</time>
      </trkpt>
      <trkpt lat="47.60462" lon="-0.48864">
        <ele>15.1</ele>
        <time>2012-03-25T05:53:15Z</time>
      </trkpt>
      <trkpt lat="47.60464" lon="-0.4885">
        <ele>15.3</ele>
        <time>2012-03-25T05:53:16Z</time>
      </trkpt>
      <trkpt lat="47.60466" lon="-0.48832">
        <ele>15.5</ele>
        <time>2012-03-25T05:53:19Z</time>
      </trkpt>
      <trkpt lat="47.60468" lon="-0.48814">
        <ele>15.6</ele>
        <time>2012-03-25T05:53:21Z</time>
      </trkpt>
      <trkpt lat="47.6047" lon="-0.48799">
        <ele>15.8</ele>
        <time>2012-03-25T05:53:23Z</time>
      </trkpt>
      <trkpt lat="47.60473" lon="-0.48785">
        <ele>16.2</ele>
        <time>2012-03-25T05:53:25Z</time>
      </trkpt>
      <trkpt lat="47.60475" lon="-0.48771">
        <ele>16.5</ele>
        <time>2012-03-25T05:53:27Z</time>
      </trkpt>
      <trkpt lat="47.60477" lon="-0.48756">
        <ele>16.5</ele>
        <time>2012-03-25T05:53:29Z</time>
      </trkpt>
      <trkpt lat="47.6048" lon="-0.48739">
        <ele>16.5</ele>
        <time>2012-03-25T05:53:31Z</time>
      </trkpt>
      <trkpt lat="47.60482" lon="-0.48719">
        <ele>16.5</ele>
        <time>2012-03-25T05:53:33Z</time>
      </trkpt>
      <trkpt lat="47.60484" lon="-0.48703">
        <ele>16.5</ele>
        <time>2012-03-25T05:53:36Z</time>
      </trkpt>
      <trkpt lat="47.60486" lon="-0.48688">
        <ele>16.3</ele>
        <time>2012-03-25T05:53:38Z</time>
      </trkpt>
      <trkpt lat="47.60488" lon="-0.48672">
        <ele>16</ele>
        <time>2012-03-25T05:53:40Z</time>
      </trkpt>
      <trkpt lat="47.6049" lon="-0.48657">
        <ele>15.7</ele>
        <time>2012-03-25T05:53:42Z</time>
      </trkpt>
      <trkpt lat="47.60492" lon="-0.48641">
        <ele>15.5</ele>
        <time>2012-03-25T05:53:44Z</time>
      </trkpt>
      <trkpt lat="47.60495" lon="-0.48624">
        <ele>15.2</ele>
        <time>2012-03-25T05:53:46Z</time>
      </trkpt>
      <trkpt lat="47.60498" lon="-0.48604">
        <ele>15</ele>
        <time>2012-03-25T05:53:48Z</time>
      </trkpt>
      <trkpt lat="47.60501" lon="-0.48587">
        <ele>14.9</ele>
        <time>2012-03-25T05:53:50Z</time>
      </trkpt>
      <trkpt lat="47.60502" lon="-0.48572">
        <ele>14.8</ele>
        <time>2012-03-25T05:53:53Z</time>
      </trkpt>
      <trkpt lat="47.60504" lon="-0.48557">
        <ele>14.7</ele>
        <time>2012-03-25T05:53:54Z</time>
      </trkpt>
      <trkpt lat="47.60507" lon="-0.48541">
        <ele>14.6</ele>
        <time>2012-03-25T05:53:56Z</time>
      </trkpt>
      <trkpt lat="47.60509" lon="-0.48527">
        <ele>14.5</ele>
        <time>2012-03-25T05:53:59Z</time>
      </trkpt>
      <trkpt lat="47.60512" lon="-0.48513">
        <ele>14.7</ele>
        <time>2012-03-25T05:54:01Z</time>
      </trkpt>
      <trkpt lat="47.60514" lon="-0.48497">
        <ele>14.9</ele>
        <time>2012-03-25T05:54:03Z</time>
      </trkpt>
      <trkpt lat="47.60515" lon="-0.48483">
        <ele>15.1</ele>
        <time>2012-03-25T05:54:05Z</time>
      </trkpt>
      <trkpt lat="47.60516" lon="-0.48469">
        <ele>15.3</ele>
        <time>2012-03-25T05:54:07Z</time>
      </trkpt>
      <trkpt lat="47.60516" lon="-0.48454">
        <ele>15.5</ele>
        <time>2012-03-25T05:54:09Z</time>
      </trkpt>
      <trkpt lat="47.60515" lon="-0.48439">
        <ele>15.5</ele>
        <time>2012-03-25T05:54:11Z</time>
      </trkpt>
      <trkpt lat="47.60514" lon="-0.48421">
        <ele>15.6</ele>
        <time>2012-03-25T05:54:13Z</time>
      </trkpt>
      <trkpt lat="47.60514" lon="-0.48406">
        <ele>15.7</ele>
        <time>2012-03-25T05:54:15Z</time>
      </trkpt>
      <trkpt lat="47.60512" lon="-0.48392">
        <ele>15.8</ele>
        <time>2012-03-25T05:54:17Z</time>
      </trkpt>
      <trkpt lat="47.60512" lon="-0.48372">
        <ele>16</ele>
        <time>2012-03-25T05:54:20Z</time>
      </trkpt>
      <trkpt lat="47.6051" lon="-0.48351">
        <ele>16.2</ele>
        <time>2012-03-25T05:54:24Z</time>
      </trkpt>
      <trkpt lat="47.60509" lon="-0.48331">
        <ele>16.3</ele>
        <time>2012-03-25T05:54:27Z</time>
      </trkpt>
      <trkpt lat="47.60509" lon="-0.48313">
        <ele>16.4</ele>
        <time>2012-03-25T05:54:29Z</time>
      </trkpt>
      <trkpt lat="47.60509" lon="-0.483">
        <ele>16.5</ele>
        <time>2012-03-25T05:54:32Z</time>
      </trkpt>
      <trkpt lat="47.60508" lon="-0.48286">
        <ele>16.5</ele>
        <time>2012-03-25T05:54:34Z</time>
      </trkpt>
      <trkpt lat="47.60508" lon="-0.4827">
        <ele>16.7</ele>
        <time>2012-03-25T05:54:37Z</time>
      </trkpt>
      <trkpt lat="47.60507" lon="-0.48251">
        <ele>16.9</ele>
        <time>2012-03-25T05:54:40Z</time>
      </trkpt>
      <trkpt lat="47.60507" lon="-0.48238">
        <ele>17.1</ele>
        <time>2012-03-25T05:54:43Z</time>
      </trkpt>
      <trkpt lat="47.60506" lon="-0.48219">
        <ele>17.3</ele>
        <time>2012-03-25T05:54:45Z</time>
      </trkpt>
      <trkpt lat="47.60505" lon="-0.48204">
        <ele>17.5</ele>
        <time>2012-03-25T05:54:48Z</time>
      </trkpt>
      <trkpt lat="47.60507" lon="-0.48189">
        <ele>17.5</ele>
        <time>2012-03-25T05:54:51Z</time>
      </trkpt>
      <trkpt lat="47.6051" lon="-0.48173">
        <ele>17.6</ele>
        <time>2012-03-25T05:54:54Z</time>
      </trkpt>
      <trkpt lat="47.60512" lon="-0.48158">
        <ele>17.7</ele>
        <time>2012-03-25T05:54:59Z</time>
      </trkpt>
      <trkpt lat="47.60512" lon="-0.48174">
        <ele>17.8</ele>
        <time>2012-03-25T05:55:10Z</time>
      </trkpt>
      <trkpt lat="47.60507" lon="-0.48186">
        <ele>18.1</ele>
        <time>2012-03-25T05:55:14Z</time>
      </trkpt>
      <trkpt lat="47.60512" lon="-0.48174">
        <ele>18.4</ele>
        <time>2012-03-25T05:55:32Z</time>
      </trkpt>
      <trkpt lat="47.60513" lon="-0.48156">
        <ele>18.5</ele>
        <time>2012-03-25T05:55:36Z</time>
      </trkpt>
      <trkpt lat="47.6051" lon="-0.4814">
        <ele>18.7</ele>
        <time>2012-03-25T05:55:41Z</time>
      </trkpt>
      <trkpt lat="47.60507" lon="-0.48123">
        <ele>19.2</ele>
        <time>2012-03-25T05:55:44Z</time>
      </trkpt>
      <trkpt lat="47.60505" lon="-0.48105">
        <ele>19.6</ele>
        <time>2012-03-25T05:55:48Z</time>
      </trkpt>
      <trkpt lat="47.60502" lon="-0.48088">
        <ele>20.1</ele>
        <time>2012-03-25T05:55:53Z</time>
      </trkpt>
      <trkpt lat="47.60502" lon="-0.48072">
        <ele>20.5</ele>
        <time>2012-03-25T05:55:56Z</time>
      </trkpt>
      <trkpt lat="47.60503" lon="-0.48055">
        <ele>21</ele>
        <time>2012-03-25T05:56:01Z</time>
      </trkpt>
      <trkpt lat="47.60503" lon="-0.48039">
        <ele>21.5</ele>
        <time>2012-03-25T05:56:04Z</time>
      </trkpt>
      <trkpt lat="47.60504" lon="-0.48023">
        <ele>22.2</ele>
        <time>2012-03-25T05:56:09Z</time>
      </trkpt>
      <trkpt lat="47.60504" lon="-0.48006">
        <ele>22.7</ele>
        <time>2012-03-25T05:56:12Z</time>
      </trkpt>
      <trkpt lat="47.60504" lon="-0.4799">
        <ele>23.3</ele>
        <time>2012-03-25T05:56:16Z</time>
      </trkpt>
      <trkpt lat="47.60505" lon="-0.47973">
        <ele>23.8</ele>
        <time>2012-03-25T05:56:20Z</time>
      </trkpt>
      <trkpt lat="47.60507" lon="-0.47958">
        <ele>24.4</ele>
        <time>2012-03-25T05:56:25Z</time>
      </trkpt>
      <trkpt lat="47.60508" lon="-0.47942">
        <ele>24.6</ele>
        <time>2012-03-25T05:56:28Z</time>
      </trkpt>
      <trkpt lat="47.60508" lon="-0.47927">
        <ele>25</ele>
        <time>2012-03-25T05:56:33Z</time>
      </trkpt>
      <trkpt lat="47.60512" lon="-0.47911">
        <ele>25.4</ele>
        <time>2012-03-25T05:56:36Z</time>
      </trkpt>
      <trkpt lat="47.60517" lon="-0.47898">
        <ele>25.7</ele>
        <time>2012-03-25T05:56:40Z</time>
      </trkpt>
      <trkpt lat="47.60521" lon="-0.47886">
        <ele>26.1</ele>
        <time>2012-03-25T05:56:45Z</time>
      </trkpt>
      <trkpt lat="47.60526" lon="-0.47874">
        <ele>26.5</ele>
        <time>2012-03-25T05:56:47Z</time>
      </trkpt>
      <trkpt lat="47.6053" lon="-0.47859">
        <ele>26.5</ele>
        <time>2012-03-25T05:56:51Z</time>
      </trkpt>
      <trkpt lat="47.60533" lon="-0.47845">
        <ele>26.7</ele>
        <time>2012-03-25T05:56:54Z</time>
      </trkpt>
      <trkpt lat="47.60535" lon="-0.4783">
        <ele>26.9</ele>
        <time>2012-03-25T05:56:58Z</time>
      </trkpt>
      <trkpt lat="47.60536" lon="-0.47812">
        <ele>27.1</ele>
        <time>2012-03-25T05:57:02Z</time>
      </trkpt>
      <trkpt lat="47.60537" lon="-0.47798">
        <ele>27.3</ele>
        <time>2012-03-25T05:57:04Z</time>
      </trkpt>
      <trkpt lat="47.60537" lon="-0.47784">
        <ele>27.5</ele>
        <time>2012-03-25T05:57:07Z</time>
      </trkpt>
      <trkpt lat="47.60538" lon="-0.47771">
        <ele>27.5</ele>
        <time>2012-03-25T05:57:11Z</time>
      </trkpt>
      <trkpt lat="47.60539" lon="-0.47756">
        <ele>27.6</ele>
        <time>2012-03-25T05:57:16Z</time>
      </trkpt>
      <trkpt lat="47.60539" lon="-0.47742">
        <ele>27.7</ele>
        <time>2012-03-25T05:57:21Z</time>
      </trkpt>
      <trkpt lat="47.60538" lon="-0.47726">
        <ele>27.8</ele>
        <time>2012-03-25T05:57:26Z</time>
      </trkpt>
      <trkpt lat="47.60539" lon="-0.47712">
        <ele>27.8</ele>
        <time>2012-03-25T05:57:33Z</time>
      </trkpt>
      <trkpt lat="47.60542" lon="-0.47724">
        <ele>27.8</ele>
        <time>2012-03-25T05:57:41Z</time>
      </trkpt>
      <trkpt lat="47.6054" lon="-0.47737">
        <ele>27.7</ele>
        <time>2012-03-25T05:57:45Z</time>
      </trkpt>
      <trkpt lat="47.60539" lon="-0.47754">
        <ele>27.6</ele>
        <time>2012-03-25T05:57:47Z</time>
      </trkpt>
      <trkpt lat="47.60539" lon="-0.47772">
        <ele>27.5</ele>
        <time>2012-03-25T05:57:51Z</time>
      </trkpt>
      <trkpt lat="47.60539" lon="-0.47788">
        <ele>27.5</ele>
        <time>2012-03-25T05:57:53Z</time>
      </trkpt>
      <trkpt lat="47.60538" lon="-0.47804">
        <ele>27.3</ele>
        <time>2012-03-25T05:57:57Z</time>
      </trkpt>
      <trkpt lat="47.60536" lon="-0.47821">
        <ele>27.1</ele>
        <time>2012-03-25T05:57:59Z</time>
      </trkpt>
      <trkpt lat="47.60535" lon="-0.47835">
        <ele>26.9</ele>
        <time>2012-03-25T05:58:01Z</time>
      </trkpt>
      <trkpt lat="47.60535" lon="-0.47849">
        <ele>26.7</ele>
        <time>2012-03-25T05:58:03Z</time>
      </trkpt>
      <trkpt lat="47.60532" lon="-0.47862">
        <ele>26.5</ele>
        <time>2012-03-25T05:58:06Z</time>
      </trkpt>
      <trkpt lat="47.60527" lon="-0.47879">
        <ele>26.5</ele>
        <time>2012-03-25T05:58:08Z</time>
      </trkpt>
      <trkpt lat="47.60521" lon="-0.47891">
        <ele>26.1</ele>
        <time>2012-03-25T05:58:10Z</time>
      </trkpt>
      <trkpt lat="47.60517" lon="-0.47903">
        <ele>25.7</ele>
        <time>2012-03-25T05:58:12Z</time>
      </trkpt>
      <trkpt lat="47.60512" lon="-0.47915">
        <ele>25.4</ele>
        <time>2012-03-25T05:58:14Z</time>
      </trkpt>
      <trkpt lat="47.60509" lon="-0.47929">
        <ele>25</ele>
        <time>2012-03-25T05:58:16Z</time>
      </trkpt>
      <trkpt lat="47.60507" lon="-0.47946">
        <ele>24.4</ele>
        <time>2012-03-25T05:58:18Z</time>
      </trkpt>
      <trkpt lat="47.60506" lon="-0.47966">
        <ele>23.8</ele>
        <time>2012-03-25T05:58:20Z</time>
      </trkpt>
      <trkpt lat="47.60506" lon="-0.47986">
        <ele>23.3</ele>
        <time>2012-03-25T05:58:23Z</time>
      </trkpt>
      <trkpt lat="47.60505" lon="-0.48008">
        <ele>22.5</ele>
        <time>2012-03-25T05:58:25Z</time>
      </trkpt>
      <trkpt lat="47.60504" lon="-0.4803">
        <ele>21.8</ele>
        <time>2012-03-25T05:58:27Z</time>
      </trkpt>
      <trkpt lat="47.60502" lon="-0.48054">
        <ele>21.1</ele>
        <time>2012-03-25T05:58:29Z</time>
      </trkpt>
      <trkpt lat="47.60501" lon="-0.48078">
        <ele>20.4</ele>
        <time>2012-03-25T05:58:31Z</time>
      </trkpt>
      <trkpt lat="47.60503" lon="-0.48101">
        <ele>19.9</ele>
        <time>2012-03-25T05:58:32Z</time>
      </trkpt>
      <trkpt lat="47.60506" lon="-0.48124">
        <ele>19.4</ele>
        <time>2012-03-25T05:58:34Z</time>
      </trkpt>
      <trkpt lat="47.60509" lon="-0.4814">
        <ele>18.8</ele>
        <time>2012-03-25T05:58:37Z</time>
      </trkpt>
      <trkpt lat="47.60514" lon="-0.48158">
        <ele>18.3</ele>
        <time>2012-03-25T05:58:39Z</time>
      </trkpt>
      <trkpt lat="47.60514" lon="-0.48174">
        <ele>18</ele>
        <time>2012-03-25T05:58:44Z</time>
      </trkpt>
      <trkpt lat="47.60508" lon="-0.48186">
        <ele>17.7</ele>
        <time>2012-03-25T05:58:46Z</time>
      </trkpt>
      <trkpt lat="47.60506" lon="-0.48205">
        <ele>17.4</ele>
        <time>2012-03-25T05:58:49Z</time>
      </trkpt>
      <trkpt lat="47.60507" lon="-0.48224">
        <ele>17.2</ele>
        <time>2012-03-25T05:58:52Z</time>
      </trkpt>
      <trkpt lat="47.60507" lon="-0.48242">
        <ele>17</ele>
        <time>2012-03-25T05:58:55Z</time>
      </trkpt>
      <trkpt lat="47.60508" lon="-0.48257">
        <ele>16.8</ele>
        <time>2012-03-25T05:58:57Z</time>
      </trkpt>
      <trkpt lat="47.60509" lon="-0.48272">
        <ele>16.6</ele>
        <time>2012-03-25T05:58:59Z</time>
      </trkpt>
      <trkpt lat="47.60509" lon="-0.48291">
        <ele>16.5</ele>
        <time>2012-03-25T05:59:03Z</time>
      </trkpt>
      <trkpt lat="47.6051" lon="-0.48306">
        <ele>16.4</ele>
        <time>2012-03-25T05:59:04Z</time>
      </trkpt>
      <trkpt lat="47.60511" lon="-0.48319">
        <ele>16.3</ele>
        <time>2012-03-25T05:59:06Z</time>
      </trkpt>
      <trkpt lat="47.60512" lon="-0.48336">
        <ele>16.2</ele>
        <time>2012-03-25T05:59:09Z</time>
      </trkpt>
      <trkpt lat="47.60512" lon="-0.48355">
        <ele>16.1</ele>
        <time>2012-03-25T05:59:11Z</time>
      </trkpt>
      <trkpt lat="47.60513" lon="-0.4837">
        <ele>16</ele>
        <time>2012-03-25T05:59:13Z</time>
      </trkpt>
      <trkpt lat="47.60513" lon="-0.48384">
        <ele>15.9</ele>
        <time>2012-03-25T05:59:15Z</time>
      </trkpt>
      <trkpt lat="47.60513" lon="-0.48402">
        <ele>15.8</ele>
        <time>2012-03-25T05:59:17Z</time>
      </trkpt>
      <trkpt lat="47.60514" lon="-0.48416">
        <ele>15.7</ele>
        <time>2012-03-25T05:59:19Z</time>
      </trkpt>
      <trkpt lat="47.60515" lon="-0.48433">
        <ele>15.6</ele>
        <time>2012-03-25T05:59:21Z</time>
      </trkpt>
      <trkpt lat="47.60515" lon="-0.48448">
        <ele>15.5</ele>
        <time>2012-03-25T05:59:24Z</time>
      </trkpt>
      <trkpt lat="47.60515" lon="-0.48466">
        <ele>15.4</ele>
        <time>2012-03-25T05:59:26Z</time>
      </trkpt>
      <trkpt lat="47.60515" lon="-0.48481">
        <ele>15.2</ele>
        <time>2012-03-25T05:59:28Z</time>
      </trkpt>
      <trkpt lat="47.60515" lon="-0.48497">
        <ele>15</ele>
        <time>2012-03-25T05:59:30Z</time>
      </trkpt>
      <trkpt lat="47.60513" lon="-0.48516">
        <ele>14.8</ele>
        <time>2012-03-25T05:59:31Z</time>
      </trkpt>
      <trkpt lat="47.60511" lon="-0.48531">
        <ele>14.6</ele>
        <time>2012-03-25T05:59:33Z</time>
      </trkpt>
      <trkpt lat="47.60509" lon="-0.48547">
        <ele>14.6</ele>
        <time>2012-03-25T05:59:36Z</time>
      </trkpt>
      <trkpt lat="47.60506" lon="-0.48564">
        <ele>14.7</ele>
        <time>2012-03-25T05:59:38Z</time>
      </trkpt>
      <trkpt lat="47.60504" lon="-0.48582">
        <ele>14.8</ele>
        <time>2012-03-25T05:59:40Z</time>
      </trkpt>
      <trkpt lat="47.60502" lon="-0.48598">
        <ele>14.9</ele>
        <time>2012-03-25T05:59:41Z</time>
      </trkpt>
      <trkpt lat="47.605" lon="-0.48614">
        <ele>15.1</ele>
        <time>2012-03-25T05:59:43Z</time>
      </trkpt>
      <trkpt lat="47.60497" lon="-0.48631">
        <ele>15.3</ele>
        <time>2012-03-25T05:59:45Z</time>
      </trkpt>
      <trkpt lat="47.60494" lon="-0.48648">
        <ele>15.5</ele>
        <time>2012-03-25T05:59:47Z</time>
      </trkpt>
      <trkpt lat="47.6049" lon="-0.48663">
        <ele>15.8</ele>
        <time>2012-03-25T05:59:49Z</time>
      </trkpt>
      <trkpt lat="47.60488" lon="-0.48682">
        <ele>16.1</ele>
        <time>2012-03-25T05:59:52Z</time>
      </trkpt>
      <trkpt lat="47.60486" lon="-0.48699">
        <ele>16.4</ele>
        <time>2012-03-25T05:59:55Z</time>
      </trkpt>
      <trkpt lat="47.60484" lon="-0.48714">
        <ele>16.5</ele>
        <time>2012-03-25T05:59:57Z</time>
      </trkpt>
      <trkpt lat="47.60482" lon="-0.4873">
        <ele>16.5</ele>
        <time>2012-03-25T05:59:59Z</time>
      </trkpt>
      <trkpt lat="47.6048" lon="-0.48748">
        <ele>16.5</ele>
        <time>2012-03-25T06:00:02Z</time>
      </trkpt>
      <trkpt lat="47.60479" lon="-0.48762">
        <ele>16.5</ele>
        <time>2012-03-25T06:00:04Z</time>
      </trkpt>
      <trkpt lat="47.60477" lon="-0.48776">
        <ele>16.5</ele>
        <time>2012-03-25T06:00:06Z</time>
      </trkpt>
      <trkpt lat="47.60474" lon="-0.48792">
        <ele>16.2</ele>
        <time>2012-03-25T06:00:09Z</time>
      </trkpt>
      <trkpt lat="47.60471" lon="-0.48807">
        <ele>16</ele>
        <time>2012-03-25T06:00:10Z</time>
      </trkpt>
      <trkpt lat="47.60467" lon="-0.48825">
        <ele>15.8</ele>
        <time>2012-03-25T06:00:12Z</time>
      </trkpt>
      <trkpt lat="47.60465" lon="-0.4884">
        <ele>15.6</ele>
        <time>2012-03-25T06:00:14Z</time>
      </trkpt>
      <trkpt lat="47.60463" lon="-0.48856">
        <ele>15.5</ele>
        <time>2012-03-25T06:00:16Z</time>
      </trkpt>
      <trkpt lat="47.60461" lon="-0.48873">
        <ele>15.2</ele>
        <time>2012-03-25T06:00:18Z</time>
      </trkpt>
      <trkpt lat="47.60458" lon="-0.48893">
        <ele>15</ele>
        <time>2012-03-25T06:00:22Z</time>
      </trkpt>
      <trkpt lat="47.60455" lon="-0.48912">
        <ele>14.8</ele>
        <time>2012-03-25T06:00:24Z</time>
      </trkpt>
      <trkpt lat="47.60452" lon="-0.4893">
        <ele>14.6</ele>
        <time>2012-03-25T06:00:25Z</time>
      </trkpt>
      <trkpt lat="47.60449" lon="-0.48946">
        <ele>14.5</ele>
        <time>2012-03-25T06:00:27Z</time>
      </trkpt>
      <trkpt lat="47.60447" lon="-0.48962">
        <ele>14.3</ele>
        <time>2012-03-25T06:00:30Z</time>
      </trkpt>
      <trkpt lat="47.60445" lon="-0.48977">
        <ele>14.5</ele>
        <time>2012-03-25T06:00:32Z</time>
      </trkpt>
      <trkpt lat="47.60443" lon="-0.48991">
        <ele>14.5</ele>
        <time>2012-03-25T06:00:34Z</time>
      </trkpt>
      <trkpt lat="47.60441" lon="-0.49007">
        <ele>14.5</ele>
        <time>2012-03-25T06:00:35Z</time>
      </trkpt>
      <trkpt lat="47.60438" lon="-0.49022">
        <ele>14.5</ele>
        <time>2012-03-25T06:00:38Z</time>
      </trkpt>
      <trkpt lat="47.60436" lon="-0.49039">
        <ele>14.5</ele>
        <time>2012-03-25T06:00:41Z</time>
      </trkpt>
      <trkpt lat="47.60435" lon="-0.49055">
        <ele>14.6</ele>
        <time>2012-03-25T06:00:43Z</time>
      </trkpt>
      <trkpt lat="47.60433" lon="-0.49069">
        <ele>14.8</ele>
        <time>2012-03-25T06:00:45Z</time>
      </trkpt>
      <trkpt lat="47.6043" lon="-0.49083">
        <ele>15</ele>
        <time>2012-03-25T06:00:47Z</time>
      </trkpt>
      <trkpt lat="47.60428" lon="-0.49099">
        <ele>15.2</ele>
        <time>2012-03-25T06:00:49Z</time>
      </trkpt>
      <trkpt lat="47.60425" lon="-0.49114">
        <ele>15.4</ele>
        <time>2012-03-25T06:00:51Z</time>
      </trkpt>
      <trkpt lat="47.60422" lon="-0.49136">
        <ele>15.5</ele>
        <time>2012-03-25T06:00:55Z</time>
      </trkpt>
      <trkpt lat="47.60419" lon="-0.49154">
        <ele>15.6</ele>
        <time>2012-03-25T06:00:56Z</time>
      </trkpt>
      <trkpt lat="47.60417" lon="-0.49172">
        <ele>15.7</ele>
        <time>2012-03-25T06:00:58Z</time>
      </trkpt>
      <trkpt lat="47.60415" lon="-0.49186">
        <ele>15.8</ele>
        <time>2012-03-25T06:01:01Z</time>
      </trkpt>
      <trkpt lat="47.60412" lon="-0.49203">
        <ele>15.9</ele>
        <time>2012-03-25T06:01:03Z</time>
      </trkpt>
      <trkpt lat="47.6041" lon="-0.49219">
        <ele>16</ele>
        <time>2012-03-25T06:01:04Z</time>
      </trkpt>
      <trkpt lat="47.60409" lon="-0.49234">
        <ele>16</ele>
        <time>2012-03-25T06:01:06Z</time>
      </trkpt>
      <trkpt lat="47.60404" lon="-0.4925">
        <ele>16</ele>
        <time>2012-03-25T06:01:10Z</time>
      </trkpt>
      <trkpt lat="47.60401" lon="-0.49264">
        <ele>16</ele>
        <time>2012-03-25T06:01:12Z</time>
      </trkpt>
      <trkpt lat="47.604" lon="-0.49279">
        <ele>16</ele>
        <time>2012-03-25T06:01:17Z</time>
      </trkpt>
      <trkpt lat="47.60399" lon="-0.49295">
        <ele>16</ele>
        <time>2012-03-25T06:01:21Z</time>
      </trkpt>
      <trkpt lat="47.60396" lon="-0.49307">
        <ele>16</ele>
        <time>2012-03-25T06:01:28Z</time>
      </trkpt>
      <trkpt lat="47.60385" lon="-0.49301">
        <ele>16</ele>
        <time>2012-03-25T06:01:39Z</time>
      </trkpt>
      <trkpt lat="47.60374" lon="-0.49299">
        <ele>16</ele>
        <time>2012-03-25T06:01:43Z</time>
      </trkpt>
      <trkpt lat="47.60364" lon="-0.49302">
        <ele>16</ele>
        <time>2012-03-25T06:01:47Z</time>
      </trkpt>
      <trkpt lat="47.60354" lon="-0.49307">
        <ele>16</ele>
        <time>2012-03-25T06:01:49Z</time>
      </trkpt>
      <trkpt lat="47.60343" lon="-0.49311">
        <ele>15.9</ele>
        <time>2012-03-25T06:01:53Z</time>
      </trkpt>
      <trkpt lat="47.60332" lon="-0.49315">
        <ele>15.8</ele>
        <time>2012-03-25T06:01:55Z</time>
      </trkpt>
      <trkpt lat="47.60322" lon="-0.49315">
        <ele>15.7</ele>
        <time>2012-03-25T06:01:58Z</time>
      </trkpt>
      <trkpt lat="47.60312" lon="-0.49318">
        <ele>15.6</ele>
        <time>2012-03-25T06:02:03Z</time>
      </trkpt>
      <trkpt lat="47.60299" lon="-0.49321">
        <ele>15.5</ele>
        <time>2012-03-25T06:02:04Z</time>
      </trkpt>
      <trkpt lat="47.60285" lon="-0.49324">
        <ele>15.5</ele>
        <time>2012-03-25T06:02:07Z</time>
      </trkpt>
      <trkpt lat="47.60274" lon="-0.49327">
        <ele>15.4</ele>
        <time>2012-03-25T06:02:11Z</time>
      </trkpt>
      <trkpt lat="47.60265" lon="-0.4933">
        <ele>15.3</ele>
        <time>2012-03-25T06:02:13Z</time>
      </trkpt>
      <trkpt lat="47.60254" lon="-0.49335">
        <ele>15.1</ele>
        <time>2012-03-25T06:02:17Z</time>
      </trkpt>
      <trkpt lat="47.60245" lon="-0.49343">
        <ele>14.9</ele>
        <time>2012-03-25T06:02:21Z</time>
      </trkpt>
      <trkpt lat="47.60236" lon="-0.4935">
        <ele>14.7</ele>
        <time>2012-03-25T06:02:25Z</time>
      </trkpt>
      <trkpt lat="47.60226" lon="-0.4935">
        <ele>14.6</ele>
        <time>2012-03-25T06:02:29Z</time>
      </trkpt>
      <trkpt lat="47.60215" lon="-0.49348">
        <ele>14.5</ele>
        <time>2012-03-25T06:02:33Z</time>
      </trkpt>
      <trkpt lat="47.60205" lon="-0.49346">
        <ele>14.5</ele>
        <time>2012-03-25T06:02:38Z</time>
      </trkpt>
      <trkpt lat="47.60196" lon="-0.49348">
        <ele>14.4</ele>
        <time>2012-03-25T06:02:42Z</time>
      </trkpt>
      <trkpt lat="47.60186" lon="-0.49353">
        <ele>14.3</ele>
        <time>2012-03-25T06:02:46Z</time>
      </trkpt>
      <trkpt lat="47.60177" lon="-0.49355">
        <ele>14.2</ele>
        <time>2012-03-25T06:02:49Z</time>
      </trkpt>
      <trkpt lat="47.60167" lon="-0.49358">
        <ele>14.1</ele>
        <time>2012-03-25T06:02:53Z</time>
      </trkpt>
      <trkpt lat="47.60157" lon="-0.49361">
        <ele>14</ele>
        <time>2012-03-25T06:02:55Z</time>
      </trkpt>
      <trkpt lat="47.60147" lon="-0.49364">
        <ele>14</ele>
        <time>2012-03-25T06:02:59Z</time>
      </trkpt>
      <trkpt lat="47.60137" lon="-0.49368">
        <ele>14</ele>
        <time>2012-03-25T06:03:02Z</time>
      </trkpt>
      <trkpt lat="47.60127" lon="-0.4937">
        <ele>14</ele>
        <time>2012-03-25T06:03:05Z</time>
      </trkpt>
      <trkpt lat="47.60116" lon="-0.49373">
        <ele>14</ele>
        <time>2012-03-25T06:03:09Z</time>
      </trkpt>
      <trkpt lat="47.60106" lon="-0.49377">
        <ele>14</ele>
        <time>2012-03-25T06:03:13Z</time>
      </trkpt>
      <trkpt lat="47.60097" lon="-0.49379">
        <ele>14</ele>
        <time>2012-03-25T06:03:15Z</time>
      </trkpt>
      <trkpt lat="47.60088" lon="-0.49383">
        <ele>14.2</ele>
        <time>2012-03-25T06:03:19Z</time>
      </trkpt>
      <trkpt lat="47.60078" lon="-0.49387">
        <ele>14.4</ele>
        <time>2012-03-25T06:03:22Z</time>
      </trkpt>
      <trkpt lat="47.60069" lon="-0.4939">
        <ele>14.5</ele>
        <time>2012-03-25T06:03:25Z</time>
      </trkpt>
      <trkpt lat="47.60059" lon="-0.49392">
        <ele>14.5</ele>
        <time>2012-03-25T06:03:27Z</time>
      </trkpt>
      <trkpt lat="47.60048" lon="-0.49394">
        <ele>14.5</ele>
        <time>2012-03-25T06:03:31Z</time>
      </trkpt>
      <trkpt lat="47.60039" lon="-0.49395">
        <ele>14.5</ele>
        <time>2012-03-25T06:03:33Z</time>
      </trkpt>
      <trkpt lat="47.60029" lon="-0.49388">
        <ele>14.5</ele>
        <time>2012-03-25T06:03:37Z</time>
      </trkpt>
      <trkpt lat="47.60019" lon="-0.49376">
        <ele>14.5</ele>
        <time>2012-03-25T06:03:42Z</time>
      </trkpt>
      <trkpt lat="47.6001" lon="-0.49366">
        <ele>14.5</ele>
        <time>2012-03-25T06:03:45Z</time>
      </trkpt>
      <trkpt lat="47.60002" lon="-0.49358">
        <ele>14.7</ele>
        <time>2012-03-25T06:03:46Z</time>
      </trkpt>
      <trkpt lat="47.59995" lon="-0.4935">
        <ele>14.9</ele>
        <time>2012-03-25T06:03:49Z</time>
      </trkpt>
      <trkpt lat="47.59984" lon="-0.4934">
        <ele>14.9</ele>
        <time>2012-03-25T06:03:51Z</time>
      </trkpt>
      <trkpt lat="47.59973" lon="-0.49329">
        <ele>15</ele>
        <time>2012-03-25T06:03:55Z</time>
      </trkpt>
      <trkpt lat="47.59965" lon="-0.4932">
        <ele>15.1</ele>
        <time>2012-03-25T06:03:57Z</time>
      </trkpt>
      <trkpt lat="47.59957" lon="-0.49312">
        <ele>15.4</ele>
        <time>2012-03-25T06:03:58Z</time>
      </trkpt>
      <trkpt lat="47.59947" lon="-0.49301">
        <ele>15.6</ele>
        <time>2012-03-25T06:04:02Z</time>
      </trkpt>
      <trkpt lat="47.59938" lon="-0.49293">
        <ele>15.9</ele>
        <time>2012-03-25T06:04:04Z</time>
      </trkpt>
      <trkpt lat="47.5993" lon="-0.49286">
        <ele>16.2</ele>
        <time>2012-03-25T06:04:05Z</time>
      </trkpt>
      <trkpt lat="47.5992" lon="-0.49276">
        <ele>16.5</ele>
        <time>2012-03-25T06:04:07Z</time>
      </trkpt>
      <trkpt lat="47.5991" lon="-0.49266">
        <ele>16.9</ele>
        <time>2012-03-25T06:04:09Z</time>
      </trkpt>
      <trkpt lat="47.59901" lon="-0.49256">
        <ele>17.1</ele>
        <time>2012-03-25T06:04:11Z</time>
      </trkpt>
      <trkpt lat="47.59893" lon="-0.49247">
        <ele>17.3</ele>
        <time>2012-03-25T06:04:14Z</time>
      </trkpt>
      <trkpt lat="47.59885" lon="-0.49239">
        <ele>17.5</ele>
        <time>2012-03-25T06:04:16Z</time>
      </trkpt>
      <trkpt lat="47.59875" lon="-0.4923">
        <ele>17.5</ele>
        <time>2012-03-25T06:04:18Z</time>
      </trkpt>
      <trkpt lat="47.59868" lon="-0.49221">
        <ele>17.6</ele>
        <time>2012-03-25T06:04:20Z</time>
      </trkpt>
      <trkpt lat="47.59859" lon="-0.49212">
        <ele>17.7</ele>
        <time>2012-03-25T06:04:22Z</time>
      </trkpt>
      <trkpt lat="47.59852" lon="-0.49205">
        <ele>17.8</ele>
        <time>2012-03-25T06:04:24Z</time>
      </trkpt>
      <trkpt lat="47.59843" lon="-0.49195">
        <ele>17.9</ele>
        <time>2012-03-25T06:04:26Z</time>
      </trkpt>
      <trkpt lat="47.59835" lon="-0.49189">
        <ele>18</ele>
        <time>2012-03-25T06:04:37Z</time>
      </trkpt>
      <trkpt lat="47.59829" lon="-0.492">
        <ele>18.2</ele>
        <time>2012-03-25T06:05:17Z</time>
      </trkpt>
      <trkpt lat="47.59823" lon="-0.49212">
        <ele>18.4</ele>
        <time>2012-03-25T06:12:34Z</time>
      </trkpt>
      <trkpt lat="47.59816" lon="-0.49225">
        <ele>18.5</ele>
        <time>2012-03-25T06:12:40Z</time>
      </trkpt>
      <trkpt lat="47.59807" lon="-0.49236">
        <ele>18.5</ele>
        <time>2012-03-25T06:12:46Z</time>
      </trkpt>
      <trkpt lat="47.598" lon="-0.49246">
        <ele>18.4</ele>
        <time>2012-03-25T06:12:50Z</time>
      </trkpt>
      <trkpt lat="47.59792" lon="-0.49257">
        <ele>18.3</ele>
        <time>2012-03-25T06:12:53Z</time>
      </trkpt>
      <trkpt lat="47.59785" lon="-0.49266">
        <ele>18.2</ele>
        <time>2012-03-25T06:12:56Z</time>
      </trkpt>
      <trkpt lat="47.59778" lon="-0.49276">
        <ele>18.1</ele>
        <time>2012-03-25T06:13:00Z</time>
      </trkpt>
      <trkpt lat="47.5977" lon="-0.49287">
        <ele>18</ele>
        <time>2012-03-25T06:13:02Z</time>
      </trkpt>
      <trkpt lat="47.59761" lon="-0.49296">
        <ele>17.9</ele>
        <time>2012-03-25T06:13:06Z</time>
      </trkpt>
      <trkpt lat="47.59753" lon="-0.49306">
        <ele>17.7</ele>
        <time>2012-03-25T06:13:08Z</time>
      </trkpt>
      <trkpt lat="47.59743" lon="-0.49315">
        <ele>17.4</ele>
        <time>2012-03-25T06:13:12Z</time>
      </trkpt>
      <trkpt lat="47.59734" lon="-0.49323">
        <ele>17</ele>
        <time>2012-03-25T06:13:15Z</time>
      </trkpt>
      <trkpt lat="47.59723" lon="-0.49327">
        <ele>16.6</ele>
        <time>2012-03-25T06:13:18Z</time>
      </trkpt>
      <trkpt lat="47.59715" lon="-0.49334">
        <ele>16.5</ele>
        <time>2012-03-25T06:13:21Z</time>
      </trkpt>
      <trkpt lat="47.5971" lon="-0.4935">
        <ele>16.5</ele>
        <time>2012-03-25T06:13:25Z</time>
      </trkpt>
      <trkpt lat="47.59706" lon="-0.49365">
        <ele>16.4</ele>
        <time>2012-03-25T06:13:29Z</time>
      </trkpt>
      <trkpt lat="47.59698" lon="-0.49374">
        <ele>16.3</ele>
        <time>2012-03-25T06:13:31Z</time>
      </trkpt>
      <trkpt lat="47.59687" lon="-0.49385">
        <ele>16.2</ele>
        <time>2012-03-25T06:13:34Z</time>
      </trkpt>
      <trkpt lat="47.59677" lon="-0.49394">
        <ele>16.1</ele>
        <time>2012-03-25T06:13:38Z</time>
      </trkpt>
      <trkpt lat="47.59667" lon="-0.49403">
        <ele>16</ele>
        <time>2012-03-25T06:13:40Z</time>
      </trkpt>
      <trkpt lat="47.59658" lon="-0.49409">
        <ele>16</ele>
        <time>2012-03-25T06:13:42Z</time>
      </trkpt>
      <trkpt lat="47.59647" lon="-0.49419">
        <ele>16.1</ele>
        <time>2012-03-25T06:13:45Z</time>
      </trkpt>
      <trkpt lat="47.59636" lon="-0.49427">
        <ele>16.2</ele>
        <time>2012-03-25T06:13:49Z</time>
      </trkpt>
      <trkpt lat="47.59626" lon="-0.49435">
        <ele>16.3</ele>
        <time>2012-03-25T06:13:53Z</time>
      </trkpt>
      <trkpt lat="47.59615" lon="-0.49442">
        <ele>16.4</ele>
        <time>2012-03-25T06:13:55Z</time>
      </trkpt>
      <trkpt lat="47.59607" lon="-0.4945">
        <ele>16.5</ele>
        <time>2012-03-25T06:13:58Z</time>
      </trkpt>
      <trkpt lat="47.59597" lon="-0.49459">
        <ele>16.5</ele>
        <time>2012-03-25T06:14:01Z</time>
      </trkpt>
      <trkpt lat="47.59586" lon="-0.49467">
        <ele>16.6</ele>
        <time>2012-03-25T06:14:04Z</time>
      </trkpt>
      <trkpt lat="47.59576" lon="-0.49475">
        <ele>16.7</ele>
        <time>2012-03-25T06:14:07Z</time>
      </trkpt>
      <trkpt lat="47.59566" lon="-0.49484">
        <ele>16.9</ele>
        <time>2012-03-25T06:14:10Z</time>
      </trkpt>
      <trkpt lat="47.59554" lon="-0.49493">
        <ele>17.1</ele>
        <time>2012-03-25T06:14:14Z</time>
      </trkpt>
      <trkpt lat="47.59545" lon="-0.49504">
        <ele>17.3</ele>
        <time>2012-03-25T06:14:17Z</time>
      </trkpt>
      <trkpt lat="47.59538" lon="-0.49518">
        <ele>17.4</ele>
        <time>2012-03-25T06:14:20Z</time>
      </trkpt>
      <trkpt lat="47.5953" lon="-0.49526">
        <ele>17.4</ele>
        <time>2012-03-25T06:14:23Z</time>
      </trkpt>
      <trkpt lat="47.59521" lon="-0.49537">
        <ele>17.4</ele>
        <time>2012-03-25T06:14:26Z</time>
      </trkpt>
      <trkpt lat="47.59513" lon="-0.49549">
        <ele>17.4</ele>
        <time>2012-03-25T06:14:30Z</time>
      </trkpt>
      <trkpt lat="47.59504" lon="-0.49551">
        <ele>17.6</ele>
        <time>2012-03-25T06:14:35Z</time>
      </trkpt>
      <trkpt lat="47.59493" lon="-0.49541">
        <ele>17.9</ele>
        <time>2012-03-25T06:14:39Z</time>
      </trkpt>
      <trkpt lat="47.59484" lon="-0.49532">
        <ele>18.2</ele>
        <time>2012-03-25T06:14:43Z</time>
      </trkpt>
      <trkpt lat="47.59473" lon="-0.49521">
        <ele>18.5</ele>
        <time>2012-03-25T06:14:45Z</time>
      </trkpt>
      <trkpt lat="47.59462" lon="-0.4951">
        <ele>18.6</ele>
        <time>2012-03-25T06:14:48Z</time>
      </trkpt>
      <trkpt lat="47.59454" lon="-0.49502">
        <ele>18.8</ele>
        <time>2012-03-25T06:14:51Z</time>
      </trkpt>
      <trkpt lat="47.59446" lon="-0.49494">
        <ele>19</ele>
        <time>2012-03-25T06:14:52Z</time>
      </trkpt>
      <trkpt lat="47.59438" lon="-0.49486">
        <ele>18.8</ele>
        <time>2012-03-25T06:14:54Z</time>
      </trkpt>
      <trkpt lat="47.5943" lon="-0.49479">
        <ele>18.7</ele>
        <time>2012-03-25T06:14:56Z</time>
      </trkpt>
      <trkpt lat="47.59421" lon="-0.4947">
        <ele>18.6</ele>
        <time>2012-03-25T06:14:58Z</time>
      </trkpt>
      <trkpt lat="47.59412" lon="-0.49461">
        <ele>18.6</ele>
        <time>2012-03-25T06:15:00Z</time>
      </trkpt>
      <trkpt lat="47.59404" lon="-0.49452">
        <ele>18.4</ele>
        <time>2012-03-25T06:15:03Z</time>
      </trkpt>
      <trkpt lat="47.59396" lon="-0.49444">
        <ele>18.1</ele>
        <time>2012-03-25T06:15:04Z</time>
      </trkpt>
      <trkpt lat="47.59388" lon="-0.49436">
        <ele>17.8</ele>
        <time>2012-03-25T06:15:06Z</time>
      </trkpt>
      <trkpt lat="47.59381" lon="-0.49428">
        <ele>17.5</ele>
        <time>2012-03-25T06:15:08Z</time>
      </trkpt>
      <trkpt lat="47.59368" lon="-0.49416">
        <ele>17.3</ele>
        <time>2012-03-25T06:15:11Z</time>
      </trkpt>
      <trkpt lat="47.59358" lon="-0.49406">
        <ele>16.8</ele>
        <time>2012-03-25T06:15:13Z</time>
      </trkpt>
      <trkpt lat="47.5935" lon="-0.49398">
        <ele>16.4</ele>
        <time>2012-03-25T06:15:15Z</time>
      </trkpt>
      <trkpt lat="47.59342" lon="-0.4939">
        <ele>16.3</ele>
        <time>2012-03-25T06:15:17Z</time>
      </trkpt>
      <trkpt lat="47.59332" lon="-0.49382">
        <ele>16.3</ele>
        <time>2012-03-25T06:15:19Z</time>
      </trkpt>
      <trkpt lat="47.59324" lon="-0.49375">
        <ele>16.3</ele>
        <time>2012-03-25T06:15:21Z</time>
      </trkpt>
      <trkpt lat="47.59314" lon="-0.49367">
        <ele>16.2</ele>
        <time>2012-03-25T06:15:23Z</time>
      </trkpt>
      <trkpt lat="47.59304" lon="-0.49359">
        <ele>16.1</ele>
        <time>2012-03-25T06:15:25Z</time>
      </trkpt>
      <trkpt lat="47.59294" lon="-0.49353">
        <ele>16</ele>
        <time>2012-03-25T06:15:28Z</time>
      </trkpt>
      <trkpt lat="47.59283" lon="-0.49346">
        <ele>15.9</ele>
        <time>2012-03-25T06:15:29Z</time>
      </trkpt>
      <trkpt lat="47.59273" lon="-0.49341">
        <ele>15.8</ele>
        <time>2012-03-25T06:15:31Z</time>
      </trkpt>
      <trkpt lat="47.59264" lon="-0.49336">
        <ele>16</ele>
        <time>2012-03-25T06:15:33Z</time>
      </trkpt>
      <trkpt lat="47.59255" lon="-0.4933">
        <ele>16.4</ele>
        <time>2012-03-25T06:15:36Z</time>
      </trkpt>
      <trkpt lat="47.59244" lon="-0.49326">
        <ele>16.7</ele>
        <time>2012-03-25T06:15:38Z</time>
      </trkpt>
      <trkpt lat="47.59233" lon="-0.49321">
        <ele>17.1</ele>
        <time>2012-03-25T06:15:39Z</time>
      </trkpt>
      <trkpt lat="47.59219" lon="-0.49316">
        <ele>17.4</ele>
        <time>2012-03-25T06:15:41Z</time>
      </trkpt>
      <trkpt lat="47.59207" lon="-0.49313">
        <ele>17.6</ele>
        <time>2012-03-25T06:15:43Z</time>
      </trkpt>
      <trkpt lat="47.59195" lon="-0.4931">
        <ele>17.9</ele>
        <time>2012-03-25T06:15:45Z</time>
      </trkpt>
      <trkpt lat="47.59183" lon="-0.49308">
        <ele>18.2</ele>
        <time>2012-03-25T06:15:48Z</time>
      </trkpt>
      <trkpt lat="47.59171" lon="-0.49307">
        <ele>18.5</ele>
        <time>2012-03-25T06:15:49Z</time>
      </trkpt>
      <trkpt lat="47.5916" lon="-0.49306">
        <ele>18.7</ele>
        <time>2012-03-25T06:15:51Z</time>
      </trkpt>
      <trkpt lat="47.5915" lon="-0.49305">
        <ele>19</ele>
        <time>2012-03-25T06:15:54Z</time>
      </trkpt>
      <trkpt lat="47.59139" lon="-0.49303">
        <ele>19</ele>
        <time>2012-03-25T06:15:56Z</time>
      </trkpt>
      <trkpt lat="47.59128" lon="-0.49303">
        <ele>19</ele>
        <time>2012-03-25T06:15:58Z</time>
      </trkpt>
      <trkpt lat="47.59116" lon="-0.49303">
        <ele>19</ele>
        <time>2012-03-25T06:15:59Z</time>
      </trkpt>
      <trkpt lat="47.59103" lon="-0.49304">
        <ele>19.2</ele>
        <time>2012-03-25T06:16:01Z</time>
      </trkpt>
      <trkpt lat="47.59092" lon="-0.49305">
        <ele>19.4</ele>
        <time>2012-03-25T06:16:03Z</time>
      </trkpt>
      <trkpt lat="47.59082" lon="-0.49307">
        <ele>19.5</ele>
        <time>2012-03-25T06:16:06Z</time>
      </trkpt>
      <trkpt lat="47.59069" lon="-0.49309">
        <ele>19.7</ele>
        <time>2012-03-25T06:16:07Z</time>
      </trkpt>
      <trkpt lat="47.59058" lon="-0.49312">
        <ele>19.9</ele>
        <time>2012-03-25T06:16:09Z</time>
      </trkpt>
      <trkpt lat="47.59045" lon="-0.49318">
        <ele>20.1</ele>
        <time>2012-03-25T06:16:12Z</time>
      </trkpt>
      <trkpt lat="47.59032" lon="-0.49324">
        <ele>20.3</ele>
        <time>2012-03-25T06:16:13Z</time>
      </trkpt>
      <trkpt lat="47.5902" lon="-0.4933">
        <ele>20.5</ele>
        <time>2012-03-25T06:16:15Z</time>
      </trkpt>
      <trkpt lat="47.59009" lon="-0.49336">
        <ele>20.8</ele>
        <time>2012-03-25T06:16:17Z</time>
      </trkpt>
      <trkpt lat="47.58999" lon="-0.49341">
        <ele>20.5</ele>
        <time>2012-03-25T06:16:19Z</time>
      </trkpt>
      <trkpt lat="47.58989" lon="-0.49346">
        <ele>20.3</ele>
        <time>2012-03-25T06:16:21Z</time>
      </trkpt>
      <trkpt lat="47.58979" lon="-0.49352">
        <ele>19.8</ele>
        <time>2012-03-25T06:16:23Z</time>
      </trkpt>
      <trkpt lat="47.58967" lon="-0.4936">
        <ele>19.4</ele>
        <time>2012-03-25T06:16:25Z</time>
      </trkpt>
      <trkpt lat="47.58955" lon="-0.49367">
        <ele>18.9</ele>
        <time>2012-03-25T06:16:27Z</time>
      </trkpt>
      <trkpt lat="47.58942" lon="-0.49374">
        <ele>18.5</ele>
        <time>2012-03-25T06:16:29Z</time>
      </trkpt>
      <trkpt lat="47.58931" lon="-0.49382">
        <ele>18</ele>
        <time>2012-03-25T06:16:31Z</time>
      </trkpt>
      <trkpt lat="47.5892" lon="-0.49391">
        <ele>17.7</ele>
        <time>2012-03-25T06:16:33Z</time>
      </trkpt>
      <trkpt lat="47.58909" lon="-0.49402">
        <ele>17.5</ele>
        <time>2012-03-25T06:16:35Z</time>
      </trkpt>
      <trkpt lat="47.58898" lon="-0.49414">
        <ele>17.2</ele>
        <time>2012-03-25T06:16:38Z</time>
      </trkpt>
      <trkpt lat="47.58888" lon="-0.49427">
        <ele>16.7</ele>
        <time>2012-03-25T06:16:40Z</time>
      </trkpt>
      <trkpt lat="47.58879" lon="-0.4944">
        <ele>16.9</ele>
        <time>2012-03-25T06:16:42Z</time>
      </trkpt>
      <trkpt lat="47.58873" lon="-0.49455">
        <ele>17.1</ele>
        <time>2012-03-25T06:16:44Z</time>
      </trkpt>
      <trkpt lat="47.58866" lon="-0.49469">
        <ele>17.1</ele>
        <time>2012-03-25T06:16:45Z</time>
      </trkpt>
      <trkpt lat="47.58858" lon="-0.49482">
        <ele>17.1</ele>
        <time>2012-03-25T06:16:47Z</time>
      </trkpt>
      <trkpt lat="47.5885" lon="-0.49494">
        <ele>17.1</ele>
        <time>2012-03-25T06:16:49Z</time>
      </trkpt>
      <trkpt lat="47.58841" lon="-0.49508">
        <ele>17.1</ele>
        <time>2012-03-25T06:16:52Z</time>
      </trkpt>
      <trkpt lat="47.58834" lon="-0.4952">
        <ele>17.1</ele>
        <time>2012-03-25T06:16:53Z</time>
      </trkpt>
      <trkpt lat="47.58827" lon="-0.49534">
        <ele>16.9</ele>
        <time>2012-03-25T06:16:56Z</time>
      </trkpt>
      <trkpt lat="47.5882" lon="-0.49547">
        <ele>16.9</ele>
        <time>2012-03-25T06:16:58Z</time>
      </trkpt>
      <trkpt lat="47.58812" lon="-0.49561">
        <ele>16.9</ele>
        <time>2012-03-25T06:17:00Z</time>
      </trkpt>
      <trkpt lat="47.58806" lon="-0.49577">
        <ele>16.9</ele>
        <time>2012-03-25T06:17:02Z</time>
      </trkpt>
      <trkpt lat="47.58801" lon="-0.4959">
        <ele>16.9</ele>
        <time>2012-03-25T06:17:03Z</time>
      </trkpt>
      <trkpt lat="47.58795" lon="-0.49606">
        <ele>16.9</ele>
        <time>2012-03-25T06:17:05Z</time>
      </trkpt>
      <trkpt lat="47.58787" lon="-0.49623">
        <ele>17.1</ele>
        <time>2012-03-25T06:17:07Z</time>
      </trkpt>
      <trkpt lat="47.58782" lon="-0.49637">
        <ele>17.1</ele>
        <time>2012-03-25T06:17:10Z</time>
      </trkpt>
      <trkpt lat="47.58777" lon="-0.4965">
        <ele>17.1</ele>
        <time>2012-03-25T06:17:11Z</time>
      </trkpt>
      <trkpt lat="47.58772" lon="-0.49665">
        <ele>17.1</ele>
        <time>2012-03-25T06:17:13Z</time>
      </trkpt>
      <trkpt lat="47.58766" lon="-0.49681">
        <ele>17.1</ele>
        <time>2012-03-25T06:17:15Z</time>
      </trkpt>
      <trkpt lat="47.58759" lon="-0.49695">
        <ele>17.1</ele>
        <time>2012-03-25T06:17:18Z</time>
      </trkpt>
      <trkpt lat="47.58753" lon="-0.49709">
        <ele>17</ele>
        <time>2012-03-25T06:17:21Z</time>
      </trkpt>
      <trkpt lat="47.58747" lon="-0.49725">
        <ele>16.9</ele>
        <time>2012-03-25T06:17:23Z</time>
      </trkpt>
      <trkpt lat="47.58743" lon="-0.49738">
        <ele>16.8</ele>
        <time>2012-03-25T06:17:24Z</time>
      </trkpt>
      <trkpt lat="47.58739" lon="-0.49751">
        <ele>16.6</ele>
        <time>2012-03-25T06:17:27Z</time>
      </trkpt>
      <trkpt lat="47.58733" lon="-0.49767">
        <ele>16.5</ele>
        <time>2012-03-25T06:17:28Z</time>
      </trkpt>
      <trkpt lat="47.58728" lon="-0.49784">
        <ele>16.3</ele>
        <time>2012-03-25T06:17:31Z</time>
      </trkpt>
      <trkpt lat="47.5872" lon="-0.49803">
        <ele>16.3</ele>
        <time>2012-03-25T06:17:34Z</time>
      </trkpt>
      <trkpt lat="47.58714" lon="-0.49813">
        <ele>16.3</ele>
        <time>2012-03-25T06:17:37Z</time>
      </trkpt>
      <trkpt lat="47.58705" lon="-0.49823">
        <ele>16.3</ele>
        <time>2012-03-25T06:17:43Z</time>
      </trkpt>
      <trkpt lat="47.58702" lon="-0.4984">
        <ele>16.3</ele>
        <time>2012-03-25T06:17:48Z</time>
      </trkpt>
      <trkpt lat="47.58696" lon="-0.49856">
        <ele>16.3</ele>
        <time>2012-03-25T06:17:52Z</time>
      </trkpt>
      <trkpt lat="47.58691" lon="-0.49867">
        <ele>16.2</ele>
        <time>2012-03-25T06:17:53Z</time>
      </trkpt>
      <trkpt lat="47.58686" lon="-0.49879">
        <ele>16.1</ele>
        <time>2012-03-25T06:17:56Z</time>
      </trkpt>
      <trkpt lat="47.58681" lon="-0.49892">
        <ele>16.3</ele>
        <time>2012-03-25T06:17:57Z</time>
      </trkpt>
      <trkpt lat="47.58676" lon="-0.49904">
        <ele>16.5</ele>
        <time>2012-03-25T06:18:00Z</time>
      </trkpt>
      <trkpt lat="47.58671" lon="-0.49915">
        <ele>16.8</ele>
        <time>2012-03-25T06:18:02Z</time>
      </trkpt>
      <trkpt lat="47.58665" lon="-0.49928">
        <ele>17.1</ele>
        <time>2012-03-25T06:18:04Z</time>
      </trkpt>
      <trkpt lat="47.58657" lon="-0.49944">
        <ele>17</ele>
        <time>2012-03-25T06:18:06Z</time>
      </trkpt>
      <trkpt lat="47.58649" lon="-0.49961">
        <ele>16.9</ele>
        <time>2012-03-25T06:18:10Z</time>
      </trkpt>
      <trkpt lat="47.58644" lon="-0.49973">
        <ele>17</ele>
        <time>2012-03-25T06:18:12Z</time>
      </trkpt>
      <trkpt lat="47.58638" lon="-0.49988">
        <ele>17.1</ele>
        <time>2012-03-25T06:18:14Z</time>
      </trkpt>
      <trkpt lat="47.58632" lon="-0.50004">
        <ele>17.2</ele>
        <time>2012-03-25T06:18:16Z</time>
      </trkpt>
      <trkpt lat="47.58628" lon="-0.50016">
        <ele>17.3</ele>
        <time>2012-03-25T06:18:17Z</time>
      </trkpt>
      <trkpt lat="47.58624" lon="-0.5003">
        <ele>17.4</ele>
        <time>2012-03-25T06:18:20Z</time>
      </trkpt>
      <trkpt lat="47.58618" lon="-0.50045">
        <ele>17.2</ele>
        <time>2012-03-25T06:18:22Z</time>
      </trkpt>
      <trkpt lat="47.58612" lon="-0.50061">
        <ele>17.1</ele>
        <time>2012-03-25T06:18:24Z</time>
      </trkpt>
      <trkpt lat="47.58606" lon="-0.50074">
        <ele>17</ele>
        <time>2012-03-25T06:18:25Z</time>
      </trkpt>
      <trkpt lat="47.58601" lon="-0.50088">
        <ele>16.9</ele>
        <time>2012-03-25T06:18:27Z</time>
      </trkpt>
      <trkpt lat="47.58596" lon="-0.50102">
        <ele>17.2</ele>
        <time>2012-03-25T06:18:30Z</time>
      </trkpt>
      <trkpt lat="47.5859" lon="-0.50121">
        <ele>17.5</ele>
        <time>2012-03-25T06:18:32Z</time>
      </trkpt>
      <trkpt lat="47.58583" lon="-0.50136">
        <ele>17.5</ele>
        <time>2012-03-25T06:18:36Z</time>
      </trkpt>
      <trkpt lat="47.58577" lon="-0.5015">
        <ele>17.3</ele>
        <time>2012-03-25T06:18:37Z</time>
      </trkpt>
      <trkpt lat="47.5857" lon="-0.50167">
        <ele>17</ele>
        <time>2012-03-25T06:18:40Z</time>
      </trkpt>
      <trkpt lat="47.58565" lon="-0.50179">
        <ele>16.7</ele>
        <time>2012-03-25T06:18:42Z</time>
      </trkpt>
      <trkpt lat="47.5856" lon="-0.50193">
        <ele>16.5</ele>
        <time>2012-03-25T06:18:44Z</time>
      </trkpt>
      <trkpt lat="47.58554" lon="-0.50207">
        <ele>16.2</ele>
        <time>2012-03-25T06:18:47Z</time>
      </trkpt>
      <trkpt lat="47.58547" lon="-0.50222">
        <ele>15.8</ele>
        <time>2012-03-25T06:18:49Z</time>
      </trkpt>
      <trkpt lat="47.58542" lon="-0.50235">
        <ele>15.6</ele>
        <time>2012-03-25T06:18:53Z</time>
      </trkpt>
      <trkpt lat="47.58535" lon="-0.50247">
        <ele>15.5</ele>
        <time>2012-03-25T06:19:01Z</time>
      </trkpt>
      <trkpt lat="47.58527" lon="-0.50259">
        <ele>15.3</ele>
        <time>2012-03-25T06:19:05Z</time>
      </trkpt>
      <trkpt lat="47.58521" lon="-0.50269">
        <ele>15.1</ele>
        <time>2012-03-25T06:19:07Z</time>
      </trkpt>
      <trkpt lat="47.58512" lon="-0.5028">
        <ele>14.9</ele>
        <time>2012-03-25T06:19:10Z</time>
      </trkpt>
      <trkpt lat="47.58504" lon="-0.50292">
        <ele>15.1</ele>
        <time>2012-03-25T06:19:13Z</time>
      </trkpt>
      <trkpt lat="47.58494" lon="-0.50303">
        <ele>14.9</ele>
        <time>2012-03-25T06:19:16Z</time>
      </trkpt>
      <trkpt lat="47.58486" lon="-0.50314">
        <ele>14.7</ele>
        <time>2012-03-25T06:19:19Z</time>
      </trkpt>
      <trkpt lat="47.58478" lon="-0.50326">
        <ele>14.9</ele>
        <time>2012-03-25T06:19:21Z</time>
      </trkpt>
      <trkpt lat="47.58469" lon="-0.50338">
        <ele>15.1</ele>
        <time>2012-03-25T06:19:24Z</time>
      </trkpt>
      <trkpt lat="47.58461" lon="-0.50345">
        <ele>15.3</ele>
        <time>2012-03-25T06:19:27Z</time>
      </trkpt>
      <trkpt lat="47.5845" lon="-0.50358">
        <ele>15.3</ele>
        <time>2012-03-25T06:19:29Z</time>
      </trkpt>
      <trkpt lat="47.58441" lon="-0.50368">
        <ele>15.3</ele>
        <time>2012-03-25T06:19:33Z</time>
      </trkpt>
      <trkpt lat="47.58433" lon="-0.50378">
        <ele>15.3</ele>
        <time>2012-03-25T06:19:35Z</time>
      </trkpt>
      <trkpt lat="47.5842" lon="-0.50388">
        <ele>15</ele>
        <time>2012-03-25T06:19:38Z</time>
      </trkpt>
      <trkpt lat="47.58412" lon="-0.50398">
        <ele>14.7</ele>
        <time>2012-03-25T06:19:40Z</time>
      </trkpt>
      <trkpt lat="47.58401" lon="-0.5041">
        <ele>14.7</ele>
        <time>2012-03-25T06:19:43Z</time>
      </trkpt>
      <trkpt lat="47.5839" lon="-0.50421">
        <ele>15.1</ele>
        <time>2012-03-25T06:19:45Z</time>
      </trkpt>
      <trkpt lat="47.58379" lon="-0.5043">
        <ele>15.5</ele>
        <time>2012-03-25T06:19:49Z</time>
      </trkpt>
      <trkpt lat="47.58371" lon="-0.50437">
        <ele>15.5</ele>
        <time>2012-03-25T06:19:51Z</time>
      </trkpt>
      <trkpt lat="47.58358" lon="-0.50448">
        <ele>15.5</ele>
        <time>2012-03-25T06:19:54Z</time>
      </trkpt>
      <trkpt lat="47.58348" lon="-0.50456">
        <ele>15.2</ele>
        <time>2012-03-25T06:19:56Z</time>
      </trkpt>
      <trkpt lat="47.58337" lon="-0.50465">
        <ele>14.9</ele>
        <time>2012-03-25T06:19:59Z</time>
      </trkpt>
      <trkpt lat="47.58325" lon="-0.50473">
        <ele>14.6</ele>
        <time>2012-03-25T06:20:02Z</time>
      </trkpt>
      <trkpt lat="47.58315" lon="-0.5048">
        <ele>14.4</ele>
        <time>2012-03-25T06:20:05Z</time>
      </trkpt>
      <trkpt lat="47.58303" lon="-0.50487">
        <ele>14.4</ele>
        <time>2012-03-25T06:20:08Z</time>
      </trkpt>
      <trkpt lat="47.58293" lon="-0.50493">
        <ele>14.4</ele>
        <time>2012-03-25T06:20:10Z</time>
      </trkpt>
      <trkpt lat="47.58284" lon="-0.50499">
        <ele>14</ele>
        <time>2012-03-25T06:20:12Z</time>
      </trkpt>
      <trkpt lat="47.58275" lon="-0.50505">
        <ele>13.6</ele>
        <time>2012-03-25T06:20:14Z</time>
      </trkpt>
      <trkpt lat="47.58266" lon="-0.50511">
        <ele>13.3</ele>
        <time>2012-03-25T06:20:17Z</time>
      </trkpt>
      <trkpt lat="47.58254" lon="-0.5052">
        <ele>13.3</ele>
        <time>2012-03-25T06:20:19Z</time>
      </trkpt>
      <trkpt lat="47.58242" lon="-0.50528">
        <ele>13.3</ele>
        <time>2012-03-25T06:20:22Z</time>
      </trkpt>
      <trkpt lat="47.58232" lon="-0.50534">
        <ele>13.5</ele>
        <time>2012-03-25T06:20:25Z</time>
      </trkpt>
      <trkpt lat="47.58223" lon="-0.50541">
        <ele>13.8</ele>
        <time>2012-03-25T06:20:27Z</time>
      </trkpt>
      <trkpt lat="47.58214" lon="-0.50547">
        <ele>14.1</ele>
        <time>2012-03-25T06:20:29Z</time>
      </trkpt>
      <trkpt lat="47.58203" lon="-0.50554">
        <ele>14.4</ele>
        <time>2012-03-25T06:20:32Z</time>
      </trkpt>
      <trkpt lat="47.58193" lon="-0.50561">
        <ele>14.6</ele>
        <time>2012-03-25T06:20:34Z</time>
      </trkpt>
      <trkpt lat="47.58185" lon="-0.50567">
        <ele>14.9</ele>
        <time>2012-03-25T06:20:36Z</time>
      </trkpt>
      <trkpt lat="47.58174" lon="-0.50576">
        <ele>15.3</ele>
        <time>2012-03-25T06:20:39Z</time>
      </trkpt>
      <trkpt lat="47.58163" lon="-0.50583">
        <ele>15.5</ele>
        <time>2012-03-25T06:20:41Z</time>
      </trkpt>
      <trkpt lat="47.58153" lon="-0.50586">
        <ele>15.6</ele>
        <time>2012-03-25T06:20:43Z</time>
      </trkpt>
      <trkpt lat="47.58141" lon="-0.50595">
        <ele>15.5</ele>
        <time>2012-03-25T06:20:45Z</time>
      </trkpt>
      <trkpt lat="47.5813" lon="-0.50604">
        <ele>15.3</ele>
        <time>2012-03-25T06:20:48Z</time>
      </trkpt>
      <trkpt lat="47.58122" lon="-0.50613">
        <ele>15.1</ele>
        <time>2012-03-25T06:20:50Z</time>
      </trkpt>
      <trkpt lat="47.58114" lon="-0.5062">
        <ele>14.9</ele>
        <time>2012-03-25T06:20:52Z</time>
      </trkpt>
      <trkpt lat="47.58105" lon="-0.50629">
        <ele>14.7</ele>
        <time>2012-03-25T06:20:54Z</time>
      </trkpt>
      <trkpt lat="47.58096" lon="-0.50638">
        <ele>14.5</ele>
        <time>2012-03-25T06:20:57Z</time>
      </trkpt>
      <trkpt lat="47.58084" lon="-0.50649">
        <ele>14.4</ele>
        <time>2012-03-25T06:20:58Z</time>
      </trkpt>
      <trkpt lat="47.58074" lon="-0.50658">
        <ele>14.2</ele>
        <time>2012-03-25T06:21:01Z</time>
      </trkpt>
      <trkpt lat="47.58064" lon="-0.50667">
        <ele>13.9</ele>
        <time>2012-03-25T06:21:02Z</time>
      </trkpt>
      <trkpt lat="47.58053" lon="-0.50675">
        <ele>13.8</ele>
        <time>2012-03-25T06:21:04Z</time>
      </trkpt>
      <trkpt lat="47.58043" lon="-0.50682">
        <ele>13.7</ele>
        <time>2012-03-25T06:21:07Z</time>
      </trkpt>
      <trkpt lat="47.58033" lon="-0.50689">
        <ele>13.6</ele>
        <time>2012-03-25T06:21:08Z</time>
      </trkpt>
      <trkpt lat="47.58021" lon="-0.50694">
        <ele>13.5</ele>
        <time>2012-03-25T06:21:11Z</time>
      </trkpt>
      <trkpt lat="47.5801" lon="-0.50699">
        <ele>13.5</ele>
        <time>2012-03-25T06:21:13Z</time>
      </trkpt>
      <trkpt lat="47.57998" lon="-0.50703">
        <ele>13.4</ele>
        <time>2012-03-25T06:21:14Z</time>
      </trkpt>
      <trkpt lat="47.57987" lon="-0.50708">
        <ele>13.3</ele>
        <time>2012-03-25T06:21:16Z</time>
      </trkpt>
      <trkpt lat="47.57976" lon="-0.50712">
        <ele>13.2</ele>
        <time>2012-03-25T06:21:18Z</time>
      </trkpt>
      <trkpt lat="47.57966" lon="-0.50715">
        <ele>13.1</ele>
        <time>2012-03-25T06:21:20Z</time>
      </trkpt>
      <trkpt lat="47.57956" lon="-0.50717">
        <ele>13</ele>
        <time>2012-03-25T06:21:23Z</time>
      </trkpt>
      <trkpt lat="47.57943" lon="-0.50719">
        <ele>13</ele>
        <time>2012-03-25T06:21:25Z</time>
      </trkpt>
      <trkpt lat="47.57932" lon="-0.5072">
        <ele>13.3</ele>
        <time>2012-03-25T06:21:27Z</time>
      </trkpt>
      <trkpt lat="47.57919" lon="-0.50723">
        <ele>13.5</ele>
        <time>2012-03-25T06:21:28Z</time>
      </trkpt>
      <trkpt lat="47.57908" lon="-0.50723">
        <ele>13.8</ele>
        <time>2012-03-25T06:21:31Z</time>
      </trkpt>
      <trkpt lat="47.57897" lon="-0.50723">
        <ele>14.1</ele>
        <time>2012-03-25T06:21:32Z</time>
      </trkpt>
      <trkpt lat="47.57885" lon="-0.50723">
        <ele>14.4</ele>
        <time>2012-03-25T06:21:35Z</time>
      </trkpt>
      <trkpt lat="47.57874" lon="-0.50721">
        <ele>14.6</ele>
        <time>2012-03-25T06:21:37Z</time>
      </trkpt>
      <trkpt lat="47.57864" lon="-0.5072">
        <ele>14.9</ele>
        <time>2012-03-25T06:21:39Z</time>
      </trkpt>
      <trkpt lat="47.57854" lon="-0.5072">
        <ele>15.2</ele>
        <time>2012-03-25T06:21:41Z</time>
      </trkpt>
      <trkpt lat="47.57843" lon="-0.5072">
        <ele>15.4</ele>
        <time>2012-03-25T06:21:43Z</time>
      </trkpt>
      <trkpt lat="47.57831" lon="-0.50721">
        <ele>15.5</ele>
        <time>2012-03-25T06:21:44Z</time>
      </trkpt>
      <trkpt lat="47.57821" lon="-0.50722">
        <ele>15.7</ele>
        <time>2012-03-25T06:21:46Z</time>
      </trkpt>
      <trkpt lat="47.57811" lon="-0.50721">
        <ele>15.6</ele>
        <time>2012-03-25T06:21:48Z</time>
      </trkpt>
      <trkpt lat="47.578" lon="-0.50721">
        <ele>15.5</ele>
        <time>2012-03-25T06:21:50Z</time>
      </trkpt>
      <trkpt lat="47.57787" lon="-0.50721">
        <ele>15.4</ele>
        <time>2012-03-25T06:21:53Z</time>
      </trkpt>
      <trkpt lat="47.57777" lon="-0.50721">
        <ele>15.2</ele>
        <time>2012-03-25T06:21:59Z</time>
      </trkpt>
      <trkpt lat="47.57766" lon="-0.5072">
        <ele>15</ele>
        <time>2012-03-25T06:22:03Z</time>
      </trkpt>
      <trkpt lat="47.57753" lon="-0.50717">
        <ele>14.8</ele>
        <time>2012-03-25T06:22:07Z</time>
      </trkpt>
      <trkpt lat="47.57745" lon="-0.5071">
        <ele>14.6</ele>
        <time>2012-03-25T06:22:09Z</time>
      </trkpt>
      <trkpt lat="47.57741" lon="-0.50692">
        <ele>14.5</ele>
        <time>2012-03-25T06:22:12Z</time>
      </trkpt>
      <trkpt lat="47.5774" lon="-0.5067">
        <ele>14.4</ele>
        <time>2012-03-25T06:22:15Z</time>
      </trkpt>
      <trkpt lat="47.5774" lon="-0.50652">
        <ele>14.3</ele>
        <time>2012-03-25T06:22:17Z</time>
      </trkpt>
      <trkpt lat="47.5774" lon="-0.50637">
        <ele>14.2</ele>
        <time>2012-03-25T06:22:18Z</time>
      </trkpt>
      <trkpt lat="47.5774" lon="-0.5062">
        <ele>14.1</ele>
        <time>2012-03-25T06:22:20Z</time>
      </trkpt>
      <trkpt lat="47.57739" lon="-0.50604">
        <ele>14.1</ele>
        <time>2012-03-25T06:22:23Z</time>
      </trkpt>
      <trkpt lat="47.57739" lon="-0.50588">
        <ele>14.2</ele>
        <time>2012-03-25T06:22:24Z</time>
      </trkpt>
      <trkpt lat="47.57738" lon="-0.50572">
        <ele>14.3</ele>
        <time>2012-03-25T06:22:27Z</time>
      </trkpt>
      <trkpt lat="47.57736" lon="-0.50556">
        <ele>14.4</ele>
        <time>2012-03-25T06:22:28Z</time>
      </trkpt>
      <trkpt lat="47.57733" lon="-0.5054">
        <ele>14.5</ele>
        <time>2012-03-25T06:22:30Z</time>
      </trkpt>
      <trkpt lat="47.5773" lon="-0.50522">
        <ele>14.2</ele>
        <time>2012-03-25T06:22:32Z</time>
      </trkpt>
      <trkpt lat="47.57727" lon="-0.50505">
        <ele>13.9</ele>
        <time>2012-03-25T06:22:35Z</time>
      </trkpt>
      <trkpt lat="47.57725" lon="-0.50489">
        <ele>13.6</ele>
        <time>2012-03-25T06:22:37Z</time>
      </trkpt>
      <trkpt lat="47.57722" lon="-0.50472">
        <ele>13.4</ele>
        <time>2012-03-25T06:22:38Z</time>
      </trkpt>
      <trkpt lat="47.5772" lon="-0.50456">
        <ele>13.6</ele>
        <time>2012-03-25T06:22:41Z</time>
      </trkpt>
      <trkpt lat="47.57717" lon="-0.5044">
        <ele>13.9</ele>
        <time>2012-03-25T06:22:43Z</time>
      </trkpt>
      <trkpt lat="47.57715" lon="-0.50425">
        <ele>14.1</ele>
        <time>2012-03-25T06:22:45Z</time>
      </trkpt>
      <trkpt lat="47.57714" lon="-0.50411">
        <ele>14.3</ele>
        <time>2012-03-25T06:22:46Z</time>
      </trkpt>
      <trkpt lat="47.57712" lon="-0.50396">
        <ele>14.5</ele>
        <time>2012-03-25T06:22:48Z</time>
      </trkpt>
      <trkpt lat="47.5771" lon="-0.5038">
        <ele>14.6</ele>
        <time>2012-03-25T06:22:51Z</time>
      </trkpt>
      <trkpt lat="47.57709" lon="-0.50364">
        <ele>14.5</ele>
        <time>2012-03-25T06:22:52Z</time>
      </trkpt>
      <trkpt lat="47.57708" lon="-0.50347">
        <ele>14.8</ele>
        <time>2012-03-25T06:22:55Z</time>
      </trkpt>
      <trkpt lat="47.57706" lon="-0.50331">
        <ele>15.1</ele>
        <time>2012-03-25T06:22:57Z</time>
      </trkpt>
      <trkpt lat="47.57704" lon="-0.50314">
        <ele>15.4</ele>
        <time>2012-03-25T06:22:58Z</time>
      </trkpt>
      <trkpt lat="47.57702" lon="-0.50297">
        <ele>15.6</ele>
        <time>2012-03-25T06:23:00Z</time>
      </trkpt>
      <trkpt lat="47.577" lon="-0.5028">
        <ele>15.4</ele>
        <time>2012-03-25T06:23:03Z</time>
      </trkpt>
      <trkpt lat="47.57699" lon="-0.50265">
        <ele>15.1</ele>
        <time>2012-03-25T06:23:04Z</time>
      </trkpt>
      <trkpt lat="47.57696" lon="-0.50247">
        <ele>14.8</ele>
        <time>2012-03-25T06:23:08Z</time>
      </trkpt>
      <trkpt lat="47.57692" lon="-0.50234">
        <ele>14.5</ele>
        <time>2012-03-25T06:23:10Z</time>
      </trkpt>
      <trkpt lat="47.57682" lon="-0.50229">
        <ele>14.3</ele>
        <time>2012-03-25T06:23:12Z</time>
      </trkpt>
      <trkpt lat="47.57668" lon="-0.50231">
        <ele>14.5</ele>
        <time>2012-03-25T06:23:16Z</time>
      </trkpt>
      <trkpt lat="47.57659" lon="-0.50233">
        <ele>14.9</ele>
        <time>2012-03-25T06:23:18Z</time>
      </trkpt>
      <trkpt lat="47.57649" lon="-0.50237">
        <ele>15.4</ele>
        <time>2012-03-25T06:23:19Z</time>
      </trkpt>
      <trkpt lat="47.5764" lon="-0.50239">
        <ele>15.8</ele>
        <time>2012-03-25T06:23:21Z</time>
      </trkpt>
      <trkpt lat="47.57631" lon="-0.50242">
        <ele>16.3</ele>
        <time>2012-03-25T06:23:23Z</time>
      </trkpt>
      <trkpt lat="47.57622" lon="-0.50245">
        <ele>16.7</ele>
        <time>2012-03-25T06:23:26Z</time>
      </trkpt>
      <trkpt lat="47.57613" lon="-0.50249">
        <ele>17.2</ele>
        <time>2012-03-25T06:23:27Z</time>
      </trkpt>
      <trkpt lat="47.57603" lon="-0.50253">
        <ele>17.6</ele>
        <time>2012-03-25T06:23:30Z</time>
      </trkpt>
      <trkpt lat="47.57593" lon="-0.50256">
        <ele>18.3</ele>
        <time>2012-03-25T06:23:31Z</time>
      </trkpt>
      <trkpt lat="47.57584" lon="-0.50259">
        <ele>18.9</ele>
        <time>2012-03-25T06:23:33Z</time>
      </trkpt>
      <trkpt lat="47.57572" lon="-0.50261">
        <ele>19.5</ele>
        <time>2012-03-25T06:23:35Z</time>
      </trkpt>
      <trkpt lat="47.57562" lon="-0.50263">
        <ele>19.7</ele>
        <time>2012-03-25T06:23:37Z</time>
      </trkpt>
      <trkpt lat="47.57551" lon="-0.50266">
        <ele>19.9</ele>
        <time>2012-03-25T06:23:40Z</time>
      </trkpt>
      <trkpt lat="47.57539" lon="-0.50268">
        <ele>20.1</ele>
        <time>2012-03-25T06:23:42Z</time>
      </trkpt>
      <trkpt lat="47.57528" lon="-0.50269">
        <ele>20.3</ele>
        <time>2012-03-25T06:23:44Z</time>
      </trkpt>
      <trkpt lat="47.57517" lon="-0.5027">
        <ele>20.2</ele>
        <time>2012-03-25T06:23:45Z</time>
      </trkpt>
      <trkpt lat="47.57506" lon="-0.50272">
        <ele>20</ele>
        <time>2012-03-25T06:23:48Z</time>
      </trkpt>
      <trkpt lat="47.57495" lon="-0.50275">
        <ele>19.8</ele>
        <time>2012-03-25T06:23:49Z</time>
      </trkpt>
      <trkpt lat="47.57484" lon="-0.50278">
        <ele>19.6</ele>
        <time>2012-03-25T06:23:52Z</time>
      </trkpt>
      <trkpt lat="47.57473" lon="-0.50282">
        <ele>19.3</ele>
        <time>2012-03-25T06:23:54Z</time>
      </trkpt>
      <trkpt lat="47.57462" lon="-0.50287">
        <ele>18.9</ele>
        <time>2012-03-25T06:23:56Z</time>
      </trkpt>
      <trkpt lat="47.5745" lon="-0.50292">
        <ele>18.5</ele>
        <time>2012-03-25T06:23:57Z</time>
      </trkpt>
      <trkpt lat="47.5744" lon="-0.50298">
        <ele>18.2</ele>
        <time>2012-03-25T06:24:00Z</time>
      </trkpt>
      <trkpt lat="47.57428" lon="-0.50304">
        <ele>18.1</ele>
        <time>2012-03-25T06:24:01Z</time>
      </trkpt>
      <trkpt lat="47.57418" lon="-0.50309">
        <ele>18</ele>
        <time>2012-03-25T06:24:03Z</time>
      </trkpt>
      <trkpt lat="47.57408" lon="-0.50315">
        <ele>17.9</ele>
        <time>2012-03-25T06:24:05Z</time>
      </trkpt>
      <trkpt lat="47.57398" lon="-0.50322">
        <ele>18.1</ele>
        <time>2012-03-25T06:24:07Z</time>
      </trkpt>
      <trkpt lat="47.57386" lon="-0.50329">
        <ele>18.4</ele>
        <time>2012-03-25T06:24:10Z</time>
      </trkpt>
      <trkpt lat="47.57373" lon="-0.50336">
        <ele>18.4</ele>
        <time>2012-03-25T06:24:11Z</time>
      </trkpt>
      <trkpt lat="47.57363" lon="-0.50344">
        <ele>18.4</ele>
        <time>2012-03-25T06:24:13Z</time>
      </trkpt>
      <trkpt lat="47.57353" lon="-0.5035">
        <ele>18.4</ele>
        <time>2012-03-25T06:24:15Z</time>
      </trkpt>
      <trkpt lat="47.57342" lon="-0.50357">
        <ele>18.5</ele>
        <time>2012-03-25T06:24:17Z</time>
      </trkpt>
      <trkpt lat="47.57331" lon="-0.50363">
        <ele>18.7</ele>
        <time>2012-03-25T06:24:20Z</time>
      </trkpt>
      <trkpt lat="47.5732" lon="-0.5037">
        <ele>18.9</ele>
        <time>2012-03-25T06:24:22Z</time>
      </trkpt>
      <trkpt lat="47.5731" lon="-0.50377">
        <ele>18.8</ele>
        <time>2012-03-25T06:24:24Z</time>
      </trkpt>
      <trkpt lat="47.573" lon="-0.50384">
        <ele>18.7</ele>
        <time>2012-03-25T06:24:26Z</time>
      </trkpt>
      <trkpt lat="47.57289" lon="-0.50391">
        <ele>18.6</ele>
        <time>2012-03-25T06:24:27Z</time>
      </trkpt>
      <trkpt lat="47.57278" lon="-0.50398">
        <ele>18.5</ele>
        <time>2012-03-25T06:24:30Z</time>
      </trkpt>
      <trkpt lat="47.57269" lon="-0.50407">
        <ele>18.5</ele>
        <time>2012-03-25T06:24:31Z</time>
      </trkpt>
      <trkpt lat="47.57259" lon="-0.50417">
        <ele>18.3</ele>
        <time>2012-03-25T06:24:33Z</time>
      </trkpt>
      <trkpt lat="47.5725" lon="-0.50425">
        <ele>18.6</ele>
        <time>2012-03-25T06:24:36Z</time>
      </trkpt>
      <trkpt lat="47.5724" lon="-0.50433">
        <ele>19</ele>
        <time>2012-03-25T06:24:38Z</time>
      </trkpt>
      <trkpt lat="47.57231" lon="-0.50442">
        <ele>19.2</ele>
        <time>2012-03-25T06:24:40Z</time>
      </trkpt>
      <trkpt lat="47.57221" lon="-0.5045">
        <ele>19.4</ele>
        <time>2012-03-25T06:24:42Z</time>
      </trkpt>
      <trkpt lat="47.57213" lon="-0.50459">
        <ele>19.5</ele>
        <time>2012-03-25T06:24:44Z</time>
      </trkpt>
      <trkpt lat="47.57205" lon="-0.50466">
        <ele>19.7</ele>
        <time>2012-03-25T06:24:45Z</time>
      </trkpt>
      <trkpt lat="47.57195" lon="-0.50476">
        <ele>19.9</ele>
        <time>2012-03-25T06:24:47Z</time>
      </trkpt>
      <trkpt lat="47.57182" lon="-0.50485">
        <ele>20.1</ele>
        <time>2012-03-25T06:24:49Z</time>
      </trkpt>
      <trkpt lat="47.5717" lon="-0.50494">
        <ele>20.6</ele>
        <time>2012-03-25T06:24:51Z</time>
      </trkpt>
      <trkpt lat="47.5716" lon="-0.50502">
        <ele>20.6</ele>
        <time>2012-03-25T06:24:53Z</time>
      </trkpt>
      <trkpt lat="47.5715" lon="-0.50509">
        <ele>21</ele>
        <time>2012-03-25T06:24:56Z</time>
      </trkpt>
      <trkpt lat="47.57142" lon="-0.50515">
        <ele>20.8</ele>
        <time>2012-03-25T06:24:57Z</time>
      </trkpt>
      <trkpt lat="47.57132" lon="-0.50521">
        <ele>20.6</ele>
        <time>2012-03-25T06:25:00Z</time>
      </trkpt>
      <trkpt lat="47.57119" lon="-0.50527">
        <ele>20.5</ele>
        <time>2012-03-25T06:25:02Z</time>
      </trkpt>
      <trkpt lat="47.57106" lon="-0.50533">
        <ele>20.4</ele>
        <time>2012-03-25T06:25:03Z</time>
      </trkpt>
      <trkpt lat="47.57094" lon="-0.5054">
        <ele>20.3</ele>
        <time>2012-03-25T06:25:05Z</time>
      </trkpt>
      <trkpt lat="47.57083" lon="-0.50546">
        <ele>20.2</ele>
        <time>2012-03-25T06:25:07Z</time>
      </trkpt>
      <trkpt lat="47.57071" lon="-0.50551">
        <ele>20.1</ele>
        <time>2012-03-25T06:25:10Z</time>
      </trkpt>
      <trkpt lat="47.57059" lon="-0.50557">
        <ele>20</ele>
        <time>2012-03-25T06:25:12Z</time>
      </trkpt>
      <trkpt lat="47.57048" lon="-0.50562">
        <ele>19.5</ele>
        <time>2012-03-25T06:25:13Z</time>
      </trkpt>
      <trkpt lat="47.57038" lon="-0.50569">
        <ele>19.6</ele>
        <time>2012-03-25T06:25:16Z</time>
      </trkpt>
      <trkpt lat="47.57029" lon="-0.50575">
        <ele>19.7</ele>
        <time>2012-03-25T06:25:17Z</time>
      </trkpt>
      <trkpt lat="47.57017" lon="-0.50581">
        <ele>19.8</ele>
        <time>2012-03-25T06:25:19Z</time>
      </trkpt>
      <trkpt lat="47.57005" lon="-0.50583">
        <ele>20.1</ele>
        <time>2012-03-25T06:25:22Z</time>
      </trkpt>
      <trkpt lat="47.56993" lon="-0.50583">
        <ele>20.4</ele>
        <time>2012-03-25T06:25:24Z</time>
      </trkpt>
      <trkpt lat="47.56982" lon="-0.50587">
        <ele>20.5</ele>
        <time>2012-03-25T06:25:25Z</time>
      </trkpt>
      <trkpt lat="47.56971" lon="-0.50592">
        <ele>20.4</ele>
        <time>2012-03-25T06:25:27Z</time>
      </trkpt>
      <trkpt lat="47.5696" lon="-0.50595">
        <ele>20.2</ele>
        <time>2012-03-25T06:25:30Z</time>
      </trkpt>
      <trkpt lat="47.5695" lon="-0.50598">
        <ele>20</ele>
        <time>2012-03-25T06:25:31Z</time>
      </trkpt>
      <trkpt lat="47.56941" lon="-0.50603">
        <ele>19.8</ele>
        <time>2012-03-25T06:25:33Z</time>
      </trkpt>
      <trkpt lat="47.56937" lon="-0.50615">
        <ele>19.6</ele>
        <time>2012-03-25T06:25:35Z</time>
      </trkpt>
      <trkpt lat="47.56937" lon="-0.5063">
        <ele>19.5</ele>
        <time>2012-03-25T06:25:38Z</time>
      </trkpt>
      <trkpt lat="47.56939" lon="-0.50646">
        <ele>19.3</ele>
        <time>2012-03-25T06:25:39Z</time>
      </trkpt>
      <trkpt lat="47.5694" lon="-0.50661">
        <ele>19.1</ele>
        <time>2012-03-25T06:25:41Z</time>
      </trkpt>
      <trkpt lat="47.56931" lon="-0.50675">
        <ele>18.7</ele>
        <time>2012-03-25T06:25:45Z</time>
      </trkpt>
      <trkpt lat="47.56918" lon="-0.50673">
        <ele>18.4</ele>
        <time>2012-03-25T06:25:47Z</time>
      </trkpt>
      <trkpt lat="47.56908" lon="-0.50667">
        <ele>18</ele>
        <time>2012-03-25T06:25:50Z</time>
      </trkpt>
      <trkpt lat="47.56898" lon="-0.50663">
        <ele>18</ele>
        <time>2012-03-25T06:25:52Z</time>
      </trkpt>
      <trkpt lat="47.56889" lon="-0.50662">
        <ele>18</ele>
        <time>2012-03-25T06:25:54Z</time>
      </trkpt>
      <trkpt lat="47.56873" lon="-0.50663">
        <ele>18</ele>
        <time>2012-03-25T06:25:56Z</time>
      </trkpt>
      <trkpt lat="47.5686" lon="-0.50665">
        <ele>18</ele>
        <time>2012-03-25T06:25:59Z</time>
      </trkpt>
      <trkpt lat="47.56848" lon="-0.50665">
        <ele>18</ele>
        <time>2012-03-25T06:26:00Z</time>
      </trkpt>
      <trkpt lat="47.56836" lon="-0.50666">
        <ele>17.9</ele>
        <time>2012-03-25T06:26:02Z</time>
      </trkpt>
      <trkpt lat="47.56828" lon="-0.50672">
        <ele>17.8</ele>
        <time>2012-03-25T06:26:05Z</time>
      </trkpt>
      <trkpt lat="47.56817" lon="-0.50682">
        <ele>17.7</ele>
        <time>2012-03-25T06:26:07Z</time>
      </trkpt>
      <trkpt lat="47.56806" lon="-0.50687">
        <ele>17.6</ele>
        <time>2012-03-25T06:26:08Z</time>
      </trkpt>
      <trkpt lat="47.56796" lon="-0.50692">
        <ele>17.5</ele>
        <time>2012-03-25T06:26:10Z</time>
      </trkpt>
      <trkpt lat="47.56787" lon="-0.50702">
        <ele>17.5</ele>
        <time>2012-03-25T06:26:12Z</time>
      </trkpt>
      <trkpt lat="47.56779" lon="-0.50714">
        <ele>17.4</ele>
        <time>2012-03-25T06:26:14Z</time>
      </trkpt>
      <trkpt lat="47.56771" lon="-0.50726">
        <ele>17.3</ele>
        <time>2012-03-25T06:26:16Z</time>
      </trkpt>
      <trkpt lat="47.56762" lon="-0.50734">
        <ele>17.5</ele>
        <time>2012-03-25T06:26:19Z</time>
      </trkpt>
      <trkpt lat="47.5675" lon="-0.50738">
        <ele>17.6</ele>
        <time>2012-03-25T06:26:20Z</time>
      </trkpt>
      <trkpt lat="47.56739" lon="-0.50738">
        <ele>17.8</ele>
        <time>2012-03-25T06:26:23Z</time>
      </trkpt>
      <trkpt lat="47.56727" lon="-0.50741">
        <ele>18.1</ele>
        <time>2012-03-25T06:26:25Z</time>
      </trkpt>
      <trkpt lat="47.56717" lon="-0.50745">
        <ele>18.2</ele>
        <time>2012-03-25T06:26:26Z</time>
      </trkpt>
      <trkpt lat="47.56707" lon="-0.50753">
        <ele>18.3</ele>
        <time>2012-03-25T06:26:28Z</time>
      </trkpt>
      <trkpt lat="47.56698" lon="-0.50761">
        <ele>18.4</ele>
        <time>2012-03-25T06:26:31Z</time>
      </trkpt>
      <trkpt lat="47.56688" lon="-0.50768">
        <ele>18.5</ele>
        <time>2012-03-25T06:26:32Z</time>
      </trkpt>
      <trkpt lat="47.5668" lon="-0.50775">
        <ele>18.5</ele>
        <time>2012-03-25T06:26:35Z</time>
      </trkpt>
      <trkpt lat="47.56672" lon="-0.50783">
        <ele>18.8</ele>
        <time>2012-03-25T06:26:37Z</time>
      </trkpt>
      <trkpt lat="47.56662" lon="-0.50793">
        <ele>19.1</ele>
        <time>2012-03-25T06:26:38Z</time>
      </trkpt>
      <trkpt lat="47.56652" lon="-0.50802">
        <ele>19.1</ele>
        <time>2012-03-25T06:26:40Z</time>
      </trkpt>
      <trkpt lat="47.56643" lon="-0.50811">
        <ele>18.9</ele>
        <time>2012-03-25T06:26:42Z</time>
      </trkpt>
      <trkpt lat="47.56632" lon="-0.5082">
        <ele>18.7</ele>
        <time>2012-03-25T06:26:45Z</time>
      </trkpt>
      <trkpt lat="47.56621" lon="-0.50831">
        <ele>18.5</ele>
        <time>2012-03-25T06:26:46Z</time>
      </trkpt>
      <trkpt lat="47.56609" lon="-0.50843">
        <ele>18.5</ele>
        <time>2012-03-25T06:26:48Z</time>
      </trkpt>
      <trkpt lat="47.56599" lon="-0.50853">
        <ele>18.5</ele>
        <time>2012-03-25T06:26:50Z</time>
      </trkpt>
      <trkpt lat="47.56589" lon="-0.50864">
        <ele>18.6</ele>
        <time>2012-03-25T06:26:53Z</time>
      </trkpt>
      <trkpt lat="47.5658" lon="-0.50874">
        <ele>18.7</ele>
        <time>2012-03-25T06:26:55Z</time>
      </trkpt>
      <trkpt lat="47.5657" lon="-0.50883">
        <ele>18.8</ele>
        <time>2012-03-25T06:26:56Z</time>
      </trkpt>
      <trkpt lat="47.5656" lon="-0.50893">
        <ele>18.7</ele>
        <time>2012-03-25T06:26:58Z</time>
      </trkpt>
      <trkpt lat="47.5655" lon="-0.50903">
        <ele>18.6</ele>
        <time>2012-03-25T06:27:01Z</time>
      </trkpt>
      <trkpt lat="47.56541" lon="-0.50913">
        <ele>18.4</ele>
        <time>2012-03-25T06:27:03Z</time>
      </trkpt>
      <trkpt lat="47.56532" lon="-0.50923">
        <ele>18.3</ele>
        <time>2012-03-25T06:27:05Z</time>
      </trkpt>
      <trkpt lat="47.56522" lon="-0.50933">
        <ele>18.2</ele>
        <time>2012-03-25T06:27:07Z</time>
      </trkpt>
      <trkpt lat="47.56514" lon="-0.50945">
        <ele>18.1</ele>
        <time>2012-03-25T06:27:08Z</time>
      </trkpt>
      <trkpt lat="47.56506" lon="-0.50956">
        <ele>18</ele>
        <time>2012-03-25T06:27:10Z</time>
      </trkpt>
      <trkpt lat="47.56497" lon="-0.50968">
        <ele>17.9</ele>
        <time>2012-03-25T06:27:12Z</time>
      </trkpt>
      <trkpt lat="47.56489" lon="-0.5098">
        <ele>17.6</ele>
        <time>2012-03-25T06:27:15Z</time>
      </trkpt>
      <trkpt lat="47.56481" lon="-0.50993">
        <ele>17.4</ele>
        <time>2012-03-25T06:27:16Z</time>
      </trkpt>
      <trkpt lat="47.56474" lon="-0.51006">
        <ele>17.1</ele>
        <time>2012-03-25T06:27:18Z</time>
      </trkpt>
      <trkpt lat="47.56468" lon="-0.51018">
        <ele>16.8</ele>
        <time>2012-03-25T06:27:20Z</time>
      </trkpt>
      <trkpt lat="47.56463" lon="-0.51029">
        <ele>16.5</ele>
        <time>2012-03-25T06:27:23Z</time>
      </trkpt>
      <trkpt lat="47.56457" lon="-0.51042">
        <ele>16.5</ele>
        <time>2012-03-25T06:27:25Z</time>
      </trkpt>
      <trkpt lat="47.5645" lon="-0.51053">
        <ele>16.4</ele>
        <time>2012-03-25T06:27:27Z</time>
      </trkpt>
      <trkpt lat="47.56443" lon="-0.51063">
        <ele>16.3</ele>
        <time>2012-03-25T06:27:28Z</time>
      </trkpt>
      <trkpt lat="47.56436" lon="-0.51074">
        <ele>16</ele>
        <time>2012-03-25T06:27:31Z</time>
      </trkpt>
      <trkpt lat="47.56427" lon="-0.51085">
        <ele>15.7</ele>
        <time>2012-03-25T06:27:32Z</time>
      </trkpt>
      <trkpt lat="47.56417" lon="-0.51096">
        <ele>15.7</ele>
        <time>2012-03-25T06:27:34Z</time>
      </trkpt>
      <trkpt lat="47.56408" lon="-0.51105">
        <ele>15.8</ele>
        <time>2012-03-25T06:27:37Z</time>
      </trkpt>
      <trkpt lat="47.56399" lon="-0.51116">
        <ele>15.9</ele>
        <time>2012-03-25T06:27:38Z</time>
      </trkpt>
      <trkpt lat="47.56389" lon="-0.51126">
        <ele>16</ele>
        <time>2012-03-25T06:27:41Z</time>
      </trkpt>
      <trkpt lat="47.56379" lon="-0.51135">
        <ele>16.1</ele>
        <time>2012-03-25T06:27:42Z</time>
      </trkpt>
      <trkpt lat="47.5637" lon="-0.51143">
        <ele>16.2</ele>
        <time>2012-03-25T06:27:44Z</time>
      </trkpt>
      <trkpt lat="47.56359" lon="-0.51151">
        <ele>16.3</ele>
        <time>2012-03-25T06:27:46Z</time>
      </trkpt>
      <trkpt lat="47.56349" lon="-0.51157">
        <ele>16.4</ele>
        <time>2012-03-25T06:27:48Z</time>
      </trkpt>
      <trkpt lat="47.56338" lon="-0.5116">
        <ele>16.5</ele>
        <time>2012-03-25T06:27:51Z</time>
      </trkpt>
      <trkpt lat="47.56327" lon="-0.51161">
        <ele>16.7</ele>
        <time>2012-03-25T06:27:53Z</time>
      </trkpt>
      <trkpt lat="47.56316" lon="-0.51159">
        <ele>17.2</ele>
        <time>2012-03-25T06:27:54Z</time>
      </trkpt>
      <trkpt lat="47.56306" lon="-0.51154">
        <ele>17.4</ele>
        <time>2012-03-25T06:27:56Z</time>
      </trkpt>
      <trkpt lat="47.56296" lon="-0.51147">
        <ele>17.5</ele>
        <time>2012-03-25T06:27:58Z</time>
      </trkpt>
      <trkpt lat="47.56287" lon="-0.51139">
        <ele>17.7</ele>
        <time>2012-03-25T06:28:00Z</time>
      </trkpt>
      <trkpt lat="47.56278" lon="-0.51131">
        <ele>17.9</ele>
        <time>2012-03-25T06:28:02Z</time>
      </trkpt>
      <trkpt lat="47.56269" lon="-0.51122">
        <ele>18.1</ele>
        <time>2012-03-25T06:28:04Z</time>
      </trkpt>
      <trkpt lat="47.56261" lon="-0.51112">
        <ele>18.3</ele>
        <time>2012-03-25T06:28:06Z</time>
      </trkpt>
      <trkpt lat="47.56253" lon="-0.51104">
        <ele>18.2</ele>
        <time>2012-03-25T06:28:08Z</time>
      </trkpt>
      <trkpt lat="47.56244" lon="-0.51096">
        <ele>18.1</ele>
        <time>2012-03-25T06:28:10Z</time>
      </trkpt>
      <trkpt lat="47.56236" lon="-0.51087">
        <ele>18</ele>
        <time>2012-03-25T06:28:12Z</time>
      </trkpt>
      <trkpt lat="47.5623" lon="-0.51077">
        <ele>17.9</ele>
        <time>2012-03-25T06:28:14Z</time>
      </trkpt>
      <trkpt lat="47.5622" lon="-0.51067">
        <ele>17.8</ele>
        <time>2012-03-25T06:28:18Z</time>
      </trkpt>
      <trkpt lat="47.5621" lon="-0.51065">
        <ele>17.7</ele>
        <time>2012-03-25T06:28:20Z</time>
      </trkpt>
      <trkpt lat="47.56199" lon="-0.51061">
        <ele>17.6</ele>
        <time>2012-03-25T06:28:22Z</time>
      </trkpt>
      <trkpt lat="47.56189" lon="-0.51055">
        <ele>17.5</ele>
        <time>2012-03-25T06:28:23Z</time>
      </trkpt>
      <trkpt lat="47.56179" lon="-0.51047">
        <ele>17.5</ele>
        <time>2012-03-25T06:28:26Z</time>
      </trkpt>
      <trkpt lat="47.5617" lon="-0.51039">
        <ele>17.2</ele>
        <time>2012-03-25T06:28:27Z</time>
      </trkpt>
      <trkpt lat="47.56161" lon="-0.5103">
        <ele>16.9</ele>
        <time>2012-03-25T06:28:29Z</time>
      </trkpt>
      <trkpt lat="47.56151" lon="-0.51021">
        <ele>16.9</ele>
        <time>2012-03-25T06:28:32Z</time>
      </trkpt>
      <trkpt lat="47.56141" lon="-0.51012">
        <ele>16.9</ele>
        <time>2012-03-25T06:28:33Z</time>
      </trkpt>
      <trkpt lat="47.56131" lon="-0.51004">
        <ele>16.9</ele>
        <time>2012-03-25T06:28:36Z</time>
      </trkpt>
      <trkpt lat="47.56121" lon="-0.50995">
        <ele>17</ele>
        <time>2012-03-25T06:28:38Z</time>
      </trkpt>
      <trkpt lat="47.56111" lon="-0.50987">
        <ele>16.9</ele>
        <time>2012-03-25T06:28:39Z</time>
      </trkpt>
      <trkpt lat="47.56101" lon="-0.50979">
        <ele>16.8</ele>
        <time>2012-03-25T06:28:41Z</time>
      </trkpt>
      <trkpt lat="47.5609" lon="-0.50971">
        <ele>16.6</ele>
        <time>2012-03-25T06:28:44Z</time>
      </trkpt>
      <trkpt lat="47.56081" lon="-0.50963">
        <ele>16.5</ele>
        <time>2012-03-25T06:28:45Z</time>
      </trkpt>
      <trkpt lat="47.56071" lon="-0.50954">
        <ele>16.3</ele>
        <time>2012-03-25T06:28:48Z</time>
      </trkpt>
      <trkpt lat="47.56061" lon="-0.50944">
        <ele>16.3</ele>
        <time>2012-03-25T06:28:49Z</time>
      </trkpt>
      <trkpt lat="47.56051" lon="-0.50934">
        <ele>16.3</ele>
        <time>2012-03-25T06:28:51Z</time>
      </trkpt>
      <trkpt lat="47.56041" lon="-0.50924">
        <ele>16.3</ele>
        <time>2012-03-25T06:28:54Z</time>
      </trkpt>
      <trkpt lat="47.56031" lon="-0.50915">
        <ele>16.3</ele>
        <time>2012-03-25T06:28:55Z</time>
      </trkpt>
      <trkpt lat="47.56021" lon="-0.50904">
        <ele>16.3</ele>
        <time>2012-03-25T06:28:57Z</time>
      </trkpt>
      <trkpt lat="47.56012" lon="-0.50893">
        <ele>16.2</ele>
        <time>2012-03-25T06:28:59Z</time>
      </trkpt>
      <trkpt lat="47.56004" lon="-0.50881">
        <ele>16.1</ele>
        <time>2012-03-25T06:29:01Z</time>
      </trkpt>
      <trkpt lat="47.55997" lon="-0.50867">
        <ele>16</ele>
        <time>2012-03-25T06:29:04Z</time>
      </trkpt>
      <trkpt lat="47.55993" lon="-0.50852">
        <ele>16.1</ele>
        <time>2012-03-25T06:29:06Z</time>
      </trkpt>
      <trkpt lat="47.55991" lon="-0.50837">
        <ele>16.2</ele>
        <time>2012-03-25T06:29:08Z</time>
      </trkpt>
      <trkpt lat="47.5599" lon="-0.50821">
        <ele>16.3</ele>
        <time>2012-03-25T06:29:09Z</time>
      </trkpt>
      <trkpt lat="47.55988" lon="-0.50806">
        <ele>16.4</ele>
        <time>2012-03-25T06:29:12Z</time>
      </trkpt>
      <trkpt lat="47.55987" lon="-0.50792">
        <ele>16.5</ele>
        <time>2012-03-25T06:29:13Z</time>
      </trkpt>
      <trkpt lat="47.55985" lon="-0.50779">
        <ele>16.4</ele>
        <time>2012-03-25T06:29:15Z</time>
      </trkpt>
      <trkpt lat="47.55979" lon="-0.50761">
        <ele>16.4</ele>
        <time>2012-03-25T06:29:19Z</time>
      </trkpt>
      <trkpt lat="47.55975" lon="-0.50749">
        <ele>16.4</ele>
        <time>2012-03-25T06:29:21Z</time>
      </trkpt>
      <trkpt lat="47.55969" lon="-0.50734">
        <ele>16.4</ele>
        <time>2012-03-25T06:29:22Z</time>
      </trkpt>
      <trkpt lat="47.55962" lon="-0.5072">
        <ele>16.4</ele>
        <time>2012-03-25T06:29:24Z</time>
      </trkpt>
      <trkpt lat="47.55956" lon="-0.50708">
        <ele>16.4</ele>
        <time>2012-03-25T06:29:27Z</time>
      </trkpt>
      <trkpt lat="47.55948" lon="-0.50696">
        <ele>16.3</ele>
        <time>2012-03-25T06:29:29Z</time>
      </trkpt>
      <trkpt lat="47.55941" lon="-0.50683">
        <ele>16.4</ele>
        <time>2012-03-25T06:29:30Z</time>
      </trkpt>
      <trkpt lat="47.55935" lon="-0.50669">
        <ele>16.5</ele>
        <time>2012-03-25T06:29:33Z</time>
      </trkpt>
      <trkpt lat="47.5593" lon="-0.50653">
        <ele>16.5</ele>
        <time>2012-03-25T06:29:35Z</time>
      </trkpt>
      <trkpt lat="47.55927" lon="-0.50638">
        <ele>16.6</ele>
        <time>2012-03-25T06:29:36Z</time>
      </trkpt>
      <trkpt lat="47.55924" lon="-0.50624">
        <ele>16.9</ele>
        <time>2012-03-25T06:29:38Z</time>
      </trkpt>
      <trkpt lat="47.55921" lon="-0.50609">
        <ele>17.2</ele>
        <time>2012-03-25T06:29:41Z</time>
      </trkpt>
      <trkpt lat="47.55918" lon="-0.50593">
        <ele>17.5</ele>
        <time>2012-03-25T06:29:42Z</time>
      </trkpt>
      <trkpt lat="47.55917" lon="-0.50578">
        <ele>17.7</ele>
        <time>2012-03-25T06:29:45Z</time>
      </trkpt>
      <trkpt lat="47.55915" lon="-0.50563">
        <ele>18</ele>
        <time>2012-03-25T06:29:46Z</time>
      </trkpt>
      <trkpt lat="47.55912" lon="-0.50547">
        <ele>18.3</ele>
        <time>2012-03-25T06:29:49Z</time>
      </trkpt>
      <trkpt lat="47.5591" lon="-0.50529">
        <ele>18.5</ele>
        <time>2012-03-25T06:29:51Z</time>
      </trkpt>
      <trkpt lat="47.55909" lon="-0.50514">
        <ele>18.7</ele>
        <time>2012-03-25T06:29:52Z</time>
      </trkpt>
      <trkpt lat="47.55908" lon="-0.50498">
        <ele>18.9</ele>
        <time>2012-03-25T06:29:55Z</time>
      </trkpt>
      <trkpt lat="47.55908" lon="-0.50484">
        <ele>19.1</ele>
        <time>2012-03-25T06:29:56Z</time>
      </trkpt>
      <trkpt lat="47.55909" lon="-0.50468">
        <ele>19.3</ele>
        <time>2012-03-25T06:29:58Z</time>
      </trkpt>
      <trkpt lat="47.5591" lon="-0.50455">
        <ele>19.5</ele>
        <time>2012-03-25T06:30:00Z</time>
      </trkpt>
      <trkpt lat="47.55912" lon="-0.50439">
        <ele>19.7</ele>
        <time>2012-03-25T06:30:02Z</time>
      </trkpt>
      <trkpt lat="47.55911" lon="-0.50423">
        <ele>20</ele>
        <time>2012-03-25T06:30:05Z</time>
      </trkpt>
      <trkpt lat="47.5591" lon="-0.50408">
        <ele>20.3</ele>
        <time>2012-03-25T06:30:06Z</time>
      </trkpt>
      <trkpt lat="47.55913" lon="-0.50395">
        <ele>20.5</ele>
        <time>2012-03-25T06:30:09Z</time>
      </trkpt>
      <trkpt lat="47.55915" lon="-0.50379">
        <ele>20.8</ele>
        <time>2012-03-25T06:30:10Z</time>
      </trkpt>
      <trkpt lat="47.55914" lon="-0.50364">
        <ele>21.1</ele>
        <time>2012-03-25T06:30:13Z</time>
      </trkpt>
      <trkpt lat="47.55912" lon="-0.50345">
        <ele>21.1</ele>
        <time>2012-03-25T06:30:15Z</time>
      </trkpt>
      <trkpt lat="47.55912" lon="-0.50331">
        <ele>21.1</ele>
        <time>2012-03-25T06:30:18Z</time>
      </trkpt>
      <trkpt lat="47.55914" lon="-0.50317">
        <ele>21.1</ele>
        <time>2012-03-25T06:30:20Z</time>
      </trkpt>
      <trkpt lat="47.55916" lon="-0.50303">
        <ele>21.1</ele>
        <time>2012-03-25T06:30:21Z</time>
      </trkpt>
      <trkpt lat="47.55915" lon="-0.50288">
        <ele>21.1</ele>
        <time>2012-03-25T06:30:24Z</time>
      </trkpt>
      <trkpt lat="47.55904" lon="-0.50278">
        <ele>20.9</ele>
        <time>2012-03-25T06:30:27Z</time>
      </trkpt>
      <trkpt lat="47.55896" lon="-0.50269">
        <ele>20.7</ele>
        <time>2012-03-25T06:30:29Z</time>
      </trkpt>
      <trkpt lat="47.55885" lon="-0.50258">
        <ele>20.5</ele>
        <time>2012-03-25T06:30:33Z</time>
      </trkpt>
      <trkpt lat="47.55877" lon="-0.5025">
        <ele>20</ele>
        <time>2012-03-25T06:30:35Z</time>
      </trkpt>
      <trkpt lat="47.55867" lon="-0.50239">
        <ele>19.5</ele>
        <time>2012-03-25T06:30:37Z</time>
      </trkpt>
      <trkpt lat="47.55858" lon="-0.50228">
        <ele>18.9</ele>
        <time>2012-03-25T06:30:40Z</time>
      </trkpt>
      <trkpt lat="47.5585" lon="-0.50221">
        <ele>18.5</ele>
        <time>2012-03-25T06:30:42Z</time>
      </trkpt>
      <trkpt lat="47.55842" lon="-0.50212">
        <ele>18.2</ele>
        <time>2012-03-25T06:30:44Z</time>
      </trkpt>
      <trkpt lat="47.55835" lon="-0.50204">
        <ele>17.8</ele>
        <time>2012-03-25T06:30:47Z</time>
      </trkpt>
      <trkpt lat="47.55827" lon="-0.50195">
        <ele>17.5</ele>
        <time>2012-03-25T06:30:48Z</time>
      </trkpt>
      <trkpt lat="47.5582" lon="-0.50186">
        <ele>17.1</ele>
        <time>2012-03-25T06:30:51Z</time>
      </trkpt>
      <trkpt lat="47.55812" lon="-0.50178">
        <ele>16.7</ele>
        <time>2012-03-25T06:30:52Z</time>
      </trkpt>
      <trkpt lat="47.55807" lon="-0.50167">
        <ele>16.4</ele>
        <time>2012-03-25T06:30:55Z</time>
      </trkpt>
      <trkpt lat="47.55814" lon="-0.50157">
        <ele>16</ele>
        <time>2012-03-25T06:30:59Z</time>
      </trkpt>
      <trkpt lat="47.55823" lon="-0.50162">
        <ele>16</ele>
        <time>2012-03-25T06:31:02Z</time>
      </trkpt>
      <trkpt lat="47.55835" lon="-0.50169">
        <ele>16.1</ele>
        <time>2012-03-25T06:31:06Z</time>
      </trkpt>
      <trkpt lat="47.55843" lon="-0.50176">
        <ele>16.5</ele>
        <time>2012-03-25T06:31:09Z</time>
      </trkpt>
      <trkpt lat="47.55855" lon="-0.50183">
        <ele>16.8</ele>
        <time>2012-03-25T06:31:11Z</time>
      </trkpt>
      <trkpt lat="47.55865" lon="-0.50189">
        <ele>17.2</ele>
        <time>2012-03-25T06:31:14Z</time>
      </trkpt>
      <trkpt lat="47.55875" lon="-0.50196">
        <ele>17.5</ele>
        <time>2012-03-25T06:31:17Z</time>
      </trkpt>
      <trkpt lat="47.55884" lon="-0.50204">
        <ele>17.6</ele>
        <time>2012-03-25T06:31:20Z</time>
      </trkpt>
      <trkpt lat="47.55893" lon="-0.50211">
        <ele>17.7</ele>
        <time>2012-03-25T06:31:23Z</time>
      </trkpt>
      <trkpt lat="47.55903" lon="-0.50218">
        <ele>17.8</ele>
        <time>2012-03-25T06:31:27Z</time>
      </trkpt>
      <trkpt lat="47.55912" lon="-0.50225">
        <ele>17.8</ele>
        <time>2012-03-25T06:31:31Z</time>
      </trkpt>
      <trkpt lat="47.55909" lon="-0.5021">
        <ele>17.8</ele>
        <time>2012-03-25T06:31:39Z</time>
      </trkpt>
      <trkpt lat="47.559" lon="-0.50199">
        <ele>17.8</ele>
        <time>2012-03-25T06:31:42Z</time>
      </trkpt>
      <trkpt lat="47.5589" lon="-0.50187">
        <ele>17.7</ele>
        <time>2012-03-25T06:31:44Z</time>
      </trkpt>
      <trkpt lat="47.5588" lon="-0.50175">
        <ele>17.1</ele>
        <time>2012-03-25T06:31:47Z</time>
      </trkpt>
      <trkpt lat="47.5587" lon="-0.50163">
        <ele>16.5</ele>
        <time>2012-03-25T06:31:50Z</time>
      </trkpt>
      <trkpt lat="47.5586" lon="-0.50151">
        <ele>15.8</ele>
        <time>2012-03-25T06:31:53Z</time>
      </trkpt>
      <trkpt lat="47.55851" lon="-0.50138">
        <ele>15.2</ele>
        <time>2012-03-25T06:31:57Z</time>
      </trkpt>
      <trkpt lat="47.55841" lon="-0.50126">
        <ele>14.8</ele>
        <time>2012-03-25T06:31:59Z</time>
      </trkpt>
      <trkpt lat="47.55831" lon="-0.50113">
        <ele>15</ele>
        <time>2012-03-25T06:32:02Z</time>
      </trkpt>
      <trkpt lat="47.55821" lon="-0.50101">
        <ele>15.2</ele>
        <time>2012-03-25T06:32:05Z</time>
      </trkpt>
      <trkpt lat="47.55812" lon="-0.50089">
        <ele>15.5</ele>
        <time>2012-03-25T06:32:08Z</time>
      </trkpt>
      <trkpt lat="47.55804" lon="-0.50078">
        <ele>15.5</ele>
        <time>2012-03-25T06:32:12Z</time>
      </trkpt>
      <trkpt lat="47.55795" lon="-0.50067">
        <ele>15.5</ele>
        <time>2012-03-25T06:32:14Z</time>
      </trkpt>
      <trkpt lat="47.55788" lon="-0.50059">
        <ele>15.5</ele>
        <time>2012-03-25T06:32:16Z</time>
      </trkpt>
      <trkpt lat="47.55781" lon="-0.5005">
        <ele>15.7</ele>
        <time>2012-03-25T06:32:18Z</time>
      </trkpt>
      <trkpt lat="47.55773" lon="-0.50042">
        <ele>16</ele>
        <time>2012-03-25T06:32:21Z</time>
      </trkpt>
      <trkpt lat="47.55765" lon="-0.50033">
        <ele>16.3</ele>
        <time>2012-03-25T06:32:22Z</time>
      </trkpt>
      <trkpt lat="47.55756" lon="-0.50025">
        <ele>16.5</ele>
        <time>2012-03-25T06:32:25Z</time>
      </trkpt>
      <trkpt lat="47.55748" lon="-0.50015">
        <ele>16.8</ele>
        <time>2012-03-25T06:32:26Z</time>
      </trkpt>
      <trkpt lat="47.5574" lon="-0.50005">
        <ele>16.6</ele>
        <time>2012-03-25T06:32:29Z</time>
      </trkpt>
      <trkpt lat="47.55732" lon="-0.49996">
        <ele>16.5</ele>
        <time>2012-03-25T06:32:30Z</time>
      </trkpt>
      <trkpt lat="47.55724" lon="-0.49986">
        <ele>16.3</ele>
        <time>2012-03-25T06:32:32Z</time>
      </trkpt>
      <trkpt lat="47.55716" lon="-0.49977">
        <ele>16.4</ele>
        <time>2012-03-25T06:32:35Z</time>
      </trkpt>
      <trkpt lat="47.55708" lon="-0.49967">
        <ele>16.5</ele>
        <time>2012-03-25T06:32:37Z</time>
      </trkpt>
      <trkpt lat="47.557" lon="-0.49956">
        <ele>16.5</ele>
        <time>2012-03-25T06:32:38Z</time>
      </trkpt>
      <trkpt lat="47.55692" lon="-0.49946">
        <ele>16.6</ele>
        <time>2012-03-25T06:32:40Z</time>
      </trkpt>
      <trkpt lat="47.55684" lon="-0.49937">
        <ele>16.7</ele>
        <time>2012-03-25T06:32:43Z</time>
      </trkpt>
      <trkpt lat="47.55676" lon="-0.49927">
        <ele>16.8</ele>
        <time>2012-03-25T06:32:44Z</time>
      </trkpt>
      <trkpt lat="47.55669" lon="-0.49918">
        <ele>16.9</ele>
        <time>2012-03-25T06:32:47Z</time>
      </trkpt>
      <trkpt lat="47.55661" lon="-0.49909">
        <ele>16.5</ele>
        <time>2012-03-25T06:32:48Z</time>
      </trkpt>
      <trkpt lat="47.55654" lon="-0.499">
        <ele>16.5</ele>
        <time>2012-03-25T06:32:50Z</time>
      </trkpt>
      <trkpt lat="47.55646" lon="-0.4989">
        <ele>16.5</ele>
        <time>2012-03-25T06:32:52Z</time>
      </trkpt>
      <trkpt lat="47.55639" lon="-0.4988">
        <ele>16.5</ele>
        <time>2012-03-25T06:32:55Z</time>
      </trkpt>
      <trkpt lat="47.55631" lon="-0.49871">
        <ele>16.5</ele>
        <time>2012-03-25T06:32:56Z</time>
      </trkpt>
      <trkpt lat="47.55622" lon="-0.49862">
        <ele>16.5</ele>
        <time>2012-03-25T06:32:59Z</time>
      </trkpt>
      <trkpt lat="47.55614" lon="-0.49852">
        <ele>16.5</ele>
        <time>2012-03-25T06:33:00Z</time>
      </trkpt>
      <trkpt lat="47.55606" lon="-0.49842">
        <ele>16.5</ele>
        <time>2012-03-25T06:33:02Z</time>
      </trkpt>
      <trkpt lat="47.55598" lon="-0.49833">
        <ele>16.5</ele>
        <time>2012-03-25T06:33:05Z</time>
      </trkpt>
      <trkpt lat="47.5559" lon="-0.49822">
        <ele>16.5</ele>
        <time>2012-03-25T06:33:06Z</time>
      </trkpt>
      <trkpt lat="47.55582" lon="-0.49812">
        <ele>16.5</ele>
        <time>2012-03-25T06:33:09Z</time>
      </trkpt>
      <trkpt lat="47.55574" lon="-0.49803">
        <ele>17</ele>
        <time>2012-03-25T06:33:10Z</time>
      </trkpt>
      <trkpt lat="47.55566" lon="-0.49793">
        <ele>17.1</ele>
        <time>2012-03-25T06:33:13Z</time>
      </trkpt>
      <trkpt lat="47.55558" lon="-0.49784">
        <ele>17.2</ele>
        <time>2012-03-25T06:33:14Z</time>
      </trkpt>
      <trkpt lat="47.5555" lon="-0.49776">
        <ele>17.3</ele>
        <time>2012-03-25T06:33:16Z</time>
      </trkpt>
      <trkpt lat="47.55539" lon="-0.49774">
        <ele>17.4</ele>
        <time>2012-03-25T06:33:18Z</time>
      </trkpt>
      <trkpt lat="47.55527" lon="-0.49778">
        <ele>17.5</ele>
        <time>2012-03-25T06:33:20Z</time>
      </trkpt>
      <trkpt lat="47.55514" lon="-0.49785">
        <ele>17.5</ele>
        <time>2012-03-25T06:33:22Z</time>
      </trkpt>
      <trkpt lat="47.55501" lon="-0.49792">
        <ele>17.6</ele>
        <time>2012-03-25T06:33:24Z</time>
      </trkpt>
      <trkpt lat="47.55488" lon="-0.49799">
        <ele>17.7</ele>
        <time>2012-03-25T06:33:27Z</time>
      </trkpt>
      <trkpt lat="47.55476" lon="-0.49806">
        <ele>17.8</ele>
        <time>2012-03-25T06:33:28Z</time>
      </trkpt>
      <trkpt lat="47.55463" lon="-0.49814">
        <ele>17.9</ele>
        <time>2012-03-25T06:33:30Z</time>
      </trkpt>
      <trkpt lat="47.55449" lon="-0.49822">
        <ele>18</ele>
        <time>2012-03-25T06:33:32Z</time>
      </trkpt>
      <trkpt lat="47.55435" lon="-0.4983">
        <ele>17.8</ele>
        <time>2012-03-25T06:33:34Z</time>
      </trkpt>
      <trkpt lat="47.55422" lon="-0.49838">
        <ele>17.6</ele>
        <time>2012-03-25T06:33:36Z</time>
      </trkpt>
      <trkpt lat="47.55408" lon="-0.49846">
        <ele>17.5</ele>
        <time>2012-03-25T06:33:39Z</time>
      </trkpt>
      <trkpt lat="47.55392" lon="-0.49854">
        <ele>17.3</ele>
        <time>2012-03-25T06:33:40Z</time>
      </trkpt>
      <trkpt lat="47.55379" lon="-0.49861">
        <ele>17.1</ele>
        <time>2012-03-25T06:33:42Z</time>
      </trkpt>
      <trkpt lat="47.55367" lon="-0.49869">
        <ele>16.9</ele>
        <time>2012-03-25T06:33:44Z</time>
      </trkpt>
      <trkpt lat="47.55354" lon="-0.49878">
        <ele>16.7</ele>
        <time>2012-03-25T06:33:46Z</time>
      </trkpt>
      <trkpt lat="47.55343" lon="-0.49885">
        <ele>16.7</ele>
        <time>2012-03-25T06:33:49Z</time>
      </trkpt>
      <trkpt lat="47.55332" lon="-0.49891">
        <ele>16.7</ele>
        <time>2012-03-25T06:33:50Z</time>
      </trkpt>
      <trkpt lat="47.55322" lon="-0.49898">
        <ele>16.7</ele>
        <time>2012-03-25T06:33:52Z</time>
      </trkpt>
      <trkpt lat="47.55312" lon="-0.49901">
        <ele>16.7</ele>
        <time>2012-03-25T06:33:55Z</time>
      </trkpt>
      <trkpt lat="47.553" lon="-0.49905">
        <ele>16.9</ele>
        <time>2012-03-25T06:33:58Z</time>
      </trkpt>
      <trkpt lat="47.55291" lon="-0.49911">
        <ele>17.1</ele>
        <time>2012-03-25T06:34:02Z</time>
      </trkpt>
      <trkpt lat="47.55282" lon="-0.49918">
        <ele>17.1</ele>
        <time>2012-03-25T06:34:03Z</time>
      </trkpt>
      <trkpt lat="47.55274" lon="-0.49925">
        <ele>17.1</ele>
        <time>2012-03-25T06:34:05Z</time>
      </trkpt>
      <trkpt lat="47.55266" lon="-0.49932">
        <ele>17.1</ele>
        <time>2012-03-25T06:34:07Z</time>
      </trkpt>
      <trkpt lat="47.55257" lon="-0.4994">
        <ele>17.1</ele>
        <time>2012-03-25T06:34:10Z</time>
      </trkpt>
      <trkpt lat="47.55248" lon="-0.49949">
        <ele>17.1</ele>
        <time>2012-03-25T06:34:11Z</time>
      </trkpt>
      <trkpt lat="47.55238" lon="-0.49958">
        <ele>16.9</ele>
        <time>2012-03-25T06:34:13Z</time>
      </trkpt>
      <trkpt lat="47.55228" lon="-0.49967">
        <ele>16.7</ele>
        <time>2012-03-25T06:34:15Z</time>
      </trkpt>
      <trkpt lat="47.55217" lon="-0.49975">
        <ele>16.5</ele>
        <time>2012-03-25T06:34:17Z</time>
      </trkpt>
      <trkpt lat="47.55207" lon="-0.49985">
        <ele>16.4</ele>
        <time>2012-03-25T06:34:19Z</time>
      </trkpt>
      <trkpt lat="47.55197" lon="-0.49994">
        <ele>16.1</ele>
        <time>2012-03-25T06:34:21Z</time>
      </trkpt>
      <trkpt lat="47.55187" lon="-0.50003">
        <ele>15.8</ele>
        <time>2012-03-25T06:34:23Z</time>
      </trkpt>
      <trkpt lat="47.55177" lon="-0.50012">
        <ele>15.6</ele>
        <time>2012-03-25T06:34:25Z</time>
      </trkpt>
      <trkpt lat="47.55167" lon="-0.50021">
        <ele>15.5</ele>
        <time>2012-03-25T06:34:28Z</time>
      </trkpt>
      <trkpt lat="47.55157" lon="-0.5003">
        <ele>15.3</ele>
        <time>2012-03-25T06:34:29Z</time>
      </trkpt>
      <trkpt lat="47.55147" lon="-0.5004">
        <ele>15.1</ele>
        <time>2012-03-25T06:34:31Z</time>
      </trkpt>
      <trkpt lat="47.55138" lon="-0.50048">
        <ele>14.9</ele>
        <time>2012-03-25T06:34:33Z</time>
      </trkpt>
      <trkpt lat="47.55129" lon="-0.50056">
        <ele>14.7</ele>
        <time>2012-03-25T06:34:35Z</time>
      </trkpt>
      <trkpt lat="47.55119" lon="-0.50065">
        <ele>14.5</ele>
        <time>2012-03-25T06:34:37Z</time>
      </trkpt>
      <trkpt lat="47.55109" lon="-0.50074">
        <ele>14.4</ele>
        <time>2012-03-25T06:34:39Z</time>
      </trkpt>
      <trkpt lat="47.55099" lon="-0.50084">
        <ele>14.4</ele>
        <time>2012-03-25T06:34:42Z</time>
      </trkpt>
      <trkpt lat="47.55088" lon="-0.50095">
        <ele>14.5</ele>
        <time>2012-03-25T06:34:43Z</time>
      </trkpt>
      <trkpt lat="47.55077" lon="-0.50105">
        <ele>14.5</ele>
        <time>2012-03-25T06:34:46Z</time>
      </trkpt>
      <trkpt lat="47.55068" lon="-0.50112">
        <ele>14.7</ele>
        <time>2012-03-25T06:34:47Z</time>
      </trkpt>
      <trkpt lat="47.55059" lon="-0.50121">
        <ele>14.9</ele>
        <time>2012-03-25T06:34:49Z</time>
      </trkpt>
      <trkpt lat="47.55048" lon="-0.50131">
        <ele>15.1</ele>
        <time>2012-03-25T06:34:51Z</time>
      </trkpt>
      <trkpt lat="47.55037" lon="-0.5014">
        <ele>15.3</ele>
        <time>2012-03-25T06:34:53Z</time>
      </trkpt>
      <trkpt lat="47.55025" lon="-0.50149">
        <ele>15.5</ele>
        <time>2012-03-25T06:34:55Z</time>
      </trkpt>
      <trkpt lat="47.55014" lon="-0.50159">
        <ele>15.9</ele>
        <time>2012-03-25T06:34:58Z</time>
      </trkpt>
      <trkpt lat="47.55004" lon="-0.50169">
        <ele>16.5</ele>
        <time>2012-03-25T06:35:00Z</time>
      </trkpt>
      <trkpt lat="47.54994" lon="-0.50179">
        <ele>17.2</ele>
        <time>2012-03-25T06:35:01Z</time>
      </trkpt>
      <trkpt lat="47.54986" lon="-0.50188">
        <ele>17.6</ele>
        <time>2012-03-25T06:35:03Z</time>
      </trkpt>
      <trkpt lat="47.54977" lon="-0.50197">
        <ele>18.1</ele>
        <time>2012-03-25T06:35:05Z</time>
      </trkpt>
      <trkpt lat="47.54967" lon="-0.50205">
        <ele>18.5</ele>
        <time>2012-03-25T06:35:07Z</time>
      </trkpt>
      <trkpt lat="47.54957" lon="-0.50215">
        <ele>19</ele>
        <time>2012-03-25T06:35:09Z</time>
      </trkpt>
      <trkpt lat="47.54947" lon="-0.50225">
        <ele>19.5</ele>
        <time>2012-03-25T06:35:12Z</time>
      </trkpt>
      <trkpt lat="47.54936" lon="-0.50236">
        <ele>19.9</ele>
        <time>2012-03-25T06:35:14Z</time>
      </trkpt>
      <trkpt lat="47.54925" lon="-0.50246">
        <ele>20.5</ele>
        <time>2012-03-25T06:35:15Z</time>
      </trkpt>
      <trkpt lat="47.54916" lon="-0.50254">
        <ele>20.7</ele>
        <time>2012-03-25T06:35:17Z</time>
      </trkpt>
      <trkpt lat="47.54907" lon="-0.50265">
        <ele>20.7</ele>
        <time>2012-03-25T06:35:20Z</time>
      </trkpt>
      <trkpt lat="47.54897" lon="-0.50275">
        <ele>20.5</ele>
        <time>2012-03-25T06:35:21Z</time>
      </trkpt>
      <trkpt lat="47.54887" lon="-0.50286">
        <ele>20.4</ele>
        <time>2012-03-25T06:35:23Z</time>
      </trkpt>
      <trkpt lat="47.54877" lon="-0.50295">
        <ele>20.2</ele>
        <time>2012-03-25T06:35:25Z</time>
      </trkpt>
      <trkpt lat="47.54868" lon="-0.50306">
        <ele>20</ele>
        <time>2012-03-25T06:35:28Z</time>
      </trkpt>
      <trkpt lat="47.54859" lon="-0.50317">
        <ele>19.8</ele>
        <time>2012-03-25T06:35:29Z</time>
      </trkpt>
      <trkpt lat="47.54849" lon="-0.50327">
        <ele>19.7</ele>
        <time>2012-03-25T06:35:31Z</time>
      </trkpt>
      <trkpt lat="47.54838" lon="-0.50335">
        <ele>19.3</ele>
        <time>2012-03-25T06:35:33Z</time>
      </trkpt>
      <trkpt lat="47.54827" lon="-0.50343">
        <ele>18.8</ele>
        <time>2012-03-25T06:35:35Z</time>
      </trkpt>
      <trkpt lat="47.54815" lon="-0.50352">
        <ele>18.3</ele>
        <time>2012-03-25T06:35:37Z</time>
      </trkpt>
      <trkpt lat="47.54804" lon="-0.5036">
        <ele>18</ele>
        <time>2012-03-25T06:35:39Z</time>
      </trkpt>
      <trkpt lat="47.54791" lon="-0.50368">
        <ele>17.7</ele>
        <time>2012-03-25T06:35:43Z</time>
      </trkpt>
      <trkpt lat="47.54778" lon="-0.50374">
        <ele>17.5</ele>
        <time>2012-03-25T06:35:44Z</time>
      </trkpt>
      <trkpt lat="47.54766" lon="-0.5038">
        <ele>17.5</ele>
        <time>2012-03-25T06:35:46Z</time>
      </trkpt>
      <trkpt lat="47.54753" lon="-0.50384">
        <ele>17.5</ele>
        <time>2012-03-25T06:35:48Z</time>
      </trkpt>
      <trkpt lat="47.54741" lon="-0.50388">
        <ele>17.5</ele>
        <time>2012-03-25T06:35:51Z</time>
      </trkpt>
      <trkpt lat="47.54731" lon="-0.50392">
        <ele>17.5</ele>
        <time>2012-03-25T06:35:52Z</time>
      </trkpt>
      <trkpt lat="47.5472" lon="-0.50399">
        <ele>17.4</ele>
        <time>2012-03-25T06:35:55Z</time>
      </trkpt>
      <trkpt lat="47.54711" lon="-0.50405">
        <ele>17.6</ele>
        <time>2012-03-25T06:35:56Z</time>
      </trkpt>
      <trkpt lat="47.54701" lon="-0.50411">
        <ele>17.9</ele>
        <time>2012-03-25T06:35:59Z</time>
      </trkpt>
      <trkpt lat="47.5469" lon="-0.50417">
        <ele>18.2</ele>
        <time>2012-03-25T06:36:01Z</time>
      </trkpt>
      <trkpt lat="47.54679" lon="-0.50423">
        <ele>18.2</ele>
        <time>2012-03-25T06:36:02Z</time>
      </trkpt>
      <trkpt lat="47.54666" lon="-0.5043">
        <ele>18.2</ele>
        <time>2012-03-25T06:36:04Z</time>
      </trkpt>
      <trkpt lat="47.54654" lon="-0.50437">
        <ele>18.2</ele>
        <time>2012-03-25T06:36:06Z</time>
      </trkpt>
      <trkpt lat="47.54644" lon="-0.50444">
        <ele>17.9</ele>
        <time>2012-03-25T06:36:08Z</time>
      </trkpt>
      <trkpt lat="47.54633" lon="-0.50452">
        <ele>17.6</ele>
        <time>2012-03-25T06:36:10Z</time>
      </trkpt>
      <trkpt lat="47.54623" lon="-0.50459">
        <ele>17.4</ele>
        <time>2012-03-25T06:36:13Z</time>
      </trkpt>
      <trkpt lat="47.54613" lon="-0.50466">
        <ele>17.1</ele>
        <time>2012-03-25T06:36:14Z</time>
      </trkpt>
      <trkpt lat="47.54602" lon="-0.50473">
        <ele>16.8</ele>
        <time>2012-03-25T06:36:16Z</time>
      </trkpt>
      <trkpt lat="47.5459" lon="-0.5048">
        <ele>16.5</ele>
        <time>2012-03-25T06:36:18Z</time>
      </trkpt>
      <trkpt lat="47.54579" lon="-0.50489">
        <ele>16.3</ele>
        <time>2012-03-25T06:36:20Z</time>
      </trkpt>
      <trkpt lat="47.5457" lon="-0.50496">
        <ele>16</ele>
        <time>2012-03-25T06:36:22Z</time>
      </trkpt>
      <trkpt lat="47.5456" lon="-0.50503">
        <ele>16</ele>
        <time>2012-03-25T06:36:24Z</time>
      </trkpt>
      <trkpt lat="47.5455" lon="-0.50513">
        <ele>16</ele>
        <time>2012-03-25T06:36:26Z</time>
      </trkpt>
      <trkpt lat="47.54548" lon="-0.50529">
        <ele>16</ele>
        <time>2012-03-25T06:36:29Z</time>
      </trkpt>
      <trkpt lat="47.54549" lon="-0.50545">
        <ele>16.2</ele>
        <time>2012-03-25T06:36:30Z</time>
      </trkpt>
      <trkpt lat="47.54549" lon="-0.50561">
        <ele>16.4</ele>
        <time>2012-03-25T06:36:32Z</time>
      </trkpt>
      <trkpt lat="47.54551" lon="-0.50578">
        <ele>16.5</ele>
        <time>2012-03-25T06:36:34Z</time>
      </trkpt>
      <trkpt lat="47.54553" lon="-0.50597">
        <ele>16.7</ele>
        <time>2012-03-25T06:36:37Z</time>
      </trkpt>
      <trkpt lat="47.54553" lon="-0.50611">
        <ele>17</ele>
        <time>2012-03-25T06:36:38Z</time>
      </trkpt>
      <trkpt lat="47.54554" lon="-0.5063">
        <ele>17.3</ele>
        <time>2012-03-25T06:36:41Z</time>
      </trkpt>
      <trkpt lat="47.54555" lon="-0.50649">
        <ele>17.5</ele>
        <time>2012-03-25T06:36:43Z</time>
      </trkpt>
      <trkpt lat="47.54554" lon="-0.50667">
        <ele>17.8</ele>
        <time>2012-03-25T06:36:44Z</time>
      </trkpt>
      <trkpt lat="47.54552" lon="-0.50685">
        <ele>18.1</ele>
        <time>2012-03-25T06:36:47Z</time>
      </trkpt>
      <trkpt lat="47.54551" lon="-0.50702">
        <ele>18.2</ele>
        <time>2012-03-25T06:36:48Z</time>
      </trkpt>
      <trkpt lat="47.54551" lon="-0.5072">
        <ele>18.3</ele>
        <time>2012-03-25T06:36:50Z</time>
      </trkpt>
      <trkpt lat="47.54552" lon="-0.50738">
        <ele>18.2</ele>
        <time>2012-03-25T06:36:53Z</time>
      </trkpt>
      <trkpt lat="47.54554" lon="-0.50756">
        <ele>18.1</ele>
        <time>2012-03-25T06:36:54Z</time>
      </trkpt>
      <trkpt lat="47.54557" lon="-0.50771">
        <ele>18</ele>
        <time>2012-03-25T06:36:56Z</time>
      </trkpt>
      <trkpt lat="47.5456" lon="-0.50788">
        <ele>17.8</ele>
        <time>2012-03-25T06:37:00Z</time>
      </trkpt>
      <trkpt lat="47.54563" lon="-0.50804">
        <ele>17.5</ele>
        <time>2012-03-25T06:37:02Z</time>
      </trkpt>
      <trkpt lat="47.54567" lon="-0.5082">
        <ele>17.3</ele>
        <time>2012-03-25T06:37:03Z</time>
      </trkpt>
      <trkpt lat="47.5457" lon="-0.50835">
        <ele>17</ele>
        <time>2012-03-25T06:37:05Z</time>
      </trkpt>
      <trkpt lat="47.54574" lon="-0.50852">
        <ele>16.7</ele>
        <time>2012-03-25T06:37:07Z</time>
      </trkpt>
      <trkpt lat="47.54578" lon="-0.50869">
        <ele>16.5</ele>
        <time>2012-03-25T06:37:10Z</time>
      </trkpt>
      <trkpt lat="47.54579" lon="-0.50885">
        <ele>16.4</ele>
        <time>2012-03-25T06:37:11Z</time>
      </trkpt>
      <trkpt lat="47.54576" lon="-0.50902">
        <ele>16.1</ele>
        <time>2012-03-25T06:37:14Z</time>
      </trkpt>
      <trkpt lat="47.54571" lon="-0.50914">
        <ele>15.8</ele>
        <time>2012-03-25T06:37:15Z</time>
      </trkpt>
      <trkpt lat="47.54564" lon="-0.50926">
        <ele>15.5</ele>
        <time>2012-03-25T06:37:17Z</time>
      </trkpt>
      <trkpt lat="47.54556" lon="-0.50941">
        <ele>15.3</ele>
        <time>2012-03-25T06:37:19Z</time>
      </trkpt>
      <trkpt lat="47.54549" lon="-0.50951">
        <ele>15.1</ele>
        <time>2012-03-25T06:37:21Z</time>
      </trkpt>
      <trkpt lat="47.54541" lon="-0.50962">
        <ele>14.9</ele>
        <time>2012-03-25T06:37:23Z</time>
      </trkpt>
      <trkpt lat="47.54532" lon="-0.50973">
        <ele>14.7</ele>
        <time>2012-03-25T06:37:25Z</time>
      </trkpt>
      <trkpt lat="47.54524" lon="-0.50985">
        <ele>14.5</ele>
        <time>2012-03-25T06:37:27Z</time>
      </trkpt>
      <trkpt lat="47.54515" lon="-0.50998">
        <ele>14.4</ele>
        <time>2012-03-25T06:37:29Z</time>
      </trkpt>
      <trkpt lat="47.54508" lon="-0.51009">
        <ele>14.2</ele>
        <time>2012-03-25T06:37:31Z</time>
      </trkpt>
      <trkpt lat="47.54501" lon="-0.51019">
        <ele>14</ele>
        <time>2012-03-25T06:37:33Z</time>
      </trkpt>
      <trkpt lat="47.54491" lon="-0.51029">
        <ele>14</ele>
        <time>2012-03-25T06:37:35Z</time>
      </trkpt>
      <trkpt lat="47.5448" lon="-0.51039">
        <ele>14</ele>
        <time>2012-03-25T06:37:37Z</time>
      </trkpt>
      <trkpt lat="47.5447" lon="-0.51049">
        <ele>14</ele>
        <time>2012-03-25T06:37:40Z</time>
      </trkpt>
      <trkpt lat="47.54461" lon="-0.51058">
        <ele>14</ele>
        <time>2012-03-25T06:37:42Z</time>
      </trkpt>
      <trkpt lat="47.54452" lon="-0.51066">
        <ele>14</ele>
        <time>2012-03-25T06:37:44Z</time>
      </trkpt>
      <trkpt lat="47.54443" lon="-0.51075">
        <ele>14</ele>
        <time>2012-03-25T06:37:45Z</time>
      </trkpt>
      <trkpt lat="47.54434" lon="-0.51084">
        <ele>14</ele>
        <time>2012-03-25T06:37:47Z</time>
      </trkpt>
      <trkpt lat="47.54424" lon="-0.51093">
        <ele>14</ele>
        <time>2012-03-25T06:37:49Z</time>
      </trkpt>
      <trkpt lat="47.54416" lon="-0.51096">
        <ele>14</ele>
        <time>2012-03-25T06:37:51Z</time>
      </trkpt>
      <trkpt lat="47.54405" lon="-0.51099">
        <ele>14</ele>
        <time>2012-03-25T06:37:53Z</time>
      </trkpt>
      <trkpt lat="47.54391" lon="-0.51102">
        <ele>14</ele>
        <time>2012-03-25T06:37:56Z</time>
      </trkpt>
      <trkpt lat="47.54381" lon="-0.51103">
        <ele>14</ele>
        <time>2012-03-25T06:37:58Z</time>
      </trkpt>
      <trkpt lat="47.5437" lon="-0.51105">
        <ele>14</ele>
        <time>2012-03-25T06:38:00Z</time>
      </trkpt>
      <trkpt lat="47.54359" lon="-0.51108">
        <ele>14</ele>
        <time>2012-03-25T06:38:02Z</time>
      </trkpt>
      <trkpt lat="47.54344" lon="-0.51109">
        <ele>14.2</ele>
        <time>2012-03-25T06:38:05Z</time>
      </trkpt>
      <trkpt lat="47.54331" lon="-0.51109">
        <ele>14.4</ele>
        <time>2012-03-25T06:38:07Z</time>
      </trkpt>
      <trkpt lat="47.54319" lon="-0.5111">
        <ele>14.5</ele>
        <time>2012-03-25T06:38:09Z</time>
      </trkpt>
      <trkpt lat="47.54308" lon="-0.5111">
        <ele>14.6</ele>
        <time>2012-03-25T06:38:11Z</time>
      </trkpt>
      <trkpt lat="47.54299" lon="-0.51112">
        <ele>14.7</ele>
        <time>2012-03-25T06:38:13Z</time>
      </trkpt>
      <trkpt lat="47.54287" lon="-0.51113">
        <ele>14.8</ele>
        <time>2012-03-25T06:38:15Z</time>
      </trkpt>
      <trkpt lat="47.54276" lon="-0.51115">
        <ele>14.9</ele>
        <time>2012-03-25T06:38:17Z</time>
      </trkpt>
      <trkpt lat="47.54265" lon="-0.51119">
        <ele>15.2</ele>
        <time>2012-03-25T06:38:19Z</time>
      </trkpt>
      <trkpt lat="47.54251" lon="-0.51124">
        <ele>15.5</ele>
        <time>2012-03-25T06:38:21Z</time>
      </trkpt>
      <trkpt lat="47.54239" lon="-0.5113">
        <ele>15.7</ele>
        <time>2012-03-25T06:38:23Z</time>
      </trkpt>
      <trkpt lat="47.5423" lon="-0.51138">
        <ele>16</ele>
        <time>2012-03-25T06:38:25Z</time>
      </trkpt>
      <trkpt lat="47.5422" lon="-0.51149">
        <ele>16.1</ele>
        <time>2012-03-25T06:38:27Z</time>
      </trkpt>
      <trkpt lat="47.54211" lon="-0.51162">
        <ele>16.2</ele>
        <time>2012-03-25T06:38:29Z</time>
      </trkpt>
      <trkpt lat="47.54203" lon="-0.51173">
        <ele>16.3</ele>
        <time>2012-03-25T06:38:31Z</time>
      </trkpt>
      <trkpt lat="47.54193" lon="-0.51184">
        <ele>16.5</ele>
        <time>2012-03-25T06:38:33Z</time>
      </trkpt>
      <trkpt lat="47.54185" lon="-0.51192">
        <ele>16.6</ele>
        <time>2012-03-25T06:38:35Z</time>
      </trkpt>
      <trkpt lat="47.54174" lon="-0.51201">
        <ele>16.8</ele>
        <time>2012-03-25T06:38:37Z</time>
      </trkpt>
      <trkpt lat="47.54164" lon="-0.51209">
        <ele>17</ele>
        <time>2012-03-25T06:38:39Z</time>
      </trkpt>
      <trkpt lat="47.54152" lon="-0.51216">
        <ele>17</ele>
        <time>2012-03-25T06:38:41Z</time>
      </trkpt>
      <trkpt lat="47.54143" lon="-0.51223">
        <ele>17</ele>
        <time>2012-03-25T06:38:43Z</time>
      </trkpt>
      <trkpt lat="47.54134" lon="-0.51232">
        <ele>17</ele>
        <time>2012-03-25T06:38:45Z</time>
      </trkpt>
      <trkpt lat="47.54123" lon="-0.5124">
        <ele>17.1</ele>
        <time>2012-03-25T06:38:47Z</time>
      </trkpt>
      <trkpt lat="47.54112" lon="-0.5125">
        <ele>17.2</ele>
        <time>2012-03-25T06:38:50Z</time>
      </trkpt>
      <trkpt lat="47.54101" lon="-0.5126">
        <ele>17.3</ele>
        <time>2012-03-25T06:38:51Z</time>
      </trkpt>
      <trkpt lat="47.54091" lon="-0.51271">
        <ele>17.4</ele>
        <time>2012-03-25T06:38:53Z</time>
      </trkpt>
      <trkpt lat="47.54082" lon="-0.51283">
        <ele>17.4</ele>
        <time>2012-03-25T06:38:55Z</time>
      </trkpt>
      <trkpt lat="47.54074" lon="-0.51293">
        <ele>17.4</ele>
        <time>2012-03-25T06:38:57Z</time>
      </trkpt>
      <trkpt lat="47.54066" lon="-0.51303">
        <ele>17.4</ele>
        <time>2012-03-25T06:38:59Z</time>
      </trkpt>
      <trkpt lat="47.54059" lon="-0.51314">
        <ele>17.4</ele>
        <time>2012-03-25T06:39:01Z</time>
      </trkpt>
      <trkpt lat="47.5405" lon="-0.51324">
        <ele>17.5</ele>
        <time>2012-03-25T06:39:03Z</time>
      </trkpt>
      <trkpt lat="47.54041" lon="-0.51333">
        <ele>17.7</ele>
        <time>2012-03-25T06:39:05Z</time>
      </trkpt>
      <trkpt lat="47.54033" lon="-0.51341">
        <ele>17.9</ele>
        <time>2012-03-25T06:39:07Z</time>
      </trkpt>
      <trkpt lat="47.54026" lon="-0.51351">
        <ele>18</ele>
        <time>2012-03-25T06:39:09Z</time>
      </trkpt>
      <trkpt lat="47.54019" lon="-0.51361">
        <ele>18.1</ele>
        <time>2012-03-25T06:39:11Z</time>
      </trkpt>
      <trkpt lat="47.5401" lon="-0.5137">
        <ele>18.2</ele>
        <time>2012-03-25T06:39:13Z</time>
      </trkpt>
      <trkpt lat="47.54" lon="-0.51379">
        <ele>18.3</ele>
        <time>2012-03-25T06:39:15Z</time>
      </trkpt>
      <trkpt lat="47.53989" lon="-0.51391">
        <ele>18.5</ele>
        <time>2012-03-25T06:39:18Z</time>
      </trkpt>
      <trkpt lat="47.5398" lon="-0.51401">
        <ele>18.9</ele>
        <time>2012-03-25T06:39:20Z</time>
      </trkpt>
      <trkpt lat="47.53972" lon="-0.51413">
        <ele>19.3</ele>
        <time>2012-03-25T06:39:22Z</time>
      </trkpt>
      <trkpt lat="47.53965" lon="-0.51425">
        <ele>19.6</ele>
        <time>2012-03-25T06:39:24Z</time>
      </trkpt>
      <trkpt lat="47.5396" lon="-0.51436">
        <ele>19.8</ele>
        <time>2012-03-25T06:39:26Z</time>
      </trkpt>
      <trkpt lat="47.53956" lon="-0.51449">
        <ele>20</ele>
        <time>2012-03-25T06:39:28Z</time>
      </trkpt>
      <trkpt lat="47.53952" lon="-0.51462">
        <ele>20.2</ele>
        <time>2012-03-25T06:39:30Z</time>
      </trkpt>
      <trkpt lat="47.53946" lon="-0.51478">
        <ele>20.4</ele>
        <time>2012-03-25T06:39:33Z</time>
      </trkpt>
      <trkpt lat="47.5394" lon="-0.51489">
        <ele>20.5</ele>
        <time>2012-03-25T06:39:36Z</time>
      </trkpt>
      <trkpt lat="47.53933" lon="-0.51498">
        <ele>20.7</ele>
        <time>2012-03-25T06:39:37Z</time>
      </trkpt>
      <trkpt lat="47.53923" lon="-0.5151">
        <ele>21</ele>
        <time>2012-03-25T06:39:40Z</time>
      </trkpt>
      <trkpt lat="47.53913" lon="-0.5152">
        <ele>21.2</ele>
        <time>2012-03-25T06:39:43Z</time>
      </trkpt>
      <trkpt lat="47.53902" lon="-0.5153">
        <ele>21.3</ele>
        <time>2012-03-25T06:39:46Z</time>
      </trkpt>
      <trkpt lat="47.53891" lon="-0.51542">
        <ele>21.4</ele>
        <time>2012-03-25T06:39:49Z</time>
      </trkpt>
      <trkpt lat="47.53884" lon="-0.51549">
        <ele>21.5</ele>
        <time>2012-03-25T06:39:51Z</time>
      </trkpt>
      <trkpt lat="47.53873" lon="-0.51561">
        <ele>21.5</ele>
        <time>2012-03-25T06:39:54Z</time>
      </trkpt>
      <trkpt lat="47.53865" lon="-0.51568">
        <ele>21.6</ele>
        <time>2012-03-25T06:39:56Z</time>
      </trkpt>
      <trkpt lat="47.53857" lon="-0.51575">
        <ele>21.7</ele>
        <time>2012-03-25T06:39:58Z</time>
      </trkpt>
      <trkpt lat="47.53849" lon="-0.51583">
        <ele>21.6</ele>
        <time>2012-03-25T06:40:00Z</time>
      </trkpt>
      <trkpt lat="47.53842" lon="-0.5159">
        <ele>21.5</ele>
        <time>2012-03-25T06:40:02Z</time>
      </trkpt>
      <trkpt lat="47.53833" lon="-0.51597">
        <ele>21.5</ele>
        <time>2012-03-25T06:40:04Z</time>
      </trkpt>
      <trkpt lat="47.53824" lon="-0.51604">
        <ele>21.5</ele>
        <time>2012-03-25T06:40:06Z</time>
      </trkpt>
      <trkpt lat="47.53816" lon="-0.51611">
        <ele>21.4</ele>
        <time>2012-03-25T06:40:08Z</time>
      </trkpt>
      <trkpt lat="47.53808" lon="-0.5162">
        <ele>21.3</ele>
        <time>2012-03-25T06:40:10Z</time>
      </trkpt>
      <trkpt lat="47.53798" lon="-0.51629">
        <ele>21.2</ele>
        <time>2012-03-25T06:40:12Z</time>
      </trkpt>
      <trkpt lat="47.5379" lon="-0.51638">
        <ele>21.1</ele>
        <time>2012-03-25T06:40:14Z</time>
      </trkpt>
      <trkpt lat="47.53781" lon="-0.51646">
        <ele>21</ele>
        <time>2012-03-25T06:40:16Z</time>
      </trkpt>
      <trkpt lat="47.53772" lon="-0.51654">
        <ele>20.9</ele>
        <time>2012-03-25T06:40:18Z</time>
      </trkpt>
      <trkpt lat="47.53763" lon="-0.51663">
        <ele>20.8</ele>
        <time>2012-03-25T06:40:20Z</time>
      </trkpt>
      <trkpt lat="47.53755" lon="-0.51671">
        <ele>20.9</ele>
        <time>2012-03-25T06:40:22Z</time>
      </trkpt>
      <trkpt lat="47.53745" lon="-0.51682">
        <ele>21</ele>
        <time>2012-03-25T06:40:24Z</time>
      </trkpt>
      <trkpt lat="47.53736" lon="-0.51692">
        <ele>21</ele>
        <time>2012-03-25T06:40:26Z</time>
      </trkpt>
      <trkpt lat="47.53727" lon="-0.51703">
        <ele>21</ele>
        <time>2012-03-25T06:40:28Z</time>
      </trkpt>
      <trkpt lat="47.5372" lon="-0.51713">
        <ele>21.2</ele>
        <time>2012-03-25T06:40:30Z</time>
      </trkpt>
      <trkpt lat="47.5371" lon="-0.51728">
        <ele>21.4</ele>
        <time>2012-03-25T06:40:33Z</time>
      </trkpt>
      <trkpt lat="47.53704" lon="-0.51739">
        <ele>21.5</ele>
        <time>2012-03-25T06:40:35Z</time>
      </trkpt>
      <trkpt lat="47.53697" lon="-0.51754">
        <ele>21.7</ele>
        <time>2012-03-25T06:40:37Z</time>
      </trkpt>
      <trkpt lat="47.53693" lon="-0.51766">
        <ele>21.9</ele>
        <time>2012-03-25T06:40:39Z</time>
      </trkpt>
      <trkpt lat="47.53688" lon="-0.51782">
        <ele>22.2</ele>
        <time>2012-03-25T06:40:41Z</time>
      </trkpt>
      <trkpt lat="47.53683" lon="-0.51799">
        <ele>22.5</ele>
        <time>2012-03-25T06:40:43Z</time>
      </trkpt>
      <trkpt lat="47.5368" lon="-0.51814">
        <ele>22.7</ele>
        <time>2012-03-25T06:40:45Z</time>
      </trkpt>
      <trkpt lat="47.53675" lon="-0.51831">
        <ele>23</ele>
        <time>2012-03-25T06:40:47Z</time>
      </trkpt>
      <trkpt lat="47.5367" lon="-0.51848">
        <ele>23.2</ele>
        <time>2012-03-25T06:40:49Z</time>
      </trkpt>
      <trkpt lat="47.53665" lon="-0.51863">
        <ele>23.3</ele>
        <time>2012-03-25T06:40:51Z</time>
      </trkpt>
      <trkpt lat="47.5366" lon="-0.51878">
        <ele>23.2</ele>
        <time>2012-03-25T06:40:53Z</time>
      </trkpt>
      <trkpt lat="47.53649" lon="-0.5188">
        <ele>23.1</ele>
        <time>2012-03-25T06:40:57Z</time>
      </trkpt>
      <trkpt lat="47.53642" lon="-0.51872">
        <ele>23</ele>
        <time>2012-03-25T06:41:01Z</time>
      </trkpt>
      <trkpt lat="47.53634" lon="-0.51859">
        <ele>22.9</ele>
        <time>2012-03-25T06:41:05Z</time>
      </trkpt>
      <trkpt lat="47.53626" lon="-0.51847">
        <ele>22.8</ele>
        <time>2012-03-25T06:41:08Z</time>
      </trkpt>
      <trkpt lat="47.53618" lon="-0.51835">
        <ele>22.9</ele>
        <time>2012-03-25T06:41:11Z</time>
      </trkpt>
      <trkpt lat="47.53609" lon="-0.51822">
        <ele>23</ele>
        <time>2012-03-25T06:41:14Z</time>
      </trkpt>
      <trkpt lat="47.53602" lon="-0.51812">
        <ele>23.1</ele>
        <time>2012-03-25T06:41:17Z</time>
      </trkpt>
      <trkpt lat="47.53594" lon="-0.51798">
        <ele>23.2</ele>
        <time>2012-03-25T06:41:22Z</time>
      </trkpt>
      <trkpt lat="47.53586" lon="-0.51785">
        <ele>23.3</ele>
        <time>2012-03-25T06:41:24Z</time>
      </trkpt>
      <trkpt lat="47.53577" lon="-0.51773">
        <ele>23.5</ele>
        <time>2012-03-25T06:41:27Z</time>
      </trkpt>
      <trkpt lat="47.53569" lon="-0.51761">
        <ele>23.6</ele>
        <time>2012-03-25T06:41:30Z</time>
      </trkpt>
      <trkpt lat="47.53561" lon="-0.51749">
        <ele>23.9</ele>
        <time>2012-03-25T06:41:33Z</time>
      </trkpt>
      <trkpt lat="47.53553" lon="-0.51735">
        <ele>24.2</ele>
        <time>2012-03-25T06:41:36Z</time>
      </trkpt>
      <trkpt lat="47.53545" lon="-0.51722">
        <ele>24.5</ele>
        <time>2012-03-25T06:41:39Z</time>
      </trkpt>
      <trkpt lat="47.53534" lon="-0.51713">
        <ele>24.7</ele>
        <time>2012-03-25T06:41:42Z</time>
      </trkpt>
      <trkpt lat="47.53524" lon="-0.51701">
        <ele>24.7</ele>
        <time>2012-03-25T06:41:45Z</time>
      </trkpt>
      <trkpt lat="47.53516" lon="-0.5169">
        <ele>24.7</ele>
        <time>2012-03-25T06:41:48Z</time>
      </trkpt>
      <trkpt lat="47.53507" lon="-0.5168">
        <ele>24.7</ele>
        <time>2012-03-25T06:41:51Z</time>
      </trkpt>
      <trkpt lat="47.535" lon="-0.51669">
        <ele>24.7</ele>
        <time>2012-03-25T06:41:54Z</time>
      </trkpt>
      <trkpt lat="47.53491" lon="-0.51661">
        <ele>24.5</ele>
        <time>2012-03-25T06:41:57Z</time>
      </trkpt>
      <trkpt lat="47.53482" lon="-0.51656">
        <ele>24.2</ele>
        <time>2012-03-25T06:42:00Z</time>
      </trkpt>
      <trkpt lat="47.53474" lon="-0.51643">
        <ele>23.9</ele>
        <time>2012-03-25T06:42:04Z</time>
      </trkpt>
      <trkpt lat="47.53468" lon="-0.51631">
        <ele>23.5</ele>
        <time>2012-03-25T06:42:07Z</time>
      </trkpt>
      <trkpt lat="47.53463" lon="-0.51618">
        <ele>23.2</ele>
        <time>2012-03-25T06:42:10Z</time>
      </trkpt>
      <trkpt lat="47.53457" lon="-0.51606">
        <ele>22.8</ele>
        <time>2012-03-25T06:42:13Z</time>
      </trkpt>
      <trkpt lat="47.53451" lon="-0.51589">
        <ele>22.5</ele>
        <time>2012-03-25T06:42:16Z</time>
      </trkpt>
      <trkpt lat="47.53448" lon="-0.51575">
        <ele>22.1</ele>
        <time>2012-03-25T06:42:19Z</time>
      </trkpt>
      <trkpt lat="47.53438" lon="-0.5158">
        <ele>22</ele>
        <time>2012-03-25T06:42:25Z</time>
      </trkpt>
      <trkpt lat="47.53427" lon="-0.51593">
        <ele>21.9</ele>
        <time>2012-03-25T06:42:28Z</time>
      </trkpt>
      <trkpt lat="47.53419" lon="-0.516">
        <ele>21.9</ele>
        <time>2012-03-25T06:42:30Z</time>
      </trkpt>
      <trkpt lat="47.5341" lon="-0.51608">
        <ele>21.8</ele>
        <time>2012-03-25T06:42:32Z</time>
      </trkpt>
      <trkpt lat="47.534" lon="-0.51615">
        <ele>21.7</ele>
        <time>2012-03-25T06:42:34Z</time>
      </trkpt>
      <trkpt lat="47.53391" lon="-0.5162">
        <ele>21.6</ele>
        <time>2012-03-25T06:42:36Z</time>
      </trkpt>
      <trkpt lat="47.5338" lon="-0.51619">
        <ele>21.5</ele>
        <time>2012-03-25T06:42:38Z</time>
      </trkpt>
      <trkpt lat="47.53371" lon="-0.51616">
        <ele>21.5</ele>
        <time>2012-03-25T06:42:40Z</time>
      </trkpt>
      <trkpt lat="47.53363" lon="-0.51609">
        <ele>21.4</ele>
        <time>2012-03-25T06:42:42Z</time>
      </trkpt>
      <trkpt lat="47.53353" lon="-0.51598">
        <ele>21.3</ele>
        <time>2012-03-25T06:42:45Z</time>
      </trkpt>
      <trkpt lat="47.53347" lon="-0.51588">
        <ele>21.2</ele>
        <time>2012-03-25T06:43:30Z</time>
      </trkpt>
      <trkpt lat="47.5334" lon="-0.51578">
        <ele>20.8</ele>
        <time>2012-03-25T06:43:34Z</time>
      </trkpt>
      <trkpt lat="47.53332" lon="-0.51566">
        <ele>20.5</ele>
        <time>2012-03-25T06:43:38Z</time>
      </trkpt>
      <trkpt lat="47.53324" lon="-0.51558">
        <ele>20.2</ele>
        <time>2012-03-25T06:43:41Z</time>
      </trkpt>
      <trkpt lat="47.53314" lon="-0.51547">
        <ele>20.4</ele>
        <time>2012-03-25T06:43:44Z</time>
      </trkpt>
      <trkpt lat="47.53306" lon="-0.51537">
        <ele>20.5</ele>
        <time>2012-03-25T06:43:46Z</time>
      </trkpt>
      <trkpt lat="47.533" lon="-0.51524">
        <ele>20.7</ele>
        <time>2012-03-25T06:43:48Z</time>
      </trkpt>
      <trkpt lat="47.53295" lon="-0.51513">
        <ele>20.9</ele>
        <time>2012-03-25T06:43:50Z</time>
      </trkpt>
      <trkpt lat="47.53289" lon="-0.51502">
        <ele>21</ele>
        <time>2012-03-25T06:43:52Z</time>
      </trkpt>
      <trkpt lat="47.53283" lon="-0.51491">
        <ele>21.1</ele>
        <time>2012-03-25T06:43:54Z</time>
      </trkpt>
      <trkpt lat="47.53277" lon="-0.5148">
        <ele>21.2</ele>
        <time>2012-03-25T06:43:56Z</time>
      </trkpt>
      <trkpt lat="47.5327" lon="-0.5147">
        <ele>21.3</ele>
        <time>2012-03-25T06:43:58Z</time>
      </trkpt>
      <trkpt lat="47.53264" lon="-0.5146">
        <ele>21.4</ele>
        <time>2012-03-25T06:44:00Z</time>
      </trkpt>
      <trkpt lat="47.53257" lon="-0.5145">
        <ele>21.5</ele>
        <time>2012-03-25T06:44:02Z</time>
      </trkpt>
      <trkpt lat="47.53247" lon="-0.51437">
        <ele>21.5</ele>
        <time>2012-03-25T06:44:05Z</time>
      </trkpt>
      <trkpt lat="47.5324" lon="-0.51425">
        <ele>21.5</ele>
        <time>2012-03-25T06:44:07Z</time>
      </trkpt>
      <trkpt lat="47.53235" lon="-0.51412">
        <ele>21.5</ele>
        <time>2012-03-25T06:44:09Z</time>
      </trkpt>
      <trkpt lat="47.5323" lon="-0.51393">
        <ele>21.5</ele>
        <time>2012-03-25T06:44:12Z</time>
      </trkpt>
      <trkpt lat="47.53228" lon="-0.5138">
        <ele>21.6</ele>
        <time>2012-03-25T06:44:14Z</time>
      </trkpt>
      <trkpt lat="47.53224" lon="-0.51367">
        <ele>21.8</ele>
        <time>2012-03-25T06:44:16Z</time>
      </trkpt>
      <trkpt lat="47.53219" lon="-0.51349">
        <ele>22</ele>
        <time>2012-03-25T06:44:19Z</time>
      </trkpt>
      <trkpt lat="47.53215" lon="-0.51331">
        <ele>22.2</ele>
        <time>2012-03-25T06:44:22Z</time>
      </trkpt>
      <trkpt lat="47.53212" lon="-0.51314">
        <ele>22.4</ele>
        <time>2012-03-25T06:44:25Z</time>
      </trkpt>
      <trkpt lat="47.5321" lon="-0.51298">
        <ele>22.5</ele>
        <time>2012-03-25T06:44:28Z</time>
      </trkpt>
      <trkpt lat="47.53211" lon="-0.51282">
        <ele>22.7</ele>
        <time>2012-03-25T06:44:31Z</time>
      </trkpt>
      <trkpt lat="47.53215" lon="-0.51267">
        <ele>22.8</ele>
        <time>2012-03-25T06:44:34Z</time>
      </trkpt>
      <trkpt lat="47.53222" lon="-0.51254">
        <ele>22.9</ele>
        <time>2012-03-25T06:44:37Z</time>
      </trkpt>
      <trkpt lat="47.5323" lon="-0.51244">
        <ele>23.1</ele>
        <time>2012-03-25T06:44:40Z</time>
      </trkpt>
      <trkpt lat="47.5324" lon="-0.51239">
        <ele>23.2</ele>
        <time>2012-03-25T06:44:43Z</time>
      </trkpt>
      <trkpt lat="47.53251" lon="-0.51234">
        <ele>23.3</ele>
        <time>2012-03-25T06:44:46Z</time>
      </trkpt>
      <trkpt lat="47.5326" lon="-0.5123">
        <ele>23.4</ele>
        <time>2012-03-25T06:44:50Z</time>
      </trkpt>
      <trkpt lat="47.53267" lon="-0.51216">
        <ele>23.5</ele>
        <time>2012-03-25T06:44:56Z</time>
      </trkpt>
      <trkpt lat="47.53271" lon="-0.51204">
        <ele>23.6</ele>
        <time>2012-03-25T06:44:59Z</time>
      </trkpt>
      <trkpt lat="47.53274" lon="-0.51186">
        <ele>23.8</ele>
        <time>2012-03-25T06:45:02Z</time>
      </trkpt>
      <trkpt lat="47.53277" lon="-0.51166">
        <ele>24</ele>
        <time>2012-03-25T06:45:05Z</time>
      </trkpt>
      <trkpt lat="47.53278" lon="-0.5115">
        <ele>23.8</ele>
        <time>2012-03-25T06:45:07Z</time>
      </trkpt>
      <trkpt lat="47.53281" lon="-0.51134">
        <ele>23.6</ele>
        <time>2012-03-25T06:45:09Z</time>
      </trkpt>
      <trkpt lat="47.53283" lon="-0.51118">
        <ele>23.5</ele>
        <time>2012-03-25T06:45:11Z</time>
      </trkpt>
      <trkpt lat="47.53285" lon="-0.51104">
        <ele>23.2</ele>
        <time>2012-03-25T06:45:13Z</time>
      </trkpt>
      <trkpt lat="47.53291" lon="-0.51091">
        <ele>22.9</ele>
        <time>2012-03-25T06:45:16Z</time>
      </trkpt>
      <trkpt lat="47.53304" lon="-0.5109">
        <ele>22.6</ele>
        <time>2012-03-25T06:45:20Z</time>
      </trkpt>
      <trkpt lat="47.53314" lon="-0.51094">
        <ele>22.4</ele>
        <time>2012-03-25T06:45:22Z</time>
      </trkpt>
      <trkpt lat="47.53325" lon="-0.51101">
        <ele>22.1</ele>
        <time>2012-03-25T06:45:24Z</time>
      </trkpt>
      <trkpt lat="47.53334" lon="-0.51106">
        <ele>21.7</ele>
        <time>2012-03-25T06:45:26Z</time>
      </trkpt>
      <trkpt lat="47.53346" lon="-0.51111">
        <ele>21.4</ele>
        <time>2012-03-25T06:45:29Z</time>
      </trkpt>
      <trkpt lat="47.53357" lon="-0.51108">
        <ele>21</ele>
        <time>2012-03-25T06:45:32Z</time>
      </trkpt>
      <trkpt lat="47.53361" lon="-0.51094">
        <ele>21</ele>
        <time>2012-03-25T06:45:34Z</time>
      </trkpt>
      <trkpt lat="47.53364" lon="-0.5108">
        <ele>21.3</ele>
        <time>2012-03-25T06:45:36Z</time>
      </trkpt>
      <trkpt lat="47.53367" lon="-0.51066">
        <ele>21.5</ele>
        <time>2012-03-25T06:45:38Z</time>
      </trkpt>
      <trkpt lat="47.5337" lon="-0.51051">
        <ele>21.8</ele>
        <time>2012-03-25T06:45:40Z</time>
      </trkpt>
      <trkpt lat="47.53372" lon="-0.51037">
        <ele>22.1</ele>
        <time>2012-03-25T06:45:42Z</time>
      </trkpt>
      <trkpt lat="47.53375" lon="-0.51023">
        <ele>22.5</ele>
        <time>2012-03-25T06:45:44Z</time>
      </trkpt>
      <trkpt lat="47.53377" lon="-0.51004">
        <ele>22.8</ele>
        <time>2012-03-25T06:45:47Z</time>
      </trkpt>
      <trkpt lat="47.5338" lon="-0.50985">
        <ele>23.2</ele>
        <time>2012-03-25T06:45:50Z</time>
      </trkpt>
      <trkpt lat="47.53383" lon="-0.50971">
        <ele>23.5</ele>
        <time>2012-03-25T06:45:52Z</time>
      </trkpt>
      <trkpt lat="47.53385" lon="-0.50958">
        <ele>23.9</ele>
        <time>2012-03-25T06:45:54Z</time>
      </trkpt>
      <trkpt lat="47.53388" lon="-0.50943">
        <ele>24.3</ele>
        <time>2012-03-25T06:45:56Z</time>
      </trkpt>
      <trkpt lat="47.5339" lon="-0.50929">
        <ele>24.6</ele>
        <time>2012-03-25T06:45:58Z</time>
      </trkpt>
      <trkpt lat="47.53394" lon="-0.5091">
        <ele>24.7</ele>
        <time>2012-03-25T06:46:01Z</time>
      </trkpt>
      <trkpt lat="47.53396" lon="-0.50895">
        <ele>24.8</ele>
        <time>2012-03-25T06:46:03Z</time>
      </trkpt>
      <trkpt lat="47.53398" lon="-0.50881">
        <ele>24.9</ele>
        <time>2012-03-25T06:46:05Z</time>
      </trkpt>
      <trkpt lat="47.53399" lon="-0.50865">
        <ele>25</ele>
        <time>2012-03-25T06:46:08Z</time>
      </trkpt>
      <trkpt lat="47.53406" lon="-0.50853">
        <ele>25</ele>
        <time>2012-03-25T06:46:14Z</time>
      </trkpt>
      <trkpt lat="47.53416" lon="-0.50853">
        <ele>25</ele>
        <time>2012-03-25T06:46:17Z</time>
      </trkpt>
      <trkpt lat="47.53425" lon="-0.50843">
        <ele>24.9</ele>
        <time>2012-03-25T06:46:21Z</time>
      </trkpt>
      <trkpt lat="47.53426" lon="-0.5083">
        <ele>24.8</ele>
        <time>2012-03-25T06:46:23Z</time>
      </trkpt>
      <trkpt lat="47.53428" lon="-0.50816">
        <ele>24.7</ele>
        <time>2012-03-25T06:46:25Z</time>
      </trkpt>
      <trkpt lat="47.5343" lon="-0.50801">
        <ele>24.6</ele>
        <time>2012-03-25T06:46:27Z</time>
      </trkpt>
      <trkpt lat="47.53432" lon="-0.50784">
        <ele>24.5</ele>
        <time>2012-03-25T06:46:29Z</time>
      </trkpt>
      <trkpt lat="47.53433" lon="-0.50768">
        <ele>24.6</ele>
        <time>2012-03-25T06:46:31Z</time>
      </trkpt>
      <trkpt lat="47.53436" lon="-0.50749">
        <ele>24.7</ele>
        <time>2012-03-25T06:46:33Z</time>
      </trkpt>
      <trkpt lat="47.53438" lon="-0.5073">
        <ele>24.8</ele>
        <time>2012-03-25T06:46:35Z</time>
      </trkpt>
      <trkpt lat="47.53439" lon="-0.50714">
        <ele>25.1</ele>
        <time>2012-03-25T06:46:37Z</time>
      </trkpt>
      <trkpt lat="47.5344" lon="-0.50698">
        <ele>25.4</ele>
        <time>2012-03-25T06:46:39Z</time>
      </trkpt>
      <trkpt lat="47.53442" lon="-0.50679">
        <ele>25.6</ele>
        <time>2012-03-25T06:46:42Z</time>
      </trkpt>
      <trkpt lat="47.53446" lon="-0.50666">
        <ele>26</ele>
        <time>2012-03-25T06:46:45Z</time>
      </trkpt>
      <trkpt lat="47.53454" lon="-0.50657">
        <ele>26.6</ele>
        <time>2012-03-25T06:46:48Z</time>
      </trkpt>
      <trkpt lat="47.53463" lon="-0.50647">
        <ele>27.3</ele>
        <time>2012-03-25T06:46:51Z</time>
      </trkpt>
      <trkpt lat="47.53473" lon="-0.50639">
        <ele>27.9</ele>
        <time>2012-03-25T06:46:54Z</time>
      </trkpt>
      <trkpt lat="47.53485" lon="-0.50631">
        <ele>28.5</ele>
        <time>2012-03-25T06:46:57Z</time>
      </trkpt>
      <trkpt lat="47.53497" lon="-0.50619">
        <ele>29</ele>
        <time>2012-03-25T06:47:00Z</time>
      </trkpt>
      <trkpt lat="47.53505" lon="-0.50612">
        <ele>29.5</ele>
        <time>2012-03-25T06:47:02Z</time>
      </trkpt>
      <trkpt lat="47.53515" lon="-0.50601">
        <ele>30.1</ele>
        <time>2012-03-25T06:47:06Z</time>
      </trkpt>
      <trkpt lat="47.53519" lon="-0.50583">
        <ele>30.5</ele>
        <time>2012-03-25T06:47:08Z</time>
      </trkpt>
      <trkpt lat="47.5352" lon="-0.50568">
        <ele>31</ele>
        <time>2012-03-25T06:47:10Z</time>
      </trkpt>
      <trkpt lat="47.53522" lon="-0.50555">
        <ele>31.5</ele>
        <time>2012-03-25T06:47:12Z</time>
      </trkpt>
      <trkpt lat="47.53525" lon="-0.50536">
        <ele>31.9</ele>
        <time>2012-03-25T06:47:15Z</time>
      </trkpt>
      <trkpt lat="47.53527" lon="-0.50516">
        <ele>32.2</ele>
        <time>2012-03-25T06:47:18Z</time>
      </trkpt>
      <trkpt lat="47.5353" lon="-0.50503">
        <ele>32.5</ele>
        <time>2012-03-25T06:47:20Z</time>
      </trkpt>
      <trkpt lat="47.53532" lon="-0.50489">
        <ele>32.7</ele>
        <time>2012-03-25T06:47:22Z</time>
      </trkpt>
      <trkpt lat="47.53535" lon="-0.5047">
        <ele>33</ele>
        <time>2012-03-25T06:47:25Z</time>
      </trkpt>
      <trkpt lat="47.53537" lon="-0.50451">
        <ele>33.1</ele>
        <time>2012-03-25T06:47:28Z</time>
      </trkpt>
      <trkpt lat="47.5354" lon="-0.50438">
        <ele>33</ele>
        <time>2012-03-25T06:47:30Z</time>
      </trkpt>
      <trkpt lat="47.53542" lon="-0.50423">
        <ele>32.7</ele>
        <time>2012-03-25T06:47:32Z</time>
      </trkpt>
      <trkpt lat="47.53544" lon="-0.50409">
        <ele>32.5</ele>
        <time>2012-03-25T06:47:34Z</time>
      </trkpt>
      <trkpt lat="47.53546" lon="-0.50391">
        <ele>32.2</ele>
        <time>2012-03-25T06:47:37Z</time>
      </trkpt>
      <trkpt lat="47.53549" lon="-0.50374">
        <ele>31.9</ele>
        <time>2012-03-25T06:47:40Z</time>
      </trkpt>
      <trkpt lat="47.53551" lon="-0.50356">
        <ele>31.5</ele>
        <time>2012-03-25T06:47:43Z</time>
      </trkpt>
      <trkpt lat="47.53553" lon="-0.50342">
        <ele>30.9</ele>
        <time>2012-03-25T06:47:46Z</time>
      </trkpt>
      <trkpt lat="47.53555" lon="-0.50322">
        <ele>30.4</ele>
        <time>2012-03-25T06:47:49Z</time>
      </trkpt>
      <trkpt lat="47.53557" lon="-0.50307">
        <ele>29.8</ele>
        <time>2012-03-25T06:47:51Z</time>
      </trkpt>
      <trkpt lat="47.53558" lon="-0.50292">
        <ele>29.3</ele>
        <time>2012-03-25T06:47:54Z</time>
      </trkpt>
      <trkpt lat="47.53558" lon="-0.50278">
        <ele>28.9</ele>
        <time>2012-03-25T06:47:57Z</time>
      </trkpt>
      <trkpt lat="47.53555" lon="-0.50261">
        <ele>28.7</ele>
        <time>2012-03-25T06:48:00Z</time>
      </trkpt>
      <trkpt lat="47.53552" lon="-0.50244">
        <ele>28.3</ele>
        <time>2012-03-25T06:48:03Z</time>
      </trkpt>
      <trkpt lat="47.53555" lon="-0.5023">
        <ele>27.8</ele>
        <time>2012-03-25T06:48:07Z</time>
      </trkpt>
      <trkpt lat="47.53565" lon="-0.50221">
        <ele>27.4</ele>
        <time>2012-03-25T06:48:10Z</time>
      </trkpt>
      <trkpt lat="47.53574" lon="-0.50216">
        <ele>26.8</ele>
        <time>2012-03-25T06:48:12Z</time>
      </trkpt>
      <trkpt lat="47.53583" lon="-0.50206">
        <ele>26.5</ele>
        <time>2012-03-25T06:48:14Z</time>
      </trkpt>
      <trkpt lat="47.53593" lon="-0.50187">
        <ele>26.1</ele>
        <time>2012-03-25T06:48:16Z</time>
      </trkpt>
      <trkpt lat="47.53596" lon="-0.50174">
        <ele>25.7</ele>
        <time>2012-03-25T06:48:17Z</time>
      </trkpt>
      <trkpt lat="47.536" lon="-0.50147">
        <ele>25.6</ele>
        <time>2012-03-25T06:48:19Z</time>
      </trkpt>
      <trkpt lat="47.53603" lon="-0.50117">
        <ele>25.5</ele>
        <time>2012-03-25T06:48:21Z</time>
      </trkpt>
      <trkpt lat="47.53605" lon="-0.50093">
        <ele>25.5</ele>
        <time>2012-03-25T06:48:23Z</time>
      </trkpt>
      <trkpt lat="47.53607" lon="-0.50072">
        <ele>25.4</ele>
        <time>2012-03-25T06:48:25Z</time>
      </trkpt>
      <trkpt lat="47.53609" lon="-0.50054">
        <ele>25.5</ele>
        <time>2012-03-25T06:48:27Z</time>
      </trkpt>
      <trkpt lat="47.53611" lon="-0.50035">
        <ele>25</ele>
        <time>2012-03-25T06:48:29Z</time>
      </trkpt>
      <trkpt lat="47.53613" lon="-0.50019">
        <ele>24.5</ele>
        <time>2012-03-25T06:48:31Z</time>
      </trkpt>
      <trkpt lat="47.53616" lon="-0.50003">
        <ele>24</ele>
        <time>2012-03-25T06:48:33Z</time>
      </trkpt>
      <trkpt lat="47.53622" lon="-0.49982">
        <ele>23.5</ele>
        <time>2012-03-25T06:48:35Z</time>
      </trkpt>
      <trkpt lat="47.53626" lon="-0.49966">
        <ele>23.1</ele>
        <time>2012-03-25T06:48:37Z</time>
      </trkpt>
      <trkpt lat="47.53631" lon="-0.49948">
        <ele>22.6</ele>
        <time>2012-03-25T06:48:39Z</time>
      </trkpt>
      <trkpt lat="47.53636" lon="-0.49932">
        <ele>22</ele>
        <time>2012-03-25T06:48:41Z</time>
      </trkpt>
      <trkpt lat="47.53641" lon="-0.49914">
        <ele>21.4</ele>
        <time>2012-03-25T06:48:43Z</time>
      </trkpt>
      <trkpt lat="47.53646" lon="-0.49897">
        <ele>20.7</ele>
        <time>2012-03-25T06:48:45Z</time>
      </trkpt>
      <trkpt lat="47.5365" lon="-0.4988">
        <ele>20.1</ele>
        <time>2012-03-25T06:48:48Z</time>
      </trkpt>
      <trkpt lat="47.53655" lon="-0.49864">
        <ele>19.5</ele>
        <time>2012-03-25T06:48:49Z</time>
      </trkpt>
      <trkpt lat="47.53662" lon="-0.49846">
        <ele>19.8</ele>
        <time>2012-03-25T06:48:51Z</time>
      </trkpt>
      <trkpt lat="47.53668" lon="-0.49829">
        <ele>20.2</ele>
        <time>2012-03-25T06:48:53Z</time>
      </trkpt>
      <trkpt lat="47.53673" lon="-0.49814">
        <ele>20.5</ele>
        <time>2012-03-25T06:48:55Z</time>
      </trkpt>
      <trkpt lat="47.53678" lon="-0.49798">
        <ele>20.9</ele>
        <time>2012-03-25T06:48:57Z</time>
      </trkpt>
      <trkpt lat="47.53682" lon="-0.49782">
        <ele>21.3</ele>
        <time>2012-03-25T06:48:59Z</time>
      </trkpt>
      <trkpt lat="47.53686" lon="-0.49766">
        <ele>21.9</ele>
        <time>2012-03-25T06:49:01Z</time>
      </trkpt>
      <trkpt lat="47.53691" lon="-0.49751">
        <ele>22.1</ele>
        <time>2012-03-25T06:49:03Z</time>
      </trkpt>
      <trkpt lat="47.53696" lon="-0.49736">
        <ele>22.3</ele>
        <time>2012-03-25T06:49:05Z</time>
      </trkpt>
      <trkpt lat="47.53701" lon="-0.4972">
        <ele>22.5</ele>
        <time>2012-03-25T06:49:07Z</time>
      </trkpt>
      <trkpt lat="47.53707" lon="-0.49704">
        <ele>22.6</ele>
        <time>2012-03-25T06:49:09Z</time>
      </trkpt>
      <trkpt lat="47.53712" lon="-0.49687">
        <ele>22.9</ele>
        <time>2012-03-25T06:49:11Z</time>
      </trkpt>
      <trkpt lat="47.53717" lon="-0.4967">
        <ele>22.9</ele>
        <time>2012-03-25T06:49:13Z</time>
      </trkpt>
      <trkpt lat="47.53723" lon="-0.49655">
        <ele>22.9</ele>
        <time>2012-03-25T06:49:15Z</time>
      </trkpt>
      <trkpt lat="47.53729" lon="-0.49642">
        <ele>22.9</ele>
        <time>2012-03-25T06:49:18Z</time>
      </trkpt>
      <trkpt lat="47.53737" lon="-0.49626">
        <ele>22.9</ele>
        <time>2012-03-25T06:49:19Z</time>
      </trkpt>
      <trkpt lat="47.53743" lon="-0.4961">
        <ele>22.9</ele>
        <time>2012-03-25T06:49:21Z</time>
      </trkpt>
      <trkpt lat="47.53749" lon="-0.49594">
        <ele>23.1</ele>
        <time>2012-03-25T06:49:23Z</time>
      </trkpt>
      <trkpt lat="47.53755" lon="-0.4958">
        <ele>23.6</ele>
        <time>2012-03-25T06:49:25Z</time>
      </trkpt>
      <trkpt lat="47.5376" lon="-0.49567">
        <ele>23.7</ele>
        <time>2012-03-25T06:49:27Z</time>
      </trkpt>
      <trkpt lat="47.53768" lon="-0.49556">
        <ele>23.8</ele>
        <time>2012-03-25T06:49:29Z</time>
      </trkpt>
      <trkpt lat="47.53776" lon="-0.49544">
        <ele>23.9</ele>
        <time>2012-03-25T06:49:31Z</time>
      </trkpt>
      <trkpt lat="47.53784" lon="-0.49532">
        <ele>23.9</ele>
        <time>2012-03-25T06:49:33Z</time>
      </trkpt>
      <trkpt lat="47.53791" lon="-0.49521">
        <ele>23.9</ele>
        <time>2012-03-25T06:49:35Z</time>
      </trkpt>
      <trkpt lat="47.53799" lon="-0.4951">
        <ele>23.9</ele>
        <time>2012-03-25T06:49:37Z</time>
      </trkpt>
      <trkpt lat="47.53807" lon="-0.49498">
        <ele>24</ele>
        <time>2012-03-25T06:49:39Z</time>
      </trkpt>
      <trkpt lat="47.53816" lon="-0.49487">
        <ele>24.1</ele>
        <time>2012-03-25T06:49:41Z</time>
      </trkpt>
      <trkpt lat="47.53825" lon="-0.49476">
        <ele>24.2</ele>
        <time>2012-03-25T06:49:43Z</time>
      </trkpt>
      <trkpt lat="47.53834" lon="-0.49464">
        <ele>23.6</ele>
        <time>2012-03-25T06:49:45Z</time>
      </trkpt>
      <trkpt lat="47.53844" lon="-0.49451">
        <ele>23.1</ele>
        <time>2012-03-25T06:49:47Z</time>
      </trkpt>
      <trkpt lat="47.53853" lon="-0.4944">
        <ele>23</ele>
        <time>2012-03-25T06:49:49Z</time>
      </trkpt>
      <trkpt lat="47.53862" lon="-0.49429">
        <ele>22.9</ele>
        <time>2012-03-25T06:49:51Z</time>
      </trkpt>
      <trkpt lat="47.5387" lon="-0.49419">
        <ele>22.6</ele>
        <time>2012-03-25T06:49:53Z</time>
      </trkpt>
      <trkpt lat="47.53878" lon="-0.49407">
        <ele>22.4</ele>
        <time>2012-03-25T06:49:55Z</time>
      </trkpt>
      <trkpt lat="47.53887" lon="-0.49396">
        <ele>22.1</ele>
        <time>2012-03-25T06:49:57Z</time>
      </trkpt>
      <trkpt lat="47.53894" lon="-0.49387">
        <ele>21.8</ele>
        <time>2012-03-25T06:49:59Z</time>
      </trkpt>
      <trkpt lat="47.53903" lon="-0.49376">
        <ele>21.5</ele>
        <time>2012-03-25T06:50:01Z</time>
      </trkpt>
      <trkpt lat="47.53912" lon="-0.49363">
        <ele>21.1</ele>
        <time>2012-03-25T06:50:03Z</time>
      </trkpt>
      <trkpt lat="47.5392" lon="-0.49351">
        <ele>20.7</ele>
        <time>2012-03-25T06:50:05Z</time>
      </trkpt>
      <trkpt lat="47.53925" lon="-0.49338">
        <ele>20.4</ele>
        <time>2012-03-25T06:50:07Z</time>
      </trkpt>
      <trkpt lat="47.53931" lon="-0.49328">
        <ele>20.4</ele>
        <time>2012-03-25T06:50:09Z</time>
      </trkpt>
      <trkpt lat="47.5394" lon="-0.49317">
        <ele>20.4</ele>
        <time>2012-03-25T06:50:11Z</time>
      </trkpt>
      <trkpt lat="47.53949" lon="-0.49306">
        <ele>20.4</ele>
        <time>2012-03-25T06:50:13Z</time>
      </trkpt>
      <trkpt lat="47.53958" lon="-0.49296">
        <ele>20.5</ele>
        <time>2012-03-25T06:50:15Z</time>
      </trkpt>
      <trkpt lat="47.53968" lon="-0.49287">
        <ele>20.7</ele>
        <time>2012-03-25T06:50:17Z</time>
      </trkpt>
      <trkpt lat="47.53977" lon="-0.49279">
        <ele>20.9</ele>
        <time>2012-03-25T06:50:19Z</time>
      </trkpt>
      <trkpt lat="47.53987" lon="-0.4927">
        <ele>21.1</ele>
        <time>2012-03-25T06:50:21Z</time>
      </trkpt>
      <trkpt lat="47.53996" lon="-0.49262">
        <ele>21.3</ele>
        <time>2012-03-25T06:50:23Z</time>
      </trkpt>
      <trkpt lat="47.54006" lon="-0.49255">
        <ele>21.5</ele>
        <time>2012-03-25T06:50:26Z</time>
      </trkpt>
      <trkpt lat="47.54016" lon="-0.49247">
        <ele>21.6</ele>
        <time>2012-03-25T06:50:27Z</time>
      </trkpt>
      <trkpt lat="47.54028" lon="-0.49239">
        <ele>22</ele>
        <time>2012-03-25T06:50:29Z</time>
      </trkpt>
      <trkpt lat="47.54039" lon="-0.49232">
        <ele>21.8</ele>
        <time>2012-03-25T06:50:31Z</time>
      </trkpt>
      <trkpt lat="47.54048" lon="-0.49225">
        <ele>21.6</ele>
        <time>2012-03-25T06:50:33Z</time>
      </trkpt>
      <trkpt lat="47.54058" lon="-0.49217">
        <ele>21.5</ele>
        <time>2012-03-25T06:50:35Z</time>
      </trkpt>
      <trkpt lat="47.54068" lon="-0.49212">
        <ele>21.3</ele>
        <time>2012-03-25T06:50:37Z</time>
      </trkpt>
      <trkpt lat="47.54078" lon="-0.49206">
        <ele>21.1</ele>
        <time>2012-03-25T06:50:39Z</time>
      </trkpt>
      <trkpt lat="47.54087" lon="-0.492">
        <ele>20.8</ele>
        <time>2012-03-25T06:50:41Z</time>
      </trkpt>
      <trkpt lat="47.54098" lon="-0.49191">
        <ele>20.5</ele>
        <time>2012-03-25T06:50:43Z</time>
      </trkpt>
      <trkpt lat="47.54108" lon="-0.49183">
        <ele>20.3</ele>
        <time>2012-03-25T06:50:45Z</time>
      </trkpt>
      <trkpt lat="47.5412" lon="-0.49173">
        <ele>20</ele>
        <time>2012-03-25T06:50:48Z</time>
      </trkpt>
      <trkpt lat="47.54128" lon="-0.49167">
        <ele>19.7</ele>
        <time>2012-03-25T06:50:50Z</time>
      </trkpt>
      <trkpt lat="47.54136" lon="-0.49161">
        <ele>19.5</ele>
        <time>2012-03-25T06:50:52Z</time>
      </trkpt>
      <trkpt lat="47.54145" lon="-0.49154">
        <ele>19.4</ele>
        <time>2012-03-25T06:50:54Z</time>
      </trkpt>
      <trkpt lat="47.54153" lon="-0.49148">
        <ele>19.4</ele>
        <time>2012-03-25T06:50:56Z</time>
      </trkpt>
      <trkpt lat="47.54161" lon="-0.49141">
        <ele>19.4</ele>
        <time>2012-03-25T06:50:58Z</time>
      </trkpt>
      <trkpt lat="47.54169" lon="-0.49136">
        <ele>19.3</ele>
        <time>2012-03-25T06:51:00Z</time>
      </trkpt>
      <trkpt lat="47.54178" lon="-0.4913">
        <ele>19.2</ele>
        <time>2012-03-25T06:51:02Z</time>
      </trkpt>
      <trkpt lat="47.54187" lon="-0.49125">
        <ele>19.2</ele>
        <time>2012-03-25T06:51:04Z</time>
      </trkpt>
      <trkpt lat="47.54197" lon="-0.49117">
        <ele>19.2</ele>
        <time>2012-03-25T06:51:06Z</time>
      </trkpt>
      <trkpt lat="47.54208" lon="-0.49111">
        <ele>19.2</ele>
        <time>2012-03-25T06:51:08Z</time>
      </trkpt>
      <trkpt lat="47.54219" lon="-0.49106">
        <ele>19.2</ele>
        <time>2012-03-25T06:51:10Z</time>
      </trkpt>
      <trkpt lat="47.5423" lon="-0.49101">
        <ele>19.2</ele>
        <time>2012-03-25T06:51:12Z</time>
      </trkpt>
      <trkpt lat="47.5424" lon="-0.49095">
        <ele>18.8</ele>
        <time>2012-03-25T06:51:14Z</time>
      </trkpt>
      <trkpt lat="47.54249" lon="-0.4909">
        <ele>18.5</ele>
        <time>2012-03-25T06:51:16Z</time>
      </trkpt>
      <trkpt lat="47.54261" lon="-0.49084">
        <ele>18</ele>
        <time>2012-03-25T06:51:18Z</time>
      </trkpt>
      <trkpt lat="47.54273" lon="-0.49078">
        <ele>17.5</ele>
        <time>2012-03-25T06:51:20Z</time>
      </trkpt>
      <trkpt lat="47.54285" lon="-0.49071">
        <ele>17.2</ele>
        <time>2012-03-25T06:51:22Z</time>
      </trkpt>
      <trkpt lat="47.54296" lon="-0.49064">
        <ele>17.2</ele>
        <time>2012-03-25T06:51:24Z</time>
      </trkpt>
      <trkpt lat="47.54305" lon="-0.49058">
        <ele>17.2</ele>
        <time>2012-03-25T06:51:27Z</time>
      </trkpt>
      <trkpt lat="47.54314" lon="-0.49053">
        <ele>17.2</ele>
        <time>2012-03-25T06:51:28Z</time>
      </trkpt>
      <trkpt lat="47.54324" lon="-0.49049">
        <ele>17.2</ele>
        <time>2012-03-25T06:51:30Z</time>
      </trkpt>
      <trkpt lat="47.54334" lon="-0.49044">
        <ele>17.1</ele>
        <time>2012-03-25T06:51:32Z</time>
      </trkpt>
      <trkpt lat="47.54345" lon="-0.49036">
        <ele>17</ele>
        <time>2012-03-25T06:51:35Z</time>
      </trkpt>
      <trkpt lat="47.54354" lon="-0.4903">
        <ele>17.3</ele>
        <time>2012-03-25T06:51:37Z</time>
      </trkpt>
      <trkpt lat="47.54364" lon="-0.49023">
        <ele>17.5</ele>
        <time>2012-03-25T06:51:39Z</time>
      </trkpt>
      <trkpt lat="47.54375" lon="-0.49019">
        <ele>17.8</ele>
        <time>2012-03-25T06:51:41Z</time>
      </trkpt>
      <trkpt lat="47.54385" lon="-0.49015">
        <ele>18.1</ele>
        <time>2012-03-25T06:51:43Z</time>
      </trkpt>
      <trkpt lat="47.54395" lon="-0.49009">
        <ele>18.4</ele>
        <time>2012-03-25T06:51:45Z</time>
      </trkpt>
      <trkpt lat="47.54405" lon="-0.49003">
        <ele>18.3</ele>
        <time>2012-03-25T06:51:47Z</time>
      </trkpt>
      <trkpt lat="47.54415" lon="-0.48998">
        <ele>17.8</ele>
        <time>2012-03-25T06:51:49Z</time>
      </trkpt>
      <trkpt lat="47.54424" lon="-0.48993">
        <ele>17.4</ele>
        <time>2012-03-25T06:51:51Z</time>
      </trkpt>
      <trkpt lat="47.54434" lon="-0.48988">
        <ele>16.9</ele>
        <time>2012-03-25T06:51:53Z</time>
      </trkpt>
      <trkpt lat="47.54444" lon="-0.48983">
        <ele>16.6</ele>
        <time>2012-03-25T06:51:55Z</time>
      </trkpt>
      <trkpt lat="47.54456" lon="-0.48977">
        <ele>16.4</ele>
        <time>2012-03-25T06:51:57Z</time>
      </trkpt>
      <trkpt lat="47.54468" lon="-0.48971">
        <ele>16.1</ele>
        <time>2012-03-25T06:51:59Z</time>
      </trkpt>
      <trkpt lat="47.54478" lon="-0.48966">
        <ele>15.8</ele>
        <time>2012-03-25T06:52:01Z</time>
      </trkpt>
      <trkpt lat="47.54489" lon="-0.48961">
        <ele>15.5</ele>
        <time>2012-03-25T06:52:03Z</time>
      </trkpt>
      <trkpt lat="47.545" lon="-0.48957">
        <ele>15.3</ele>
        <time>2012-03-25T06:52:05Z</time>
      </trkpt>
      <trkpt lat="47.54511" lon="-0.48951">
        <ele>15</ele>
        <time>2012-03-25T06:52:07Z</time>
      </trkpt>
      <trkpt lat="47.54521" lon="-0.48946">
        <ele>14.7</ele>
        <time>2012-03-25T06:52:09Z</time>
      </trkpt>
      <trkpt lat="47.54531" lon="-0.4894">
        <ele>14.8</ele>
        <time>2012-03-25T06:52:11Z</time>
      </trkpt>
      <trkpt lat="47.54541" lon="-0.48935">
        <ele>14.9</ele>
        <time>2012-03-25T06:52:13Z</time>
      </trkpt>
      <trkpt lat="47.54551" lon="-0.4893">
        <ele>15</ele>
        <time>2012-03-25T06:52:15Z</time>
      </trkpt>
      <trkpt lat="47.54561" lon="-0.48925">
        <ele>15</ele>
        <time>2012-03-25T06:52:17Z</time>
      </trkpt>
      <trkpt lat="47.5457" lon="-0.48921">
        <ele>15</ele>
        <time>2012-03-25T06:52:19Z</time>
      </trkpt>
      <trkpt lat="47.54584" lon="-0.48916">
        <ele>14.9</ele>
        <time>2012-03-25T06:52:22Z</time>
      </trkpt>
      <trkpt lat="47.54595" lon="-0.48913">
        <ele>14.8</ele>
        <time>2012-03-25T06:52:24Z</time>
      </trkpt>
      <trkpt lat="47.54607" lon="-0.4891">
        <ele>14.7</ele>
        <time>2012-03-25T06:52:27Z</time>
      </trkpt>
      <trkpt lat="47.54618" lon="-0.48906">
        <ele>14.6</ele>
        <time>2012-03-25T06:52:30Z</time>
      </trkpt>
      <trkpt lat="47.54628" lon="-0.48906">
        <ele>14.5</ele>
        <time>2012-03-25T06:52:35Z</time>
      </trkpt>
      <trkpt lat="47.54638" lon="-0.48906">
        <ele>14.5</ele>
        <time>2012-03-25T06:52:40Z</time>
      </trkpt>
      <trkpt lat="47.54647" lon="-0.48904">
        <ele>14.4</ele>
        <time>2012-03-25T06:52:50Z</time>
      </trkpt>
      <trkpt lat="47.54658" lon="-0.48901">
        <ele>14.3</ele>
        <time>2012-03-25T06:52:55Z</time>
      </trkpt>
      <trkpt lat="47.54667" lon="-0.48896">
        <ele>14.5</ele>
        <time>2012-03-25T06:52:58Z</time>
      </trkpt>
      <trkpt lat="47.54678" lon="-0.48891">
        <ele>14.6</ele>
        <time>2012-03-25T06:53:01Z</time>
      </trkpt>
      <trkpt lat="47.54688" lon="-0.48886">
        <ele>14.9</ele>
        <time>2012-03-25T06:53:03Z</time>
      </trkpt>
      <trkpt lat="47.54698" lon="-0.48882">
        <ele>15.3</ele>
        <time>2012-03-25T06:53:05Z</time>
      </trkpt>
      <trkpt lat="47.54706" lon="-0.48877">
        <ele>15.6</ele>
        <time>2012-03-25T06:53:07Z</time>
      </trkpt>
      <trkpt lat="47.54718" lon="-0.4887">
        <ele>16</ele>
        <time>2012-03-25T06:53:10Z</time>
      </trkpt>
      <trkpt lat="47.54726" lon="-0.48864">
        <ele>16.4</ele>
        <time>2012-03-25T06:53:12Z</time>
      </trkpt>
      <trkpt lat="47.54737" lon="-0.48855">
        <ele>16.7</ele>
        <time>2012-03-25T06:53:16Z</time>
      </trkpt>
      <trkpt lat="47.54746" lon="-0.48847">
        <ele>17.1</ele>
        <time>2012-03-25T06:53:19Z</time>
      </trkpt>
      <trkpt lat="47.54756" lon="-0.4884">
        <ele>17.5</ele>
        <time>2012-03-25T06:53:22Z</time>
      </trkpt>
      <trkpt lat="47.54764" lon="-0.48831">
        <ele>18.1</ele>
        <time>2012-03-25T06:53:27Z</time>
      </trkpt>
      <trkpt lat="47.54771" lon="-0.48822">
        <ele>18.5</ele>
        <time>2012-03-25T06:53:32Z</time>
      </trkpt>
      <trkpt lat="47.54778" lon="-0.48809">
        <ele>18.8</ele>
        <time>2012-03-25T06:53:37Z</time>
      </trkpt>
      <trkpt lat="47.54784" lon="-0.48795">
        <ele>19.1</ele>
        <time>2012-03-25T06:53:38Z</time>
      </trkpt>
      <trkpt lat="47.54789" lon="-0.48783">
        <ele>19.4</ele>
        <time>2012-03-25T06:53:40Z</time>
      </trkpt>
      <trkpt lat="47.54795" lon="-0.48766">
        <ele>19.8</ele>
        <time>2012-03-25T06:53:42Z</time>
      </trkpt>
      <trkpt lat="47.548" lon="-0.48751">
        <ele>20.3</ele>
        <time>2012-03-25T06:53:44Z</time>
      </trkpt>
      <trkpt lat="47.54806" lon="-0.48737">
        <ele>20.7</ele>
        <time>2012-03-25T06:53:46Z</time>
      </trkpt>
      <trkpt lat="47.54813" lon="-0.48721">
        <ele>21.2</ele>
        <time>2012-03-25T06:53:48Z</time>
      </trkpt>
      <trkpt lat="47.54821" lon="-0.48701">
        <ele>21.6</ele>
        <time>2012-03-25T06:53:50Z</time>
      </trkpt>
      <trkpt lat="47.54829" lon="-0.48681">
        <ele>22.1</ele>
        <time>2012-03-25T06:53:52Z</time>
      </trkpt>
      <trkpt lat="47.54836" lon="-0.48664">
        <ele>22.3</ele>
        <time>2012-03-25T06:53:54Z</time>
      </trkpt>
      <trkpt lat="47.54844" lon="-0.48646">
        <ele>22</ele>
        <time>2012-03-25T06:53:56Z</time>
      </trkpt>
      <trkpt lat="47.54852" lon="-0.48631">
        <ele>21.7</ele>
        <time>2012-03-25T06:53:58Z</time>
      </trkpt>
      <trkpt lat="47.54859" lon="-0.48619">
        <ele>21.5</ele>
        <time>2012-03-25T06:54:00Z</time>
      </trkpt>
      <trkpt lat="47.54869" lon="-0.48604">
        <ele>21.2</ele>
        <time>2012-03-25T06:54:02Z</time>
      </trkpt>
      <trkpt lat="47.54876" lon="-0.48592">
        <ele>20.7</ele>
        <time>2012-03-25T06:54:04Z</time>
      </trkpt>
      <trkpt lat="47.54884" lon="-0.48582">
        <ele>20.3</ele>
        <time>2012-03-25T06:54:06Z</time>
      </trkpt>
      <trkpt lat="47.54894" lon="-0.48569">
        <ele>19.8</ele>
        <time>2012-03-25T06:54:08Z</time>
      </trkpt>
      <trkpt lat="47.54903" lon="-0.4856">
        <ele>19.4</ele>
        <time>2012-03-25T06:54:10Z</time>
      </trkpt>
      <trkpt lat="47.54913" lon="-0.48552">
        <ele>18.9</ele>
        <time>2012-03-25T06:54:12Z</time>
      </trkpt>
      <trkpt lat="47.54922" lon="-0.48544">
        <ele>18.4</ele>
        <time>2012-03-25T06:54:14Z</time>
      </trkpt>
      <trkpt lat="47.54931" lon="-0.48532">
        <ele>17.8</ele>
        <time>2012-03-25T06:54:16Z</time>
      </trkpt>
      <trkpt lat="47.5494" lon="-0.48516">
        <ele>17.7</ele>
        <time>2012-03-25T06:54:18Z</time>
      </trkpt>
      <trkpt lat="47.54948" lon="-0.485">
        <ele>17.6</ele>
        <time>2012-03-25T06:54:20Z</time>
      </trkpt>
      <trkpt lat="47.54955" lon="-0.48484">
        <ele>17.5</ele>
        <time>2012-03-25T06:54:22Z</time>
      </trkpt>
      <trkpt lat="47.54961" lon="-0.48471">
        <ele>17.5</ele>
        <time>2012-03-25T06:54:24Z</time>
      </trkpt>
      <trkpt lat="47.54969" lon="-0.48456">
        <ele>17.4</ele>
        <time>2012-03-25T06:54:26Z</time>
      </trkpt>
      <trkpt lat="47.54976" lon="-0.48442">
        <ele>17.3</ele>
        <time>2012-03-25T06:54:28Z</time>
      </trkpt>
      <trkpt lat="47.54983" lon="-0.48428">
        <ele>17.2</ele>
        <time>2012-03-25T06:54:30Z</time>
      </trkpt>
      <trkpt lat="47.5499" lon="-0.48414">
        <ele>17.1</ele>
        <time>2012-03-25T06:54:32Z</time>
      </trkpt>
      <trkpt lat="47.54997" lon="-0.484">
        <ele>17</ele>
        <time>2012-03-25T06:54:34Z</time>
      </trkpt>
      <trkpt lat="47.55003" lon="-0.48387">
        <ele>17</ele>
        <time>2012-03-25T06:54:36Z</time>
      </trkpt>
      <trkpt lat="47.55012" lon="-0.48375">
        <ele>16.8</ele>
        <time>2012-03-25T06:54:38Z</time>
      </trkpt>
      <trkpt lat="47.5502" lon="-0.48364">
        <ele>16.6</ele>
        <time>2012-03-25T06:54:40Z</time>
      </trkpt>
      <trkpt lat="47.55029" lon="-0.48353">
        <ele>16.5</ele>
        <time>2012-03-25T06:54:42Z</time>
      </trkpt>
      <trkpt lat="47.55038" lon="-0.48342">
        <ele>16.4</ele>
        <time>2012-03-25T06:54:44Z</time>
      </trkpt>
      <trkpt lat="47.55046" lon="-0.48332">
        <ele>16.3</ele>
        <time>2012-03-25T06:54:46Z</time>
      </trkpt>
      <trkpt lat="47.55055" lon="-0.48321">
        <ele>16.2</ele>
        <time>2012-03-25T06:54:48Z</time>
      </trkpt>
      <trkpt lat="47.55063" lon="-0.48309">
        <ele>16.1</ele>
        <time>2012-03-25T06:54:50Z</time>
      </trkpt>
      <trkpt lat="47.55072" lon="-0.48297">
        <ele>16</ele>
        <time>2012-03-25T06:54:52Z</time>
      </trkpt>
      <trkpt lat="47.5508" lon="-0.48285">
        <ele>15.9</ele>
        <time>2012-03-25T06:54:54Z</time>
      </trkpt>
      <trkpt lat="47.55089" lon="-0.48273">
        <ele>15.7</ele>
        <time>2012-03-25T06:54:56Z</time>
      </trkpt>
      <trkpt lat="47.55098" lon="-0.48262">
        <ele>15.5</ele>
        <time>2012-03-25T06:54:58Z</time>
      </trkpt>
      <trkpt lat="47.55107" lon="-0.48253">
        <ele>15.5</ele>
        <time>2012-03-25T06:55:00Z</time>
      </trkpt>
      <trkpt lat="47.55116" lon="-0.48242">
        <ele>15.5</ele>
        <time>2012-03-25T06:55:02Z</time>
      </trkpt>
      <trkpt lat="47.55125" lon="-0.48231">
        <ele>15.5</ele>
        <time>2012-03-25T06:55:04Z</time>
      </trkpt>
      <trkpt lat="47.55133" lon="-0.4822">
        <ele>15.5</ele>
        <time>2012-03-25T06:55:06Z</time>
      </trkpt>
      <trkpt lat="47.55142" lon="-0.48208">
        <ele>15.4</ele>
        <time>2012-03-25T06:55:08Z</time>
      </trkpt>
      <trkpt lat="47.55151" lon="-0.48197">
        <ele>15.3</ele>
        <time>2012-03-25T06:55:10Z</time>
      </trkpt>
      <trkpt lat="47.55159" lon="-0.48188">
        <ele>15.2</ele>
        <time>2012-03-25T06:55:12Z</time>
      </trkpt>
      <trkpt lat="47.55168" lon="-0.48177">
        <ele>15.4</ele>
        <time>2012-03-25T06:55:14Z</time>
      </trkpt>
      <trkpt lat="47.55176" lon="-0.48167">
        <ele>15.5</ele>
        <time>2012-03-25T06:55:16Z</time>
      </trkpt>
      <trkpt lat="47.55184" lon="-0.48155">
        <ele>15.8</ele>
        <time>2012-03-25T06:55:18Z</time>
      </trkpt>
      <trkpt lat="47.55192" lon="-0.48143">
        <ele>16.3</ele>
        <time>2012-03-25T06:55:20Z</time>
      </trkpt>
      <trkpt lat="47.55199" lon="-0.48129">
        <ele>16.7</ele>
        <time>2012-03-25T06:55:22Z</time>
      </trkpt>
      <trkpt lat="47.55205" lon="-0.48115">
        <ele>17.2</ele>
        <time>2012-03-25T06:55:24Z</time>
      </trkpt>
      <trkpt lat="47.55209" lon="-0.481">
        <ele>17.6</ele>
        <time>2012-03-25T06:55:26Z</time>
      </trkpt>
      <trkpt lat="47.55212" lon="-0.48084">
        <ele>18.1</ele>
        <time>2012-03-25T06:55:28Z</time>
      </trkpt>
      <trkpt lat="47.55218" lon="-0.48072">
        <ele>18.5</ele>
        <time>2012-03-25T06:55:30Z</time>
      </trkpt>
      <trkpt lat="47.55226" lon="-0.48064">
        <ele>19</ele>
        <time>2012-03-25T06:55:32Z</time>
      </trkpt>
      <trkpt lat="47.55234" lon="-0.48058">
        <ele>19.5</ele>
        <time>2012-03-25T06:55:34Z</time>
      </trkpt>
      <trkpt lat="47.55246" lon="-0.4805">
        <ele>19.5</ele>
        <time>2012-03-25T06:55:37Z</time>
      </trkpt>
      <trkpt lat="47.55258" lon="-0.48046">
        <ele>19.6</ele>
        <time>2012-03-25T06:55:40Z</time>
      </trkpt>
      <trkpt lat="47.55267" lon="-0.48047">
        <ele>19.7</ele>
        <time>2012-03-25T06:55:42Z</time>
      </trkpt>
      <trkpt lat="47.55277" lon="-0.48048">
        <ele>19.6</ele>
        <time>2012-03-25T06:55:44Z</time>
      </trkpt>
      <trkpt lat="47.55288" lon="-0.4805">
        <ele>19.5</ele>
        <time>2012-03-25T06:55:46Z</time>
      </trkpt>
      <trkpt lat="47.55298" lon="-0.4805">
        <ele>19.5</ele>
        <time>2012-03-25T06:55:48Z</time>
      </trkpt>
      <trkpt lat="47.55308" lon="-0.4805">
        <ele>19.3</ele>
        <time>2012-03-25T06:55:50Z</time>
      </trkpt>
      <trkpt lat="47.5532" lon="-0.48049">
        <ele>19.1</ele>
        <time>2012-03-25T06:55:52Z</time>
      </trkpt>
      <trkpt lat="47.5533" lon="-0.48048">
        <ele>18.8</ele>
        <time>2012-03-25T06:55:54Z</time>
      </trkpt>
      <trkpt lat="47.55341" lon="-0.48046">
        <ele>18.5</ele>
        <time>2012-03-25T06:55:56Z</time>
      </trkpt>
      <trkpt lat="47.55351" lon="-0.48044">
        <ele>18.3</ele>
        <time>2012-03-25T06:55:58Z</time>
      </trkpt>
      <trkpt lat="47.55361" lon="-0.48039">
        <ele>18.1</ele>
        <time>2012-03-25T06:56:00Z</time>
      </trkpt>
      <trkpt lat="47.5537" lon="-0.48035">
        <ele>17.9</ele>
        <time>2012-03-25T06:56:02Z</time>
      </trkpt>
      <trkpt lat="47.55381" lon="-0.48031">
        <ele>17.7</ele>
        <time>2012-03-25T06:56:04Z</time>
      </trkpt>
      <trkpt lat="47.5539" lon="-0.48028">
        <ele>17.5</ele>
        <time>2012-03-25T06:56:06Z</time>
      </trkpt>
      <trkpt lat="47.55402" lon="-0.48021">
        <ele>17.4</ele>
        <time>2012-03-25T06:56:08Z</time>
      </trkpt>
      <trkpt lat="47.55414" lon="-0.48013">
        <ele>17</ele>
        <time>2012-03-25T06:56:11Z</time>
      </trkpt>
      <trkpt lat="47.55423" lon="-0.48006">
        <ele>16.7</ele>
        <time>2012-03-25T06:56:13Z</time>
      </trkpt>
      <trkpt lat="47.55433" lon="-0.47998">
        <ele>16.5</ele>
        <time>2012-03-25T06:56:15Z</time>
      </trkpt>
      <trkpt lat="47.55441" lon="-0.47991">
        <ele>16.5</ele>
        <time>2012-03-25T06:56:17Z</time>
      </trkpt>
      <trkpt lat="47.55453" lon="-0.47981">
        <ele>16.5</ele>
        <time>2012-03-25T06:56:20Z</time>
      </trkpt>
      <trkpt lat="47.55463" lon="-0.47974">
        <ele>16.5</ele>
        <time>2012-03-25T06:56:22Z</time>
      </trkpt>
      <trkpt lat="47.55472" lon="-0.47969">
        <ele>16.5</ele>
        <time>2012-03-25T06:56:24Z</time>
      </trkpt>
      <trkpt lat="47.55481" lon="-0.47962">
        <ele>16.5</ele>
        <time>2012-03-25T06:56:26Z</time>
      </trkpt>
      <trkpt lat="47.5549" lon="-0.47954">
        <ele>16.5</ele>
        <time>2012-03-25T06:56:28Z</time>
      </trkpt>
      <trkpt lat="47.555" lon="-0.47945">
        <ele>16.6</ele>
        <time>2012-03-25T06:56:30Z</time>
      </trkpt>
      <trkpt lat="47.55509" lon="-0.47939">
        <ele>16.7</ele>
        <time>2012-03-25T06:56:35Z</time>
      </trkpt>
      <trkpt lat="47.55532" lon="-0.47918">
        <ele>17</ele>
        <time>2012-03-25T06:56:37Z</time>
      </trkpt>
      <trkpt lat="47.55542" lon="-0.4791">
        <ele>17.3</ele>
        <time>2012-03-25T06:56:39Z</time>
      </trkpt>
      <trkpt lat="47.55552" lon="-0.47902">
        <ele>17.5</ele>
        <time>2012-03-25T06:56:41Z</time>
      </trkpt>
      <trkpt lat="47.55562" lon="-0.47894">
        <ele>17.7</ele>
        <time>2012-03-25T06:56:43Z</time>
      </trkpt>
      <trkpt lat="47.55573" lon="-0.47887">
        <ele>17.9</ele>
        <time>2012-03-25T06:56:45Z</time>
      </trkpt>
      <trkpt lat="47.55585" lon="-0.4788">
        <ele>17.9</ele>
        <time>2012-03-25T06:56:47Z</time>
      </trkpt>
      <trkpt lat="47.55595" lon="-0.47874">
        <ele>17.9</ele>
        <time>2012-03-25T06:56:49Z</time>
      </trkpt>
      <trkpt lat="47.55604" lon="-0.47868">
        <ele>17.9</ele>
        <time>2012-03-25T06:56:51Z</time>
      </trkpt>
      <trkpt lat="47.55617" lon="-0.47858">
        <ele>17.8</ele>
        <time>2012-03-25T06:56:53Z</time>
      </trkpt>
      <trkpt lat="47.55629" lon="-0.4785">
        <ele>17.7</ele>
        <time>2012-03-25T06:56:55Z</time>
      </trkpt>
      <trkpt lat="47.5564" lon="-0.47841">
        <ele>17.6</ele>
        <time>2012-03-25T06:56:57Z</time>
      </trkpt>
      <trkpt lat="47.5565" lon="-0.47833">
        <ele>17.5</ele>
        <time>2012-03-25T06:56:59Z</time>
      </trkpt>
      <trkpt lat="47.55659" lon="-0.47826">
        <ele>17.5</ele>
        <time>2012-03-25T06:57:01Z</time>
      </trkpt>
      <trkpt lat="47.55669" lon="-0.47821">
        <ele>17.5</ele>
        <time>2012-03-25T06:57:03Z</time>
      </trkpt>
      <trkpt lat="47.55681" lon="-0.47809">
        <ele>17.5</ele>
        <time>2012-03-25T06:57:06Z</time>
      </trkpt>
      <trkpt lat="47.55693" lon="-0.47803">
        <ele>17.4</ele>
        <time>2012-03-25T06:57:08Z</time>
      </trkpt>
      <trkpt lat="47.55705" lon="-0.47803">
        <ele>17.5</ele>
        <time>2012-03-25T06:57:10Z</time>
      </trkpt>
      <trkpt lat="47.55718" lon="-0.47802">
        <ele>17.5</ele>
        <time>2012-03-25T06:57:12Z</time>
      </trkpt>
      <trkpt lat="47.5573" lon="-0.47802">
        <ele>17.6</ele>
        <time>2012-03-25T06:57:14Z</time>
      </trkpt>
      <trkpt lat="47.55741" lon="-0.47804">
        <ele>17.5</ele>
        <time>2012-03-25T06:57:16Z</time>
      </trkpt>
      <trkpt lat="47.55751" lon="-0.47806">
        <ele>17.5</ele>
        <time>2012-03-25T06:57:18Z</time>
      </trkpt>
      <trkpt lat="47.55763" lon="-0.47809">
        <ele>17.4</ele>
        <time>2012-03-25T06:57:20Z</time>
      </trkpt>
      <trkpt lat="47.55775" lon="-0.47812">
        <ele>17.3</ele>
        <time>2012-03-25T06:57:22Z</time>
      </trkpt>
      <trkpt lat="47.55787" lon="-0.47814">
        <ele>17.1</ele>
        <time>2012-03-25T06:57:24Z</time>
      </trkpt>
      <trkpt lat="47.55796" lon="-0.47815">
        <ele>16.9</ele>
        <time>2012-03-25T06:57:26Z</time>
      </trkpt>
      <trkpt lat="47.55808" lon="-0.47818">
        <ele>16.7</ele>
        <time>2012-03-25T06:57:28Z</time>
      </trkpt>
      <trkpt lat="47.5582" lon="-0.47821">
        <ele>16.5</ele>
        <time>2012-03-25T06:57:30Z</time>
      </trkpt>
      <trkpt lat="47.55831" lon="-0.47823">
        <ele>16.5</ele>
        <time>2012-03-25T06:57:32Z</time>
      </trkpt>
      <trkpt lat="47.55842" lon="-0.47826">
        <ele>16.4</ele>
        <time>2012-03-25T06:57:34Z</time>
      </trkpt>
      <trkpt lat="47.55852" lon="-0.47829">
        <ele>16.3</ele>
        <time>2012-03-25T06:57:36Z</time>
      </trkpt>
      <trkpt lat="47.55863" lon="-0.47833">
        <ele>16.4</ele>
        <time>2012-03-25T06:57:38Z</time>
      </trkpt>
      <trkpt lat="47.55873" lon="-0.47838">
        <ele>16.4</ele>
        <time>2012-03-25T06:57:40Z</time>
      </trkpt>
      <trkpt lat="47.55883" lon="-0.47842">
        <ele>16.4</ele>
        <time>2012-03-25T06:57:42Z</time>
      </trkpt>
      <trkpt lat="47.55894" lon="-0.47848">
        <ele>16.4</ele>
        <time>2012-03-25T06:57:44Z</time>
      </trkpt>
      <trkpt lat="47.55905" lon="-0.47854">
        <ele>16.4</ele>
        <time>2012-03-25T06:57:46Z</time>
      </trkpt>
      <trkpt lat="47.55915" lon="-0.47859">
        <ele>16.4</ele>
        <time>2012-03-25T06:57:48Z</time>
      </trkpt>
      <trkpt lat="47.55925" lon="-0.47863">
        <ele>16.4</ele>
        <time>2012-03-25T06:57:50Z</time>
      </trkpt>
      <trkpt lat="47.55936" lon="-0.47869">
        <ele>16.4</ele>
        <time>2012-03-25T06:57:52Z</time>
      </trkpt>
      <trkpt lat="47.55948" lon="-0.47875">
        <ele>16.3</ele>
        <time>2012-03-25T06:57:54Z</time>
      </trkpt>
      <trkpt lat="47.55958" lon="-0.4788">
        <ele>16.2</ele>
        <time>2012-03-25T06:57:56Z</time>
      </trkpt>
      <trkpt lat="47.55971" lon="-0.47886">
        <ele>16.1</ele>
        <time>2012-03-25T06:57:58Z</time>
      </trkpt>
      <trkpt lat="47.55981" lon="-0.4789">
        <ele>16</ele>
        <time>2012-03-25T06:58:00Z</time>
      </trkpt>
      <trkpt lat="47.55992" lon="-0.47898">
        <ele>16.2</ele>
        <time>2012-03-25T06:58:02Z</time>
      </trkpt>
      <trkpt lat="47.56003" lon="-0.47906">
        <ele>16.4</ele>
        <time>2012-03-25T06:58:04Z</time>
      </trkpt>
      <trkpt lat="47.56014" lon="-0.47912">
        <ele>16.5</ele>
        <time>2012-03-25T06:58:06Z</time>
      </trkpt>
      <trkpt lat="47.56025" lon="-0.47917">
        <ele>16.7</ele>
        <time>2012-03-25T06:58:08Z</time>
      </trkpt>
      <trkpt lat="47.56038" lon="-0.47924">
        <ele>16.9</ele>
        <time>2012-03-25T06:58:10Z</time>
      </trkpt>
      <trkpt lat="47.56051" lon="-0.47931">
        <ele>17</ele>
        <time>2012-03-25T06:58:12Z</time>
      </trkpt>
      <trkpt lat="47.56061" lon="-0.47937">
        <ele>17.1</ele>
        <time>2012-03-25T06:58:14Z</time>
      </trkpt>
      <trkpt lat="47.56072" lon="-0.47942">
        <ele>17.2</ele>
        <time>2012-03-25T06:58:16Z</time>
      </trkpt>
      <trkpt lat="47.56083" lon="-0.47949">
        <ele>17.3</ele>
        <time>2012-03-25T06:58:18Z</time>
      </trkpt>
      <trkpt lat="47.56095" lon="-0.47952">
        <ele>17.4</ele>
        <time>2012-03-25T06:58:21Z</time>
      </trkpt>
      <trkpt lat="47.56108" lon="-0.47958">
        <ele>17.5</ele>
        <time>2012-03-25T06:58:24Z</time>
      </trkpt>
      <trkpt lat="47.56117" lon="-0.47963">
        <ele>17.4</ele>
        <time>2012-03-25T06:58:26Z</time>
      </trkpt>
      <trkpt lat="47.56126" lon="-0.47969">
        <ele>17.3</ele>
        <time>2012-03-25T06:58:28Z</time>
      </trkpt>
      <trkpt lat="47.56138" lon="-0.47975">
        <ele>17.2</ele>
        <time>2012-03-25T06:58:30Z</time>
      </trkpt>
      <trkpt lat="47.5615" lon="-0.47982">
        <ele>17.1</ele>
        <time>2012-03-25T06:58:32Z</time>
      </trkpt>
      <trkpt lat="47.56161" lon="-0.47989">
        <ele>17.3</ele>
        <time>2012-03-25T06:58:34Z</time>
      </trkpt>
      <trkpt lat="47.56174" lon="-0.47996">
        <ele>17.5</ele>
        <time>2012-03-25T06:58:36Z</time>
      </trkpt>
      <trkpt lat="47.56185" lon="-0.48002">
        <ele>17.8</ele>
        <time>2012-03-25T06:58:38Z</time>
      </trkpt>
      <trkpt lat="47.56197" lon="-0.48008">
        <ele>17.9</ele>
        <time>2012-03-25T06:58:40Z</time>
      </trkpt>
      <trkpt lat="47.56209" lon="-0.48015">
        <ele>18</ele>
        <time>2012-03-25T06:58:42Z</time>
      </trkpt>
      <trkpt lat="47.56221" lon="-0.48021">
        <ele>18.1</ele>
        <time>2012-03-25T06:58:44Z</time>
      </trkpt>
      <trkpt lat="47.56234" lon="-0.48028">
        <ele>18.2</ele>
        <time>2012-03-25T06:58:46Z</time>
      </trkpt>
      <trkpt lat="47.56245" lon="-0.48034">
        <ele>18.1</ele>
        <time>2012-03-25T06:58:48Z</time>
      </trkpt>
      <trkpt lat="47.56256" lon="-0.48041">
        <ele>18</ele>
        <time>2012-03-25T06:58:50Z</time>
      </trkpt>
      <trkpt lat="47.56268" lon="-0.48047">
        <ele>17.9</ele>
        <time>2012-03-25T06:58:52Z</time>
      </trkpt>
      <trkpt lat="47.56279" lon="-0.48053">
        <ele>17.8</ele>
        <time>2012-03-25T06:58:54Z</time>
      </trkpt>
      <trkpt lat="47.5629" lon="-0.48058">
        <ele>17.5</ele>
        <time>2012-03-25T06:58:56Z</time>
      </trkpt>
      <trkpt lat="47.563" lon="-0.48063">
        <ele>17.1</ele>
        <time>2012-03-25T06:58:58Z</time>
      </trkpt>
      <trkpt lat="47.56312" lon="-0.48068">
        <ele>16.7</ele>
        <time>2012-03-25T06:59:00Z</time>
      </trkpt>
      <trkpt lat="47.56321" lon="-0.48072">
        <ele>16.6</ele>
        <time>2012-03-25T06:59:02Z</time>
      </trkpt>
      <trkpt lat="47.56333" lon="-0.48077">
        <ele>16.5</ele>
        <time>2012-03-25T06:59:04Z</time>
      </trkpt>
      <trkpt lat="47.56342" lon="-0.48082">
        <ele>16.5</ele>
        <time>2012-03-25T06:59:06Z</time>
      </trkpt>
      <trkpt lat="47.56354" lon="-0.48087">
        <ele>16.4</ele>
        <time>2012-03-25T06:59:08Z</time>
      </trkpt>
      <trkpt lat="47.56369" lon="-0.48094">
        <ele>16.2</ele>
        <time>2012-03-25T06:59:10Z</time>
      </trkpt>
      <trkpt lat="47.56381" lon="-0.48099">
        <ele>16</ele>
        <time>2012-03-25T06:59:12Z</time>
      </trkpt>
      <trkpt lat="47.56393" lon="-0.48105">
        <ele>16.4</ele>
        <time>2012-03-25T06:59:14Z</time>
      </trkpt>
      <trkpt lat="47.56406" lon="-0.48112">
        <ele>16.7</ele>
        <time>2012-03-25T06:59:16Z</time>
      </trkpt>
      <trkpt lat="47.56421" lon="-0.48121">
        <ele>17.1</ele>
        <time>2012-03-25T06:59:18Z</time>
      </trkpt>
      <trkpt lat="47.56435" lon="-0.48131">
        <ele>17.5</ele>
        <time>2012-03-25T06:59:20Z</time>
      </trkpt>
      <trkpt lat="47.56449" lon="-0.48139">
        <ele>17.8</ele>
        <time>2012-03-25T06:59:22Z</time>
      </trkpt>
      <trkpt lat="47.56462" lon="-0.48146">
        <ele>18.1</ele>
        <time>2012-03-25T06:59:24Z</time>
      </trkpt>
      <trkpt lat="47.56475" lon="-0.48153">
        <ele>18.4</ele>
        <time>2012-03-25T06:59:26Z</time>
      </trkpt>
      <trkpt lat="47.56488" lon="-0.4816">
        <ele>18.6</ele>
        <time>2012-03-25T06:59:28Z</time>
      </trkpt>
      <trkpt lat="47.56501" lon="-0.48167">
        <ele>19.1</ele>
        <time>2012-03-25T06:59:30Z</time>
      </trkpt>
      <trkpt lat="47.56513" lon="-0.48174">
        <ele>19.8</ele>
        <time>2012-03-25T06:59:32Z</time>
      </trkpt>
      <trkpt lat="47.56525" lon="-0.48178">
        <ele>20.4</ele>
        <time>2012-03-25T06:59:34Z</time>
      </trkpt>
      <trkpt lat="47.56536" lon="-0.48183">
        <ele>20.4</ele>
        <time>2012-03-25T06:59:36Z</time>
      </trkpt>
      <trkpt lat="47.56546" lon="-0.48187">
        <ele>20.4</ele>
        <time>2012-03-25T06:59:38Z</time>
      </trkpt>
      <trkpt lat="47.5656" lon="-0.48194">
        <ele>20.4</ele>
        <time>2012-03-25T06:59:40Z</time>
      </trkpt>
      <trkpt lat="47.56574" lon="-0.48202">
        <ele>20.3</ele>
        <time>2012-03-25T06:59:42Z</time>
      </trkpt>
      <trkpt lat="47.56587" lon="-0.48209">
        <ele>20.2</ele>
        <time>2012-03-25T06:59:44Z</time>
      </trkpt>
      <trkpt lat="47.56599" lon="-0.48215">
        <ele>20.1</ele>
        <time>2012-03-25T06:59:46Z</time>
      </trkpt>
      <trkpt lat="47.56611" lon="-0.4822">
        <ele>20</ele>
        <time>2012-03-25T06:59:48Z</time>
      </trkpt>
      <trkpt lat="47.56622" lon="-0.48225">
        <ele>19.9</ele>
        <time>2012-03-25T06:59:50Z</time>
      </trkpt>
      <trkpt lat="47.56633" lon="-0.4823">
        <ele>19.6</ele>
        <time>2012-03-25T06:59:52Z</time>
      </trkpt>
      <trkpt lat="47.56645" lon="-0.48235">
        <ele>19.5</ele>
        <time>2012-03-25T06:59:54Z</time>
      </trkpt>
      <trkpt lat="47.56658" lon="-0.48239">
        <ele>19.5</ele>
        <time>2012-03-25T06:59:56Z</time>
      </trkpt>
      <trkpt lat="47.56671" lon="-0.48244">
        <ele>19.5</ele>
        <time>2012-03-25T06:59:58Z</time>
      </trkpt>
      <trkpt lat="47.56684" lon="-0.48249">
        <ele>19.5</ele>
        <time>2012-03-25T07:00:00Z</time>
      </trkpt>
      <trkpt lat="47.56698" lon="-0.48253">
        <ele>19.5</ele>
        <time>2012-03-25T07:00:02Z</time>
      </trkpt>
      <trkpt lat="47.56713" lon="-0.48257">
        <ele>19.5</ele>
        <time>2012-03-25T07:00:04Z</time>
      </trkpt>
      <trkpt lat="47.56726" lon="-0.48262">
        <ele>19.5</ele>
        <time>2012-03-25T07:00:06Z</time>
      </trkpt>
      <trkpt lat="47.56739" lon="-0.48266">
        <ele>19.5</ele>
        <time>2012-03-25T07:00:08Z</time>
      </trkpt>
      <trkpt lat="47.56756" lon="-0.48272">
        <ele>19.5</ele>
        <time>2012-03-25T07:00:10Z</time>
      </trkpt>
      <trkpt lat="47.56771" lon="-0.48278">
        <ele>19.5</ele>
        <time>2012-03-25T07:00:12Z</time>
      </trkpt>
      <trkpt lat="47.56784" lon="-0.48283">
        <ele>19.5</ele>
        <time>2012-03-25T07:00:14Z</time>
      </trkpt>
      <trkpt lat="47.56797" lon="-0.48288">
        <ele>19.5</ele>
        <time>2012-03-25T07:00:16Z</time>
      </trkpt>
      <trkpt lat="47.5681" lon="-0.48292">
        <ele>19.3</ele>
        <time>2012-03-25T07:00:18Z</time>
      </trkpt>
      <trkpt lat="47.56823" lon="-0.48297">
        <ele>19.1</ele>
        <time>2012-03-25T07:00:20Z</time>
      </trkpt>
      <trkpt lat="47.56837" lon="-0.48301">
        <ele>18.9</ele>
        <time>2012-03-25T07:00:22Z</time>
      </trkpt>
      <trkpt lat="47.56851" lon="-0.48304">
        <ele>18.7</ele>
        <time>2012-03-25T07:00:24Z</time>
      </trkpt>
      <trkpt lat="47.56865" lon="-0.48306">
        <ele>18.5</ele>
        <time>2012-03-25T07:00:26Z</time>
      </trkpt>
      <trkpt lat="47.56877" lon="-0.48307">
        <ele>18.5</ele>
        <time>2012-03-25T07:00:28Z</time>
      </trkpt>
      <trkpt lat="47.56889" lon="-0.48309">
        <ele>18.4</ele>
        <time>2012-03-25T07:00:30Z</time>
      </trkpt>
      <trkpt lat="47.569" lon="-0.4831">
        <ele>18.2</ele>
        <time>2012-03-25T07:00:32Z</time>
      </trkpt>
      <trkpt lat="47.56913" lon="-0.48311">
        <ele>18</ele>
        <time>2012-03-25T07:00:34Z</time>
      </trkpt>
      <trkpt lat="47.56925" lon="-0.48313">
        <ele>17.8</ele>
        <time>2012-03-25T07:00:36Z</time>
      </trkpt>
      <trkpt lat="47.56938" lon="-0.48316">
        <ele>17.6</ele>
        <time>2012-03-25T07:00:38Z</time>
      </trkpt>
      <trkpt lat="47.56951" lon="-0.48318">
        <ele>17.5</ele>
        <time>2012-03-25T07:00:40Z</time>
      </trkpt>
      <trkpt lat="47.56964" lon="-0.4832">
        <ele>17.5</ele>
        <time>2012-03-25T07:00:42Z</time>
      </trkpt>
      <trkpt lat="47.56976" lon="-0.48321">
        <ele>17.4</ele>
        <time>2012-03-25T07:00:44Z</time>
      </trkpt>
      <trkpt lat="47.56987" lon="-0.48322">
        <ele>17.3</ele>
        <time>2012-03-25T07:00:46Z</time>
      </trkpt>
      <trkpt lat="47.56997" lon="-0.48321">
        <ele>17.1</ele>
        <time>2012-03-25T07:00:48Z</time>
      </trkpt>
      <trkpt lat="47.57009" lon="-0.4832">
        <ele>17.1</ele>
        <time>2012-03-25T07:00:50Z</time>
      </trkpt>
      <trkpt lat="47.57021" lon="-0.48317">
        <ele>17.3</ele>
        <time>2012-03-25T07:00:52Z</time>
      </trkpt>
      <trkpt lat="47.57033" lon="-0.48314">
        <ele>17.5</ele>
        <time>2012-03-25T07:00:54Z</time>
      </trkpt>
      <trkpt lat="47.57042" lon="-0.48307">
        <ele>17.8</ele>
        <time>2012-03-25T07:00:56Z</time>
      </trkpt>
      <trkpt lat="47.57049" lon="-0.48291">
        <ele>18.1</ele>
        <time>2012-03-25T07:00:59Z</time>
      </trkpt>
      <trkpt lat="47.57048" lon="-0.48277">
        <ele>18.4</ele>
        <time>2012-03-25T07:01:02Z</time>
      </trkpt>
      <trkpt lat="47.57046" lon="-0.48258">
        <ele>18.6</ele>
        <time>2012-03-25T07:01:05Z</time>
      </trkpt>
      <trkpt lat="47.57039" lon="-0.48247">
        <ele>18.9</ele>
        <time>2012-03-25T07:01:07Z</time>
      </trkpt>
      <trkpt lat="47.57031" lon="-0.48233">
        <ele>19.2</ele>
        <time>2012-03-25T07:01:09Z</time>
      </trkpt>
      <trkpt lat="47.57024" lon="-0.48221">
        <ele>19.1</ele>
        <time>2012-03-25T07:01:11Z</time>
      </trkpt>
      <trkpt lat="47.57016" lon="-0.48214">
        <ele>19.5</ele>
        <time>2012-03-25T07:01:13Z</time>
      </trkpt>
      <trkpt lat="47.57007" lon="-0.48209">
        <ele>19.7</ele>
        <time>2012-03-25T07:01:15Z</time>
      </trkpt>
      <trkpt lat="47.56996" lon="-0.48205">
        <ele>19.8</ele>
        <time>2012-03-25T07:01:18Z</time>
      </trkpt>
      <trkpt lat="47.56983" lon="-0.48206">
        <ele>19.9</ele>
        <time>2012-03-25T07:01:21Z</time>
      </trkpt>
      <trkpt lat="47.56971" lon="-0.48204">
        <ele>20</ele>
        <time>2012-03-25T07:01:24Z</time>
      </trkpt>
      <trkpt lat="47.56962" lon="-0.48205">
        <ele>19.6</ele>
        <time>2012-03-25T07:01:27Z</time>
      </trkpt>
      <trkpt lat="47.56953" lon="-0.48206">
        <ele>19.3</ele>
        <time>2012-03-25T07:01:29Z</time>
      </trkpt>
      <trkpt lat="47.56941" lon="-0.48206">
        <ele>18.9</ele>
        <time>2012-03-25T07:01:32Z</time>
      </trkpt>
      <trkpt lat="47.56928" lon="-0.48206">
        <ele>18.5</ele>
        <time>2012-03-25T07:01:35Z</time>
      </trkpt>
      <trkpt lat="47.56919" lon="-0.48204">
        <ele>18.5</ele>
        <time>2012-03-25T07:01:37Z</time>
      </trkpt>
      <trkpt lat="47.56908" lon="-0.48202">
        <ele>18.7</ele>
        <time>2012-03-25T07:01:39Z</time>
      </trkpt>
      <trkpt lat="47.569" lon="-0.482">
        <ele>18.6</ele>
        <time>2012-03-25T07:01:41Z</time>
      </trkpt>
      <trkpt lat="47.56889" lon="-0.48197">
        <ele>18.5</ele>
        <time>2012-03-25T07:01:43Z</time>
      </trkpt>
      <trkpt lat="47.56879" lon="-0.48196">
        <ele>18.3</ele>
        <time>2012-03-25T07:01:45Z</time>
      </trkpt>
      <trkpt lat="47.5687" lon="-0.48196">
        <ele>18.1</ele>
        <time>2012-03-25T07:01:47Z</time>
      </trkpt>
      <trkpt lat="47.56856" lon="-0.48192">
        <ele>17.9</ele>
        <time>2012-03-25T07:01:50Z</time>
      </trkpt>
      <trkpt lat="47.56847" lon="-0.48191">
        <ele>18.3</ele>
        <time>2012-03-25T07:01:52Z</time>
      </trkpt>
      <trkpt lat="47.56837" lon="-0.48189">
        <ele>18.6</ele>
        <time>2012-03-25T07:01:54Z</time>
      </trkpt>
      <trkpt lat="47.56828" lon="-0.48187">
        <ele>19</ele>
        <time>2012-03-25T07:01:56Z</time>
      </trkpt>
      <trkpt lat="47.56815" lon="-0.48181">
        <ele>19.4</ele>
        <time>2012-03-25T07:01:59Z</time>
      </trkpt>
      <trkpt lat="47.56803" lon="-0.48178">
        <ele>19.5</ele>
        <time>2012-03-25T07:02:02Z</time>
      </trkpt>
      <trkpt lat="47.56793" lon="-0.48176">
        <ele>19.5</ele>
        <time>2012-03-25T07:02:04Z</time>
      </trkpt>
      <trkpt lat="47.56782" lon="-0.48173">
        <ele>19.6</ele>
        <time>2012-03-25T07:02:06Z</time>
      </trkpt>
      <trkpt lat="47.56771" lon="-0.48172">
        <ele>19.7</ele>
        <time>2012-03-25T07:02:08Z</time>
      </trkpt>
      <trkpt lat="47.56758" lon="-0.48168">
        <ele>19.8</ele>
        <time>2012-03-25T07:02:11Z</time>
      </trkpt>
      <trkpt lat="47.56748" lon="-0.48167">
        <ele>19.9</ele>
        <time>2012-03-25T07:02:13Z</time>
      </trkpt>
      <trkpt lat="47.56737" lon="-0.48164">
        <ele>20</ele>
        <time>2012-03-25T07:02:15Z</time>
      </trkpt>
      <trkpt lat="47.56725" lon="-0.48161">
        <ele>20</ele>
        <time>2012-03-25T07:02:17Z</time>
      </trkpt>
      <trkpt lat="47.56715" lon="-0.48159">
        <ele>20</ele>
        <time>2012-03-25T07:02:19Z</time>
      </trkpt>
      <trkpt lat="47.56705" lon="-0.48156">
        <ele>20</ele>
        <time>2012-03-25T07:02:21Z</time>
      </trkpt>
      <trkpt lat="47.56696" lon="-0.48154">
        <ele>20</ele>
        <time>2012-03-25T07:02:23Z</time>
      </trkpt>
      <trkpt lat="47.56683" lon="-0.48149">
        <ele>20.2</ele>
        <time>2012-03-25T07:02:26Z</time>
      </trkpt>
      <trkpt lat="47.5667" lon="-0.48145">
        <ele>20.4</ele>
        <time>2012-03-25T07:02:29Z</time>
      </trkpt>
      <trkpt lat="47.56661" lon="-0.48141">
        <ele>20.5</ele>
        <time>2012-03-25T07:02:31Z</time>
      </trkpt>
      <trkpt lat="47.56651" lon="-0.48138">
        <ele>20.4</ele>
        <time>2012-03-25T07:02:33Z</time>
      </trkpt>
      <trkpt lat="47.56638" lon="-0.48134">
        <ele>20.2</ele>
        <time>2012-03-25T07:02:36Z</time>
      </trkpt>
      <trkpt lat="47.56626" lon="-0.4813">
        <ele>20</ele>
        <time>2012-03-25T07:02:38Z</time>
      </trkpt>
      <trkpt lat="47.56616" lon="-0.48126">
        <ele>19.8</ele>
        <time>2012-03-25T07:02:40Z</time>
      </trkpt>
      <trkpt lat="47.56606" lon="-0.48122">
        <ele>19.6</ele>
        <time>2012-03-25T07:02:42Z</time>
      </trkpt>
      <trkpt lat="47.56593" lon="-0.48116">
        <ele>19.5</ele>
        <time>2012-03-25T07:02:45Z</time>
      </trkpt>
      <trkpt lat="47.56582" lon="-0.48108">
        <ele>19.5</ele>
        <time>2012-03-25T07:02:48Z</time>
      </trkpt>
      <trkpt lat="47.56574" lon="-0.48102">
        <ele>19.4</ele>
        <time>2012-03-25T07:02:50Z</time>
      </trkpt>
      <trkpt lat="47.56562" lon="-0.48098">
        <ele>19.1</ele>
        <time>2012-03-25T07:02:53Z</time>
      </trkpt>
      <trkpt lat="47.56552" lon="-0.48095">
        <ele>18.8</ele>
        <time>2012-03-25T07:02:55Z</time>
      </trkpt>
      <trkpt lat="47.56541" lon="-0.48091">
        <ele>18.5</ele>
        <time>2012-03-25T07:02:58Z</time>
      </trkpt>
      <trkpt lat="47.5653" lon="-0.48087">
        <ele>18.6</ele>
        <time>2012-03-25T07:03:00Z</time>
      </trkpt>
      <trkpt lat="47.56518" lon="-0.48081">
        <ele>18.7</ele>
        <time>2012-03-25T07:03:03Z</time>
      </trkpt>
      <trkpt lat="47.56507" lon="-0.48075">
        <ele>18.6</ele>
        <time>2012-03-25T07:03:06Z</time>
      </trkpt>
      <trkpt lat="47.56495" lon="-0.48067">
        <ele>18.5</ele>
        <time>2012-03-25T07:03:09Z</time>
      </trkpt>
      <trkpt lat="47.56485" lon="-0.48063">
        <ele>18.5</ele>
        <time>2012-03-25T07:03:11Z</time>
      </trkpt>
      <trkpt lat="47.56476" lon="-0.4806">
        <ele>18.5</ele>
        <time>2012-03-25T07:03:13Z</time>
      </trkpt>
      <trkpt lat="47.56467" lon="-0.48058">
        <ele>18.5</ele>
        <time>2012-03-25T07:03:15Z</time>
      </trkpt>
      <trkpt lat="47.56454" lon="-0.48052">
        <ele>18.5</ele>
        <time>2012-03-25T07:03:18Z</time>
      </trkpt>
      <trkpt lat="47.56442" lon="-0.48048">
        <ele>18.5</ele>
        <time>2012-03-25T07:03:21Z</time>
      </trkpt>
      <trkpt lat="47.56431" lon="-0.48042">
        <ele>18.5</ele>
        <time>2012-03-25T07:03:24Z</time>
      </trkpt>
      <trkpt lat="47.56422" lon="-0.48036">
        <ele>18.4</ele>
        <time>2012-03-25T07:03:26Z</time>
      </trkpt>
      <trkpt lat="47.56411" lon="-0.48028">
        <ele>18.3</ele>
        <time>2012-03-25T07:03:29Z</time>
      </trkpt>
      <trkpt lat="47.56403" lon="-0.48023">
        <ele>18.2</ele>
        <time>2012-03-25T07:03:31Z</time>
      </trkpt>
      <trkpt lat="47.56393" lon="-0.48018">
        <ele>18.3</ele>
        <time>2012-03-25T07:03:33Z</time>
      </trkpt>
      <trkpt lat="47.56383" lon="-0.48012">
        <ele>18.4</ele>
        <time>2012-03-25T07:03:35Z</time>
      </trkpt>
      <trkpt lat="47.56374" lon="-0.48008">
        <ele>18.5</ele>
        <time>2012-03-25T07:03:37Z</time>
      </trkpt>
      <trkpt lat="47.56362" lon="-0.48001">
        <ele>18.4</ele>
        <time>2012-03-25T07:03:40Z</time>
      </trkpt>
      <trkpt lat="47.56353" lon="-0.47997">
        <ele>18.3</ele>
        <time>2012-03-25T07:03:42Z</time>
      </trkpt>
      <trkpt lat="47.56342" lon="-0.47992">
        <ele>18.4</ele>
        <time>2012-03-25T07:03:45Z</time>
      </trkpt>
      <trkpt lat="47.56333" lon="-0.47987">
        <ele>18.5</ele>
        <time>2012-03-25T07:03:48Z</time>
      </trkpt>
      <trkpt lat="47.56322" lon="-0.47982">
        <ele>18.3</ele>
        <time>2012-03-25T07:03:51Z</time>
      </trkpt>
      <trkpt lat="47.56311" lon="-0.47978">
        <ele>18.2</ele>
        <time>2012-03-25T07:03:54Z</time>
      </trkpt>
      <trkpt lat="47.56299" lon="-0.47972">
        <ele>18.1</ele>
        <time>2012-03-25T07:03:57Z</time>
      </trkpt>
      <trkpt lat="47.56288" lon="-0.47966">
        <ele>18</ele>
        <time>2012-03-25T07:04:00Z</time>
      </trkpt>
      <trkpt lat="47.56277" lon="-0.4796">
        <ele>17.9</ele>
        <time>2012-03-25T07:04:03Z</time>
      </trkpt>
      <trkpt lat="47.56266" lon="-0.47955">
        <ele>17.8</ele>
        <time>2012-03-25T07:04:06Z</time>
      </trkpt>
      <trkpt lat="47.56253" lon="-0.47949">
        <ele>17.9</ele>
        <time>2012-03-25T07:04:09Z</time>
      </trkpt>
      <trkpt lat="47.56244" lon="-0.47946">
        <ele>18</ele>
        <time>2012-03-25T07:04:11Z</time>
      </trkpt>
      <trkpt lat="47.56234" lon="-0.47942">
        <ele>18.1</ele>
        <time>2012-03-25T07:04:13Z</time>
      </trkpt>
      <trkpt lat="47.56223" lon="-0.47935">
        <ele>18</ele>
        <time>2012-03-25T07:04:16Z</time>
      </trkpt>
      <trkpt lat="47.56212" lon="-0.47928">
        <ele>17.9</ele>
        <time>2012-03-25T07:04:19Z</time>
      </trkpt>
      <trkpt lat="47.56203" lon="-0.47922">
        <ele>18.1</ele>
        <time>2012-03-25T07:04:22Z</time>
      </trkpt>
      <trkpt lat="47.56189" lon="-0.47915">
        <ele>18.3</ele>
        <time>2012-03-25T07:04:25Z</time>
      </trkpt>
      <trkpt lat="47.56179" lon="-0.47911">
        <ele>18.4</ele>
        <time>2012-03-25T07:04:27Z</time>
      </trkpt>
      <trkpt lat="47.56168" lon="-0.47906">
        <ele>18.5</ele>
        <time>2012-03-25T07:04:30Z</time>
      </trkpt>
      <trkpt lat="47.56159" lon="-0.47899">
        <ele>18.5</ele>
        <time>2012-03-25T07:04:33Z</time>
      </trkpt>
      <trkpt lat="47.56148" lon="-0.47892">
        <ele>18.6</ele>
        <time>2012-03-25T07:04:36Z</time>
      </trkpt>
      <trkpt lat="47.56137" lon="-0.47886">
        <ele>18.4</ele>
        <time>2012-03-25T07:04:39Z</time>
      </trkpt>
      <trkpt lat="47.56127" lon="-0.47879">
        <ele>18.1</ele>
        <time>2012-03-25T07:04:42Z</time>
      </trkpt>
      <trkpt lat="47.56116" lon="-0.47871">
        <ele>17.8</ele>
        <time>2012-03-25T07:04:46Z</time>
      </trkpt>
      <trkpt lat="47.56103" lon="-0.47865">
        <ele>17.6</ele>
        <time>2012-03-25T07:04:49Z</time>
      </trkpt>
      <trkpt lat="47.56094" lon="-0.47862">
        <ele>17.5</ele>
        <time>2012-03-25T07:04:51Z</time>
      </trkpt>
      <trkpt lat="47.56084" lon="-0.47857">
        <ele>17.3</ele>
        <time>2012-03-25T07:04:53Z</time>
      </trkpt>
      <trkpt lat="47.56073" lon="-0.4785">
        <ele>17.1</ele>
        <time>2012-03-25T07:04:56Z</time>
      </trkpt>
      <trkpt lat="47.56059" lon="-0.47843">
        <ele>17</ele>
        <time>2012-03-25T07:04:59Z</time>
      </trkpt>
      <trkpt lat="47.56047" lon="-0.47838">
        <ele>16.9</ele>
        <time>2012-03-25T07:05:01Z</time>
      </trkpt>
      <trkpt lat="47.56037" lon="-0.47835">
        <ele>16.8</ele>
        <time>2012-03-25T07:05:03Z</time>
      </trkpt>
      <trkpt lat="47.56024" lon="-0.47832">
        <ele>16.7</ele>
        <time>2012-03-25T07:05:06Z</time>
      </trkpt>
      <trkpt lat="47.56013" lon="-0.47826">
        <ele>16.8</ele>
        <time>2012-03-25T07:05:09Z</time>
      </trkpt>
      <trkpt lat="47.56005" lon="-0.47819">
        <ele>16.9</ele>
        <time>2012-03-25T07:05:12Z</time>
      </trkpt>
      <trkpt lat="47.55995" lon="-0.47813">
        <ele>17</ele>
        <time>2012-03-25T07:05:15Z</time>
      </trkpt>
      <trkpt lat="47.55985" lon="-0.47808">
        <ele>17</ele>
        <time>2012-03-25T07:05:18Z</time>
      </trkpt>
      <trkpt lat="47.55975" lon="-0.47802">
        <ele>16.9</ele>
        <time>2012-03-25T07:05:21Z</time>
      </trkpt>
      <trkpt lat="47.55964" lon="-0.47797">
        <ele>16.8</ele>
        <time>2012-03-25T07:05:24Z</time>
      </trkpt>
      <trkpt lat="47.55954" lon="-0.47791">
        <ele>16.7</ele>
        <time>2012-03-25T07:05:28Z</time>
      </trkpt>
      <trkpt lat="47.55942" lon="-0.47786">
        <ele>16.6</ele>
        <time>2012-03-25T07:05:32Z</time>
      </trkpt>
      <trkpt lat="47.55931" lon="-0.4778">
        <ele>16.6</ele>
        <time>2012-03-25T07:05:35Z</time>
      </trkpt>
      <trkpt lat="47.55922" lon="-0.47776">
        <ele>16.6</ele>
        <time>2012-03-25T07:05:37Z</time>
      </trkpt>
      <trkpt lat="47.55909" lon="-0.47772">
        <ele>16.6</ele>
        <time>2012-03-25T07:05:40Z</time>
      </trkpt>
      <trkpt lat="47.55899" lon="-0.47769">
        <ele>16.6</ele>
        <time>2012-03-25T07:05:42Z</time>
      </trkpt>
      <trkpt lat="47.55887" lon="-0.47763">
        <ele>16.6</ele>
        <time>2012-03-25T07:05:45Z</time>
      </trkpt>
      <trkpt lat="47.55876" lon="-0.4776">
        <ele>16.6</ele>
        <time>2012-03-25T07:05:48Z</time>
      </trkpt>
      <trkpt lat="47.55864" lon="-0.47758">
        <ele>16.6</ele>
        <time>2012-03-25T07:05:51Z</time>
      </trkpt>
      <trkpt lat="47.55855" lon="-0.47757">
        <ele>16.7</ele>
        <time>2012-03-25T07:05:53Z</time>
      </trkpt>
      <trkpt lat="47.55845" lon="-0.47754">
        <ele>17</ele>
        <time>2012-03-25T07:05:55Z</time>
      </trkpt>
      <trkpt lat="47.55832" lon="-0.47752">
        <ele>17.3</ele>
        <time>2012-03-25T07:05:58Z</time>
      </trkpt>
      <trkpt lat="47.55821" lon="-0.47747">
        <ele>17.5</ele>
        <time>2012-03-25T07:06:01Z</time>
      </trkpt>
      <trkpt lat="47.5581" lon="-0.47744">
        <ele>17.7</ele>
        <time>2012-03-25T07:06:04Z</time>
      </trkpt>
      <trkpt lat="47.558" lon="-0.47742">
        <ele>17.7</ele>
        <time>2012-03-25T07:06:07Z</time>
      </trkpt>
      <trkpt lat="47.55789" lon="-0.4774">
        <ele>18</ele>
        <time>2012-03-25T07:06:10Z</time>
      </trkpt>
      <trkpt lat="47.55778" lon="-0.47735">
        <ele>18.3</ele>
        <time>2012-03-25T07:06:14Z</time>
      </trkpt>
      <trkpt lat="47.55783" lon="-0.47722">
        <ele>18.5</ele>
        <time>2012-03-25T07:06:22Z</time>
      </trkpt>
      <trkpt lat="47.55791" lon="-0.47712">
        <ele>18.8</ele>
        <time>2012-03-25T07:06:27Z</time>
      </trkpt>
      <trkpt lat="47.55799" lon="-0.47703">
        <ele>19.1</ele>
        <time>2012-03-25T07:06:31Z</time>
      </trkpt>
      <trkpt lat="47.55808" lon="-0.47693">
        <ele>19.4</ele>
        <time>2012-03-25T07:06:35Z</time>
      </trkpt>
      <trkpt lat="47.55816" lon="-0.47684">
        <ele>19.5</ele>
        <time>2012-03-25T07:06:38Z</time>
      </trkpt>
      <trkpt lat="47.55824" lon="-0.47676">
        <ele>19.5</ele>
        <time>2012-03-25T07:06:41Z</time>
      </trkpt>
      <trkpt lat="47.55833" lon="-0.47667">
        <ele>19.6</ele>
        <time>2012-03-25T07:06:44Z</time>
      </trkpt>
      <trkpt lat="47.55841" lon="-0.47659">
        <ele>19.4</ele>
        <time>2012-03-25T07:06:47Z</time>
      </trkpt>
      <trkpt lat="47.5585" lon="-0.47652">
        <ele>19.3</ele>
        <time>2012-03-25T07:06:50Z</time>
      </trkpt>
      <trkpt lat="47.55858" lon="-0.47644">
        <ele>18.9</ele>
        <time>2012-03-25T07:06:53Z</time>
      </trkpt>
      <trkpt lat="47.55867" lon="-0.47635">
        <ele>18.5</ele>
        <time>2012-03-25T07:06:56Z</time>
      </trkpt>
      <trkpt lat="47.55876" lon="-0.47625">
        <ele>18.2</ele>
        <time>2012-03-25T07:06:59Z</time>
      </trkpt>
      <trkpt lat="47.55885" lon="-0.47615">
        <ele>17.8</ele>
        <time>2012-03-25T07:07:02Z</time>
      </trkpt>
      <trkpt lat="47.55893" lon="-0.47605">
        <ele>17.5</ele>
        <time>2012-03-25T07:07:06Z</time>
      </trkpt>
      <trkpt lat="47.55901" lon="-0.47599">
        <ele>17.1</ele>
        <time>2012-03-25T07:07:09Z</time>
      </trkpt>
      <trkpt lat="47.55911" lon="-0.4759">
        <ele>16.7</ele>
        <time>2012-03-25T07:07:12Z</time>
      </trkpt>
      <trkpt lat="47.55921" lon="-0.4758">
        <ele>16.4</ele>
        <time>2012-03-25T07:07:15Z</time>
      </trkpt>
      <trkpt lat="47.5593" lon="-0.4757">
        <ele>16</ele>
        <time>2012-03-25T07:07:18Z</time>
      </trkpt>
      <trkpt lat="47.5594" lon="-0.4756">
        <ele>16.1</ele>
        <time>2012-03-25T07:07:21Z</time>
      </trkpt>
      <trkpt lat="47.55948" lon="-0.47552">
        <ele>16.2</ele>
        <time>2012-03-25T07:07:23Z</time>
      </trkpt>
      <trkpt lat="47.55958" lon="-0.47544">
        <ele>16.3</ele>
        <time>2012-03-25T07:07:26Z</time>
      </trkpt>
      <trkpt lat="47.55969" lon="-0.47539">
        <ele>16.4</ele>
        <time>2012-03-25T07:07:29Z</time>
      </trkpt>
      <trkpt lat="47.55981" lon="-0.47536">
        <ele>16.5</ele>
        <time>2012-03-25T07:07:32Z</time>
      </trkpt>
      <trkpt lat="47.55993" lon="-0.47531">
        <ele>16.6</ele>
        <time>2012-03-25T07:07:35Z</time>
      </trkpt>
      <trkpt lat="47.56004" lon="-0.47528">
        <ele>16.8</ele>
        <time>2012-03-25T07:07:38Z</time>
      </trkpt>
      <trkpt lat="47.56016" lon="-0.47524">
        <ele>17</ele>
        <time>2012-03-25T07:07:41Z</time>
      </trkpt>
      <trkpt lat="47.56026" lon="-0.47517">
        <ele>17.2</ele>
        <time>2012-03-25T07:07:44Z</time>
      </trkpt>
      <trkpt lat="47.56038" lon="-0.47513">
        <ele>17.4</ele>
        <time>2012-03-25T07:07:47Z</time>
      </trkpt>
      <trkpt lat="47.56049" lon="-0.47508">
        <ele>17.5</ele>
        <time>2012-03-25T07:07:51Z</time>
      </trkpt>
      <trkpt lat="47.56059" lon="-0.47504">
        <ele>17.6</ele>
        <time>2012-03-25T07:07:53Z</time>
      </trkpt>
      <trkpt lat="47.5607" lon="-0.47493">
        <ele>17.7</ele>
        <time>2012-03-25T07:07:56Z</time>
      </trkpt>
      <trkpt lat="47.56077" lon="-0.47484">
        <ele>17.8</ele>
        <time>2012-03-25T07:07:58Z</time>
      </trkpt>
      <trkpt lat="47.56085" lon="-0.47474">
        <ele>17.9</ele>
        <time>2012-03-25T07:08:00Z</time>
      </trkpt>
      <trkpt lat="47.56094" lon="-0.47463">
        <ele>17.9</ele>
        <time>2012-03-25T07:08:02Z</time>
      </trkpt>
      <trkpt lat="47.56102" lon="-0.47454">
        <ele>17.8</ele>
        <time>2012-03-25T07:08:04Z</time>
      </trkpt>
      <trkpt lat="47.56109" lon="-0.47445">
        <ele>17.7</ele>
        <time>2012-03-25T07:08:06Z</time>
      </trkpt>
      <trkpt lat="47.56115" lon="-0.47435">
        <ele>17.6</ele>
        <time>2012-03-25T07:08:08Z</time>
      </trkpt>
      <trkpt lat="47.56124" lon="-0.47423">
        <ele>17.5</ele>
        <time>2012-03-25T07:08:10Z</time>
      </trkpt>
      <trkpt lat="47.56131" lon="-0.47411">
        <ele>17.4</ele>
        <time>2012-03-25T07:08:12Z</time>
      </trkpt>
      <trkpt lat="47.56138" lon="-0.47402">
        <ele>17.2</ele>
        <time>2012-03-25T07:08:14Z</time>
      </trkpt>
      <trkpt lat="47.56146" lon="-0.47393">
        <ele>17</ele>
        <time>2012-03-25T07:08:16Z</time>
      </trkpt>
      <trkpt lat="47.56154" lon="-0.47383">
        <ele>16.8</ele>
        <time>2012-03-25T07:08:18Z</time>
      </trkpt>
      <trkpt lat="47.56162" lon="-0.47372">
        <ele>16.6</ele>
        <time>2012-03-25T07:08:20Z</time>
      </trkpt>
      <trkpt lat="47.5617" lon="-0.47361">
        <ele>16.5</ele>
        <time>2012-03-25T07:08:22Z</time>
      </trkpt>
      <trkpt lat="47.56178" lon="-0.47352">
        <ele>16.4</ele>
        <time>2012-03-25T07:08:24Z</time>
      </trkpt>
      <trkpt lat="47.56186" lon="-0.47342">
        <ele>16.3</ele>
        <time>2012-03-25T07:08:26Z</time>
      </trkpt>
      <trkpt lat="47.56194" lon="-0.47331">
        <ele>16.3</ele>
        <time>2012-03-25T07:08:28Z</time>
      </trkpt>
      <trkpt lat="47.56202" lon="-0.47321">
        <ele>16.3</ele>
        <time>2012-03-25T07:08:30Z</time>
      </trkpt>
      <trkpt lat="47.5621" lon="-0.47311">
        <ele>16.3</ele>
        <time>2012-03-25T07:08:32Z</time>
      </trkpt>
      <trkpt lat="47.56218" lon="-0.47301">
        <ele>16.4</ele>
        <time>2012-03-25T07:08:34Z</time>
      </trkpt>
      <trkpt lat="47.56225" lon="-0.4729">
        <ele>16.5</ele>
        <time>2012-03-25T07:08:36Z</time>
      </trkpt>
      <trkpt lat="47.56233" lon="-0.47276">
        <ele>16.5</ele>
        <time>2012-03-25T07:08:39Z</time>
      </trkpt>
      <trkpt lat="47.56239" lon="-0.47265">
        <ele>16.5</ele>
        <time>2012-03-25T07:08:41Z</time>
      </trkpt>
      <trkpt lat="47.56247" lon="-0.4725">
        <ele>16.5</ele>
        <time>2012-03-25T07:08:44Z</time>
      </trkpt>
      <trkpt lat="47.56253" lon="-0.47239">
        <ele>16.5</ele>
        <time>2012-03-25T07:08:46Z</time>
      </trkpt>
      <trkpt lat="47.56259" lon="-0.47227">
        <ele>16.5</ele>
        <time>2012-03-25T07:08:48Z</time>
      </trkpt>
      <trkpt lat="47.56265" lon="-0.47215">
        <ele>16.5</ele>
        <time>2012-03-25T07:08:50Z</time>
      </trkpt>
      <trkpt lat="47.56271" lon="-0.47202">
        <ele>16.5</ele>
        <time>2012-03-25T07:08:52Z</time>
      </trkpt>
      <trkpt lat="47.56276" lon="-0.4719">
        <ele>16.5</ele>
        <time>2012-03-25T07:08:54Z</time>
      </trkpt>
      <trkpt lat="47.56281" lon="-0.47178">
        <ele>16.6</ele>
        <time>2012-03-25T07:08:56Z</time>
      </trkpt>
      <trkpt lat="47.56287" lon="-0.47165">
        <ele>16.7</ele>
        <time>2012-03-25T07:08:58Z</time>
      </trkpt>
      <trkpt lat="47.56293" lon="-0.47153">
        <ele>16.8</ele>
        <time>2012-03-25T07:09:00Z</time>
      </trkpt>
      <trkpt lat="47.56299" lon="-0.47138">
        <ele>16.9</ele>
        <time>2012-03-25T07:09:02Z</time>
      </trkpt>
      <trkpt lat="47.56304" lon="-0.47127">
        <ele>17.1</ele>
        <time>2012-03-25T07:09:04Z</time>
      </trkpt>
      <trkpt lat="47.5631" lon="-0.47117">
        <ele>17.3</ele>
        <time>2012-03-25T07:09:06Z</time>
      </trkpt>
      <trkpt lat="47.56317" lon="-0.47102">
        <ele>17.4</ele>
        <time>2012-03-25T07:09:09Z</time>
      </trkpt>
      <trkpt lat="47.56321" lon="-0.4709">
        <ele>17.5</ele>
        <time>2012-03-25T07:09:11Z</time>
      </trkpt>
      <trkpt lat="47.56326" lon="-0.47076">
        <ele>17.5</ele>
        <time>2012-03-25T07:09:13Z</time>
      </trkpt>
      <trkpt lat="47.56329" lon="-0.47062">
        <ele>17.5</ele>
        <time>2012-03-25T07:09:15Z</time>
      </trkpt>
      <trkpt lat="47.56331" lon="-0.47048">
        <ele>17.5</ele>
        <time>2012-03-25T07:09:17Z</time>
      </trkpt>
      <trkpt lat="47.56334" lon="-0.47033">
        <ele>17.4</ele>
        <time>2012-03-25T07:09:19Z</time>
      </trkpt>
      <trkpt lat="47.56336" lon="-0.47017">
        <ele>17.2</ele>
        <time>2012-03-25T07:09:21Z</time>
      </trkpt>
      <trkpt lat="47.56339" lon="-0.47003">
        <ele>17</ele>
        <time>2012-03-25T07:09:23Z</time>
      </trkpt>
      <trkpt lat="47.56342" lon="-0.46988">
        <ele>16.8</ele>
        <time>2012-03-25T07:09:25Z</time>
      </trkpt>
      <trkpt lat="47.56345" lon="-0.46972">
        <ele>16.6</ele>
        <time>2012-03-25T07:09:27Z</time>
      </trkpt>
      <trkpt lat="47.56347" lon="-0.46957">
        <ele>16.5</ele>
        <time>2012-03-25T07:09:29Z</time>
      </trkpt>
      <trkpt lat="47.5635" lon="-0.46943">
        <ele>16.4</ele>
        <time>2012-03-25T07:09:31Z</time>
      </trkpt>
      <trkpt lat="47.56352" lon="-0.46926">
        <ele>16.3</ele>
        <time>2012-03-25T07:09:33Z</time>
      </trkpt>
      <trkpt lat="47.56355" lon="-0.46909">
        <ele>16.2</ele>
        <time>2012-03-25T07:09:35Z</time>
      </trkpt>
      <trkpt lat="47.56358" lon="-0.46892">
        <ele>16.1</ele>
        <time>2012-03-25T07:09:37Z</time>
      </trkpt>
      <trkpt lat="47.56361" lon="-0.46875">
        <ele>16</ele>
        <time>2012-03-25T07:09:39Z</time>
      </trkpt>
      <trkpt lat="47.56362" lon="-0.46859">
        <ele>15.9</ele>
        <time>2012-03-25T07:09:41Z</time>
      </trkpt>
      <trkpt lat="47.56364" lon="-0.46843">
        <ele>15.8</ele>
        <time>2012-03-25T07:09:43Z</time>
      </trkpt>
      <trkpt lat="47.56367" lon="-0.46827">
        <ele>15.7</ele>
        <time>2012-03-25T07:09:45Z</time>
      </trkpt>
      <trkpt lat="47.5637" lon="-0.46812">
        <ele>15.6</ele>
        <time>2012-03-25T07:09:47Z</time>
      </trkpt>
      <trkpt lat="47.56375" lon="-0.46798">
        <ele>15.5</ele>
        <time>2012-03-25T07:09:49Z</time>
      </trkpt>
      <trkpt lat="47.56387" lon="-0.46795">
        <ele>15.4</ele>
        <time>2012-03-25T07:09:52Z</time>
      </trkpt>
      <trkpt lat="47.564" lon="-0.46798">
        <ele>15.2</ele>
        <time>2012-03-25T07:09:55Z</time>
      </trkpt>
      <trkpt lat="47.56411" lon="-0.468">
        <ele>15</ele>
        <time>2012-03-25T07:09:57Z</time>
      </trkpt>
      <trkpt lat="47.56422" lon="-0.46801">
        <ele>14.8</ele>
        <time>2012-03-25T07:09:59Z</time>
      </trkpt>
      <trkpt lat="47.56431" lon="-0.46795">
        <ele>14.6</ele>
        <time>2012-03-25T07:10:01Z</time>
      </trkpt>
      <trkpt lat="47.56433" lon="-0.46775">
        <ele>14.5</ele>
        <time>2012-03-25T07:10:04Z</time>
      </trkpt>
      <trkpt lat="47.5643" lon="-0.4676">
        <ele>14.4</ele>
        <time>2012-03-25T07:10:06Z</time>
      </trkpt>
      <trkpt lat="47.56427" lon="-0.46743">
        <ele>14.3</ele>
        <time>2012-03-25T07:10:08Z</time>
      </trkpt>
      <trkpt lat="47.56425" lon="-0.46726">
        <ele>14.2</ele>
        <time>2012-03-25T07:10:10Z</time>
      </trkpt>
      <trkpt lat="47.56422" lon="-0.46709">
        <ele>14.1</ele>
        <time>2012-03-25T07:10:12Z</time>
      </trkpt>
      <trkpt lat="47.56419" lon="-0.46693">
        <ele>14.1</ele>
        <time>2012-03-25T07:10:14Z</time>
      </trkpt>
      <trkpt lat="47.56417" lon="-0.46678">
        <ele>14.2</ele>
        <time>2012-03-25T07:10:16Z</time>
      </trkpt>
      <trkpt lat="47.56415" lon="-0.46662">
        <ele>14.3</ele>
        <time>2012-03-25T07:10:18Z</time>
      </trkpt>
      <trkpt lat="47.56414" lon="-0.46645">
        <ele>14.4</ele>
        <time>2012-03-25T07:10:20Z</time>
      </trkpt>
      <trkpt lat="47.56412" lon="-0.46629">
        <ele>14.5</ele>
        <time>2012-03-25T07:10:22Z</time>
      </trkpt>
      <trkpt lat="47.56411" lon="-0.46613">
        <ele>14.5</ele>
        <time>2012-03-25T07:10:24Z</time>
      </trkpt>
      <trkpt lat="47.56409" lon="-0.46597">
        <ele>14.5</ele>
        <time>2012-03-25T07:10:26Z</time>
      </trkpt>
      <trkpt lat="47.56407" lon="-0.46582">
        <ele>14.5</ele>
        <time>2012-03-25T07:10:28Z</time>
      </trkpt>
      <trkpt lat="47.56404" lon="-0.46566">
        <ele>14.5</ele>
        <time>2012-03-25T07:10:30Z</time>
      </trkpt>
      <trkpt lat="47.56402" lon="-0.4655">
        <ele>14.5</ele>
        <time>2012-03-25T07:10:32Z</time>
      </trkpt>
      <trkpt lat="47.564" lon="-0.46535">
        <ele>14.5</ele>
        <time>2012-03-25T07:10:34Z</time>
      </trkpt>
      <trkpt lat="47.56398" lon="-0.46519">
        <ele>14.5</ele>
        <time>2012-03-25T07:10:36Z</time>
      </trkpt>
      <trkpt lat="47.56397" lon="-0.46504">
        <ele>14.5</ele>
        <time>2012-03-25T07:10:38Z</time>
      </trkpt>
      <trkpt lat="47.56395" lon="-0.46489">
        <ele>14.5</ele>
        <time>2012-03-25T07:10:40Z</time>
      </trkpt>
      <trkpt lat="47.56393" lon="-0.46474">
        <ele>14.5</ele>
        <time>2012-03-25T07:10:42Z</time>
      </trkpt>
      <trkpt lat="47.56391" lon="-0.4646">
        <ele>14.5</ele>
        <time>2012-03-25T07:10:44Z</time>
      </trkpt>
      <trkpt lat="47.5639" lon="-0.46445">
        <ele>14.5</ele>
        <time>2012-03-25T07:10:46Z</time>
      </trkpt>
      <trkpt lat="47.56388" lon="-0.46429">
        <ele>14.8</ele>
        <time>2012-03-25T07:10:48Z</time>
      </trkpt>
      <trkpt lat="47.56386" lon="-0.46414">
        <ele>15.1</ele>
        <time>2012-03-25T07:10:50Z</time>
      </trkpt>
      <trkpt lat="47.56384" lon="-0.46399">
        <ele>15.5</ele>
        <time>2012-03-25T07:10:52Z</time>
      </trkpt>
      <trkpt lat="47.56382" lon="-0.46384">
        <ele>15.8</ele>
        <time>2012-03-25T07:10:54Z</time>
      </trkpt>
      <trkpt lat="47.5638" lon="-0.46369">
        <ele>16.2</ele>
        <time>2012-03-25T07:10:56Z</time>
      </trkpt>
      <trkpt lat="47.56379" lon="-0.46354">
        <ele>16.4</ele>
        <time>2012-03-25T07:10:58Z</time>
      </trkpt>
      <trkpt lat="47.56377" lon="-0.46339">
        <ele>16.5</ele>
        <time>2012-03-25T07:11:00Z</time>
      </trkpt>
      <trkpt lat="47.56374" lon="-0.46324">
        <ele>16.7</ele>
        <time>2012-03-25T07:11:02Z</time>
      </trkpt>
      <trkpt lat="47.56372" lon="-0.4631">
        <ele>16.9</ele>
        <time>2012-03-25T07:11:04Z</time>
      </trkpt>
      <trkpt lat="47.5637" lon="-0.46294">
        <ele>17.1</ele>
        <time>2012-03-25T07:11:06Z</time>
      </trkpt>
      <trkpt lat="47.56368" lon="-0.46278">
        <ele>17.2</ele>
        <time>2012-03-25T07:11:08Z</time>
      </trkpt>
      <trkpt lat="47.56366" lon="-0.46262">
        <ele>17.1</ele>
        <time>2012-03-25T07:11:10Z</time>
      </trkpt>
      <trkpt lat="47.56364" lon="-0.46245">
        <ele>17</ele>
        <time>2012-03-25T07:11:12Z</time>
      </trkpt>
      <trkpt lat="47.56362" lon="-0.4623">
        <ele>16.8</ele>
        <time>2012-03-25T07:11:14Z</time>
      </trkpt>
      <trkpt lat="47.5636" lon="-0.46214">
        <ele>16.6</ele>
        <time>2012-03-25T07:11:16Z</time>
      </trkpt>
      <trkpt lat="47.56358" lon="-0.46198">
        <ele>16.5</ele>
        <time>2012-03-25T07:11:18Z</time>
      </trkpt>
      <trkpt lat="47.56355" lon="-0.46181">
        <ele>16.4</ele>
        <time>2012-03-25T07:11:20Z</time>
      </trkpt>
      <trkpt lat="47.56353" lon="-0.46166">
        <ele>16.3</ele>
        <time>2012-03-25T07:11:22Z</time>
      </trkpt>
      <trkpt lat="47.56351" lon="-0.46151">
        <ele>16.2</ele>
        <time>2012-03-25T07:11:24Z</time>
      </trkpt>
      <trkpt lat="47.56348" lon="-0.46135">
        <ele>16.1</ele>
        <time>2012-03-25T07:11:26Z</time>
      </trkpt>
      <trkpt lat="47.56345" lon="-0.4612">
        <ele>16</ele>
        <time>2012-03-25T07:11:28Z</time>
      </trkpt>
      <trkpt lat="47.56343" lon="-0.46104">
        <ele>15.9</ele>
        <time>2012-03-25T07:11:30Z</time>
      </trkpt>
      <trkpt lat="47.56341" lon="-0.46089">
        <ele>15.8</ele>
        <time>2012-03-25T07:11:32Z</time>
      </trkpt>
      <trkpt lat="47.56339" lon="-0.46074">
        <ele>15.7</ele>
        <time>2012-03-25T07:11:34Z</time>
      </trkpt>
      <trkpt lat="47.56337" lon="-0.46059">
        <ele>15.6</ele>
        <time>2012-03-25T07:11:36Z</time>
      </trkpt>
      <trkpt lat="47.56334" lon="-0.46043">
        <ele>15.5</ele>
        <time>2012-03-25T07:11:38Z</time>
      </trkpt>
      <trkpt lat="47.56332" lon="-0.46027">
        <ele>15.5</ele>
        <time>2012-03-25T07:11:40Z</time>
      </trkpt>
      <trkpt lat="47.56329" lon="-0.46011">
        <ele>15.5</ele>
        <time>2012-03-25T07:11:42Z</time>
      </trkpt>
      <trkpt lat="47.56327" lon="-0.45996">
        <ele>15.5</ele>
        <time>2012-03-25T07:11:44Z</time>
      </trkpt>
      <trkpt lat="47.56325" lon="-0.4598">
        <ele>15.5</ele>
        <time>2012-03-25T07:11:46Z</time>
      </trkpt>
      <trkpt lat="47.56324" lon="-0.45965">
        <ele>15.5</ele>
        <time>2012-03-25T07:11:48Z</time>
      </trkpt>
      <trkpt lat="47.56321" lon="-0.45949">
        <ele>15.5</ele>
        <time>2012-03-25T07:11:50Z</time>
      </trkpt>
      <trkpt lat="47.56319" lon="-0.45933">
        <ele>15.7</ele>
        <time>2012-03-25T07:11:52Z</time>
      </trkpt>
      <trkpt lat="47.56316" lon="-0.45917">
        <ele>15.9</ele>
        <time>2012-03-25T07:11:54Z</time>
      </trkpt>
      <trkpt lat="47.56314" lon="-0.45903">
        <ele>16.1</ele>
        <time>2012-03-25T07:11:56Z</time>
      </trkpt>
      <trkpt lat="47.56311" lon="-0.45887">
        <ele>16.3</ele>
        <time>2012-03-25T07:11:58Z</time>
      </trkpt>
      <trkpt lat="47.5631" lon="-0.45873">
        <ele>16.5</ele>
        <time>2012-03-25T07:12:00Z</time>
      </trkpt>
      <trkpt lat="47.56308" lon="-0.45856">
        <ele>16.5</ele>
        <time>2012-03-25T07:12:02Z</time>
      </trkpt>
      <trkpt lat="47.56306" lon="-0.4584">
        <ele>16.7</ele>
        <time>2012-03-25T07:12:04Z</time>
      </trkpt>
      <trkpt lat="47.56304" lon="-0.45825">
        <ele>16.6</ele>
        <time>2012-03-25T07:12:06Z</time>
      </trkpt>
      <trkpt lat="47.56302" lon="-0.45809">
        <ele>16.5</ele>
        <time>2012-03-25T07:12:08Z</time>
      </trkpt>
      <trkpt lat="47.56299" lon="-0.45795">
        <ele>16.5</ele>
        <time>2012-03-25T07:12:10Z</time>
      </trkpt>
      <trkpt lat="47.56297" lon="-0.45782">
        <ele>16.4</ele>
        <time>2012-03-25T07:12:12Z</time>
      </trkpt>
      <trkpt lat="47.56295" lon="-0.45768">
        <ele>16.3</ele>
        <time>2012-03-25T07:12:14Z</time>
      </trkpt>
      <trkpt lat="47.56293" lon="-0.45754">
        <ele>16.2</ele>
        <time>2012-03-25T07:12:16Z</time>
      </trkpt>
      <trkpt lat="47.5629" lon="-0.45739">
        <ele>16.1</ele>
        <time>2012-03-25T07:12:18Z</time>
      </trkpt>
      <trkpt lat="47.56288" lon="-0.45722">
        <ele>16</ele>
        <time>2012-03-25T07:12:20Z</time>
      </trkpt>
      <trkpt lat="47.56287" lon="-0.45706">
        <ele>15.9</ele>
        <time>2012-03-25T07:12:22Z</time>
      </trkpt>
      <trkpt lat="47.56285" lon="-0.4569">
        <ele>15.8</ele>
        <time>2012-03-25T07:12:24Z</time>
      </trkpt>
      <trkpt lat="47.56283" lon="-0.45674">
        <ele>15.6</ele>
        <time>2012-03-25T07:12:26Z</time>
      </trkpt>
      <trkpt lat="47.5628" lon="-0.4566">
        <ele>15.7</ele>
        <time>2012-03-25T07:12:28Z</time>
      </trkpt>
      <trkpt lat="47.56277" lon="-0.45645">
        <ele>15.8</ele>
        <time>2012-03-25T07:12:30Z</time>
      </trkpt>
      <trkpt lat="47.56275" lon="-0.45631">
        <ele>15.9</ele>
        <time>2012-03-25T07:12:32Z</time>
      </trkpt>
      <trkpt lat="47.5627" lon="-0.45611">
        <ele>16</ele>
        <time>2012-03-25T07:12:35Z</time>
      </trkpt>
      <trkpt lat="47.56268" lon="-0.45596">
        <ele>15.9</ele>
        <time>2012-03-25T07:12:37Z</time>
      </trkpt>
      <trkpt lat="47.56264" lon="-0.45582">
        <ele>15.8</ele>
        <time>2012-03-25T07:12:39Z</time>
      </trkpt>
      <trkpt lat="47.56261" lon="-0.45568">
        <ele>15.7</ele>
        <time>2012-03-25T07:12:41Z</time>
      </trkpt>
      <trkpt lat="47.56259" lon="-0.45554">
        <ele>15.6</ele>
        <time>2012-03-25T07:12:43Z</time>
      </trkpt>
      <trkpt lat="47.56256" lon="-0.45539">
        <ele>15.5</ele>
        <time>2012-03-25T07:12:45Z</time>
      </trkpt>
      <trkpt lat="47.56254" lon="-0.45524">
        <ele>15.5</ele>
        <time>2012-03-25T07:12:47Z</time>
      </trkpt>
      <trkpt lat="47.56252" lon="-0.45509">
        <ele>15.4</ele>
        <time>2012-03-25T07:12:49Z</time>
      </trkpt>
      <trkpt lat="47.5625" lon="-0.45493">
        <ele>15.3</ele>
        <time>2012-03-25T07:12:51Z</time>
      </trkpt>
      <trkpt lat="47.56247" lon="-0.45478">
        <ele>15.2</ele>
        <time>2012-03-25T07:12:53Z</time>
      </trkpt>
      <trkpt lat="47.56245" lon="-0.45461">
        <ele>15.1</ele>
        <time>2012-03-25T07:12:55Z</time>
      </trkpt>
      <trkpt lat="47.56243" lon="-0.45444">
        <ele>14.8</ele>
        <time>2012-03-25T07:12:57Z</time>
      </trkpt>
      <trkpt lat="47.56241" lon="-0.45427">
        <ele>14.6</ele>
        <time>2012-03-25T07:12:59Z</time>
      </trkpt>
      <trkpt lat="47.5624" lon="-0.4541">
        <ele>14.5</ele>
        <time>2012-03-25T07:13:01Z</time>
      </trkpt>
      <trkpt lat="47.56238" lon="-0.45397">
        <ele>14.3</ele>
        <time>2012-03-25T07:13:03Z</time>
      </trkpt>
      <trkpt lat="47.56237" lon="-0.45378">
        <ele>14.1</ele>
        <time>2012-03-25T07:13:06Z</time>
      </trkpt>
      <trkpt lat="47.56235" lon="-0.45364">
        <ele>13.9</ele>
        <time>2012-03-25T07:13:08Z</time>
      </trkpt>
      <trkpt lat="47.56232" lon="-0.45349">
        <ele>13.9</ele>
        <time>2012-03-25T07:13:11Z</time>
      </trkpt>
      <trkpt lat="47.56229" lon="-0.4533">
        <ele>13.9</ele>
        <time>2012-03-25T07:13:14Z</time>
      </trkpt>
      <trkpt lat="47.56226" lon="-0.45316">
        <ele>13.9</ele>
        <time>2012-03-25T07:13:16Z</time>
      </trkpt>
      <trkpt lat="47.56225" lon="-0.45301">
        <ele>14</ele>
        <time>2012-03-25T07:13:18Z</time>
      </trkpt>
      <trkpt lat="47.56222" lon="-0.45288">
        <ele>14.1</ele>
        <time>2012-03-25T07:13:20Z</time>
      </trkpt>
      <trkpt lat="47.5622" lon="-0.45274">
        <ele>14.4</ele>
        <time>2012-03-25T07:13:22Z</time>
      </trkpt>
      <trkpt lat="47.56217" lon="-0.4526">
        <ele>14.6</ele>
        <time>2012-03-25T07:13:24Z</time>
      </trkpt>
      <trkpt lat="47.56215" lon="-0.45247">
        <ele>14.9</ele>
        <time>2012-03-25T07:13:26Z</time>
      </trkpt>
      <trkpt lat="47.56211" lon="-0.45228">
        <ele>15.2</ele>
        <time>2012-03-25T07:13:29Z</time>
      </trkpt>
      <trkpt lat="47.56209" lon="-0.45212">
        <ele>15.5</ele>
        <time>2012-03-25T07:13:31Z</time>
      </trkpt>
      <trkpt lat="47.56206" lon="-0.45195">
        <ele>15.9</ele>
        <time>2012-03-25T07:13:33Z</time>
      </trkpt>
      <trkpt lat="47.56205" lon="-0.45179">
        <ele>16.2</ele>
        <time>2012-03-25T07:13:35Z</time>
      </trkpt>
      <trkpt lat="47.56204" lon="-0.45164">
        <ele>16.5</ele>
        <time>2012-03-25T07:13:37Z</time>
      </trkpt>
      <trkpt lat="47.56205" lon="-0.45145">
        <ele>16.7</ele>
        <time>2012-03-25T07:13:40Z</time>
      </trkpt>
      <trkpt lat="47.56211" lon="-0.45134">
        <ele>16.9</ele>
        <time>2012-03-25T07:13:44Z</time>
      </trkpt>
      <trkpt lat="47.5622" lon="-0.45138">
        <ele>17.1</ele>
        <time>2012-03-25T07:13:49Z</time>
      </trkpt>
      <trkpt lat="47.56231" lon="-0.45142">
        <ele>17.3</ele>
        <time>2012-03-25T07:13:53Z</time>
      </trkpt>
      <trkpt lat="47.56242" lon="-0.45148">
        <ele>17.3</ele>
        <time>2012-03-25T07:13:56Z</time>
      </trkpt>
      <trkpt lat="47.56252" lon="-0.45154">
        <ele>17.3</ele>
        <time>2012-03-25T07:13:59Z</time>
      </trkpt>
      <trkpt lat="47.56262" lon="-0.45159">
        <ele>17.3</ele>
        <time>2012-03-25T07:14:01Z</time>
      </trkpt>
      <trkpt lat="47.56271" lon="-0.45164">
        <ele>17.3</ele>
        <time>2012-03-25T07:14:03Z</time>
      </trkpt>
      <trkpt lat="47.56284" lon="-0.45171">
        <ele>17.1</ele>
        <time>2012-03-25T07:14:06Z</time>
      </trkpt>
      <trkpt lat="47.56296" lon="-0.45178">
        <ele>16.9</ele>
        <time>2012-03-25T07:14:08Z</time>
      </trkpt>
      <trkpt lat="47.56307" lon="-0.45183">
        <ele>16.6</ele>
        <time>2012-03-25T07:14:10Z</time>
      </trkpt>
      <trkpt lat="47.56318" lon="-0.45188">
        <ele>16.4</ele>
        <time>2012-03-25T07:14:12Z</time>
      </trkpt>
      <trkpt lat="47.56328" lon="-0.45193">
        <ele>16.2</ele>
        <time>2012-03-25T07:14:14Z</time>
      </trkpt>
      <trkpt lat="47.56338" lon="-0.45198">
        <ele>16</ele>
        <time>2012-03-25T07:14:16Z</time>
      </trkpt>
      <trkpt lat="47.56347" lon="-0.45204">
        <ele>15.8</ele>
        <time>2012-03-25T07:14:18Z</time>
      </trkpt>
      <trkpt lat="47.56358" lon="-0.4521">
        <ele>15.8</ele>
        <time>2012-03-25T07:14:20Z</time>
      </trkpt>
      <trkpt lat="47.56367" lon="-0.45215">
        <ele>15.8</ele>
        <time>2012-03-25T07:14:23Z</time>
      </trkpt>
      <trkpt lat="47.56377" lon="-0.45221">
        <ele>15.8</ele>
        <time>2012-03-25T07:14:24Z</time>
      </trkpt>
      <trkpt lat="47.56387" lon="-0.45226">
        <ele>15.8</ele>
        <time>2012-03-25T07:14:26Z</time>
      </trkpt>
      <trkpt lat="47.56397" lon="-0.45231">
        <ele>15.8</ele>
        <time>2012-03-25T07:14:28Z</time>
      </trkpt>
      <trkpt lat="47.56407" lon="-0.45238">
        <ele>15.8</ele>
        <time>2012-03-25T07:14:30Z</time>
      </trkpt>
      <trkpt lat="47.56418" lon="-0.45244">
        <ele>15.9</ele>
        <time>2012-03-25T07:14:32Z</time>
      </trkpt>
      <trkpt lat="47.56428" lon="-0.45248">
        <ele>16</ele>
        <time>2012-03-25T07:14:34Z</time>
      </trkpt>
      <trkpt lat="47.56438" lon="-0.45253">
        <ele>16</ele>
        <time>2012-03-25T07:14:36Z</time>
      </trkpt>
      <trkpt lat="47.56449" lon="-0.45258">
        <ele>16</ele>
        <time>2012-03-25T07:14:38Z</time>
      </trkpt>
      <trkpt lat="47.56459" lon="-0.45264">
        <ele>16</ele>
        <time>2012-03-25T07:14:40Z</time>
      </trkpt>
      <trkpt lat="47.56469" lon="-0.4527">
        <ele>16</ele>
        <time>2012-03-25T07:14:42Z</time>
      </trkpt>
      <trkpt lat="47.56479" lon="-0.45276">
        <ele>16</ele>
        <time>2012-03-25T07:14:44Z</time>
      </trkpt>
      <trkpt lat="47.56488" lon="-0.45281">
        <ele>16</ele>
        <time>2012-03-25T07:14:46Z</time>
      </trkpt>
      <trkpt lat="47.56497" lon="-0.45286">
        <ele>16</ele>
        <time>2012-03-25T07:14:48Z</time>
      </trkpt>
      <trkpt lat="47.56506" lon="-0.4529">
        <ele>16.1</ele>
        <time>2012-03-25T07:14:50Z</time>
      </trkpt>
      <trkpt lat="47.56516" lon="-0.45295">
        <ele>16.2</ele>
        <time>2012-03-25T07:14:52Z</time>
      </trkpt>
      <trkpt lat="47.56525" lon="-0.453">
        <ele>16.3</ele>
        <time>2012-03-25T07:14:54Z</time>
      </trkpt>
      <trkpt lat="47.56535" lon="-0.45306">
        <ele>16.4</ele>
        <time>2012-03-25T07:14:56Z</time>
      </trkpt>
      <trkpt lat="47.56546" lon="-0.45312">
        <ele>16.5</ele>
        <time>2012-03-25T07:14:58Z</time>
      </trkpt>
      <trkpt lat="47.56555" lon="-0.45317">
        <ele>16.5</ele>
        <time>2012-03-25T07:15:00Z</time>
      </trkpt>
      <trkpt lat="47.56565" lon="-0.45323">
        <ele>16.6</ele>
        <time>2012-03-25T07:15:02Z</time>
      </trkpt>
      <trkpt lat="47.56575" lon="-0.45328">
        <ele>16.7</ele>
        <time>2012-03-25T07:15:04Z</time>
      </trkpt>
      <trkpt lat="47.5659" lon="-0.45334">
        <ele>16.8</ele>
        <time>2012-03-25T07:15:07Z</time>
      </trkpt>
      <trkpt lat="47.56601" lon="-0.45342">
        <ele>16.8</ele>
        <time>2012-03-25T07:15:09Z</time>
      </trkpt>
      <trkpt lat="47.5661" lon="-0.45348">
        <ele>16.8</ele>
        <time>2012-03-25T07:15:11Z</time>
      </trkpt>
      <trkpt lat="47.5662" lon="-0.45353">
        <ele>16.7</ele>
        <time>2012-03-25T07:15:13Z</time>
      </trkpt>
      <trkpt lat="47.56632" lon="-0.45358">
        <ele>16.6</ele>
        <time>2012-03-25T07:15:15Z</time>
      </trkpt>
      <trkpt lat="47.56643" lon="-0.45364">
        <ele>16.5</ele>
        <time>2012-03-25T07:15:17Z</time>
      </trkpt>
      <trkpt lat="47.56653" lon="-0.4537">
        <ele>16.5</ele>
        <time>2012-03-25T07:15:19Z</time>
      </trkpt>
      <trkpt lat="47.56664" lon="-0.45375">
        <ele>16.4</ele>
        <time>2012-03-25T07:15:21Z</time>
      </trkpt>
      <trkpt lat="47.56674" lon="-0.4538">
        <ele>16.4</ele>
        <time>2012-03-25T07:15:23Z</time>
      </trkpt>
      <trkpt lat="47.56683" lon="-0.45385">
        <ele>16.4</ele>
        <time>2012-03-25T07:15:25Z</time>
      </trkpt>
      <trkpt lat="47.56693" lon="-0.45391">
        <ele>16.4</ele>
        <time>2012-03-25T07:15:27Z</time>
      </trkpt>
      <trkpt lat="47.56701" lon="-0.45396">
        <ele>16.4</ele>
        <time>2012-03-25T07:15:29Z</time>
      </trkpt>
      <trkpt lat="47.5671" lon="-0.454">
        <ele>16.5</ele>
        <time>2012-03-25T07:15:31Z</time>
      </trkpt>
      <trkpt lat="47.56719" lon="-0.45404">
        <ele>16.5</ele>
        <time>2012-03-25T07:15:33Z</time>
      </trkpt>
      <trkpt lat="47.56728" lon="-0.454">
        <ele>16.6</ele>
        <time>2012-03-25T07:15:36Z</time>
      </trkpt>
      <trkpt lat="47.56727" lon="-0.45385">
        <ele>16.7</ele>
        <time>2012-03-25T07:15:39Z</time>
      </trkpt>
      <trkpt lat="47.56726" lon="-0.45369">
        <ele>16.8</ele>
        <time>2012-03-25T07:15:41Z</time>
      </trkpt>
      <trkpt lat="47.56725" lon="-0.45354">
        <ele>16.9</ele>
        <time>2012-03-25T07:15:43Z</time>
      </trkpt>
      <trkpt lat="47.56723" lon="-0.45339">
        <ele>17</ele>
        <time>2012-03-25T07:15:45Z</time>
      </trkpt>
      <trkpt lat="47.5672" lon="-0.45321">
        <ele>17</ele>
        <time>2012-03-25T07:15:47Z</time>
      </trkpt>
      <trkpt lat="47.56717" lon="-0.45304">
        <ele>17</ele>
        <time>2012-03-25T07:15:49Z</time>
      </trkpt>
      <trkpt lat="47.56714" lon="-0.45288">
        <ele>17</ele>
        <time>2012-03-25T07:15:51Z</time>
      </trkpt>
      <trkpt lat="47.5671" lon="-0.45273">
        <ele>16.7</ele>
        <time>2012-03-25T07:15:53Z</time>
      </trkpt>
      <trkpt lat="47.56708" lon="-0.45257">
        <ele>16.5</ele>
        <time>2012-03-25T07:15:55Z</time>
      </trkpt>
      <trkpt lat="47.56705" lon="-0.45243">
        <ele>16.2</ele>
        <time>2012-03-25T07:15:57Z</time>
      </trkpt>
      <trkpt lat="47.56701" lon="-0.4523">
        <ele>15.9</ele>
        <time>2012-03-25T07:15:59Z</time>
      </trkpt>
      <trkpt lat="47.56696" lon="-0.45211">
        <ele>15.6</ele>
        <time>2012-03-25T07:16:02Z</time>
      </trkpt>
      <trkpt lat="47.56692" lon="-0.45195">
        <ele>15.4</ele>
        <time>2012-03-25T07:16:04Z</time>
      </trkpt>
      <trkpt lat="47.56689" lon="-0.4518">
        <ele>15.1</ele>
        <time>2012-03-25T07:16:06Z</time>
      </trkpt>
      <trkpt lat="47.56686" lon="-0.45164">
        <ele>14.8</ele>
        <time>2012-03-25T07:16:08Z</time>
      </trkpt>
      <trkpt lat="47.56683" lon="-0.45149">
        <ele>14.5</ele>
        <time>2012-03-25T07:16:10Z</time>
      </trkpt>
      <trkpt lat="47.5668" lon="-0.45134">
        <ele>14.3</ele>
        <time>2012-03-25T07:16:12Z</time>
      </trkpt>
      <trkpt lat="47.56677" lon="-0.45119">
        <ele>14</ele>
        <time>2012-03-25T07:16:14Z</time>
      </trkpt>
      <trkpt lat="47.56674" lon="-0.45103">
        <ele>14.2</ele>
        <time>2012-03-25T07:16:16Z</time>
      </trkpt>
      <trkpt lat="47.56671" lon="-0.45086">
        <ele>14.4</ele>
        <time>2012-03-25T07:16:18Z</time>
      </trkpt>
      <trkpt lat="47.56668" lon="-0.4507">
        <ele>14.5</ele>
        <time>2012-03-25T07:16:20Z</time>
      </trkpt>
      <trkpt lat="47.56664" lon="-0.45055">
        <ele>14.7</ele>
        <time>2012-03-25T07:16:22Z</time>
      </trkpt>
      <trkpt lat="47.56661" lon="-0.45042">
        <ele>14.9</ele>
        <time>2012-03-25T07:16:24Z</time>
      </trkpt>
      <trkpt lat="47.56658" lon="-0.45028">
        <ele>15.2</ele>
        <time>2012-03-25T07:16:26Z</time>
      </trkpt>
      <trkpt lat="47.56656" lon="-0.4501">
        <ele>15.5</ele>
        <time>2012-03-25T07:16:29Z</time>
      </trkpt>
      <trkpt lat="47.56652" lon="-0.44989">
        <ele>15.7</ele>
        <time>2012-03-25T07:16:32Z</time>
      </trkpt>
      <trkpt lat="47.5665" lon="-0.44973">
        <ele>16</ele>
        <time>2012-03-25T07:16:34Z</time>
      </trkpt>
      <trkpt lat="47.56647" lon="-0.44959">
        <ele>16.3</ele>
        <time>2012-03-25T07:16:36Z</time>
      </trkpt>
      <trkpt lat="47.56643" lon="-0.44943">
        <ele>16.5</ele>
        <time>2012-03-25T07:16:38Z</time>
      </trkpt>
      <trkpt lat="47.5664" lon="-0.44928">
        <ele>16.5</ele>
        <time>2012-03-25T07:16:40Z</time>
      </trkpt>
      <trkpt lat="47.56638" lon="-0.44912">
        <ele>16.6</ele>
        <time>2012-03-25T07:16:42Z</time>
      </trkpt>
      <trkpt lat="47.56635" lon="-0.44897">
        <ele>16.7</ele>
        <time>2012-03-25T07:16:44Z</time>
      </trkpt>
      <trkpt lat="47.56633" lon="-0.44881">
        <ele>16.8</ele>
        <time>2012-03-25T07:16:46Z</time>
      </trkpt>
      <trkpt lat="47.56629" lon="-0.44866">
        <ele>16.9</ele>
        <time>2012-03-25T07:16:48Z</time>
      </trkpt>
      <trkpt lat="47.56626" lon="-0.44852">
        <ele>16.9</ele>
        <time>2012-03-25T07:16:50Z</time>
      </trkpt>
      <trkpt lat="47.56621" lon="-0.44837">
        <ele>16.9</ele>
        <time>2012-03-25T07:16:52Z</time>
      </trkpt>
      <trkpt lat="47.56614" lon="-0.44824">
        <ele>16.9</ele>
        <time>2012-03-25T07:16:54Z</time>
      </trkpt>
      <trkpt lat="47.56608" lon="-0.4481">
        <ele>16.9</ele>
        <time>2012-03-25T07:16:56Z</time>
      </trkpt>
      <trkpt lat="47.56601" lon="-0.44798">
        <ele>16.9</ele>
        <time>2012-03-25T07:16:58Z</time>
      </trkpt>
      <trkpt lat="47.56594" lon="-0.44786">
        <ele>17</ele>
        <time>2012-03-25T07:17:00Z</time>
      </trkpt>
      <trkpt lat="47.56588" lon="-0.44775">
        <ele>17</ele>
        <time>2012-03-25T07:17:02Z</time>
      </trkpt>
      <trkpt lat="47.56581" lon="-0.44762">
        <ele>17.1</ele>
        <time>2012-03-25T07:17:04Z</time>
      </trkpt>
      <trkpt lat="47.56575" lon="-0.44749">
        <ele>17.2</ele>
        <time>2012-03-25T07:17:06Z</time>
      </trkpt>
      <trkpt lat="47.56566" lon="-0.44736">
        <ele>17.3</ele>
        <time>2012-03-25T07:17:08Z</time>
      </trkpt>
      <trkpt lat="47.56558" lon="-0.44722">
        <ele>17.4</ele>
        <time>2012-03-25T07:17:10Z</time>
      </trkpt>
      <trkpt lat="47.5655" lon="-0.44708">
        <ele>17.5</ele>
        <time>2012-03-25T07:17:12Z</time>
      </trkpt>
      <trkpt lat="47.56544" lon="-0.44695">
        <ele>17.5</ele>
        <time>2012-03-25T07:17:14Z</time>
      </trkpt>
      <trkpt lat="47.5654" lon="-0.44683">
        <ele>17.7</ele>
        <time>2012-03-25T07:17:16Z</time>
      </trkpt>
      <trkpt lat="47.56534" lon="-0.44671">
        <ele>17.9</ele>
        <time>2012-03-25T07:17:18Z</time>
      </trkpt>
      <trkpt lat="47.5653" lon="-0.44656">
        <ele>18.1</ele>
        <time>2012-03-25T07:17:20Z</time>
      </trkpt>
      <trkpt lat="47.56526" lon="-0.4464">
        <ele>18.3</ele>
        <time>2012-03-25T07:17:22Z</time>
      </trkpt>
      <trkpt lat="47.56523" lon="-0.44624">
        <ele>18.5</ele>
        <time>2012-03-25T07:17:24Z</time>
      </trkpt>
      <trkpt lat="47.56519" lon="-0.44608">
        <ele>18.6</ele>
        <time>2012-03-25T07:17:26Z</time>
      </trkpt>
      <trkpt lat="47.56516" lon="-0.44593">
        <ele>18.8</ele>
        <time>2012-03-25T07:17:28Z</time>
      </trkpt>
      <trkpt lat="47.56513" lon="-0.44577">
        <ele>19</ele>
        <time>2012-03-25T07:17:30Z</time>
      </trkpt>
      <trkpt lat="47.5651" lon="-0.44562">
        <ele>19.2</ele>
        <time>2012-03-25T07:17:32Z</time>
      </trkpt>
      <trkpt lat="47.56506" lon="-0.44546">
        <ele>19.4</ele>
        <time>2012-03-25T07:17:34Z</time>
      </trkpt>
      <trkpt lat="47.56503" lon="-0.44531">
        <ele>19.5</ele>
        <time>2012-03-25T07:17:36Z</time>
      </trkpt>
      <trkpt lat="47.56501" lon="-0.44515">
        <ele>19.3</ele>
        <time>2012-03-25T07:17:38Z</time>
      </trkpt>
      <trkpt lat="47.56497" lon="-0.44499">
        <ele>19</ele>
        <time>2012-03-25T07:17:40Z</time>
      </trkpt>
      <trkpt lat="47.56494" lon="-0.44483">
        <ele>18.7</ele>
        <time>2012-03-25T07:17:42Z</time>
      </trkpt>
      <trkpt lat="47.5649" lon="-0.44468">
        <ele>18.5</ele>
        <time>2012-03-25T07:17:44Z</time>
      </trkpt>
      <trkpt lat="47.56485" lon="-0.44453">
        <ele>18.2</ele>
        <time>2012-03-25T07:17:46Z</time>
      </trkpt>
      <trkpt lat="47.56481" lon="-0.44439">
        <ele>17.8</ele>
        <time>2012-03-25T07:17:48Z</time>
      </trkpt>
      <trkpt lat="47.56476" lon="-0.44424">
        <ele>17.5</ele>
        <time>2012-03-25T07:17:50Z</time>
      </trkpt>
      <trkpt lat="47.5647" lon="-0.4441">
        <ele>17.1</ele>
        <time>2012-03-25T07:17:52Z</time>
      </trkpt>
      <trkpt lat="47.56466" lon="-0.44395">
        <ele>16.7</ele>
        <time>2012-03-25T07:17:54Z</time>
      </trkpt>
      <trkpt lat="47.56461" lon="-0.4438">
        <ele>16.4</ele>
        <time>2012-03-25T07:17:56Z</time>
      </trkpt>
      <trkpt lat="47.56457" lon="-0.44365">
        <ele>16</ele>
        <time>2012-03-25T07:17:58Z</time>
      </trkpt>
      <trkpt lat="47.56453" lon="-0.4435">
        <ele>16</ele>
        <time>2012-03-25T07:18:00Z</time>
      </trkpt>
      <trkpt lat="47.5645" lon="-0.44335">
        <ele>16</ele>
        <time>2012-03-25T07:18:02Z</time>
      </trkpt>
      <trkpt lat="47.56446" lon="-0.44319">
        <ele>16</ele>
        <time>2012-03-25T07:18:04Z</time>
      </trkpt>
      <trkpt lat="47.56443" lon="-0.44304">
        <ele>16</ele>
        <time>2012-03-25T07:18:06Z</time>
      </trkpt>
      <trkpt lat="47.5644" lon="-0.44289">
        <ele>16</ele>
        <time>2012-03-25T07:18:08Z</time>
      </trkpt>
      <trkpt lat="47.56439" lon="-0.44272">
        <ele>16.1</ele>
        <time>2012-03-25T07:18:10Z</time>
      </trkpt>
      <trkpt lat="47.56439" lon="-0.44256">
        <ele>16.2</ele>
        <time>2012-03-25T07:18:12Z</time>
      </trkpt>
      <trkpt lat="47.56438" lon="-0.4424">
        <ele>16.3</ele>
        <time>2012-03-25T07:18:14Z</time>
      </trkpt>
      <trkpt lat="47.56437" lon="-0.44224">
        <ele>16.4</ele>
        <time>2012-03-25T07:18:16Z</time>
      </trkpt>
      <trkpt lat="47.56437" lon="-0.44208">
        <ele>16.5</ele>
        <time>2012-03-25T07:18:18Z</time>
      </trkpt>
      <trkpt lat="47.56439" lon="-0.44193">
        <ele>16.6</ele>
        <time>2012-03-25T07:18:20Z</time>
      </trkpt>
      <trkpt lat="47.5644" lon="-0.44178">
        <ele>16.8</ele>
        <time>2012-03-25T07:18:22Z</time>
      </trkpt>
      <trkpt lat="47.56442" lon="-0.44164">
        <ele>17</ele>
        <time>2012-03-25T07:18:24Z</time>
      </trkpt>
      <trkpt lat="47.56444" lon="-0.4415">
        <ele>17.2</ele>
        <time>2012-03-25T07:18:26Z</time>
      </trkpt>
      <trkpt lat="47.56446" lon="-0.44135">
        <ele>17.4</ele>
        <time>2012-03-25T07:18:28Z</time>
      </trkpt>
      <trkpt lat="47.56448" lon="-0.4412">
        <ele>17.5</ele>
        <time>2012-03-25T07:18:30Z</time>
      </trkpt>
      <trkpt lat="47.56449" lon="-0.44106">
        <ele>17.6</ele>
        <time>2012-03-25T07:18:32Z</time>
      </trkpt>
      <trkpt lat="47.56448" lon="-0.44092">
        <ele>17.9</ele>
        <time>2012-03-25T07:18:34Z</time>
      </trkpt>
      <trkpt lat="47.56444" lon="-0.44079">
        <ele>18.2</ele>
        <time>2012-03-25T07:18:36Z</time>
      </trkpt>
      <trkpt lat="47.56437" lon="-0.44067">
        <ele>18.5</ele>
        <time>2012-03-25T07:18:38Z</time>
      </trkpt>
      <trkpt lat="47.56429" lon="-0.44056">
        <ele>18.7</ele>
        <time>2012-03-25T07:18:40Z</time>
      </trkpt>
      <trkpt lat="47.56422" lon="-0.44045">
        <ele>18.9</ele>
        <time>2012-03-25T07:18:42Z</time>
      </trkpt>
      <trkpt lat="47.56415" lon="-0.44037">
        <ele>19.1</ele>
        <time>2012-03-25T07:18:44Z</time>
      </trkpt>
      <trkpt lat="47.56407" lon="-0.44029">
        <ele>19.3</ele>
        <time>2012-03-25T07:18:46Z</time>
      </trkpt>
      <trkpt lat="47.56397" lon="-0.44022">
        <ele>19.5</ele>
        <time>2012-03-25T07:18:48Z</time>
      </trkpt>
      <trkpt lat="47.56388" lon="-0.44013">
        <ele>19.7</ele>
        <time>2012-03-25T07:18:50Z</time>
      </trkpt>
      <trkpt lat="47.56381" lon="-0.44005">
        <ele>20</ele>
        <time>2012-03-25T07:18:52Z</time>
      </trkpt>
      <trkpt lat="47.56371" lon="-0.43991">
        <ele>20.3</ele>
        <time>2012-03-25T07:18:55Z</time>
      </trkpt>
      <trkpt lat="47.56365" lon="-0.43978">
        <ele>20.4</ele>
        <time>2012-03-25T07:18:57Z</time>
      </trkpt>
      <trkpt lat="47.56361" lon="-0.43964">
        <ele>20.5</ele>
        <time>2012-03-25T07:18:59Z</time>
      </trkpt>
      <trkpt lat="47.56356" lon="-0.43949">
        <ele>20.5</ele>
        <time>2012-03-25T07:19:01Z</time>
      </trkpt>
      <trkpt lat="47.56352" lon="-0.43933">
        <ele>20.6</ele>
        <time>2012-03-25T07:19:03Z</time>
      </trkpt>
      <trkpt lat="47.56348" lon="-0.43921">
        <ele>20.6</ele>
        <time>2012-03-25T07:19:05Z</time>
      </trkpt>
      <trkpt lat="47.56345" lon="-0.43908">
        <ele>20.6</ele>
        <time>2012-03-25T07:19:07Z</time>
      </trkpt>
      <trkpt lat="47.5634" lon="-0.43895">
        <ele>20.6</ele>
        <time>2012-03-25T07:19:09Z</time>
      </trkpt>
      <trkpt lat="47.56334" lon="-0.43881">
        <ele>20.6</ele>
        <time>2012-03-25T07:19:11Z</time>
      </trkpt>
      <trkpt lat="47.56329" lon="-0.43864">
        <ele>20.5</ele>
        <time>2012-03-25T07:19:13Z</time>
      </trkpt>
      <trkpt lat="47.56323" lon="-0.43849">
        <ele>20.2</ele>
        <time>2012-03-25T07:19:15Z</time>
      </trkpt>
      <trkpt lat="47.56322" lon="-0.43835">
        <ele>19.8</ele>
        <time>2012-03-25T07:19:17Z</time>
      </trkpt>
      <trkpt lat="47.56318" lon="-0.43823">
        <ele>19.5</ele>
        <time>2012-03-25T07:19:19Z</time>
      </trkpt>
      <trkpt lat="47.56313" lon="-0.43808">
        <ele>19.4</ele>
        <time>2012-03-25T07:19:21Z</time>
      </trkpt>
      <trkpt lat="47.5631" lon="-0.43793">
        <ele>19.3</ele>
        <time>2012-03-25T07:19:23Z</time>
      </trkpt>
      <trkpt lat="47.56305" lon="-0.43777">
        <ele>19.2</ele>
        <time>2012-03-25T07:19:25Z</time>
      </trkpt>
      <trkpt lat="47.563" lon="-0.43763">
        <ele>19</ele>
        <time>2012-03-25T07:19:27Z</time>
      </trkpt>
      <trkpt lat="47.56296" lon="-0.43748">
        <ele>18.8</ele>
        <time>2012-03-25T07:19:29Z</time>
      </trkpt>
      <trkpt lat="47.56292" lon="-0.43732">
        <ele>18.6</ele>
        <time>2012-03-25T07:19:31Z</time>
      </trkpt>
      <trkpt lat="47.56288" lon="-0.43717">
        <ele>18.5</ele>
        <time>2012-03-25T07:19:33Z</time>
      </trkpt>
      <trkpt lat="47.56284" lon="-0.43699">
        <ele>18.3</ele>
        <time>2012-03-25T07:19:35Z</time>
      </trkpt>
      <trkpt lat="47.56283" lon="-0.43682">
        <ele>18.3</ele>
        <time>2012-03-25T07:19:37Z</time>
      </trkpt>
      <trkpt lat="47.56282" lon="-0.43666">
        <ele>18.3</ele>
        <time>2012-03-25T07:19:39Z</time>
      </trkpt>
      <trkpt lat="47.56282" lon="-0.43649">
        <ele>18.3</ele>
        <time>2012-03-25T07:19:41Z</time>
      </trkpt>
      <trkpt lat="47.56282" lon="-0.43633">
        <ele>18</ele>
        <time>2012-03-25T07:19:43Z</time>
      </trkpt>
      <trkpt lat="47.56282" lon="-0.43617">
        <ele>17.7</ele>
        <time>2012-03-25T07:19:45Z</time>
      </trkpt>
      <trkpt lat="47.56282" lon="-0.43602">
        <ele>17.5</ele>
        <time>2012-03-25T07:19:47Z</time>
      </trkpt>
      <trkpt lat="47.56282" lon="-0.43587">
        <ele>17.5</ele>
        <time>2012-03-25T07:19:49Z</time>
      </trkpt>
      <trkpt lat="47.56282" lon="-0.43572">
        <ele>17.5</ele>
        <time>2012-03-25T07:19:51Z</time>
      </trkpt>
      <trkpt lat="47.56281" lon="-0.43554">
        <ele>17.5</ele>
        <time>2012-03-25T07:19:53Z</time>
      </trkpt>
      <trkpt lat="47.5628" lon="-0.43537">
        <ele>17.5</ele>
        <time>2012-03-25T07:19:55Z</time>
      </trkpt>
      <trkpt lat="47.56278" lon="-0.43521">
        <ele>17.7</ele>
        <time>2012-03-25T07:19:57Z</time>
      </trkpt>
      <trkpt lat="47.56275" lon="-0.43504">
        <ele>18</ele>
        <time>2012-03-25T07:19:59Z</time>
      </trkpt>
      <trkpt lat="47.56273" lon="-0.43489">
        <ele>18.3</ele>
        <time>2012-03-25T07:20:01Z</time>
      </trkpt>
      <trkpt lat="47.56272" lon="-0.43475">
        <ele>18.5</ele>
        <time>2012-03-25T07:20:03Z</time>
      </trkpt>
      <trkpt lat="47.56269" lon="-0.43458">
        <ele>18.8</ele>
        <time>2012-03-25T07:20:05Z</time>
      </trkpt>
      <trkpt lat="47.56267" lon="-0.43441">
        <ele>19.3</ele>
        <time>2012-03-25T07:20:07Z</time>
      </trkpt>
      <trkpt lat="47.56265" lon="-0.43424">
        <ele>19.6</ele>
        <time>2012-03-25T07:20:09Z</time>
      </trkpt>
      <trkpt lat="47.56263" lon="-0.43406">
        <ele>20</ele>
        <time>2012-03-25T07:20:11Z</time>
      </trkpt>
      <trkpt lat="47.56262" lon="-0.4339">
        <ele>20.4</ele>
        <time>2012-03-25T07:20:13Z</time>
      </trkpt>
      <trkpt lat="47.5626" lon="-0.43373">
        <ele>20.8</ele>
        <time>2012-03-25T07:20:15Z</time>
      </trkpt>
      <trkpt lat="47.56259" lon="-0.43355">
        <ele>21.3</ele>
        <time>2012-03-25T07:20:17Z</time>
      </trkpt>
      <trkpt lat="47.56257" lon="-0.43338">
        <ele>21.5</ele>
        <time>2012-03-25T07:20:19Z</time>
      </trkpt>
      <trkpt lat="47.56256" lon="-0.4332">
        <ele>21.8</ele>
        <time>2012-03-25T07:20:21Z</time>
      </trkpt>
      <trkpt lat="47.56256" lon="-0.43304">
        <ele>22.1</ele>
        <time>2012-03-25T07:20:23Z</time>
      </trkpt>
      <trkpt lat="47.56257" lon="-0.43286">
        <ele>22.4</ele>
        <time>2012-03-25T07:20:25Z</time>
      </trkpt>
      <trkpt lat="47.56257" lon="-0.4327">
        <ele>22.6</ele>
        <time>2012-03-25T07:20:27Z</time>
      </trkpt>
      <trkpt lat="47.56257" lon="-0.43255">
        <ele>22.7</ele>
        <time>2012-03-25T07:20:29Z</time>
      </trkpt>
      <trkpt lat="47.56257" lon="-0.43238">
        <ele>22.8</ele>
        <time>2012-03-25T07:20:31Z</time>
      </trkpt>
      <trkpt lat="47.56256" lon="-0.43222">
        <ele>22.9</ele>
        <time>2012-03-25T07:20:33Z</time>
      </trkpt>
      <trkpt lat="47.56256" lon="-0.43206">
        <ele>23</ele>
        <time>2012-03-25T07:20:35Z</time>
      </trkpt>
      <trkpt lat="47.56256" lon="-0.4319">
        <ele>23</ele>
        <time>2012-03-25T07:20:37Z</time>
      </trkpt>
      <trkpt lat="47.56255" lon="-0.43175">
        <ele>23</ele>
        <time>2012-03-25T07:20:39Z</time>
      </trkpt>
      <trkpt lat="47.56254" lon="-0.43161">
        <ele>23</ele>
        <time>2012-03-25T07:20:41Z</time>
      </trkpt>
      <trkpt lat="47.56254" lon="-0.43148">
        <ele>23</ele>
        <time>2012-03-25T07:20:43Z</time>
      </trkpt>
      <trkpt lat="47.56254" lon="-0.43132">
        <ele>22.8</ele>
        <time>2012-03-25T07:20:46Z</time>
      </trkpt>
      <trkpt lat="47.56254" lon="-0.43118">
        <ele>22.6</ele>
        <time>2012-03-25T07:20:49Z</time>
      </trkpt>
      <trkpt lat="47.56263" lon="-0.43117">
        <ele>22.5</ele>
        <time>2012-03-25T07:20:52Z</time>
      </trkpt>
      <trkpt lat="47.56275" lon="-0.43117">
        <ele>22.3</ele>
        <time>2012-03-25T07:20:54Z</time>
      </trkpt>
      <trkpt lat="47.56287" lon="-0.43116">
        <ele>22.1</ele>
        <time>2012-03-25T07:20:56Z</time>
      </trkpt>
      <trkpt lat="47.563" lon="-0.43115">
        <ele>21.9</ele>
        <time>2012-03-25T07:20:58Z</time>
      </trkpt>
      <trkpt lat="47.56311" lon="-0.43114">
        <ele>21.7</ele>
        <time>2012-03-25T07:21:00Z</time>
      </trkpt>
      <trkpt lat="47.56323" lon="-0.43113">
        <ele>21.5</ele>
        <time>2012-03-25T07:21:02Z</time>
      </trkpt>
      <trkpt lat="47.56335" lon="-0.43114">
        <ele>21.4</ele>
        <time>2012-03-25T07:21:04Z</time>
      </trkpt>
      <trkpt lat="47.56345" lon="-0.43115">
        <ele>21.2</ele>
        <time>2012-03-25T07:21:06Z</time>
      </trkpt>
      <trkpt lat="47.56352" lon="-0.43124">
        <ele>20.6</ele>
        <time>2012-03-25T07:21:08Z</time>
      </trkpt>
      <trkpt lat="47.56354" lon="-0.43139">
        <ele>20.3</ele>
        <time>2012-03-25T07:21:10Z</time>
      </trkpt>
      <trkpt lat="47.56354" lon="-0.43155">
        <ele>19.9</ele>
        <time>2012-03-25T07:21:12Z</time>
      </trkpt>
      <trkpt lat="47.5636" lon="-0.43165">
        <ele>19.5</ele>
        <time>2012-03-25T07:21:14Z</time>
      </trkpt>
      <trkpt lat="47.56371" lon="-0.43167">
        <ele>19.2</ele>
        <time>2012-03-25T07:21:16Z</time>
      </trkpt>
      <trkpt lat="47.56382" lon="-0.43167">
        <ele>18.8</ele>
        <time>2012-03-25T07:21:18Z</time>
      </trkpt>
      <trkpt lat="47.56393" lon="-0.43166">
        <ele>18.5</ele>
        <time>2012-03-25T07:21:20Z</time>
      </trkpt>
      <trkpt lat="47.56404" lon="-0.43165">
        <ele>18.1</ele>
        <time>2012-03-25T07:21:22Z</time>
      </trkpt>
      <trkpt lat="47.56415" lon="-0.43162">
        <ele>17.7</ele>
        <time>2012-03-25T07:21:24Z</time>
      </trkpt>
      <trkpt lat="47.56426" lon="-0.4316">
        <ele>17.4</ele>
        <time>2012-03-25T07:21:26Z</time>
      </trkpt>
      <trkpt lat="47.5644" lon="-0.43158">
        <ele>17</ele>
        <time>2012-03-25T07:21:28Z</time>
      </trkpt>
      <trkpt lat="47.56452" lon="-0.43157">
        <ele>17.2</ele>
        <time>2012-03-25T07:21:30Z</time>
      </trkpt>
      <trkpt lat="47.56463" lon="-0.43157">
        <ele>17.4</ele>
        <time>2012-03-25T07:21:32Z</time>
      </trkpt>
      <trkpt lat="47.56472" lon="-0.43159">
        <ele>17.5</ele>
        <time>2012-03-25T07:21:36Z</time>
      </trkpt>
      <trkpt lat="47.56481" lon="-0.43152">
        <ele>17.7</ele>
        <time>2012-03-25T07:21:41Z</time>
      </trkpt>
      <trkpt lat="47.56484" lon="-0.43138">
        <ele>17.9</ele>
        <time>2012-03-25T07:21:43Z</time>
      </trkpt>
      <trkpt lat="47.56487" lon="-0.43119">
        <ele>18.1</ele>
        <time>2012-03-25T07:21:46Z</time>
      </trkpt>
      <trkpt lat="47.56488" lon="-0.43106">
        <ele>18.3</ele>
        <time>2012-03-25T07:21:48Z</time>
      </trkpt>
      <trkpt lat="47.56489" lon="-0.43091">
        <ele>18.5</ele>
        <time>2012-03-25T07:21:50Z</time>
      </trkpt>
      <trkpt lat="47.56488" lon="-0.43071">
        <ele>18.6</ele>
        <time>2012-03-25T07:21:53Z</time>
      </trkpt>
      <trkpt lat="47.56488" lon="-0.43051">
        <ele>18.8</ele>
        <time>2012-03-25T07:21:56Z</time>
      </trkpt>
      <trkpt lat="47.56487" lon="-0.43036">
        <ele>18.9</ele>
        <time>2012-03-25T07:21:58Z</time>
      </trkpt>
      <trkpt lat="47.56487" lon="-0.43017">
        <ele>18.8</ele>
        <time>2012-03-25T07:22:01Z</time>
      </trkpt>
      <trkpt lat="47.56488" lon="-0.43001">
        <ele>18.7</ele>
        <time>2012-03-25T07:22:04Z</time>
      </trkpt>
      <trkpt lat="47.56488" lon="-0.42982">
        <ele>18.6</ele>
        <time>2012-03-25T07:22:07Z</time>
      </trkpt>
      <trkpt lat="47.56488" lon="-0.42963">
        <ele>18.5</ele>
        <time>2012-03-25T07:22:10Z</time>
      </trkpt>
      <trkpt lat="47.5649" lon="-0.42946">
        <ele>18.5</ele>
        <time>2012-03-25T07:22:13Z</time>
      </trkpt>
      <trkpt lat="47.56492" lon="-0.42933">
        <ele>18.2</ele>
        <time>2012-03-25T07:22:16Z</time>
      </trkpt>
      <trkpt lat="47.56491" lon="-0.42915">
        <ele>17.9</ele>
        <time>2012-03-25T07:22:20Z</time>
      </trkpt>
      <trkpt lat="47.56487" lon="-0.42896">
        <ele>17.6</ele>
        <time>2012-03-25T07:22:23Z</time>
      </trkpt>
      <trkpt lat="47.56483" lon="-0.42883">
        <ele>17.4</ele>
        <time>2012-03-25T07:22:25Z</time>
      </trkpt>
      <trkpt lat="47.56479" lon="-0.4287">
        <ele>17.1</ele>
        <time>2012-03-25T07:22:27Z</time>
      </trkpt>
      <trkpt lat="47.56475" lon="-0.42857">
        <ele>17</ele>
        <time>2012-03-25T07:22:29Z</time>
      </trkpt>
      <trkpt lat="47.56472" lon="-0.42844">
        <ele>16.9</ele>
        <time>2012-03-25T07:22:31Z</time>
      </trkpt>
      <trkpt lat="47.56469" lon="-0.42831">
        <ele>16.9</ele>
        <time>2012-03-25T07:22:33Z</time>
      </trkpt>
      <trkpt lat="47.56467" lon="-0.42817">
        <ele>16.9</ele>
        <time>2012-03-25T07:22:35Z</time>
      </trkpt>
      <trkpt lat="47.56464" lon="-0.42798">
        <ele>16.9</ele>
        <time>2012-03-25T07:22:38Z</time>
      </trkpt>
      <trkpt lat="47.56462" lon="-0.42779">
        <ele>16.8</ele>
        <time>2012-03-25T07:22:41Z</time>
      </trkpt>
      <trkpt lat="47.5646" lon="-0.4276">
        <ele>16.9</ele>
        <time>2012-03-25T07:22:44Z</time>
      </trkpt>
      <trkpt lat="47.56458" lon="-0.42741">
        <ele>17</ele>
        <time>2012-03-25T07:22:47Z</time>
      </trkpt>
      <trkpt lat="47.56456" lon="-0.42723">
        <ele>17.1</ele>
        <time>2012-03-25T07:22:50Z</time>
      </trkpt>
      <trkpt lat="47.56453" lon="-0.42706">
        <ele>17.2</ele>
        <time>2012-03-25T07:22:53Z</time>
      </trkpt>
      <trkpt lat="47.5645" lon="-0.42689">
        <ele>17.3</ele>
        <time>2012-03-25T07:22:56Z</time>
      </trkpt>
      <trkpt lat="47.56449" lon="-0.42673">
        <ele>17.3</ele>
        <time>2012-03-25T07:22:59Z</time>
      </trkpt>
      <trkpt lat="47.56448" lon="-0.42659">
        <ele>17.3</ele>
        <time>2012-03-25T07:23:02Z</time>
      </trkpt>
      <trkpt lat="47.56445" lon="-0.42643">
        <ele>17.2</ele>
        <time>2012-03-25T07:23:05Z</time>
      </trkpt>
      <trkpt lat="47.56442" lon="-0.42625">
        <ele>17.1</ele>
        <time>2012-03-25T07:23:08Z</time>
      </trkpt>
      <trkpt lat="47.56439" lon="-0.42611">
        <ele>17</ele>
        <time>2012-03-25T07:23:10Z</time>
      </trkpt>
      <trkpt lat="47.56435" lon="-0.42597">
        <ele>17.2</ele>
        <time>2012-03-25T07:23:12Z</time>
      </trkpt>
      <trkpt lat="47.56429" lon="-0.42579">
        <ele>17.4</ele>
        <time>2012-03-25T07:23:15Z</time>
      </trkpt>
      <trkpt lat="47.56422" lon="-0.42563">
        <ele>17.5</ele>
        <time>2012-03-25T07:23:18Z</time>
      </trkpt>
      <trkpt lat="47.56416" lon="-0.42548">
        <ele>17.7</ele>
        <time>2012-03-25T07:23:21Z</time>
      </trkpt>
      <trkpt lat="47.56407" lon="-0.42535">
        <ele>17.9</ele>
        <time>2012-03-25T07:23:24Z</time>
      </trkpt>
      <trkpt lat="47.56398" lon="-0.42532">
        <ele>18.1</ele>
        <time>2012-03-25T07:23:26Z</time>
      </trkpt>
      <trkpt lat="47.56389" lon="-0.42532">
        <ele>18.3</ele>
        <time>2012-03-25T07:23:28Z</time>
      </trkpt>
      <trkpt lat="47.56378" lon="-0.42533">
        <ele>18.5</ele>
        <time>2012-03-25T07:23:30Z</time>
      </trkpt>
      <trkpt lat="47.56368" lon="-0.42534">
        <ele>18.6</ele>
        <time>2012-03-25T07:23:32Z</time>
      </trkpt>
      <trkpt lat="47.56357" lon="-0.42534">
        <ele>18.9</ele>
        <time>2012-03-25T07:23:34Z</time>
      </trkpt>
      <trkpt lat="47.56347" lon="-0.42535">
        <ele>19.2</ele>
        <time>2012-03-25T07:23:36Z</time>
      </trkpt>
      <trkpt lat="47.56336" lon="-0.42536">
        <ele>19.3</ele>
        <time>2012-03-25T07:23:38Z</time>
      </trkpt>
      <trkpt lat="47.56325" lon="-0.42538">
        <ele>19.4</ele>
        <time>2012-03-25T07:23:40Z</time>
      </trkpt>
      <trkpt lat="47.56315" lon="-0.4254">
        <ele>19.5</ele>
        <time>2012-03-25T07:23:42Z</time>
      </trkpt>
      <trkpt lat="47.56305" lon="-0.42531">
        <ele>19.5</ele>
        <time>2012-03-25T07:23:45Z</time>
      </trkpt>
      <trkpt lat="47.56302" lon="-0.42518">
        <ele>19.6</ele>
        <time>2012-03-25T07:23:48Z</time>
      </trkpt>
      <trkpt lat="47.563" lon="-0.42504">
        <ele>19.7</ele>
        <time>2012-03-25T07:23:50Z</time>
      </trkpt>
      <trkpt lat="47.56298" lon="-0.42483">
        <ele>19.8</ele>
        <time>2012-03-25T07:23:53Z</time>
      </trkpt>
      <trkpt lat="47.56295" lon="-0.42465">
        <ele>19.9</ele>
        <time>2012-03-25T07:23:55Z</time>
      </trkpt>
      <trkpt lat="47.56294" lon="-0.42451">
        <ele>20</ele>
        <time>2012-03-25T07:23:57Z</time>
      </trkpt>
      <trkpt lat="47.5629" lon="-0.42431">
        <ele>20</ele>
        <time>2012-03-25T07:24:00Z</time>
      </trkpt>
      <trkpt lat="47.56284" lon="-0.42419">
        <ele>20</ele>
        <time>2012-03-25T07:24:02Z</time>
      </trkpt>
      <trkpt lat="47.56276" lon="-0.42406">
        <ele>20</ele>
        <time>2012-03-25T07:24:05Z</time>
      </trkpt>
      <trkpt lat="47.56267" lon="-0.42401">
        <ele>20</ele>
        <time>2012-03-25T07:24:21Z</time>
      </trkpt>
      <trkpt lat="47.5626" lon="-0.42392">
        <ele>20</ele>
        <time>2012-03-25T07:24:25Z</time>
      </trkpt>
      <trkpt lat="47.56251" lon="-0.42382">
        <ele>20</ele>
        <time>2012-03-25T07:24:28Z</time>
      </trkpt>
      <trkpt lat="47.56245" lon="-0.42367">
        <ele>20</ele>
        <time>2012-03-25T07:24:31Z</time>
      </trkpt>
      <trkpt lat="47.56238" lon="-0.4235">
        <ele>20</ele>
        <time>2012-03-25T07:24:34Z</time>
      </trkpt>
      <trkpt lat="47.56233" lon="-0.42338">
        <ele>20</ele>
        <time>2012-03-25T07:24:36Z</time>
      </trkpt>
      <trkpt lat="47.56228" lon="-0.42324">
        <ele>20</ele>
        <time>2012-03-25T07:24:38Z</time>
      </trkpt>
      <trkpt lat="47.56227" lon="-0.4231">
        <ele>20</ele>
        <time>2012-03-25T07:24:40Z</time>
      </trkpt>
      <trkpt lat="47.56232" lon="-0.42297">
        <ele>20</ele>
        <time>2012-03-25T07:24:45Z</time>
      </trkpt>
      <trkpt lat="47.5624" lon="-0.42288">
        <ele>20</ele>
        <time>2012-03-25T07:24:49Z</time>
      </trkpt>
      <trkpt lat="47.5625" lon="-0.42286">
        <ele>20</ele>
        <time>2012-03-25T07:27:24Z</time>
      </trkpt>
      <trkpt lat="47.56251" lon="-0.42284">
        <ele>20</ele>
        <time>2012-03-25T07:28:52Z</time>
      </trkpt>
    </trkseg>
  </trk>
</gpx>